<?xml version="1.0" encoding="UTF-8" ?>
<gpx version="1.1" 
creator="Memory-Map 6.4.3.1278 https://memory-map.com"
 xmlns:xsi="http://www.w3.org/2001/XMLSchema-instance"
 xmlns="http://www.topografix.com/GPX/1/1"
 xmlns:xstyle="http://www.topografix.com/GPX/gpx_style/0/2"
 xmlns:xgarmin="http://www.garmin.com/xmlschemas/GpxExtensions/v3"
 xsi:schemaLocation="http://www.topografix.com/GPX/1/1 http://www.topografix.com/GPX/1/1/gpx.xsd http://www.topografix.com/GPX/gpx_style/0/2 http://www.topografix.com/GPX/gpx_style/0/2/gpx_style.xsd http://www.garmin.com/xmlschemas/GpxExtensions/v3 https://www8.garmin.com/xmlschemas/GpxExtensionsv3.xsd">
<trk>
<name>1438 Cap du Teil</name>
<src>mmid:5BFAC5533F4EBAE0</src>
<type>Track</type>
<extensions> <xstyle:line>
<xstyle:color>ff8000</xstyle:color>
<xstyle:opacity>1.0</xstyle:opacity>
<xstyle:width>2.0</xstyle:width>
<xstyle:pattern>Solid</xstyle:pattern>
</xstyle:line></extensions>
<trkseg>
<trkpt lat="43.0394720000" lon="0.6455900000"><ele>483</ele><time>2025-12-07T06:59:16Z</time></trkpt>
<trkpt lat="43.0394970000" lon="0.6456420000"><ele>483</ele><time>2025-12-07T06:59:18Z</time></trkpt>
<trkpt lat="43.0395100000" lon="0.6457270000"><ele>483</ele><time>2025-12-07T06:59:19Z</time></trkpt>
<trkpt lat="43.0395320000" lon="0.6457450000"><ele>483</ele><time>2025-12-07T06:59:20Z</time></trkpt>
<trkpt lat="43.0395620000" lon="0.6457580000"><ele>483</ele><time>2025-12-07T06:59:21Z</time></trkpt>
<trkpt lat="43.0395620000" lon="0.6457350000"><ele>483</ele><time>2025-12-07T06:59:24Z</time></trkpt>
<trkpt lat="43.0395650000" lon="0.6457070000"><ele>483</ele><time>2025-12-07T06:59:27Z</time></trkpt>
<trkpt lat="43.0395470000" lon="0.6457100000"><ele>483</ele><time>2025-12-07T06:59:46Z</time></trkpt>
<trkpt lat="43.0395470000" lon="0.6457570000"><ele>483</ele><time>2025-12-07T07:00:17Z</time></trkpt>
<trkpt lat="43.0395420000" lon="0.6457920000"><ele>482</ele><time>2025-12-07T07:00:20Z</time></trkpt>
<trkpt lat="43.0395350000" lon="0.6458300000"><ele>482</ele><time>2025-12-07T07:00:22Z</time></trkpt>
<trkpt lat="43.0395450000" lon="0.6458670000"><ele>483</ele><time>2025-12-07T07:00:24Z</time></trkpt>
<trkpt lat="43.0395620000" lon="0.6459020000"><ele>483</ele><time>2025-12-07T07:00:26Z</time></trkpt>
<trkpt lat="43.0395820000" lon="0.6459250000"><ele>483</ele><time>2025-12-07T07:00:28Z</time></trkpt>
<trkpt lat="43.0395820000" lon="0.6459570000"><ele>482</ele><time>2025-12-07T07:00:30Z</time></trkpt>
<trkpt lat="43.0395850000" lon="0.6459850000"><ele>483</ele><time>2025-12-07T07:00:32Z</time></trkpt>
<trkpt lat="43.0395920000" lon="0.6460120000"><ele>483</ele><time>2025-12-07T07:00:34Z</time></trkpt>
<trkpt lat="43.0395920000" lon="0.6460450000"><ele>483</ele><time>2025-12-07T07:00:36Z</time></trkpt>
<trkpt lat="43.0395920000" lon="0.6460770000"><ele>483</ele><time>2025-12-07T07:00:38Z</time></trkpt>
<trkpt lat="43.0395870000" lon="0.6461020000"><ele>483</ele><time>2025-12-07T07:00:41Z</time></trkpt>
<trkpt lat="43.0395970000" lon="0.6461230000"><ele>482</ele><time>2025-12-07T07:00:50Z</time></trkpt>
<trkpt lat="43.0396100000" lon="0.6461670000"><ele>482</ele><time>2025-12-07T07:00:52Z</time></trkpt>
<trkpt lat="43.0396120000" lon="0.6461920000"><ele>482</ele><time>2025-12-07T07:00:53Z</time></trkpt>
<trkpt lat="43.0396120000" lon="0.6462370000"><ele>482</ele><time>2025-12-07T07:00:55Z</time></trkpt>
<trkpt lat="43.0396170000" lon="0.6462770000"><ele>483</ele><time>2025-12-07T07:00:57Z</time></trkpt>
<trkpt lat="43.0396200000" lon="0.6463150000"><ele>483</ele><time>2025-12-07T07:00:59Z</time></trkpt>
<trkpt lat="43.0396220000" lon="0.6463420000"><ele>483</ele><time>2025-12-07T07:01:01Z</time></trkpt>
<trkpt lat="43.0396350000" lon="0.6463670000"><ele>483</ele><time>2025-12-07T07:01:03Z</time></trkpt>
<trkpt lat="43.0396420000" lon="0.6463970000"><ele>483</ele><time>2025-12-07T07:01:05Z</time></trkpt>
<trkpt lat="43.0396550000" lon="0.6464270000"><ele>483</ele><time>2025-12-07T07:01:07Z</time></trkpt>
<trkpt lat="43.0396700000" lon="0.6464600000"><ele>483</ele><time>2025-12-07T07:01:09Z</time></trkpt>
<trkpt lat="43.0396920000" lon="0.6464970000"><ele>483</ele><time>2025-12-07T07:01:11Z</time></trkpt>
<trkpt lat="43.0397050000" lon="0.6465320000"><ele>483</ele><time>2025-12-07T07:01:13Z</time></trkpt>
<trkpt lat="43.0397100000" lon="0.6465670000"><ele>483</ele><time>2025-12-07T07:01:15Z</time></trkpt>
<trkpt lat="43.0397070000" lon="0.6466020000"><ele>483</ele><time>2025-12-07T07:01:17Z</time></trkpt>
<trkpt lat="43.0397070000" lon="0.6466330000"><ele>483</ele><time>2025-12-07T07:01:19Z</time></trkpt>
<trkpt lat="43.0397020000" lon="0.6466670000"><ele>483</ele><time>2025-12-07T07:01:21Z</time></trkpt>
<trkpt lat="43.0397000000" lon="0.6467020000"><ele>483</ele><time>2025-12-07T07:01:23Z</time></trkpt>
<trkpt lat="43.0396950000" lon="0.6467330000"><ele>483</ele><time>2025-12-07T07:01:25Z</time></trkpt>
<trkpt lat="43.0396900000" lon="0.6467670000"><ele>483</ele><time>2025-12-07T07:01:27Z</time></trkpt>
<trkpt lat="43.0396950000" lon="0.6468030000"><ele>483</ele><time>2025-12-07T07:01:29Z</time></trkpt>
<trkpt lat="43.0397000000" lon="0.6468380000"><ele>483</ele><time>2025-12-07T07:01:31Z</time></trkpt>
<trkpt lat="43.0397020000" lon="0.6468720000"><ele>483</ele><time>2025-12-07T07:01:33Z</time></trkpt>
<trkpt lat="43.0397020000" lon="0.6469030000"><ele>483</ele><time>2025-12-07T07:01:35Z</time></trkpt>
<trkpt lat="43.0397050000" lon="0.6469420000"><ele>483</ele><time>2025-12-07T07:01:37Z</time></trkpt>
<trkpt lat="43.0397120000" lon="0.6469770000"><ele>483</ele><time>2025-12-07T07:01:39Z</time></trkpt>
<trkpt lat="43.0397100000" lon="0.6470130000"><ele>483</ele><time>2025-12-07T07:01:41Z</time></trkpt>
<trkpt lat="43.0397120000" lon="0.6470500000"><ele>483</ele><time>2025-12-07T07:01:43Z</time></trkpt>
<trkpt lat="43.0397070000" lon="0.6470850000"><ele>483</ele><time>2025-12-07T07:01:45Z</time></trkpt>
<trkpt lat="43.0396970000" lon="0.6471200000"><ele>483</ele><time>2025-12-07T07:01:47Z</time></trkpt>
<trkpt lat="43.0396900000" lon="0.6471520000"><ele>484</ele><time>2025-12-07T07:01:49Z</time></trkpt>
<trkpt lat="43.0396820000" lon="0.6471870000"><ele>484</ele><time>2025-12-07T07:01:51Z</time></trkpt>
<trkpt lat="43.0396770000" lon="0.6472220000"><ele>484</ele><time>2025-12-07T07:01:53Z</time></trkpt>
<trkpt lat="43.0396720000" lon="0.6472570000"><ele>484</ele><time>2025-12-07T07:01:55Z</time></trkpt>
<trkpt lat="43.0396670000" lon="0.6472900000"><ele>484</ele><time>2025-12-07T07:01:57Z</time></trkpt>
<trkpt lat="43.0396670000" lon="0.6473250000"><ele>484</ele><time>2025-12-07T07:01:59Z</time></trkpt>
<trkpt lat="43.0396750000" lon="0.6473570000"><ele>484</ele><time>2025-12-07T07:02:01Z</time></trkpt>
<trkpt lat="43.0396720000" lon="0.6473920000"><ele>484</ele><time>2025-12-07T07:02:03Z</time></trkpt>
<trkpt lat="43.0396770000" lon="0.6474180000"><ele>484</ele><time>2025-12-07T07:02:05Z</time></trkpt>
<trkpt lat="43.0396780000" lon="0.6474470000"><ele>484</ele><time>2025-12-07T07:02:07Z</time></trkpt>
<trkpt lat="43.0396770000" lon="0.6474720000"><ele>484</ele><time>2025-12-07T07:02:12Z</time></trkpt>
<trkpt lat="43.0396720000" lon="0.6475020000"><ele>484</ele><time>2025-12-07T07:02:14Z</time></trkpt>
<trkpt lat="43.0396700000" lon="0.6475400000"><ele>484</ele><time>2025-12-07T07:02:16Z</time></trkpt>
<trkpt lat="43.0396670000" lon="0.6475770000"><ele>484</ele><time>2025-12-07T07:02:18Z</time></trkpt>
<trkpt lat="43.0396700000" lon="0.6476150000"><ele>484</ele><time>2025-12-07T07:02:20Z</time></trkpt>
<trkpt lat="43.0396720000" lon="0.6476520000"><ele>484</ele><time>2025-12-07T07:02:22Z</time></trkpt>
<trkpt lat="43.0396770000" lon="0.6476880000"><ele>484</ele><time>2025-12-07T07:02:24Z</time></trkpt>
<trkpt lat="43.0396770000" lon="0.6477270000"><ele>484</ele><time>2025-12-07T07:02:26Z</time></trkpt>
<trkpt lat="43.0396750000" lon="0.6477620000"><ele>484</ele><time>2025-12-07T07:02:28Z</time></trkpt>
<trkpt lat="43.0396720000" lon="0.6477970000"><ele>484</ele><time>2025-12-07T07:02:30Z</time></trkpt>
<trkpt lat="43.0396720000" lon="0.6478320000"><ele>484</ele><time>2025-12-07T07:02:32Z</time></trkpt>
<trkpt lat="43.0396720000" lon="0.6478670000"><ele>484</ele><time>2025-12-07T07:02:34Z</time></trkpt>
<trkpt lat="43.0396750000" lon="0.6479000000"><ele>484</ele><time>2025-12-07T07:02:36Z</time></trkpt>
<trkpt lat="43.0396780000" lon="0.6479350000"><ele>484</ele><time>2025-12-07T07:02:38Z</time></trkpt>
<trkpt lat="43.0396820000" lon="0.6479700000"><ele>484</ele><time>2025-12-07T07:02:40Z</time></trkpt>
<trkpt lat="43.0396870000" lon="0.6480070000"><ele>485</ele><time>2025-12-07T07:02:42Z</time></trkpt>
<trkpt lat="43.0396870000" lon="0.6480420000"><ele>485</ele><time>2025-12-07T07:02:44Z</time></trkpt>
<trkpt lat="43.0396920000" lon="0.6480800000"><ele>485</ele><time>2025-12-07T07:02:46Z</time></trkpt>
<trkpt lat="43.0396920000" lon="0.6481170000"><ele>485</ele><time>2025-12-07T07:02:48Z</time></trkpt>
<trkpt lat="43.0396970000" lon="0.6481520000"><ele>485</ele><time>2025-12-07T07:02:50Z</time></trkpt>
<trkpt lat="43.0397120000" lon="0.6481920000"><ele>485</ele><time>2025-12-07T07:02:52Z</time></trkpt>
<trkpt lat="43.0397220000" lon="0.6482270000"><ele>485</ele><time>2025-12-07T07:02:54Z</time></trkpt>
<trkpt lat="43.0397270000" lon="0.6482620000"><ele>485</ele><time>2025-12-07T07:02:56Z</time></trkpt>
<trkpt lat="43.0397220000" lon="0.6482970000"><ele>485</ele><time>2025-12-07T07:02:58Z</time></trkpt>
<trkpt lat="43.0397170000" lon="0.6483320000"><ele>485</ele><time>2025-12-07T07:03:00Z</time></trkpt>
<trkpt lat="43.0397170000" lon="0.6483670000"><ele>485</ele><time>2025-12-07T07:03:02Z</time></trkpt>
<trkpt lat="43.0397070000" lon="0.6484020000"><ele>485</ele><time>2025-12-07T07:03:04Z</time></trkpt>
<trkpt lat="43.0397020000" lon="0.6484370000"><ele>485</ele><time>2025-12-07T07:03:06Z</time></trkpt>
<trkpt lat="43.0396970000" lon="0.6484720000"><ele>484</ele><time>2025-12-07T07:03:08Z</time></trkpt>
<trkpt lat="43.0396870000" lon="0.6485070000"><ele>485</ele><time>2025-12-07T07:03:10Z</time></trkpt>
<trkpt lat="43.0396820000" lon="0.6485380000"><ele>485</ele><time>2025-12-07T07:03:12Z</time></trkpt>
<trkpt lat="43.0396780000" lon="0.6485720000"><ele>485</ele><time>2025-12-07T07:03:14Z</time></trkpt>
<trkpt lat="43.0396750000" lon="0.6486070000"><ele>485</ele><time>2025-12-07T07:03:16Z</time></trkpt>
<trkpt lat="43.0396670000" lon="0.6486420000"><ele>485</ele><time>2025-12-07T07:03:18Z</time></trkpt>
<trkpt lat="43.0396620000" lon="0.6486720000"><ele>485</ele><time>2025-12-07T07:03:20Z</time></trkpt>
<trkpt lat="43.0396620000" lon="0.6487070000"><ele>485</ele><time>2025-12-07T07:03:22Z</time></trkpt>
<trkpt lat="43.0396600000" lon="0.6487420000"><ele>485</ele><time>2025-12-07T07:03:24Z</time></trkpt>
<trkpt lat="43.0396570000" lon="0.6487770000"><ele>486</ele><time>2025-12-07T07:03:26Z</time></trkpt>
<trkpt lat="43.0396520000" lon="0.6488070000"><ele>485</ele><time>2025-12-07T07:03:28Z</time></trkpt>
<trkpt lat="43.0396470000" lon="0.6488370000"><ele>485</ele><time>2025-12-07T07:03:30Z</time></trkpt>
<trkpt lat="43.0396400000" lon="0.6488670000"><ele>485</ele><time>2025-12-07T07:03:32Z</time></trkpt>
<trkpt lat="43.0396350000" lon="0.6489020000"><ele>485</ele><time>2025-12-07T07:03:34Z</time></trkpt>
<trkpt lat="43.0396320000" lon="0.6489370000"><ele>485</ele><time>2025-12-07T07:03:36Z</time></trkpt>
<trkpt lat="43.0396270000" lon="0.6489720000"><ele>485</ele><time>2025-12-07T07:03:38Z</time></trkpt>
<trkpt lat="43.0396200000" lon="0.6490020000"><ele>485</ele><time>2025-12-07T07:03:40Z</time></trkpt>
<trkpt lat="43.0396120000" lon="0.6490320000"><ele>485</ele><time>2025-12-07T07:03:42Z</time></trkpt>
<trkpt lat="43.0396070000" lon="0.6490570000"><ele>485</ele><time>2025-12-07T07:03:44Z</time></trkpt>
<trkpt lat="43.0396020000" lon="0.6490850000"><ele>485</ele><time>2025-12-07T07:03:46Z</time></trkpt>
<trkpt lat="43.0395970000" lon="0.6491200000"><ele>485</ele><time>2025-12-07T07:03:48Z</time></trkpt>
<trkpt lat="43.0395930000" lon="0.6491570000"><ele>486</ele><time>2025-12-07T07:03:50Z</time></trkpt>
<trkpt lat="43.0395850000" lon="0.6491900000"><ele>486</ele><time>2025-12-07T07:03:52Z</time></trkpt>
<trkpt lat="43.0395770000" lon="0.6492170000"><ele>486</ele><time>2025-12-07T07:03:54Z</time></trkpt>
<trkpt lat="43.0395670000" lon="0.6492520000"><ele>486</ele><time>2025-12-07T07:03:56Z</time></trkpt>
<trkpt lat="43.0395620000" lon="0.6492870000"><ele>486</ele><time>2025-12-07T07:03:58Z</time></trkpt>
<trkpt lat="43.0395570000" lon="0.6493220000"><ele>486</ele><time>2025-12-07T07:04:00Z</time></trkpt>
<trkpt lat="43.0395550000" lon="0.6493570000"><ele>486</ele><time>2025-12-07T07:04:02Z</time></trkpt>
<trkpt lat="43.0395620000" lon="0.6493970000"><ele>486</ele><time>2025-12-07T07:04:04Z</time></trkpt>
<trkpt lat="43.0395720000" lon="0.6494320000"><ele>486</ele><time>2025-12-07T07:04:06Z</time></trkpt>
<trkpt lat="43.0395700000" lon="0.6494670000"><ele>486</ele><time>2025-12-07T07:04:08Z</time></trkpt>
<trkpt lat="43.0395620000" lon="0.6495000000"><ele>486</ele><time>2025-12-07T07:04:10Z</time></trkpt>
<trkpt lat="43.0395520000" lon="0.6495320000"><ele>486</ele><time>2025-12-07T07:04:12Z</time></trkpt>
<trkpt lat="43.0395470000" lon="0.6495630000"><ele>486</ele><time>2025-12-07T07:04:14Z</time></trkpt>
<trkpt lat="43.0395400000" lon="0.6495980000"><ele>486</ele><time>2025-12-07T07:04:16Z</time></trkpt>
<trkpt lat="43.0395350000" lon="0.6496370000"><ele>486</ele><time>2025-12-07T07:04:18Z</time></trkpt>
<trkpt lat="43.0395300000" lon="0.6496700000"><ele>486</ele><time>2025-12-07T07:04:20Z</time></trkpt>
<trkpt lat="43.0395200000" lon="0.6496970000"><ele>486</ele><time>2025-12-07T07:04:22Z</time></trkpt>
<trkpt lat="43.0395120000" lon="0.6497300000"><ele>486</ele><time>2025-12-07T07:04:24Z</time></trkpt>
<trkpt lat="43.0395070000" lon="0.6497620000"><ele>487</ele><time>2025-12-07T07:04:26Z</time></trkpt>
<trkpt lat="43.0395020000" lon="0.6497950000"><ele>487</ele><time>2025-12-07T07:04:28Z</time></trkpt>
<trkpt lat="43.0395000000" lon="0.6498270000"><ele>487</ele><time>2025-12-07T07:04:30Z</time></trkpt>
<trkpt lat="43.0394920000" lon="0.6498620000"><ele>487</ele><time>2025-12-07T07:04:32Z</time></trkpt>
<trkpt lat="43.0394900000" lon="0.6498920000"><ele>487</ele><time>2025-12-07T07:04:34Z</time></trkpt>
<trkpt lat="43.0394970000" lon="0.6499250000"><ele>487</ele><time>2025-12-07T07:04:36Z</time></trkpt>
<trkpt lat="43.0395100000" lon="0.6499450000"><ele>487</ele><time>2025-12-07T07:04:38Z</time></trkpt>
<trkpt lat="43.0395220000" lon="0.6499620000"><ele>487</ele><time>2025-12-07T07:04:40Z</time></trkpt>
<trkpt lat="43.0395500000" lon="0.6499770000"><ele>487</ele><time>2025-12-07T07:04:58Z</time></trkpt>
<trkpt lat="43.0395770000" lon="0.6499870000"><ele>487</ele><time>2025-12-07T07:05:00Z</time></trkpt>
<trkpt lat="43.0396050000" lon="0.6500000000"><ele>487</ele><time>2025-12-07T07:05:02Z</time></trkpt>
<trkpt lat="43.0396350000" lon="0.6500080000"><ele>486</ele><time>2025-12-07T07:05:04Z</time></trkpt>
<trkpt lat="43.0396570000" lon="0.6500220000"><ele>486</ele><time>2025-12-07T07:05:06Z</time></trkpt>
<trkpt lat="43.0396770000" lon="0.6500400000"><ele>486</ele><time>2025-12-07T07:05:08Z</time></trkpt>
<trkpt lat="43.0396970000" lon="0.6500550000"><ele>485</ele><time>2025-12-07T07:05:10Z</time></trkpt>
<trkpt lat="43.0397150000" lon="0.6500600000"><ele>485</ele><time>2025-12-07T07:05:12Z</time></trkpt>
<trkpt lat="43.0397420000" lon="0.6500620000"><ele>485</ele><time>2025-12-07T07:05:14Z</time></trkpt>
<trkpt lat="43.0397700000" lon="0.6500630000"><ele>485</ele><time>2025-12-07T07:05:16Z</time></trkpt>
<trkpt lat="43.0398000000" lon="0.6500620000"><ele>484</ele><time>2025-12-07T07:05:18Z</time></trkpt>
<trkpt lat="43.0398250000" lon="0.6500520000"><ele>484</ele><time>2025-12-07T07:05:20Z</time></trkpt>
<trkpt lat="43.0398470000" lon="0.6500500000"><ele>484</ele><time>2025-12-07T07:05:22Z</time></trkpt>
<trkpt lat="43.0398670000" lon="0.6500470000"><ele>484</ele><time>2025-12-07T07:05:24Z</time></trkpt>
<trkpt lat="43.0398950000" lon="0.6500400000"><ele>483</ele><time>2025-12-07T07:05:26Z</time></trkpt>
<trkpt lat="43.0399170000" lon="0.6500150000"><ele>483</ele><time>2025-12-07T07:05:28Z</time></trkpt>
<trkpt lat="43.0399350000" lon="0.6499820000"><ele>483</ele><time>2025-12-07T07:05:30Z</time></trkpt>
<trkpt lat="43.0399520000" lon="0.6499450000"><ele>483</ele><time>2025-12-07T07:05:32Z</time></trkpt>
<trkpt lat="43.0399700000" lon="0.6499080000"><ele>482</ele><time>2025-12-07T07:05:34Z</time></trkpt>
<trkpt lat="43.0399900000" lon="0.6498870000"><ele>482</ele><time>2025-12-07T07:05:36Z</time></trkpt>
<trkpt lat="43.0400070000" lon="0.6498730000"><ele>482</ele><time>2025-12-07T07:05:38Z</time></trkpt>
<trkpt lat="43.0400300000" lon="0.6498600000"><ele>482</ele><time>2025-12-07T07:05:40Z</time></trkpt>
<trkpt lat="43.0400470000" lon="0.6498470000"><ele>482</ele><time>2025-12-07T07:05:42Z</time></trkpt>
<trkpt lat="43.0400670000" lon="0.6498300000"><ele>482</ele><time>2025-12-07T07:05:44Z</time></trkpt>
<trkpt lat="43.0400870000" lon="0.6498120000"><ele>482</ele><time>2025-12-07T07:05:46Z</time></trkpt>
<trkpt lat="43.0401050000" lon="0.6497920000"><ele>482</ele><time>2025-12-07T07:05:48Z</time></trkpt>
<trkpt lat="43.0401220000" lon="0.6497720000"><ele>482</ele><time>2025-12-07T07:05:50Z</time></trkpt>
<trkpt lat="43.0401420000" lon="0.6497520000"><ele>482</ele><time>2025-12-07T07:05:52Z</time></trkpt>
<trkpt lat="43.0401620000" lon="0.6497270000"><ele>482</ele><time>2025-12-07T07:05:54Z</time></trkpt>
<trkpt lat="43.0401820000" lon="0.6497000000"><ele>481</ele><time>2025-12-07T07:05:56Z</time></trkpt>
<trkpt lat="43.0402000000" lon="0.6496720000"><ele>481</ele><time>2025-12-07T07:05:58Z</time></trkpt>
<trkpt lat="43.0402170000" lon="0.6496450000"><ele>482</ele><time>2025-12-07T07:06:00Z</time></trkpt>
<trkpt lat="43.0402350000" lon="0.6496150000"><ele>482</ele><time>2025-12-07T07:06:02Z</time></trkpt>
<trkpt lat="43.0402500000" lon="0.6495900000"><ele>482</ele><time>2025-12-07T07:06:04Z</time></trkpt>
<trkpt lat="43.0402620000" lon="0.6495630000"><ele>481</ele><time>2025-12-07T07:06:06Z</time></trkpt>
<trkpt lat="43.0402770000" lon="0.6495370000"><ele>481</ele><time>2025-12-07T07:06:08Z</time></trkpt>
<trkpt lat="43.0402920000" lon="0.6495120000"><ele>481</ele><time>2025-12-07T07:06:10Z</time></trkpt>
<trkpt lat="43.0403100000" lon="0.6494830000"><ele>481</ele><time>2025-12-07T07:06:12Z</time></trkpt>
<trkpt lat="43.0403270000" lon="0.6494620000"><ele>481</ele><time>2025-12-07T07:06:14Z</time></trkpt>
<trkpt lat="43.0403400000" lon="0.6494350000"><ele>481</ele><time>2025-12-07T07:06:16Z</time></trkpt>
<trkpt lat="43.0403530000" lon="0.6494070000"><ele>481</ele><time>2025-12-07T07:06:18Z</time></trkpt>
<trkpt lat="43.0403670000" lon="0.6493820000"><ele>481</ele><time>2025-12-07T07:06:20Z</time></trkpt>
<trkpt lat="43.0403820000" lon="0.6493520000"><ele>481</ele><time>2025-12-07T07:06:22Z</time></trkpt>
<trkpt lat="43.0403950000" lon="0.6493220000"><ele>481</ele><time>2025-12-07T07:06:24Z</time></trkpt>
<trkpt lat="43.0404070000" lon="0.6492970000"><ele>481</ele><time>2025-12-07T07:06:26Z</time></trkpt>
<trkpt lat="43.0404220000" lon="0.6492620000"><ele>481</ele><time>2025-12-07T07:06:28Z</time></trkpt>
<trkpt lat="43.0404320000" lon="0.6492320000"><ele>481</ele><time>2025-12-07T07:06:30Z</time></trkpt>
<trkpt lat="43.0404470000" lon="0.6492100000"><ele>481</ele><time>2025-12-07T07:06:32Z</time></trkpt>
<trkpt lat="43.0404620000" lon="0.6491920000"><ele>481</ele><time>2025-12-07T07:06:34Z</time></trkpt>
<trkpt lat="43.0404820000" lon="0.6491720000"><ele>481</ele><time>2025-12-07T07:06:36Z</time></trkpt>
<trkpt lat="43.0404970000" lon="0.6491470000"><ele>481</ele><time>2025-12-07T07:06:38Z</time></trkpt>
<trkpt lat="43.0405080000" lon="0.6491200000"><ele>481</ele><time>2025-12-07T07:06:40Z</time></trkpt>
<trkpt lat="43.0405200000" lon="0.6490820000"><ele>481</ele><time>2025-12-07T07:06:42Z</time></trkpt>
<trkpt lat="43.0405270000" lon="0.6490430000"><ele>481</ele><time>2025-12-07T07:06:44Z</time></trkpt>
<trkpt lat="43.0405350000" lon="0.6490050000"><ele>481</ele><time>2025-12-07T07:06:46Z</time></trkpt>
<trkpt lat="43.0405470000" lon="0.6489720000"><ele>481</ele><time>2025-12-07T07:06:48Z</time></trkpt>
<trkpt lat="43.0405620000" lon="0.6489420000"><ele>481</ele><time>2025-12-07T07:06:50Z</time></trkpt>
<trkpt lat="43.0405720000" lon="0.6489120000"><ele>481</ele><time>2025-12-07T07:06:52Z</time></trkpt>
<trkpt lat="43.0405850000" lon="0.6488820000"><ele>481</ele><time>2025-12-07T07:06:54Z</time></trkpt>
<trkpt lat="43.0405970000" lon="0.6488520000"><ele>481</ele><time>2025-12-07T07:06:56Z</time></trkpt>
<trkpt lat="43.0406070000" lon="0.6488220000"><ele>481</ele><time>2025-12-07T07:06:58Z</time></trkpt>
<trkpt lat="43.0406170000" lon="0.6487970000"><ele>481</ele><time>2025-12-07T07:07:00Z</time></trkpt>
<trkpt lat="43.0406300000" lon="0.6487650000"><ele>481</ele><time>2025-12-07T07:07:02Z</time></trkpt>
<trkpt lat="43.0406450000" lon="0.6487370000"><ele>481</ele><time>2025-12-07T07:07:04Z</time></trkpt>
<trkpt lat="43.0406570000" lon="0.6487070000"><ele>481</ele><time>2025-12-07T07:07:06Z</time></trkpt>
<trkpt lat="43.0406670000" lon="0.6486800000"><ele>481</ele><time>2025-12-07T07:07:08Z</time></trkpt>
<trkpt lat="43.0406800000" lon="0.6486500000"><ele>481</ele><time>2025-12-07T07:07:10Z</time></trkpt>
<trkpt lat="43.0406920000" lon="0.6486220000"><ele>480</ele><time>2025-12-07T07:07:12Z</time></trkpt>
<trkpt lat="43.0407050000" lon="0.6485920000"><ele>481</ele><time>2025-12-07T07:07:14Z</time></trkpt>
<trkpt lat="43.0407170000" lon="0.6485620000"><ele>480</ele><time>2025-12-07T07:07:16Z</time></trkpt>
<trkpt lat="43.0407300000" lon="0.6485300000"><ele>480</ele><time>2025-12-07T07:07:18Z</time></trkpt>
<trkpt lat="43.0407470000" lon="0.6485020000"><ele>481</ele><time>2025-12-07T07:07:20Z</time></trkpt>
<trkpt lat="43.0407620000" lon="0.6484750000"><ele>481</ele><time>2025-12-07T07:07:22Z</time></trkpt>
<trkpt lat="43.0407770000" lon="0.6484470000"><ele>481</ele><time>2025-12-07T07:07:24Z</time></trkpt>
<trkpt lat="43.0407920000" lon="0.6484170000"><ele>481</ele><time>2025-12-07T07:07:26Z</time></trkpt>
<trkpt lat="43.0408100000" lon="0.6483900000"><ele>480</ele><time>2025-12-07T07:07:28Z</time></trkpt>
<trkpt lat="43.0408270000" lon="0.6483570000"><ele>481</ele><time>2025-12-07T07:07:30Z</time></trkpt>
<trkpt lat="43.0408420000" lon="0.6483350000"><ele>481</ele><time>2025-12-07T07:07:32Z</time></trkpt>
<trkpt lat="43.0408620000" lon="0.6483150000"><ele>480</ele><time>2025-12-07T07:07:34Z</time></trkpt>
<trkpt lat="43.0408770000" lon="0.6482920000"><ele>480</ele><time>2025-12-07T07:07:36Z</time></trkpt>
<trkpt lat="43.0408950000" lon="0.6482700000"><ele>480</ele><time>2025-12-07T07:07:38Z</time></trkpt>
<trkpt lat="43.0409120000" lon="0.6482470000"><ele>480</ele><time>2025-12-07T07:07:40Z</time></trkpt>
<trkpt lat="43.0409320000" lon="0.6482270000"><ele>480</ele><time>2025-12-07T07:07:42Z</time></trkpt>
<trkpt lat="43.0409500000" lon="0.6482080000"><ele>480</ele><time>2025-12-07T07:07:44Z</time></trkpt>
<trkpt lat="43.0409670000" lon="0.6481930000"><ele>480</ele><time>2025-12-07T07:07:46Z</time></trkpt>
<trkpt lat="43.0409870000" lon="0.6481870000"><ele>480</ele><time>2025-12-07T07:07:48Z</time></trkpt>
<trkpt lat="43.0410070000" lon="0.6481720000"><ele>480</ele><time>2025-12-07T07:07:50Z</time></trkpt>
<trkpt lat="43.0410270000" lon="0.6481500000"><ele>480</ele><time>2025-12-07T07:07:52Z</time></trkpt>
<trkpt lat="43.0410470000" lon="0.6481230000"><ele>480</ele><time>2025-12-07T07:07:54Z</time></trkpt>
<trkpt lat="43.0410670000" lon="0.6480900000"><ele>480</ele><time>2025-12-07T07:07:56Z</time></trkpt>
<trkpt lat="43.0410850000" lon="0.6480520000"><ele>480</ele><time>2025-12-07T07:07:58Z</time></trkpt>
<trkpt lat="43.0410950000" lon="0.6480150000"><ele>480</ele><time>2025-12-07T07:08:00Z</time></trkpt>
<trkpt lat="43.0411070000" lon="0.6479920000"><ele>480</ele><time>2025-12-07T07:08:02Z</time></trkpt>
<trkpt lat="43.0411220000" lon="0.6479670000"><ele>480</ele><time>2025-12-07T07:08:04Z</time></trkpt>
<trkpt lat="43.0411370000" lon="0.6479520000"><ele>481</ele><time>2025-12-07T07:08:11Z</time></trkpt>
<trkpt lat="43.0411620000" lon="0.6479320000"><ele>480</ele><time>2025-12-07T07:08:21Z</time></trkpt>
<trkpt lat="43.0411870000" lon="0.6479100000"><ele>480</ele><time>2025-12-07T07:08:23Z</time></trkpt>
<trkpt lat="43.0412120000" lon="0.6478850000"><ele>480</ele><time>2025-12-07T07:08:25Z</time></trkpt>
<trkpt lat="43.0412320000" lon="0.6478670000"><ele>480</ele><time>2025-12-07T07:08:27Z</time></trkpt>
<trkpt lat="43.0412470000" lon="0.6478370000"><ele>480</ele><time>2025-12-07T07:08:31Z</time></trkpt>
<trkpt lat="43.0412470000" lon="0.6478070000"><ele>480</ele><time>2025-12-07T07:08:33Z</time></trkpt>
<trkpt lat="43.0412270000" lon="0.6477820000"><ele>480</ele><time>2025-12-07T07:08:36Z</time></trkpt>
<trkpt lat="43.0412320000" lon="0.6477530000"><ele>480</ele><time>2025-12-07T07:09:03Z</time></trkpt>
<trkpt lat="43.0412370000" lon="0.6477320000"><ele>480</ele><time>2025-12-07T07:09:06Z</time></trkpt>
<trkpt lat="43.0412570000" lon="0.6477320000"><ele>480</ele><time>2025-12-07T07:09:08Z</time></trkpt>
<trkpt lat="43.0412800000" lon="0.6477050000"><ele>480</ele><time>2025-12-07T07:09:10Z</time></trkpt>
<trkpt lat="43.0412920000" lon="0.6476680000"><ele>480</ele><time>2025-12-07T07:09:12Z</time></trkpt>
<trkpt lat="43.0413020000" lon="0.6476370000"><ele>480</ele><time>2025-12-07T07:09:14Z</time></trkpt>
<trkpt lat="43.0413150000" lon="0.6476070000"><ele>480</ele><time>2025-12-07T07:09:16Z</time></trkpt>
<trkpt lat="43.0413300000" lon="0.6475820000"><ele>480</ele><time>2025-12-07T07:09:18Z</time></trkpt>
<trkpt lat="43.0413420000" lon="0.6475530000"><ele>480</ele><time>2025-12-07T07:09:20Z</time></trkpt>
<trkpt lat="43.0413570000" lon="0.6475300000"><ele>480</ele><time>2025-12-07T07:09:22Z</time></trkpt>
<trkpt lat="43.0413700000" lon="0.6475050000"><ele>480</ele><time>2025-12-07T07:09:24Z</time></trkpt>
<trkpt lat="43.0413820000" lon="0.6474770000"><ele>480</ele><time>2025-12-07T07:09:26Z</time></trkpt>
<trkpt lat="43.0413950000" lon="0.6474470000"><ele>480</ele><time>2025-12-07T07:09:28Z</time></trkpt>
<trkpt lat="43.0414070000" lon="0.6474170000"><ele>480</ele><time>2025-12-07T07:09:30Z</time></trkpt>
<trkpt lat="43.0414270000" lon="0.6473950000"><ele>480</ele><time>2025-12-07T07:09:32Z</time></trkpt>
<trkpt lat="43.0414420000" lon="0.6473720000"><ele>480</ele><time>2025-12-07T07:09:34Z</time></trkpt>
<trkpt lat="43.0414520000" lon="0.6473430000"><ele>480</ele><time>2025-12-07T07:09:36Z</time></trkpt>
<trkpt lat="43.0414670000" lon="0.6473170000"><ele>480</ele><time>2025-12-07T07:09:38Z</time></trkpt>
<trkpt lat="43.0414820000" lon="0.6472870000"><ele>480</ele><time>2025-12-07T07:09:40Z</time></trkpt>
<trkpt lat="43.0415000000" lon="0.6472600000"><ele>480</ele><time>2025-12-07T07:09:42Z</time></trkpt>
<trkpt lat="43.0415150000" lon="0.6472320000"><ele>480</ele><time>2025-12-07T07:09:44Z</time></trkpt>
<trkpt lat="43.0415320000" lon="0.6472070000"><ele>480</ele><time>2025-12-07T07:09:46Z</time></trkpt>
<trkpt lat="43.0415470000" lon="0.6471770000"><ele>480</ele><time>2025-12-07T07:09:48Z</time></trkpt>
<trkpt lat="43.0415620000" lon="0.6471480000"><ele>480</ele><time>2025-12-07T07:09:50Z</time></trkpt>
<trkpt lat="43.0415800000" lon="0.6471220000"><ele>480</ele><time>2025-12-07T07:09:52Z</time></trkpt>
<trkpt lat="43.0415970000" lon="0.6470970000"><ele>480</ele><time>2025-12-07T07:09:54Z</time></trkpt>
<trkpt lat="43.0416100000" lon="0.6470700000"><ele>480</ele><time>2025-12-07T07:09:56Z</time></trkpt>
<trkpt lat="43.0416250000" lon="0.6470420000"><ele>480</ele><time>2025-12-07T07:09:58Z</time></trkpt>
<trkpt lat="43.0416400000" lon="0.6470130000"><ele>481</ele><time>2025-12-07T07:10:00Z</time></trkpt>
<trkpt lat="43.0416550000" lon="0.6469900000"><ele>481</ele><time>2025-12-07T07:10:02Z</time></trkpt>
<trkpt lat="43.0416700000" lon="0.6469670000"><ele>481</ele><time>2025-12-07T07:10:04Z</time></trkpt>
<trkpt lat="43.0416820000" lon="0.6469380000"><ele>481</ele><time>2025-12-07T07:10:06Z</time></trkpt>
<trkpt lat="43.0416970000" lon="0.6469120000"><ele>481</ele><time>2025-12-07T07:10:08Z</time></trkpt>
<trkpt lat="43.0417120000" lon="0.6468870000"><ele>481</ele><time>2025-12-07T07:10:10Z</time></trkpt>
<trkpt lat="43.0417270000" lon="0.6468580000"><ele>481</ele><time>2025-12-07T07:10:12Z</time></trkpt>
<trkpt lat="43.0417400000" lon="0.6468320000"><ele>481</ele><time>2025-12-07T07:10:14Z</time></trkpt>
<trkpt lat="43.0417520000" lon="0.6468100000"><ele>481</ele><time>2025-12-07T07:10:16Z</time></trkpt>
<trkpt lat="43.0417700000" lon="0.6467850000"><ele>481</ele><time>2025-12-07T07:10:18Z</time></trkpt>
<trkpt lat="43.0417820000" lon="0.6467570000"><ele>481</ele><time>2025-12-07T07:10:20Z</time></trkpt>
<trkpt lat="43.0417970000" lon="0.6467300000"><ele>481</ele><time>2025-12-07T07:10:22Z</time></trkpt>
<trkpt lat="43.0418120000" lon="0.6467000000"><ele>481</ele><time>2025-12-07T07:10:24Z</time></trkpt>
<trkpt lat="43.0418300000" lon="0.6466750000"><ele>481</ele><time>2025-12-07T07:10:26Z</time></trkpt>
<trkpt lat="43.0418470000" lon="0.6466520000"><ele>481</ele><time>2025-12-07T07:10:28Z</time></trkpt>
<trkpt lat="43.0418650000" lon="0.6466330000"><ele>481</ele><time>2025-12-07T07:10:30Z</time></trkpt>
<trkpt lat="43.0418820000" lon="0.6466170000"><ele>481</ele><time>2025-12-07T07:10:32Z</time></trkpt>
<trkpt lat="43.0419020000" lon="0.6465880000"><ele>481</ele><time>2025-12-07T07:10:34Z</time></trkpt>
<trkpt lat="43.0419220000" lon="0.6465550000"><ele>481</ele><time>2025-12-07T07:10:36Z</time></trkpt>
<trkpt lat="43.0419470000" lon="0.6465270000"><ele>481</ele><time>2025-12-07T07:10:38Z</time></trkpt>
<trkpt lat="43.0419670000" lon="0.6465100000"><ele>481</ele><time>2025-12-07T07:10:40Z</time></trkpt>
<trkpt lat="43.0419920000" lon="0.6464950000"><ele>481</ele><time>2025-12-07T07:10:42Z</time></trkpt>
<trkpt lat="43.0420170000" lon="0.6464900000"><ele>481</ele><time>2025-12-07T07:10:44Z</time></trkpt>
<trkpt lat="43.0420420000" lon="0.6464900000"><ele>481</ele><time>2025-12-07T07:10:46Z</time></trkpt>
<trkpt lat="43.0420670000" lon="0.6464800000"><ele>481</ele><time>2025-12-07T07:10:48Z</time></trkpt>
<trkpt lat="43.0420870000" lon="0.6464670000"><ele>482</ele><time>2025-12-07T07:10:50Z</time></trkpt>
<trkpt lat="43.0421120000" lon="0.6464620000"><ele>481</ele><time>2025-12-07T07:10:52Z</time></trkpt>
<trkpt lat="43.0421370000" lon="0.6464570000"><ele>481</ele><time>2025-12-07T07:10:54Z</time></trkpt>
<trkpt lat="43.0421600000" lon="0.6464470000"><ele>482</ele><time>2025-12-07T07:10:56Z</time></trkpt>
<trkpt lat="43.0421820000" lon="0.6464370000"><ele>482</ele><time>2025-12-07T07:10:58Z</time></trkpt>
<trkpt lat="43.0422070000" lon="0.6464330000"><ele>482</ele><time>2025-12-07T07:11:00Z</time></trkpt>
<trkpt lat="43.0422320000" lon="0.6464270000"><ele>482</ele><time>2025-12-07T07:11:02Z</time></trkpt>
<trkpt lat="43.0422520000" lon="0.6464170000"><ele>482</ele><time>2025-12-07T07:11:04Z</time></trkpt>
<trkpt lat="43.0422720000" lon="0.6464070000"><ele>482</ele><time>2025-12-07T07:11:06Z</time></trkpt>
<trkpt lat="43.0422950000" lon="0.6463950000"><ele>482</ele><time>2025-12-07T07:11:08Z</time></trkpt>
<trkpt lat="43.0423170000" lon="0.6463780000"><ele>482</ele><time>2025-12-07T07:11:10Z</time></trkpt>
<trkpt lat="43.0423400000" lon="0.6463620000"><ele>482</ele><time>2025-12-07T07:11:12Z</time></trkpt>
<trkpt lat="43.0423570000" lon="0.6463370000"><ele>482</ele><time>2025-12-07T07:11:14Z</time></trkpt>
<trkpt lat="43.0423770000" lon="0.6463170000"><ele>482</ele><time>2025-12-07T07:11:16Z</time></trkpt>
<trkpt lat="43.0423970000" lon="0.6462970000"><ele>482</ele><time>2025-12-07T07:11:18Z</time></trkpt>
<trkpt lat="43.0424150000" lon="0.6462820000"><ele>482</ele><time>2025-12-07T07:11:20Z</time></trkpt>
<trkpt lat="43.0424320000" lon="0.6462620000"><ele>482</ele><time>2025-12-07T07:11:22Z</time></trkpt>
<trkpt lat="43.0424470000" lon="0.6462420000"><ele>482</ele><time>2025-12-07T07:11:24Z</time></trkpt>
<trkpt lat="43.0424620000" lon="0.6462170000"><ele>483</ele><time>2025-12-07T07:11:26Z</time></trkpt>
<trkpt lat="43.0424770000" lon="0.6461900000"><ele>483</ele><time>2025-12-07T07:11:28Z</time></trkpt>
<trkpt lat="43.0424970000" lon="0.6461700000"><ele>483</ele><time>2025-12-07T07:11:30Z</time></trkpt>
<trkpt lat="43.0425120000" lon="0.6461470000"><ele>483</ele><time>2025-12-07T07:11:32Z</time></trkpt>
<trkpt lat="43.0425320000" lon="0.6461230000"><ele>483</ele><time>2025-12-07T07:11:34Z</time></trkpt>
<trkpt lat="43.0425500000" lon="0.6461070000"><ele>482</ele><time>2025-12-07T07:11:36Z</time></trkpt>
<trkpt lat="43.0425670000" lon="0.6460870000"><ele>482</ele><time>2025-12-07T07:11:38Z</time></trkpt>
<trkpt lat="43.0425920000" lon="0.6460730000"><ele>483</ele><time>2025-12-07T07:11:40Z</time></trkpt>
<trkpt lat="43.0426120000" lon="0.6460620000"><ele>483</ele><time>2025-12-07T07:11:42Z</time></trkpt>
<trkpt lat="43.0426320000" lon="0.6460520000"><ele>483</ele><time>2025-12-07T07:11:44Z</time></trkpt>
<trkpt lat="43.0426500000" lon="0.6460270000"><ele>483</ele><time>2025-12-07T07:11:46Z</time></trkpt>
<trkpt lat="43.0426620000" lon="0.6459920000"><ele>483</ele><time>2025-12-07T07:11:48Z</time></trkpt>
<trkpt lat="43.0426770000" lon="0.6459530000"><ele>483</ele><time>2025-12-07T07:11:50Z</time></trkpt>
<trkpt lat="43.0426920000" lon="0.6459170000"><ele>483</ele><time>2025-12-07T07:11:52Z</time></trkpt>
<trkpt lat="43.0427070000" lon="0.6458770000"><ele>483</ele><time>2025-12-07T07:11:54Z</time></trkpt>
<trkpt lat="43.0427220000" lon="0.6458450000"><ele>484</ele><time>2025-12-07T07:11:56Z</time></trkpt>
<trkpt lat="43.0427320000" lon="0.6458180000"><ele>484</ele><time>2025-12-07T07:11:58Z</time></trkpt>
<trkpt lat="43.0427350000" lon="0.6457870000"><ele>484</ele><time>2025-12-07T07:12:01Z</time></trkpt>
<trkpt lat="43.0427520000" lon="0.6457970000"><ele>484</ele><time>2025-12-07T07:12:12Z</time></trkpt>
<trkpt lat="43.0427770000" lon="0.6457720000"><ele>484</ele><time>2025-12-07T07:12:14Z</time></trkpt>
<trkpt lat="43.0428020000" lon="0.6457450000"><ele>484</ele><time>2025-12-07T07:12:16Z</time></trkpt>
<trkpt lat="43.0428270000" lon="0.6457180000"><ele>484</ele><time>2025-12-07T07:12:18Z</time></trkpt>
<trkpt lat="43.0428400000" lon="0.6456970000"><ele>484</ele><time>2025-12-07T07:12:20Z</time></trkpt>
<trkpt lat="43.0428520000" lon="0.6456750000"><ele>484</ele><time>2025-12-07T07:12:22Z</time></trkpt>
<trkpt lat="43.0428700000" lon="0.6456520000"><ele>484</ele><time>2025-12-07T07:12:24Z</time></trkpt>
<trkpt lat="43.0428920000" lon="0.6456270000"><ele>484</ele><time>2025-12-07T07:12:26Z</time></trkpt>
<trkpt lat="43.0429100000" lon="0.6455970000"><ele>484</ele><time>2025-12-07T07:12:28Z</time></trkpt>
<trkpt lat="43.0429280000" lon="0.6455770000"><ele>484</ele><time>2025-12-07T07:12:30Z</time></trkpt>
<trkpt lat="43.0429550000" lon="0.6455550000"><ele>484</ele><time>2025-12-07T07:12:32Z</time></trkpt>
<trkpt lat="43.0429750000" lon="0.6455330000"><ele>484</ele><time>2025-12-07T07:12:34Z</time></trkpt>
<trkpt lat="43.0429920000" lon="0.6455120000"><ele>484</ele><time>2025-12-07T07:12:36Z</time></trkpt>
<trkpt lat="43.0430050000" lon="0.6454900000"><ele>484</ele><time>2025-12-07T07:12:38Z</time></trkpt>
<trkpt lat="43.0430220000" lon="0.6454670000"><ele>484</ele><time>2025-12-07T07:12:40Z</time></trkpt>
<trkpt lat="43.0430400000" lon="0.6454450000"><ele>485</ele><time>2025-12-07T07:12:42Z</time></trkpt>
<trkpt lat="43.0430570000" lon="0.6454220000"><ele>485</ele><time>2025-12-07T07:12:44Z</time></trkpt>
<trkpt lat="43.0430670000" lon="0.6454020000"><ele>485</ele><time>2025-12-07T07:12:46Z</time></trkpt>
<trkpt lat="43.0430820000" lon="0.6453850000"><ele>485</ele><time>2025-12-07T07:12:48Z</time></trkpt>
<trkpt lat="43.0431050000" lon="0.6453570000"><ele>485</ele><time>2025-12-07T07:12:51Z</time></trkpt>
<trkpt lat="43.0431200000" lon="0.6453300000"><ele>485</ele><time>2025-12-07T07:12:53Z</time></trkpt>
<trkpt lat="43.0431370000" lon="0.6452980000"><ele>485</ele><time>2025-12-07T07:12:56Z</time></trkpt>
<trkpt lat="43.0431470000" lon="0.6452770000"><ele>485</ele><time>2025-12-07T07:12:58Z</time></trkpt>
<trkpt lat="43.0431370000" lon="0.6452520000"><ele>486</ele><time>2025-12-07T07:13:02Z</time></trkpt>
<trkpt lat="43.0431170000" lon="0.6452350000"><ele>486</ele><time>2025-12-07T07:13:06Z</time></trkpt>
<trkpt lat="43.0431270000" lon="0.6452120000"><ele>486</ele><time>2025-12-07T07:13:24Z</time></trkpt>
<trkpt lat="43.0431450000" lon="0.6452020000"><ele>486</ele><time>2025-12-07T07:13:25Z</time></trkpt>
<trkpt lat="43.0431620000" lon="0.6451920000"><ele>486</ele><time>2025-12-07T07:13:26Z</time></trkpt>
<trkpt lat="43.0431770000" lon="0.6451820000"><ele>486</ele><time>2025-12-07T07:13:27Z</time></trkpt>
<trkpt lat="43.0432070000" lon="0.6451700000"><ele>486</ele><time>2025-12-07T07:13:29Z</time></trkpt>
<trkpt lat="43.0432270000" lon="0.6451620000"><ele>486</ele><time>2025-12-07T07:13:31Z</time></trkpt>
<trkpt lat="43.0432380000" lon="0.6451430000"><ele>486</ele><time>2025-12-07T07:13:33Z</time></trkpt>
<trkpt lat="43.0432600000" lon="0.6451420000"><ele>486</ele><time>2025-12-07T07:13:36Z</time></trkpt>
<trkpt lat="43.0432650000" lon="0.6451720000"><ele>486</ele><time>2025-12-07T07:13:38Z</time></trkpt>
<trkpt lat="43.0432800000" lon="0.6452080000"><ele>487</ele><time>2025-12-07T07:13:50Z</time></trkpt>
<trkpt lat="43.0432870000" lon="0.6452470000"><ele>487</ele><time>2025-12-07T07:13:58Z</time></trkpt>
<trkpt lat="43.0432950000" lon="0.6452900000"><ele>488</ele><time>2025-12-07T07:14:02Z</time></trkpt>
<trkpt lat="43.0433000000" lon="0.6453130000"><ele>488</ele><time>2025-12-07T07:14:03Z</time></trkpt>
<trkpt lat="43.0433050000" lon="0.6453400000"><ele>488</ele><time>2025-12-07T07:14:04Z</time></trkpt>
<trkpt lat="43.0433070000" lon="0.6453750000"><ele>488</ele><time>2025-12-07T07:14:06Z</time></trkpt>
<trkpt lat="43.0433170000" lon="0.6454100000"><ele>489</ele><time>2025-12-07T07:14:10Z</time></trkpt>
<trkpt lat="43.0433270000" lon="0.6454370000"><ele>489</ele><time>2025-12-07T07:14:12Z</time></trkpt>
<trkpt lat="43.0433300000" lon="0.6454670000"><ele>489</ele><time>2025-12-07T07:14:14Z</time></trkpt>
<trkpt lat="43.0433450000" lon="0.6454920000"><ele>489</ele><time>2025-12-07T07:14:16Z</time></trkpt>
<trkpt lat="43.0433420000" lon="0.6455220000"><ele>489</ele><time>2025-12-07T07:14:18Z</time></trkpt>
<trkpt lat="43.0433470000" lon="0.6455480000"><ele>490</ele><time>2025-12-07T07:14:20Z</time></trkpt>
<trkpt lat="43.0433470000" lon="0.6455800000"><ele>490</ele><time>2025-12-07T07:14:23Z</time></trkpt>
<trkpt lat="43.0433550000" lon="0.6456070000"><ele>490</ele><time>2025-12-07T07:14:25Z</time></trkpt>
<trkpt lat="43.0433600000" lon="0.6456350000"><ele>491</ele><time>2025-12-07T07:14:27Z</time></trkpt>
<trkpt lat="43.0433670000" lon="0.6456650000"><ele>491</ele><time>2025-12-07T07:14:30Z</time></trkpt>
<trkpt lat="43.0433750000" lon="0.6456920000"><ele>491</ele><time>2025-12-07T07:14:32Z</time></trkpt>
<trkpt lat="43.0433750000" lon="0.6457170000"><ele>491</ele><time>2025-12-07T07:14:34Z</time></trkpt>
<trkpt lat="43.0433820000" lon="0.6457520000"><ele>491</ele><time>2025-12-07T07:14:36Z</time></trkpt>
<trkpt lat="43.0433870000" lon="0.6457820000"><ele>491</ele><time>2025-12-07T07:14:38Z</time></trkpt>
<trkpt lat="43.0433920000" lon="0.6458070000"><ele>491</ele><time>2025-12-07T07:14:40Z</time></trkpt>
<trkpt lat="43.0433920000" lon="0.6458380000"><ele>491</ele><time>2025-12-07T07:14:42Z</time></trkpt>
<trkpt lat="43.0433930000" lon="0.6458720000"><ele>491</ele><time>2025-12-07T07:14:44Z</time></trkpt>
<trkpt lat="43.0433930000" lon="0.6459070000"><ele>491</ele><time>2025-12-07T07:14:47Z</time></trkpt>
<trkpt lat="43.0433970000" lon="0.6459420000"><ele>492</ele><time>2025-12-07T07:14:50Z</time></trkpt>
<trkpt lat="43.0434020000" lon="0.6459770000"><ele>492</ele><time>2025-12-07T07:14:53Z</time></trkpt>
<trkpt lat="43.0434050000" lon="0.6460050000"><ele>492</ele><time>2025-12-07T07:14:55Z</time></trkpt>
<trkpt lat="43.0434070000" lon="0.6460280000"><ele>492</ele><time>2025-12-07T07:14:57Z</time></trkpt>
<trkpt lat="43.0434100000" lon="0.6460570000"><ele>492</ele><time>2025-12-07T07:14:59Z</time></trkpt>
<trkpt lat="43.0434150000" lon="0.6460820000"><ele>493</ele><time>2025-12-07T07:15:01Z</time></trkpt>
<trkpt lat="43.0434170000" lon="0.6461120000"><ele>493</ele><time>2025-12-07T07:15:04Z</time></trkpt>
<trkpt lat="43.0434150000" lon="0.6461370000"><ele>493</ele><time>2025-12-07T07:15:07Z</time></trkpt>
<trkpt lat="43.0434320000" lon="0.6461470000"><ele>493</ele><time>2025-12-07T07:15:08Z</time></trkpt>
<trkpt lat="43.0434300000" lon="0.6461800000"><ele>493</ele><time>2025-12-07T07:15:10Z</time></trkpt>
<trkpt lat="43.0434350000" lon="0.6462120000"><ele>493</ele><time>2025-12-07T07:15:12Z</time></trkpt>
<trkpt lat="43.0434370000" lon="0.6462430000"><ele>493</ele><time>2025-12-07T07:15:14Z</time></trkpt>
<trkpt lat="43.0434370000" lon="0.6462720000"><ele>494</ele><time>2025-12-07T07:15:16Z</time></trkpt>
<trkpt lat="43.0434270000" lon="0.6463100000"><ele>494</ele><time>2025-12-07T07:15:18Z</time></trkpt>
<trkpt lat="43.0434270000" lon="0.6463350000"><ele>494</ele><time>2025-12-07T07:15:20Z</time></trkpt>
<trkpt lat="43.0434420000" lon="0.6463570000"><ele>494</ele><time>2025-12-07T07:15:24Z</time></trkpt>
<trkpt lat="43.0434520000" lon="0.6463770000"><ele>495</ele><time>2025-12-07T07:15:28Z</time></trkpt>
<trkpt lat="43.0434620000" lon="0.6464020000"><ele>495</ele><time>2025-12-07T07:15:30Z</time></trkpt>
<trkpt lat="43.0434670000" lon="0.6464400000"><ele>495</ele><time>2025-12-07T07:15:32Z</time></trkpt>
<trkpt lat="43.0434470000" lon="0.6464600000"><ele>495</ele><time>2025-12-07T07:15:34Z</time></trkpt>
<trkpt lat="43.0434520000" lon="0.6464950000"><ele>495</ele><time>2025-12-07T07:15:37Z</time></trkpt>
<trkpt lat="43.0434520000" lon="0.6465220000"><ele>495</ele><time>2025-12-07T07:15:38Z</time></trkpt>
<trkpt lat="43.0434670000" lon="0.6465370000"><ele>495</ele><time>2025-12-07T07:15:39Z</time></trkpt>
<trkpt lat="43.0434750000" lon="0.6465770000"><ele>496</ele><time>2025-12-07T07:15:42Z</time></trkpt>
<trkpt lat="43.0434770000" lon="0.6466070000"><ele>496</ele><time>2025-12-07T07:15:44Z</time></trkpt>
<trkpt lat="43.0434820000" lon="0.6466400000"><ele>496</ele><time>2025-12-07T07:15:46Z</time></trkpt>
<trkpt lat="43.0434920000" lon="0.6466770000"><ele>496</ele><time>2025-12-07T07:15:49Z</time></trkpt>
<trkpt lat="43.0434920000" lon="0.6467070000"><ele>497</ele><time>2025-12-07T07:15:52Z</time></trkpt>
<trkpt lat="43.0434950000" lon="0.6467330000"><ele>497</ele><time>2025-12-07T07:15:54Z</time></trkpt>
<trkpt lat="43.0434950000" lon="0.6467750000"><ele>497</ele><time>2025-12-07T07:15:57Z</time></trkpt>
<trkpt lat="43.0435020000" lon="0.6467970000"><ele>497</ele><time>2025-12-07T07:15:59Z</time></trkpt>
<trkpt lat="43.0435020000" lon="0.6468270000"><ele>498</ele><time>2025-12-07T07:16:02Z</time></trkpt>
<trkpt lat="43.0435000000" lon="0.6468520000"><ele>498</ele><time>2025-12-07T07:16:05Z</time></trkpt>
<trkpt lat="43.0435070000" lon="0.6468750000"><ele>498</ele><time>2025-12-07T07:16:08Z</time></trkpt>
<trkpt lat="43.0435120000" lon="0.6469020000"><ele>498</ele><time>2025-12-07T07:16:11Z</time></trkpt>
<trkpt lat="43.0435200000" lon="0.6469250000"><ele>498</ele><time>2025-12-07T07:16:13Z</time></trkpt>
<trkpt lat="43.0435200000" lon="0.6469520000"><ele>498</ele><time>2025-12-07T07:16:15Z</time></trkpt>
<trkpt lat="43.0435220000" lon="0.6469850000"><ele>498</ele><time>2025-12-07T07:16:17Z</time></trkpt>
<trkpt lat="43.0435200000" lon="0.6470120000"><ele>498</ele><time>2025-12-07T07:16:19Z</time></trkpt>
<trkpt lat="43.0435250000" lon="0.6470470000"><ele>498</ele><time>2025-12-07T07:16:21Z</time></trkpt>
<trkpt lat="43.0435250000" lon="0.6470730000"><ele>499</ele><time>2025-12-07T07:16:23Z</time></trkpt>
<trkpt lat="43.0435170000" lon="0.6471020000"><ele>499</ele><time>2025-12-07T07:16:26Z</time></trkpt>
<trkpt lat="43.0435200000" lon="0.6471320000"><ele>499</ele><time>2025-12-07T07:16:28Z</time></trkpt>
<trkpt lat="43.0435220000" lon="0.6471650000"><ele>499</ele><time>2025-12-07T07:16:30Z</time></trkpt>
<trkpt lat="43.0435270000" lon="0.6471930000"><ele>499</ele><time>2025-12-07T07:16:33Z</time></trkpt>
<trkpt lat="43.0435220000" lon="0.6472220000"><ele>499</ele><time>2025-12-07T07:16:36Z</time></trkpt>
<trkpt lat="43.0435150000" lon="0.6472600000"><ele>499</ele><time>2025-12-07T07:16:39Z</time></trkpt>
<trkpt lat="43.0435170000" lon="0.6472920000"><ele>499</ele><time>2025-12-07T07:16:41Z</time></trkpt>
<trkpt lat="43.0435100000" lon="0.6473170000"><ele>499</ele><time>2025-12-07T07:16:43Z</time></trkpt>
<trkpt lat="43.0434970000" lon="0.6473520000"><ele>500</ele><time>2025-12-07T07:16:45Z</time></trkpt>
<trkpt lat="43.0434920000" lon="0.6473870000"><ele>500</ele><time>2025-12-07T07:16:48Z</time></trkpt>
<trkpt lat="43.0434870000" lon="0.6474150000"><ele>500</ele><time>2025-12-07T07:16:50Z</time></trkpt>
<trkpt lat="43.0434900000" lon="0.6474600000"><ele>500</ele><time>2025-12-07T07:16:52Z</time></trkpt>
<trkpt lat="43.0434870000" lon="0.6474970000"><ele>500</ele><time>2025-12-07T07:16:54Z</time></trkpt>
<trkpt lat="43.0434870000" lon="0.6475270000"><ele>500</ele><time>2025-12-07T07:16:56Z</time></trkpt>
<trkpt lat="43.0434870000" lon="0.6475520000"><ele>500</ele><time>2025-12-07T07:16:58Z</time></trkpt>
<trkpt lat="43.0434850000" lon="0.6475820000"><ele>500</ele><time>2025-12-07T07:17:01Z</time></trkpt>
<trkpt lat="43.0434900000" lon="0.6476150000"><ele>499</ele><time>2025-12-07T07:17:03Z</time></trkpt>
<trkpt lat="43.0434900000" lon="0.6476520000"><ele>500</ele><time>2025-12-07T07:17:05Z</time></trkpt>
<trkpt lat="43.0434920000" lon="0.6476870000"><ele>500</ele><time>2025-12-07T07:17:07Z</time></trkpt>
<trkpt lat="43.0434950000" lon="0.6477120000"><ele>500</ele><time>2025-12-07T07:17:09Z</time></trkpt>
<trkpt lat="43.0435000000" lon="0.6477370000"><ele>500</ele><time>2025-12-07T07:17:11Z</time></trkpt>
<trkpt lat="43.0435100000" lon="0.6477650000"><ele>500</ele><time>2025-12-07T07:17:13Z</time></trkpt>
<trkpt lat="43.0435120000" lon="0.6477920000"><ele>500</ele><time>2025-12-07T07:17:15Z</time></trkpt>
<trkpt lat="43.0435070000" lon="0.6478200000"><ele>500</ele><time>2025-12-07T07:17:17Z</time></trkpt>
<trkpt lat="43.0435050000" lon="0.6478430000"><ele>500</ele><time>2025-12-07T07:17:19Z</time></trkpt>
<trkpt lat="43.0435050000" lon="0.6478720000"><ele>500</ele><time>2025-12-07T07:17:21Z</time></trkpt>
<trkpt lat="43.0435000000" lon="0.6479120000"><ele>500</ele><time>2025-12-07T07:17:24Z</time></trkpt>
<trkpt lat="43.0435050000" lon="0.6479470000"><ele>500</ele><time>2025-12-07T07:17:26Z</time></trkpt>
<trkpt lat="43.0435050000" lon="0.6479820000"><ele>500</ele><time>2025-12-07T07:17:28Z</time></trkpt>
<trkpt lat="43.0435020000" lon="0.6480200000"><ele>500</ele><time>2025-12-07T07:17:30Z</time></trkpt>
<trkpt lat="43.0435020000" lon="0.6480470000"><ele>500</ele><time>2025-12-07T07:17:32Z</time></trkpt>
<trkpt lat="43.0435020000" lon="0.6480820000"><ele>501</ele><time>2025-12-07T07:17:34Z</time></trkpt>
<trkpt lat="43.0435120000" lon="0.6481070000"><ele>501</ele><time>2025-12-07T07:17:36Z</time></trkpt>
<trkpt lat="43.0435120000" lon="0.6481400000"><ele>501</ele><time>2025-12-07T07:17:38Z</time></trkpt>
<trkpt lat="43.0435120000" lon="0.6481700000"><ele>501</ele><time>2025-12-07T07:17:40Z</time></trkpt>
<trkpt lat="43.0435120000" lon="0.6482050000"><ele>501</ele><time>2025-12-07T07:17:42Z</time></trkpt>
<trkpt lat="43.0435020000" lon="0.6482350000"><ele>501</ele><time>2025-12-07T07:17:44Z</time></trkpt>
<trkpt lat="43.0435000000" lon="0.6482670000"><ele>501</ele><time>2025-12-07T07:17:46Z</time></trkpt>
<trkpt lat="43.0434970000" lon="0.6483020000"><ele>501</ele><time>2025-12-07T07:17:48Z</time></trkpt>
<trkpt lat="43.0434950000" lon="0.6483370000"><ele>501</ele><time>2025-12-07T07:17:51Z</time></trkpt>
<trkpt lat="43.0435020000" lon="0.6483770000"><ele>501</ele><time>2025-12-07T07:17:54Z</time></trkpt>
<trkpt lat="43.0435100000" lon="0.6484070000"><ele>501</ele><time>2025-12-07T07:17:56Z</time></trkpt>
<trkpt lat="43.0435120000" lon="0.6484370000"><ele>501</ele><time>2025-12-07T07:17:58Z</time></trkpt>
<trkpt lat="43.0435150000" lon="0.6484670000"><ele>501</ele><time>2025-12-07T07:18:01Z</time></trkpt>
<trkpt lat="43.0435120000" lon="0.6484920000"><ele>501</ele><time>2025-12-07T07:18:03Z</time></trkpt>
<trkpt lat="43.0435200000" lon="0.6485170000"><ele>501</ele><time>2025-12-07T07:18:05Z</time></trkpt>
<trkpt lat="43.0435220000" lon="0.6485670000"><ele>501</ele><time>2025-12-07T07:18:07Z</time></trkpt>
<trkpt lat="43.0435270000" lon="0.6486070000"><ele>501</ele><time>2025-12-07T07:18:09Z</time></trkpt>
<trkpt lat="43.0435320000" lon="0.6486420000"><ele>501</ele><time>2025-12-07T07:18:11Z</time></trkpt>
<trkpt lat="43.0435420000" lon="0.6486720000"><ele>501</ele><time>2025-12-07T07:18:13Z</time></trkpt>
<trkpt lat="43.0435470000" lon="0.6487020000"><ele>501</ele><time>2025-12-07T07:18:15Z</time></trkpt>
<trkpt lat="43.0435570000" lon="0.6487420000"><ele>501</ele><time>2025-12-07T07:18:18Z</time></trkpt>
<trkpt lat="43.0435650000" lon="0.6487750000"><ele>501</ele><time>2025-12-07T07:18:20Z</time></trkpt>
<trkpt lat="43.0435720000" lon="0.6488070000"><ele>501</ele><time>2025-12-07T07:18:22Z</time></trkpt>
<trkpt lat="43.0435770000" lon="0.6488320000"><ele>502</ele><time>2025-12-07T07:18:24Z</time></trkpt>
<trkpt lat="43.0435770000" lon="0.6488620000"><ele>502</ele><time>2025-12-07T07:18:26Z</time></trkpt>
<trkpt lat="43.0435750000" lon="0.6488920000"><ele>502</ele><time>2025-12-07T07:18:28Z</time></trkpt>
<trkpt lat="43.0435820000" lon="0.6489220000"><ele>502</ele><time>2025-12-07T07:18:30Z</time></trkpt>
<trkpt lat="43.0435900000" lon="0.6489570000"><ele>502</ele><time>2025-12-07T07:18:32Z</time></trkpt>
<trkpt lat="43.0435920000" lon="0.6489870000"><ele>502</ele><time>2025-12-07T07:18:34Z</time></trkpt>
<trkpt lat="43.0435970000" lon="0.6490120000"><ele>502</ele><time>2025-12-07T07:18:36Z</time></trkpt>
<trkpt lat="43.0436070000" lon="0.6490350000"><ele>502</ele><time>2025-12-07T07:18:38Z</time></trkpt>
<trkpt lat="43.0436120000" lon="0.6490620000"><ele>502</ele><time>2025-12-07T07:18:40Z</time></trkpt>
<trkpt lat="43.0436120000" lon="0.6490920000"><ele>502</ele><time>2025-12-07T07:18:42Z</time></trkpt>
<trkpt lat="43.0436170000" lon="0.6491170000"><ele>502</ele><time>2025-12-07T07:18:44Z</time></trkpt>
<trkpt lat="43.0436300000" lon="0.6491570000"><ele>502</ele><time>2025-12-07T07:18:46Z</time></trkpt>
<trkpt lat="43.0436320000" lon="0.6491870000"><ele>502</ele><time>2025-12-07T07:18:48Z</time></trkpt>
<trkpt lat="43.0436370000" lon="0.6492120000"><ele>502</ele><time>2025-12-07T07:18:50Z</time></trkpt>
<trkpt lat="43.0436450000" lon="0.6492330000"><ele>503</ele><time>2025-12-07T07:18:52Z</time></trkpt>
<trkpt lat="43.0436520000" lon="0.6492570000"><ele>503</ele><time>2025-12-07T07:18:54Z</time></trkpt>
<trkpt lat="43.0436620000" lon="0.6492870000"><ele>503</ele><time>2025-12-07T07:18:56Z</time></trkpt>
<trkpt lat="43.0436720000" lon="0.6493200000"><ele>503</ele><time>2025-12-07T07:18:58Z</time></trkpt>
<trkpt lat="43.0436820000" lon="0.6493480000"><ele>503</ele><time>2025-12-07T07:19:00Z</time></trkpt>
<trkpt lat="43.0436870000" lon="0.6493820000"><ele>503</ele><time>2025-12-07T07:19:02Z</time></trkpt>
<trkpt lat="43.0436880000" lon="0.6494100000"><ele>503</ele><time>2025-12-07T07:19:04Z</time></trkpt>
<trkpt lat="43.0437050000" lon="0.6494420000"><ele>503</ele><time>2025-12-07T07:19:06Z</time></trkpt>
<trkpt lat="43.0437150000" lon="0.6494620000"><ele>503</ele><time>2025-12-07T07:19:08Z</time></trkpt>
<trkpt lat="43.0437270000" lon="0.6494900000"><ele>503</ele><time>2025-12-07T07:19:10Z</time></trkpt>
<trkpt lat="43.0437270000" lon="0.6495170000"><ele>503</ele><time>2025-12-07T07:19:12Z</time></trkpt>
<trkpt lat="43.0437270000" lon="0.6495480000"><ele>503</ele><time>2025-12-07T07:19:14Z</time></trkpt>
<trkpt lat="43.0437220000" lon="0.6495770000"><ele>503</ele><time>2025-12-07T07:19:16Z</time></trkpt>
<trkpt lat="43.0437270000" lon="0.6496100000"><ele>503</ele><time>2025-12-07T07:19:19Z</time></trkpt>
<trkpt lat="43.0437370000" lon="0.6496320000"><ele>503</ele><time>2025-12-07T07:19:20Z</time></trkpt>
<trkpt lat="43.0437470000" lon="0.6496570000"><ele>503</ele><time>2025-12-07T07:19:21Z</time></trkpt>
<trkpt lat="43.0437620000" lon="0.6496920000"><ele>503</ele><time>2025-12-07T07:19:23Z</time></trkpt>
<trkpt lat="43.0437730000" lon="0.6497220000"><ele>503</ele><time>2025-12-07T07:19:25Z</time></trkpt>
<trkpt lat="43.0437870000" lon="0.6497520000"><ele>503</ele><time>2025-12-07T07:19:27Z</time></trkpt>
<trkpt lat="43.0437900000" lon="0.6497870000"><ele>503</ele><time>2025-12-07T07:19:29Z</time></trkpt>
<trkpt lat="43.0437920000" lon="0.6498220000"><ele>503</ele><time>2025-12-07T07:19:32Z</time></trkpt>
<trkpt lat="43.0438070000" lon="0.6498400000"><ele>503</ele><time>2025-12-07T07:19:34Z</time></trkpt>
<trkpt lat="43.0438200000" lon="0.6498620000"><ele>504</ele><time>2025-12-07T07:19:36Z</time></trkpt>
<trkpt lat="43.0438320000" lon="0.6498820000"><ele>503</ele><time>2025-12-07T07:19:38Z</time></trkpt>
<trkpt lat="43.0438370000" lon="0.6499070000"><ele>503</ele><time>2025-12-07T07:19:40Z</time></trkpt>
<trkpt lat="43.0438350000" lon="0.6499370000"><ele>503</ele><time>2025-12-07T07:19:42Z</time></trkpt>
<trkpt lat="43.0438470000" lon="0.6499620000"><ele>504</ele><time>2025-12-07T07:19:44Z</time></trkpt>
<trkpt lat="43.0438570000" lon="0.6499970000"><ele>504</ele><time>2025-12-07T07:19:46Z</time></trkpt>
<trkpt lat="43.0438670000" lon="0.6500320000"><ele>503</ele><time>2025-12-07T07:19:48Z</time></trkpt>
<trkpt lat="43.0438720000" lon="0.6500670000"><ele>503</ele><time>2025-12-07T07:19:50Z</time></trkpt>
<trkpt lat="43.0438750000" lon="0.6501020000"><ele>503</ele><time>2025-12-07T07:19:52Z</time></trkpt>
<trkpt lat="43.0438800000" lon="0.6501400000"><ele>503</ele><time>2025-12-07T07:19:55Z</time></trkpt>
<trkpt lat="43.0438870000" lon="0.6501700000"><ele>503</ele><time>2025-12-07T07:19:58Z</time></trkpt>
<trkpt lat="43.0438870000" lon="0.6501980000"><ele>503</ele><time>2025-12-07T07:20:00Z</time></trkpt>
<trkpt lat="43.0438800000" lon="0.6502320000"><ele>503</ele><time>2025-12-07T07:20:03Z</time></trkpt>
<trkpt lat="43.0438950000" lon="0.6502520000"><ele>504</ele><time>2025-12-07T07:20:05Z</time></trkpt>
<trkpt lat="43.0439120000" lon="0.6502780000"><ele>503</ele><time>2025-12-07T07:20:07Z</time></trkpt>
<trkpt lat="43.0439250000" lon="0.6503100000"><ele>503</ele><time>2025-12-07T07:20:09Z</time></trkpt>
<trkpt lat="43.0439320000" lon="0.6503370000"><ele>503</ele><time>2025-12-07T07:20:10Z</time></trkpt>
<trkpt lat="43.0439450000" lon="0.6503720000"><ele>503</ele><time>2025-12-07T07:20:12Z</time></trkpt>
<trkpt lat="43.0439570000" lon="0.6504020000"><ele>503</ele><time>2025-12-07T07:20:14Z</time></trkpt>
<trkpt lat="43.0439600000" lon="0.6504320000"><ele>503</ele><time>2025-12-07T07:20:16Z</time></trkpt>
<trkpt lat="43.0439570000" lon="0.6504600000"><ele>503</ele><time>2025-12-07T07:20:18Z</time></trkpt>
<trkpt lat="43.0439620000" lon="0.6504870000"><ele>504</ele><time>2025-12-07T07:20:20Z</time></trkpt>
<trkpt lat="43.0439700000" lon="0.6505170000"><ele>504</ele><time>2025-12-07T07:20:23Z</time></trkpt>
<trkpt lat="43.0439800000" lon="0.6505470000"><ele>504</ele><time>2025-12-07T07:20:26Z</time></trkpt>
<trkpt lat="43.0439900000" lon="0.6505770000"><ele>504</ele><time>2025-12-07T07:20:29Z</time></trkpt>
<trkpt lat="43.0439970000" lon="0.6506070000"><ele>504</ele><time>2025-12-07T07:20:31Z</time></trkpt>
<trkpt lat="43.0440020000" lon="0.6506350000"><ele>504</ele><time>2025-12-07T07:20:33Z</time></trkpt>
<trkpt lat="43.0440070000" lon="0.6506700000"><ele>504</ele><time>2025-12-07T07:20:36Z</time></trkpt>
<trkpt lat="43.0440020000" lon="0.6507020000"><ele>504</ele><time>2025-12-07T07:20:39Z</time></trkpt>
<trkpt lat="43.0440120000" lon="0.6507420000"><ele>504</ele><time>2025-12-07T07:20:42Z</time></trkpt>
<trkpt lat="43.0440220000" lon="0.6507870000"><ele>504</ele><time>2025-12-07T07:20:44Z</time></trkpt>
<trkpt lat="43.0440370000" lon="0.6508300000"><ele>504</ele><time>2025-12-07T07:20:46Z</time></trkpt>
<trkpt lat="43.0440450000" lon="0.6508700000"><ele>505</ele><time>2025-12-07T07:20:48Z</time></trkpt>
<trkpt lat="43.0440520000" lon="0.6509070000"><ele>505</ele><time>2025-12-07T07:20:50Z</time></trkpt>
<trkpt lat="43.0440570000" lon="0.6509370000"><ele>505</ele><time>2025-12-07T07:20:52Z</time></trkpt>
<trkpt lat="43.0440600000" lon="0.6509650000"><ele>505</ele><time>2025-12-07T07:20:54Z</time></trkpt>
<trkpt lat="43.0440670000" lon="0.6509920000"><ele>505</ele><time>2025-12-07T07:20:56Z</time></trkpt>
<trkpt lat="43.0440800000" lon="0.6510120000"><ele>505</ele><time>2025-12-07T07:20:58Z</time></trkpt>
<trkpt lat="43.0440870000" lon="0.6510520000"><ele>505</ele><time>2025-12-07T07:21:01Z</time></trkpt>
<trkpt lat="43.0440920000" lon="0.6510850000"><ele>504</ele><time>2025-12-07T07:21:03Z</time></trkpt>
<trkpt lat="43.0440920000" lon="0.6511120000"><ele>505</ele><time>2025-12-07T07:21:05Z</time></trkpt>
<trkpt lat="43.0440920000" lon="0.6511420000"><ele>505</ele><time>2025-12-07T07:21:07Z</time></trkpt>
<trkpt lat="43.0440970000" lon="0.6511730000"><ele>505</ele><time>2025-12-07T07:21:09Z</time></trkpt>
<trkpt lat="43.0441070000" lon="0.6512000000"><ele>505</ele><time>2025-12-07T07:21:11Z</time></trkpt>
<trkpt lat="43.0441220000" lon="0.6512270000"><ele>505</ele><time>2025-12-07T07:21:14Z</time></trkpt>
<trkpt lat="43.0441150000" lon="0.6512570000"><ele>505</ele><time>2025-12-07T07:21:16Z</time></trkpt>
<trkpt lat="43.0441220000" lon="0.6512920000"><ele>505</ele><time>2025-12-07T07:21:18Z</time></trkpt>
<trkpt lat="43.0441300000" lon="0.6513170000"><ele>505</ele><time>2025-12-07T07:21:20Z</time></trkpt>
<trkpt lat="43.0441420000" lon="0.6513430000"><ele>505</ele><time>2025-12-07T07:21:22Z</time></trkpt>
<trkpt lat="43.0441520000" lon="0.6513700000"><ele>505</ele><time>2025-12-07T07:21:24Z</time></trkpt>
<trkpt lat="43.0441620000" lon="0.6514020000"><ele>505</ele><time>2025-12-07T07:21:26Z</time></trkpt>
<trkpt lat="43.0441650000" lon="0.6514270000"><ele>505</ele><time>2025-12-07T07:21:28Z</time></trkpt>
<trkpt lat="43.0441670000" lon="0.6514570000"><ele>505</ele><time>2025-12-07T07:21:30Z</time></trkpt>
<trkpt lat="43.0441770000" lon="0.6514920000"><ele>505</ele><time>2025-12-07T07:21:33Z</time></trkpt>
<trkpt lat="43.0441820000" lon="0.6515170000"><ele>505</ele><time>2025-12-07T07:21:35Z</time></trkpt>
<trkpt lat="43.0441900000" lon="0.6515450000"><ele>505</ele><time>2025-12-07T07:21:37Z</time></trkpt>
<trkpt lat="43.0442000000" lon="0.6515680000"><ele>505</ele><time>2025-12-07T07:21:39Z</time></trkpt>
<trkpt lat="43.0442070000" lon="0.6515950000"><ele>505</ele><time>2025-12-07T07:21:41Z</time></trkpt>
<trkpt lat="43.0442220000" lon="0.6516270000"><ele>505</ele><time>2025-12-07T07:21:43Z</time></trkpt>
<trkpt lat="43.0442400000" lon="0.6516600000"><ele>505</ele><time>2025-12-07T07:21:45Z</time></trkpt>
<trkpt lat="43.0442550000" lon="0.6516900000"><ele>505</ele><time>2025-12-07T07:21:47Z</time></trkpt>
<trkpt lat="43.0442570000" lon="0.6517150000"><ele>506</ele><time>2025-12-07T07:21:49Z</time></trkpt>
<trkpt lat="43.0442720000" lon="0.6517370000"><ele>505</ele><time>2025-12-07T07:21:51Z</time></trkpt>
<trkpt lat="43.0442870000" lon="0.6517570000"><ele>506</ele><time>2025-12-07T07:21:53Z</time></trkpt>
<trkpt lat="43.0442970000" lon="0.6517970000"><ele>506</ele><time>2025-12-07T07:21:57Z</time></trkpt>
<trkpt lat="43.0443020000" lon="0.6518220000"><ele>506</ele><time>2025-12-07T07:21:58Z</time></trkpt>
<trkpt lat="43.0443150000" lon="0.6518450000"><ele>506</ele><time>2025-12-07T07:21:59Z</time></trkpt>
<trkpt lat="43.0443320000" lon="0.6518670000"><ele>506</ele><time>2025-12-07T07:22:01Z</time></trkpt>
<trkpt lat="43.0443450000" lon="0.6519070000"><ele>506</ele><time>2025-12-07T07:22:03Z</time></trkpt>
<trkpt lat="43.0443450000" lon="0.6519350000"><ele>506</ele><time>2025-12-07T07:22:05Z</time></trkpt>
<trkpt lat="43.0443550000" lon="0.6519570000"><ele>506</ele><time>2025-12-07T07:22:07Z</time></trkpt>
<trkpt lat="43.0443720000" lon="0.6519800000"><ele>506</ele><time>2025-12-07T07:22:10Z</time></trkpt>
<trkpt lat="43.0443850000" lon="0.6519970000"><ele>506</ele><time>2025-12-07T07:22:12Z</time></trkpt>
<trkpt lat="43.0444020000" lon="0.6520120000"><ele>507</ele><time>2025-12-07T07:22:14Z</time></trkpt>
<trkpt lat="43.0444120000" lon="0.6520370000"><ele>507</ele><time>2025-12-07T07:22:17Z</time></trkpt>
<trkpt lat="43.0444120000" lon="0.6520720000"><ele>507</ele><time>2025-12-07T07:22:19Z</time></trkpt>
<trkpt lat="43.0444170000" lon="0.6521020000"><ele>507</ele><time>2025-12-07T07:22:21Z</time></trkpt>
<trkpt lat="43.0444300000" lon="0.6521280000"><ele>508</ele><time>2025-12-07T07:22:23Z</time></trkpt>
<trkpt lat="43.0444420000" lon="0.6521570000"><ele>508</ele><time>2025-12-07T07:22:25Z</time></trkpt>
<trkpt lat="43.0444480000" lon="0.6521820000"><ele>508</ele><time>2025-12-07T07:22:27Z</time></trkpt>
<trkpt lat="43.0444670000" lon="0.6522020000"><ele>508</ele><time>2025-12-07T07:22:29Z</time></trkpt>
<trkpt lat="43.0444870000" lon="0.6522350000"><ele>508</ele><time>2025-12-07T07:22:32Z</time></trkpt>
<trkpt lat="43.0445000000" lon="0.6522670000"><ele>508</ele><time>2025-12-07T07:22:35Z</time></trkpt>
<trkpt lat="43.0445170000" lon="0.6522820000"><ele>509</ele><time>2025-12-07T07:22:37Z</time></trkpt>
<trkpt lat="43.0445320000" lon="0.6523050000"><ele>509</ele><time>2025-12-07T07:22:40Z</time></trkpt>
<trkpt lat="43.0445470000" lon="0.6523270000"><ele>509</ele><time>2025-12-07T07:22:43Z</time></trkpt>
<trkpt lat="43.0445620000" lon="0.6523570000"><ele>509</ele><time>2025-12-07T07:22:46Z</time></trkpt>
<trkpt lat="43.0445700000" lon="0.6523820000"><ele>509</ele><time>2025-12-07T07:22:48Z</time></trkpt>
<trkpt lat="43.0445800000" lon="0.6524100000"><ele>510</ele><time>2025-12-07T07:22:50Z</time></trkpt>
<trkpt lat="43.0445920000" lon="0.6524320000"><ele>510</ele><time>2025-12-07T07:22:53Z</time></trkpt>
<trkpt lat="43.0446170000" lon="0.6524470000"><ele>510</ele><time>2025-12-07T07:22:56Z</time></trkpt>
<trkpt lat="43.0446300000" lon="0.6524700000"><ele>510</ele><time>2025-12-07T07:22:58Z</time></trkpt>
<trkpt lat="43.0446370000" lon="0.6525020000"><ele>510</ele><time>2025-12-07T07:23:00Z</time></trkpt>
<trkpt lat="43.0446400000" lon="0.6525270000"><ele>510</ele><time>2025-12-07T07:23:04Z</time></trkpt>
<trkpt lat="43.0446520000" lon="0.6525570000"><ele>510</ele><time>2025-12-07T07:23:07Z</time></trkpt>
<trkpt lat="43.0446550000" lon="0.6525970000"><ele>510</ele><time>2025-12-07T07:23:09Z</time></trkpt>
<trkpt lat="43.0446730000" lon="0.6526170000"><ele>511</ele><time>2025-12-07T07:23:11Z</time></trkpt>
<trkpt lat="43.0446970000" lon="0.6526300000"><ele>511</ele><time>2025-12-07T07:23:12Z</time></trkpt>
<trkpt lat="43.0447150000" lon="0.6526530000"><ele>511</ele><time>2025-12-07T07:23:14Z</time></trkpt>
<trkpt lat="43.0447270000" lon="0.6526920000"><ele>511</ele><time>2025-12-07T07:23:16Z</time></trkpt>
<trkpt lat="43.0447370000" lon="0.6527150000"><ele>511</ele><time>2025-12-07T07:23:18Z</time></trkpt>
<trkpt lat="43.0447420000" lon="0.6527400000"><ele>511</ele><time>2025-12-07T07:23:20Z</time></trkpt>
<trkpt lat="43.0447570000" lon="0.6527570000"><ele>511</ele><time>2025-12-07T07:23:22Z</time></trkpt>
<trkpt lat="43.0447700000" lon="0.6527920000"><ele>512</ele><time>2025-12-07T07:23:25Z</time></trkpt>
<trkpt lat="43.0447820000" lon="0.6528120000"><ele>512</ele><time>2025-12-07T07:23:27Z</time></trkpt>
<trkpt lat="43.0447920000" lon="0.6528370000"><ele>512</ele><time>2025-12-07T07:23:29Z</time></trkpt>
<trkpt lat="43.0448050000" lon="0.6528680000"><ele>512</ele><time>2025-12-07T07:23:32Z</time></trkpt>
<trkpt lat="43.0448220000" lon="0.6528950000"><ele>513</ele><time>2025-12-07T07:23:35Z</time></trkpt>
<trkpt lat="43.0448350000" lon="0.6529150000"><ele>513</ele><time>2025-12-07T07:23:38Z</time></trkpt>
<trkpt lat="43.0448450000" lon="0.6529370000"><ele>513</ele><time>2025-12-07T07:23:40Z</time></trkpt>
<trkpt lat="43.0448600000" lon="0.6529550000"><ele>513</ele><time>2025-12-07T07:23:42Z</time></trkpt>
<trkpt lat="43.0448770000" lon="0.6529670000"><ele>513</ele><time>2025-12-07T07:23:47Z</time></trkpt>
<trkpt lat="43.0448750000" lon="0.6529920000"><ele>513</ele><time>2025-12-07T07:23:55Z</time></trkpt>
<trkpt lat="43.0448850000" lon="0.6530220000"><ele>513</ele><time>2025-12-07T07:23:59Z</time></trkpt>
<trkpt lat="43.0448920000" lon="0.6530520000"><ele>514</ele><time>2025-12-07T07:24:02Z</time></trkpt>
<trkpt lat="43.0449020000" lon="0.6530820000"><ele>514</ele><time>2025-12-07T07:24:04Z</time></trkpt>
<trkpt lat="43.0449170000" lon="0.6531070000"><ele>514</ele><time>2025-12-07T07:24:06Z</time></trkpt>
<trkpt lat="43.0449270000" lon="0.6531350000"><ele>514</ele><time>2025-12-07T07:24:08Z</time></trkpt>
<trkpt lat="43.0449420000" lon="0.6531570000"><ele>514</ele><time>2025-12-07T07:24:10Z</time></trkpt>
<trkpt lat="43.0449550000" lon="0.6531820000"><ele>514</ele><time>2025-12-07T07:24:12Z</time></trkpt>
<trkpt lat="43.0449600000" lon="0.6532120000"><ele>514</ele><time>2025-12-07T07:24:14Z</time></trkpt>
<trkpt lat="43.0449750000" lon="0.6532320000"><ele>514</ele><time>2025-12-07T07:24:16Z</time></trkpt>
<trkpt lat="43.0449830000" lon="0.6532620000"><ele>515</ele><time>2025-12-07T07:24:19Z</time></trkpt>
<trkpt lat="43.0450020000" lon="0.6532800000"><ele>515</ele><time>2025-12-07T07:24:22Z</time></trkpt>
<trkpt lat="43.0450120000" lon="0.6533020000"><ele>515</ele><time>2025-12-07T07:24:24Z</time></trkpt>
<trkpt lat="43.0450300000" lon="0.6533320000"><ele>515</ele><time>2025-12-07T07:24:26Z</time></trkpt>
<trkpt lat="43.0450450000" lon="0.6533620000"><ele>515</ele><time>2025-12-07T07:24:28Z</time></trkpt>
<trkpt lat="43.0450620000" lon="0.6533930000"><ele>515</ele><time>2025-12-07T07:24:30Z</time></trkpt>
<trkpt lat="43.0450700000" lon="0.6534270000"><ele>516</ele><time>2025-12-07T07:24:32Z</time></trkpt>
<trkpt lat="43.0450770000" lon="0.6534520000"><ele>516</ele><time>2025-12-07T07:24:34Z</time></trkpt>
<trkpt lat="43.0450950000" lon="0.6534820000"><ele>516</ele><time>2025-12-07T07:24:37Z</time></trkpt>
<trkpt lat="43.0451100000" lon="0.6535020000"><ele>516</ele><time>2025-12-07T07:24:39Z</time></trkpt>
<trkpt lat="43.0451300000" lon="0.6535250000"><ele>516</ele><time>2025-12-07T07:24:42Z</time></trkpt>
<trkpt lat="43.0451370000" lon="0.6535500000"><ele>516</ele><time>2025-12-07T07:24:44Z</time></trkpt>
<trkpt lat="43.0451520000" lon="0.6535750000"><ele>516</ele><time>2025-12-07T07:24:47Z</time></trkpt>
<trkpt lat="43.0451620000" lon="0.6536020000"><ele>516</ele><time>2025-12-07T07:24:50Z</time></trkpt>
<trkpt lat="43.0451670000" lon="0.6536270000"><ele>517</ele><time>2025-12-07T07:24:52Z</time></trkpt>
<trkpt lat="43.0451770000" lon="0.6536570000"><ele>517</ele><time>2025-12-07T07:24:54Z</time></trkpt>
<trkpt lat="43.0451900000" lon="0.6536820000"><ele>517</ele><time>2025-12-07T07:24:56Z</time></trkpt>
<trkpt lat="43.0452070000" lon="0.6537070000"><ele>517</ele><time>2025-12-07T07:24:58Z</time></trkpt>
<trkpt lat="43.0452020000" lon="0.6537320000"><ele>517</ele><time>2025-12-07T07:25:01Z</time></trkpt>
<trkpt lat="43.0452170000" lon="0.6537600000"><ele>517</ele><time>2025-12-07T07:25:04Z</time></trkpt>
<trkpt lat="43.0452270000" lon="0.6537880000"><ele>518</ele><time>2025-12-07T07:25:07Z</time></trkpt>
<trkpt lat="43.0452450000" lon="0.6538170000"><ele>518</ele><time>2025-12-07T07:25:09Z</time></trkpt>
<trkpt lat="43.0452620000" lon="0.6538420000"><ele>518</ele><time>2025-12-07T07:25:11Z</time></trkpt>
<trkpt lat="43.0452650000" lon="0.6538720000"><ele>518</ele><time>2025-12-07T07:25:14Z</time></trkpt>
<trkpt lat="43.0452650000" lon="0.6539120000"><ele>518</ele><time>2025-12-07T07:25:17Z</time></trkpt>
<trkpt lat="43.0452770000" lon="0.6539420000"><ele>519</ele><time>2025-12-07T07:25:19Z</time></trkpt>
<trkpt lat="43.0452870000" lon="0.6539620000"><ele>519</ele><time>2025-12-07T07:25:21Z</time></trkpt>
<trkpt lat="43.0453020000" lon="0.6539870000"><ele>519</ele><time>2025-12-07T07:25:23Z</time></trkpt>
<trkpt lat="43.0453070000" lon="0.6540170000"><ele>519</ele><time>2025-12-07T07:25:26Z</time></trkpt>
<trkpt lat="43.0453320000" lon="0.6540470000"><ele>519</ele><time>2025-12-07T07:25:31Z</time></trkpt>
<trkpt lat="43.0453470000" lon="0.6540670000"><ele>519</ele><time>2025-12-07T07:25:33Z</time></trkpt>
<trkpt lat="43.0453520000" lon="0.6541020000"><ele>520</ele><time>2025-12-07T07:25:36Z</time></trkpt>
<trkpt lat="43.0453570000" lon="0.6541300000"><ele>520</ele><time>2025-12-07T07:25:38Z</time></trkpt>
<trkpt lat="43.0453770000" lon="0.6541420000"><ele>520</ele><time>2025-12-07T07:25:40Z</time></trkpt>
<trkpt lat="43.0453900000" lon="0.6541670000"><ele>520</ele><time>2025-12-07T07:25:43Z</time></trkpt>
<trkpt lat="43.0454020000" lon="0.6541900000"><ele>520</ele><time>2025-12-07T07:25:45Z</time></trkpt>
<trkpt lat="43.0454070000" lon="0.6542170000"><ele>520</ele><time>2025-12-07T07:25:47Z</time></trkpt>
<trkpt lat="43.0453920000" lon="0.6542320000"><ele>520</ele><time>2025-12-07T07:25:49Z</time></trkpt>
<trkpt lat="43.0454100000" lon="0.6542570000"><ele>520</ele><time>2025-12-07T07:25:59Z</time></trkpt>
<trkpt lat="43.0454270000" lon="0.6542870000"><ele>520</ele><time>2025-12-07T07:26:01Z</time></trkpt>
<trkpt lat="43.0454370000" lon="0.6543200000"><ele>521</ele><time>2025-12-07T07:26:03Z</time></trkpt>
<trkpt lat="43.0454420000" lon="0.6543520000"><ele>521</ele><time>2025-12-07T07:26:05Z</time></trkpt>
<trkpt lat="43.0454470000" lon="0.6543770000"><ele>521</ele><time>2025-12-07T07:26:08Z</time></trkpt>
<trkpt lat="43.0454570000" lon="0.6544170000"><ele>521</ele><time>2025-12-07T07:26:11Z</time></trkpt>
<trkpt lat="43.0454700000" lon="0.6544370000"><ele>522</ele><time>2025-12-07T07:26:14Z</time></trkpt>
<trkpt lat="43.0454850000" lon="0.6544570000"><ele>522</ele><time>2025-12-07T07:26:17Z</time></trkpt>
<trkpt lat="43.0454950000" lon="0.6544800000"><ele>522</ele><time>2025-12-07T07:26:19Z</time></trkpt>
<trkpt lat="43.0455070000" lon="0.6545070000"><ele>522</ele><time>2025-12-07T07:26:22Z</time></trkpt>
<trkpt lat="43.0455220000" lon="0.6545250000"><ele>522</ele><time>2025-12-07T07:26:24Z</time></trkpt>
<trkpt lat="43.0455370000" lon="0.6545450000"><ele>522</ele><time>2025-12-07T07:26:26Z</time></trkpt>
<trkpt lat="43.0455450000" lon="0.6545720000"><ele>522</ele><time>2025-12-07T07:26:29Z</time></trkpt>
<trkpt lat="43.0455600000" lon="0.6545970000"><ele>523</ele><time>2025-12-07T07:26:31Z</time></trkpt>
<trkpt lat="43.0455800000" lon="0.6546320000"><ele>522</ele><time>2025-12-07T07:26:34Z</time></trkpt>
<trkpt lat="43.0455770000" lon="0.6546720000"><ele>523</ele><time>2025-12-07T07:26:36Z</time></trkpt>
<trkpt lat="43.0455820000" lon="0.6546970000"><ele>523</ele><time>2025-12-07T07:26:38Z</time></trkpt>
<trkpt lat="43.0455920000" lon="0.6547270000"><ele>523</ele><time>2025-12-07T07:26:41Z</time></trkpt>
<trkpt lat="43.0456020000" lon="0.6547570000"><ele>523</ele><time>2025-12-07T07:26:43Z</time></trkpt>
<trkpt lat="43.0456150000" lon="0.6547770000"><ele>524</ele><time>2025-12-07T07:26:45Z</time></trkpt>
<trkpt lat="43.0456300000" lon="0.6548020000"><ele>524</ele><time>2025-12-07T07:26:47Z</time></trkpt>
<trkpt lat="43.0456450000" lon="0.6548220000"><ele>524</ele><time>2025-12-07T07:26:49Z</time></trkpt>
<trkpt lat="43.0456550000" lon="0.6548470000"><ele>524</ele><time>2025-12-07T07:26:52Z</time></trkpt>
<trkpt lat="43.0456650000" lon="0.6548720000"><ele>524</ele><time>2025-12-07T07:26:54Z</time></trkpt>
<trkpt lat="43.0456750000" lon="0.6548970000"><ele>525</ele><time>2025-12-07T07:26:56Z</time></trkpt>
<trkpt lat="43.0456920000" lon="0.6549220000"><ele>525</ele><time>2025-12-07T07:26:59Z</time></trkpt>
<trkpt lat="43.0457070000" lon="0.6549500000"><ele>525</ele><time>2025-12-07T07:27:01Z</time></trkpt>
<trkpt lat="43.0457150000" lon="0.6549770000"><ele>525</ele><time>2025-12-07T07:27:03Z</time></trkpt>
<trkpt lat="43.0457250000" lon="0.6550030000"><ele>525</ele><time>2025-12-07T07:27:05Z</time></trkpt>
<trkpt lat="43.0457270000" lon="0.6550300000"><ele>525</ele><time>2025-12-07T07:27:07Z</time></trkpt>
<trkpt lat="43.0457420000" lon="0.6550570000"><ele>525</ele><time>2025-12-07T07:27:09Z</time></trkpt>
<trkpt lat="43.0457570000" lon="0.6550870000"><ele>525</ele><time>2025-12-07T07:27:12Z</time></trkpt>
<trkpt lat="43.0457670000" lon="0.6551070000"><ele>525</ele><time>2025-12-07T07:27:14Z</time></trkpt>
<trkpt lat="43.0457900000" lon="0.6551300000"><ele>526</ele><time>2025-12-07T07:27:16Z</time></trkpt>
<trkpt lat="43.0458120000" lon="0.6551520000"><ele>525</ele><time>2025-12-07T07:27:18Z</time></trkpt>
<trkpt lat="43.0458220000" lon="0.6551820000"><ele>526</ele><time>2025-12-07T07:27:21Z</time></trkpt>
<trkpt lat="43.0458220000" lon="0.6552120000"><ele>526</ele><time>2025-12-07T07:27:36Z</time></trkpt>
<trkpt lat="43.0458370000" lon="0.6552430000"><ele>526</ele><time>2025-12-07T07:27:39Z</time></trkpt>
<trkpt lat="43.0458470000" lon="0.6552700000"><ele>526</ele><time>2025-12-07T07:27:44Z</time></trkpt>
<trkpt lat="43.0458670000" lon="0.6553050000"><ele>527</ele><time>2025-12-07T07:27:46Z</time></trkpt>
<trkpt lat="43.0458870000" lon="0.6553270000"><ele>527</ele><time>2025-12-07T07:27:48Z</time></trkpt>
<trkpt lat="43.0459020000" lon="0.6553520000"><ele>527</ele><time>2025-12-07T07:27:50Z</time></trkpt>
<trkpt lat="43.0459170000" lon="0.6553670000"><ele>527</ele><time>2025-12-07T07:27:52Z</time></trkpt>
<trkpt lat="43.0459270000" lon="0.6553920000"><ele>527</ele><time>2025-12-07T07:27:54Z</time></trkpt>
<trkpt lat="43.0459270000" lon="0.6554270000"><ele>528</ele><time>2025-12-07T07:27:56Z</time></trkpt>
<trkpt lat="43.0459370000" lon="0.6554470000"><ele>528</ele><time>2025-12-07T07:27:58Z</time></trkpt>
<trkpt lat="43.0459400000" lon="0.6554820000"><ele>528</ele><time>2025-12-07T07:28:00Z</time></trkpt>
<trkpt lat="43.0459450000" lon="0.6555100000"><ele>528</ele><time>2025-12-07T07:28:02Z</time></trkpt>
<trkpt lat="43.0459520000" lon="0.6555370000"><ele>528</ele><time>2025-12-07T07:28:05Z</time></trkpt>
<trkpt lat="43.0459370000" lon="0.6555550000"><ele>528</ele><time>2025-12-07T07:28:21Z</time></trkpt>
<trkpt lat="43.0459220000" lon="0.6555720000"><ele>528</ele><time>2025-12-07T07:28:23Z</time></trkpt>
<trkpt lat="43.0459450000" lon="0.6555670000"><ele>529</ele><time>2025-12-07T07:29:48Z</time></trkpt>
<trkpt lat="43.0459620000" lon="0.6555720000"><ele>529</ele><time>2025-12-07T07:29:49Z</time></trkpt>
<trkpt lat="43.0459820000" lon="0.6555770000"><ele>529</ele><time>2025-12-07T07:29:50Z</time></trkpt>
<trkpt lat="43.0460070000" lon="0.6555920000"><ele>529</ele><time>2025-12-07T07:29:52Z</time></trkpt>
<trkpt lat="43.0460220000" lon="0.6556130000"><ele>529</ele><time>2025-12-07T07:29:54Z</time></trkpt>
<trkpt lat="43.0460320000" lon="0.6556420000"><ele>529</ele><time>2025-12-07T07:29:56Z</time></trkpt>
<trkpt lat="43.0460470000" lon="0.6556620000"><ele>529</ele><time>2025-12-07T07:29:58Z</time></trkpt>
<trkpt lat="43.0460620000" lon="0.6556870000"><ele>529</ele><time>2025-12-07T07:30:01Z</time></trkpt>
<trkpt lat="43.0460770000" lon="0.6557150000"><ele>530</ele><time>2025-12-07T07:30:03Z</time></trkpt>
<trkpt lat="43.0460870000" lon="0.6557370000"><ele>530</ele><time>2025-12-07T07:30:05Z</time></trkpt>
<trkpt lat="43.0461070000" lon="0.6557570000"><ele>531</ele><time>2025-12-07T07:30:07Z</time></trkpt>
<trkpt lat="43.0461220000" lon="0.6557870000"><ele>531</ele><time>2025-12-07T07:30:10Z</time></trkpt>
<trkpt lat="43.0461400000" lon="0.6558070000"><ele>531</ele><time>2025-12-07T07:30:13Z</time></trkpt>
<trkpt lat="43.0461550000" lon="0.6558370000"><ele>531</ele><time>2025-12-07T07:30:16Z</time></trkpt>
<trkpt lat="43.0461670000" lon="0.6558670000"><ele>531</ele><time>2025-12-07T07:30:19Z</time></trkpt>
<trkpt lat="43.0461750000" lon="0.6558920000"><ele>532</ele><time>2025-12-07T07:30:21Z</time></trkpt>
<trkpt lat="43.0461870000" lon="0.6559150000"><ele>532</ele><time>2025-12-07T07:30:23Z</time></trkpt>
<trkpt lat="43.0461970000" lon="0.6559380000"><ele>532</ele><time>2025-12-07T07:30:25Z</time></trkpt>
<trkpt lat="43.0462200000" lon="0.6559650000"><ele>533</ele><time>2025-12-07T07:30:28Z</time></trkpt>
<trkpt lat="43.0462320000" lon="0.6559850000"><ele>533</ele><time>2025-12-07T07:30:31Z</time></trkpt>
<trkpt lat="43.0462470000" lon="0.6560120000"><ele>533</ele><time>2025-12-07T07:30:34Z</time></trkpt>
<trkpt lat="43.0462600000" lon="0.6560320000"><ele>533</ele><time>2025-12-07T07:30:36Z</time></trkpt>
<trkpt lat="43.0462720000" lon="0.6560520000"><ele>533</ele><time>2025-12-07T07:30:38Z</time></trkpt>
<trkpt lat="43.0462870000" lon="0.6560670000"><ele>533</ele><time>2025-12-07T07:30:40Z</time></trkpt>
<trkpt lat="43.0463020000" lon="0.6560870000"><ele>533</ele><time>2025-12-07T07:30:42Z</time></trkpt>
<trkpt lat="43.0463150000" lon="0.6561120000"><ele>534</ele><time>2025-12-07T07:30:44Z</time></trkpt>
<trkpt lat="43.0463320000" lon="0.6561320000"><ele>534</ele><time>2025-12-07T07:30:46Z</time></trkpt>
<trkpt lat="43.0463400000" lon="0.6561600000"><ele>534</ele><time>2025-12-07T07:30:48Z</time></trkpt>
<trkpt lat="43.0463520000" lon="0.6561820000"><ele>534</ele><time>2025-12-07T07:30:51Z</time></trkpt>
<trkpt lat="43.0463620000" lon="0.6562070000"><ele>535</ele><time>2025-12-07T07:30:54Z</time></trkpt>
<trkpt lat="43.0463700000" lon="0.6562320000"><ele>535</ele><time>2025-12-07T07:30:56Z</time></trkpt>
<trkpt lat="43.0463850000" lon="0.6562500000"><ele>535</ele><time>2025-12-07T07:30:58Z</time></trkpt>
<trkpt lat="43.0464050000" lon="0.6562570000"><ele>535</ele><time>2025-12-07T07:31:00Z</time></trkpt>
<trkpt lat="43.0464170000" lon="0.6562770000"><ele>535</ele><time>2025-12-07T07:31:02Z</time></trkpt>
<trkpt lat="43.0464370000" lon="0.6562950000"><ele>535</ele><time>2025-12-07T07:31:04Z</time></trkpt>
<trkpt lat="43.0464550000" lon="0.6563170000"><ele>536</ele><time>2025-12-07T07:31:07Z</time></trkpt>
<trkpt lat="43.0464650000" lon="0.6563500000"><ele>536</ele><time>2025-12-07T07:31:10Z</time></trkpt>
<trkpt lat="43.0464770000" lon="0.6563720000"><ele>536</ele><time>2025-12-07T07:31:12Z</time></trkpt>
<trkpt lat="43.0464920000" lon="0.6563930000"><ele>536</ele><time>2025-12-07T07:31:15Z</time></trkpt>
<trkpt lat="43.0465120000" lon="0.6564120000"><ele>537</ele><time>2025-12-07T07:31:18Z</time></trkpt>
<trkpt lat="43.0465270000" lon="0.6564370000"><ele>537</ele><time>2025-12-07T07:31:22Z</time></trkpt>
<trkpt lat="43.0465470000" lon="0.6564550000"><ele>537</ele><time>2025-12-07T07:31:25Z</time></trkpt>
<trkpt lat="43.0465720000" lon="0.6564650000"><ele>537</ele><time>2025-12-07T07:31:28Z</time></trkpt>
<trkpt lat="43.0465870000" lon="0.6564750000"><ele>538</ele><time>2025-12-07T07:31:31Z</time></trkpt>
<trkpt lat="43.0466070000" lon="0.6565020000"><ele>538</ele><time>2025-12-07T07:31:34Z</time></trkpt>
<trkpt lat="43.0466220000" lon="0.6565220000"><ele>538</ele><time>2025-12-07T07:31:36Z</time></trkpt>
<trkpt lat="43.0466320000" lon="0.6565480000"><ele>538</ele><time>2025-12-07T07:31:39Z</time></trkpt>
<trkpt lat="43.0466430000" lon="0.6565750000"><ele>539</ele><time>2025-12-07T07:31:42Z</time></trkpt>
<trkpt lat="43.0466700000" lon="0.6565850000"><ele>539</ele><time>2025-12-07T07:31:45Z</time></trkpt>
<trkpt lat="43.0466870000" lon="0.6566070000"><ele>539</ele><time>2025-12-07T07:31:49Z</time></trkpt>
<trkpt lat="43.0467050000" lon="0.6566320000"><ele>540</ele><time>2025-12-07T07:31:52Z</time></trkpt>
<trkpt lat="43.0467170000" lon="0.6566520000"><ele>540</ele><time>2025-12-07T07:31:55Z</time></trkpt>
<trkpt lat="43.0467220000" lon="0.6566920000"><ele>540</ele><time>2025-12-07T07:31:58Z</time></trkpt>
<trkpt lat="43.0467280000" lon="0.6567220000"><ele>540</ele><time>2025-12-07T07:32:00Z</time></trkpt>
<trkpt lat="43.0467520000" lon="0.6567420000"><ele>541</ele><time>2025-12-07T07:32:09Z</time></trkpt>
<trkpt lat="43.0467820000" lon="0.6567720000"><ele>541</ele><time>2025-12-07T07:32:11Z</time></trkpt>
<trkpt lat="43.0467970000" lon="0.6567870000"><ele>542</ele><time>2025-12-07T07:32:12Z</time></trkpt>
<trkpt lat="43.0468170000" lon="0.6568070000"><ele>542</ele><time>2025-12-07T07:32:14Z</time></trkpt>
<trkpt lat="43.0468320000" lon="0.6568350000"><ele>542</ele><time>2025-12-07T07:32:16Z</time></trkpt>
<trkpt lat="43.0468470000" lon="0.6568520000"><ele>542</ele><time>2025-12-07T07:32:18Z</time></trkpt>
<trkpt lat="43.0468620000" lon="0.6568670000"><ele>542</ele><time>2025-12-07T07:32:20Z</time></trkpt>
<trkpt lat="43.0468800000" lon="0.6568820000"><ele>542</ele><time>2025-12-07T07:32:23Z</time></trkpt>
<trkpt lat="43.0468970000" lon="0.6569000000"><ele>543</ele><time>2025-12-07T07:32:26Z</time></trkpt>
<trkpt lat="43.0469170000" lon="0.6569020000"><ele>543</ele><time>2025-12-07T07:32:28Z</time></trkpt>
<trkpt lat="43.0469270000" lon="0.6569220000"><ele>543</ele><time>2025-12-07T07:32:30Z</time></trkpt>
<trkpt lat="43.0469420000" lon="0.6569370000"><ele>543</ele><time>2025-12-07T07:32:32Z</time></trkpt>
<trkpt lat="43.0469570000" lon="0.6569650000"><ele>544</ele><time>2025-12-07T07:32:38Z</time></trkpt>
<trkpt lat="43.0469650000" lon="0.6569970000"><ele>544</ele><time>2025-12-07T07:32:40Z</time></trkpt>
<trkpt lat="43.0469770000" lon="0.6570170000"><ele>544</ele><time>2025-12-07T07:32:42Z</time></trkpt>
<trkpt lat="43.0469920000" lon="0.6570420000"><ele>544</ele><time>2025-12-07T07:32:46Z</time></trkpt>
<trkpt lat="43.0470050000" lon="0.6570620000"><ele>545</ele><time>2025-12-07T07:32:49Z</time></trkpt>
<trkpt lat="43.0470220000" lon="0.6570820000"><ele>545</ele><time>2025-12-07T07:32:53Z</time></trkpt>
<trkpt lat="43.0470420000" lon="0.6570970000"><ele>545</ele><time>2025-12-07T07:32:55Z</time></trkpt>
<trkpt lat="43.0470720000" lon="0.6571070000"><ele>545</ele><time>2025-12-07T07:32:58Z</time></trkpt>
<trkpt lat="43.0470920000" lon="0.6571220000"><ele>545</ele><time>2025-12-07T07:33:00Z</time></trkpt>
<trkpt lat="43.0471150000" lon="0.6571350000"><ele>546</ele><time>2025-12-07T07:33:03Z</time></trkpt>
<trkpt lat="43.0471220000" lon="0.6571600000"><ele>546</ele><time>2025-12-07T07:33:06Z</time></trkpt>
<trkpt lat="43.0471370000" lon="0.6571720000"><ele>546</ele><time>2025-12-07T07:33:10Z</time></trkpt>
<trkpt lat="43.0471570000" lon="0.6571670000"><ele>547</ele><time>2025-12-07T07:33:15Z</time></trkpt>
<trkpt lat="43.0471670000" lon="0.6571900000"><ele>548</ele><time>2025-12-07T07:33:19Z</time></trkpt>
<trkpt lat="43.0471750000" lon="0.6572500000"><ele>548</ele><time>2025-12-07T07:33:22Z</time></trkpt>
<trkpt lat="43.0472020000" lon="0.6572570000"><ele>548</ele><time>2025-12-07T07:33:25Z</time></trkpt>
<trkpt lat="43.0472370000" lon="0.6572720000"><ele>548</ele><time>2025-12-07T07:33:27Z</time></trkpt>
<trkpt lat="43.0472600000" lon="0.6572920000"><ele>548</ele><time>2025-12-07T07:33:29Z</time></trkpt>
<trkpt lat="43.0472670000" lon="0.6573220000"><ele>549</ele><time>2025-12-07T07:33:33Z</time></trkpt>
<trkpt lat="43.0472850000" lon="0.6573370000"><ele>549</ele><time>2025-12-07T07:33:37Z</time></trkpt>
<trkpt lat="43.0473020000" lon="0.6573620000"><ele>550</ele><time>2025-12-07T07:33:43Z</time></trkpt>
<trkpt lat="43.0473200000" lon="0.6573780000"><ele>550</ele><time>2025-12-07T07:33:46Z</time></trkpt>
<trkpt lat="43.0473370000" lon="0.6573970000"><ele>551</ele><time>2025-12-07T07:33:50Z</time></trkpt>
<trkpt lat="43.0473600000" lon="0.6574150000"><ele>551</ele><time>2025-12-07T07:33:53Z</time></trkpt>
<trkpt lat="43.0473850000" lon="0.6574180000"><ele>551</ele><time>2025-12-07T07:33:57Z</time></trkpt>
<trkpt lat="43.0474020000" lon="0.6574350000"><ele>552</ele><time>2025-12-07T07:34:00Z</time></trkpt>
<trkpt lat="43.0474200000" lon="0.6574400000"><ele>552</ele><time>2025-12-07T07:34:02Z</time></trkpt>
<trkpt lat="43.0474420000" lon="0.6574550000"><ele>552</ele><time>2025-12-07T07:34:05Z</time></trkpt>
<trkpt lat="43.0474570000" lon="0.6574630000"><ele>552</ele><time>2025-12-07T07:34:07Z</time></trkpt>
<trkpt lat="43.0474750000" lon="0.6574820000"><ele>552</ele><time>2025-12-07T07:34:09Z</time></trkpt>
<trkpt lat="43.0474870000" lon="0.6575020000"><ele>553</ele><time>2025-12-07T07:34:12Z</time></trkpt>
<trkpt lat="43.0474950000" lon="0.6575320000"><ele>553</ele><time>2025-12-07T07:34:14Z</time></trkpt>
<trkpt lat="43.0475070000" lon="0.6575620000"><ele>553</ele><time>2025-12-07T07:34:17Z</time></trkpt>
<trkpt lat="43.0475170000" lon="0.6575920000"><ele>554</ele><time>2025-12-07T07:34:20Z</time></trkpt>
<trkpt lat="43.0475300000" lon="0.6576170000"><ele>554</ele><time>2025-12-07T07:34:22Z</time></trkpt>
<trkpt lat="43.0475400000" lon="0.6576400000"><ele>554</ele><time>2025-12-07T07:34:24Z</time></trkpt>
<trkpt lat="43.0475450000" lon="0.6576650000"><ele>554</ele><time>2025-12-07T07:34:28Z</time></trkpt>
<trkpt lat="43.0475620000" lon="0.6576820000"><ele>554</ele><time>2025-12-07T07:34:30Z</time></trkpt>
<trkpt lat="43.0475970000" lon="0.6577100000"><ele>555</ele><time>2025-12-07T07:34:33Z</time></trkpt>
<trkpt lat="43.0476100000" lon="0.6577320000"><ele>555</ele><time>2025-12-07T07:34:35Z</time></trkpt>
<trkpt lat="43.0476120000" lon="0.6577670000"><ele>555</ele><time>2025-12-07T07:34:38Z</time></trkpt>
<trkpt lat="43.0476200000" lon="0.6578030000"><ele>556</ele><time>2025-12-07T07:34:41Z</time></trkpt>
<trkpt lat="43.0476320000" lon="0.6578370000"><ele>556</ele><time>2025-12-07T07:34:43Z</time></trkpt>
<trkpt lat="43.0476450000" lon="0.6578680000"><ele>556</ele><time>2025-12-07T07:34:45Z</time></trkpt>
<trkpt lat="43.0476570000" lon="0.6578950000"><ele>556</ele><time>2025-12-07T07:34:47Z</time></trkpt>
<trkpt lat="43.0476770000" lon="0.6579170000"><ele>555</ele><time>2025-12-07T07:34:49Z</time></trkpt>
<trkpt lat="43.0476850000" lon="0.6579420000"><ele>556</ele><time>2025-12-07T07:34:51Z</time></trkpt>
<trkpt lat="43.0476920000" lon="0.6579720000"><ele>556</ele><time>2025-12-07T07:34:53Z</time></trkpt>
<trkpt lat="43.0477050000" lon="0.6580000000"><ele>556</ele><time>2025-12-07T07:34:55Z</time></trkpt>
<trkpt lat="43.0477170000" lon="0.6580320000"><ele>556</ele><time>2025-12-07T07:34:58Z</time></trkpt>
<trkpt lat="43.0477220000" lon="0.6580670000"><ele>556</ele><time>2025-12-07T07:35:00Z</time></trkpt>
<trkpt lat="43.0477370000" lon="0.6581000000"><ele>556</ele><time>2025-12-07T07:35:02Z</time></trkpt>
<trkpt lat="43.0477520000" lon="0.6581220000"><ele>556</ele><time>2025-12-07T07:35:04Z</time></trkpt>
<trkpt lat="43.0477620000" lon="0.6581470000"><ele>555</ele><time>2025-12-07T07:35:06Z</time></trkpt>
<trkpt lat="43.0477720000" lon="0.6581700000"><ele>555</ele><time>2025-12-07T07:35:08Z</time></trkpt>
<trkpt lat="43.0477820000" lon="0.6582000000"><ele>555</ele><time>2025-12-07T07:35:10Z</time></trkpt>
<trkpt lat="43.0477970000" lon="0.6582320000"><ele>555</ele><time>2025-12-07T07:35:12Z</time></trkpt>
<trkpt lat="43.0478020000" lon="0.6582620000"><ele>555</ele><time>2025-12-07T07:35:14Z</time></trkpt>
<trkpt lat="43.0478070000" lon="0.6582870000"><ele>555</ele><time>2025-12-07T07:35:16Z</time></trkpt>
<trkpt lat="43.0478250000" lon="0.6583120000"><ele>555</ele><time>2025-12-07T07:35:19Z</time></trkpt>
<trkpt lat="43.0478320000" lon="0.6583420000"><ele>555</ele><time>2025-12-07T07:35:21Z</time></trkpt>
<trkpt lat="43.0478420000" lon="0.6583620000"><ele>555</ele><time>2025-12-07T07:35:23Z</time></trkpt>
<trkpt lat="43.0478570000" lon="0.6583920000"><ele>555</ele><time>2025-12-07T07:35:26Z</time></trkpt>
<trkpt lat="43.0478750000" lon="0.6584220000"><ele>555</ele><time>2025-12-07T07:35:28Z</time></trkpt>
<trkpt lat="43.0478870000" lon="0.6584430000"><ele>555</ele><time>2025-12-07T07:35:30Z</time></trkpt>
<trkpt lat="43.0479020000" lon="0.6584720000"><ele>555</ele><time>2025-12-07T07:35:32Z</time></trkpt>
<trkpt lat="43.0479170000" lon="0.6585050000"><ele>555</ele><time>2025-12-07T07:35:34Z</time></trkpt>
<trkpt lat="43.0479350000" lon="0.6585350000"><ele>555</ele><time>2025-12-07T07:35:36Z</time></trkpt>
<trkpt lat="43.0479470000" lon="0.6585630000"><ele>556</ele><time>2025-12-07T07:35:39Z</time></trkpt>
<trkpt lat="43.0479570000" lon="0.6585970000"><ele>556</ele><time>2025-12-07T07:35:42Z</time></trkpt>
<trkpt lat="43.0479770000" lon="0.6585970000"><ele>556</ele><time>2025-12-07T07:35:43Z</time></trkpt>
<trkpt lat="43.0479920000" lon="0.6586170000"><ele>556</ele><time>2025-12-07T07:35:45Z</time></trkpt>
<trkpt lat="43.0480120000" lon="0.6586370000"><ele>556</ele><time>2025-12-07T07:35:47Z</time></trkpt>
<trkpt lat="43.0480150000" lon="0.6586770000"><ele>556</ele><time>2025-12-07T07:35:49Z</time></trkpt>
<trkpt lat="43.0480400000" lon="0.6587070000"><ele>556</ele><time>2025-12-07T07:35:52Z</time></trkpt>
<trkpt lat="43.0480650000" lon="0.6587200000"><ele>556</ele><time>2025-12-07T07:35:54Z</time></trkpt>
<trkpt lat="43.0480720000" lon="0.6587520000"><ele>556</ele><time>2025-12-07T07:35:57Z</time></trkpt>
<trkpt lat="43.0480820000" lon="0.6587870000"><ele>557</ele><time>2025-12-07T07:35:59Z</time></trkpt>
<trkpt lat="43.0480920000" lon="0.6588220000"><ele>557</ele><time>2025-12-07T07:36:01Z</time></trkpt>
<trkpt lat="43.0481170000" lon="0.6588470000"><ele>557</ele><time>2025-12-07T07:36:03Z</time></trkpt>
<trkpt lat="43.0481520000" lon="0.6588520000"><ele>557</ele><time>2025-12-07T07:36:05Z</time></trkpt>
<trkpt lat="43.0481670000" lon="0.6588770000"><ele>557</ele><time>2025-12-07T07:36:07Z</time></trkpt>
<trkpt lat="43.0481800000" lon="0.6589120000"><ele>557</ele><time>2025-12-07T07:36:09Z</time></trkpt>
<trkpt lat="43.0482000000" lon="0.6589370000"><ele>557</ele><time>2025-12-07T07:36:11Z</time></trkpt>
<trkpt lat="43.0482150000" lon="0.6589620000"><ele>558</ele><time>2025-12-07T07:36:15Z</time></trkpt>
<trkpt lat="43.0482330000" lon="0.6589880000"><ele>558</ele><time>2025-12-07T07:36:18Z</time></trkpt>
<trkpt lat="43.0482420000" lon="0.6590300000"><ele>558</ele><time>2025-12-07T07:36:20Z</time></trkpt>
<trkpt lat="43.0482500000" lon="0.6590580000"><ele>558</ele><time>2025-12-07T07:36:23Z</time></trkpt>
<trkpt lat="43.0482620000" lon="0.6590820000"><ele>558</ele><time>2025-12-07T07:36:26Z</time></trkpt>
<trkpt lat="43.0482770000" lon="0.6591150000"><ele>558</ele><time>2025-12-07T07:36:28Z</time></trkpt>
<trkpt lat="43.0482850000" lon="0.6591420000"><ele>558</ele><time>2025-12-07T07:36:30Z</time></trkpt>
<trkpt lat="43.0482920000" lon="0.6591700000"><ele>558</ele><time>2025-12-07T07:36:32Z</time></trkpt>
<trkpt lat="43.0483050000" lon="0.6591920000"><ele>559</ele><time>2025-12-07T07:36:34Z</time></trkpt>
<trkpt lat="43.0483220000" lon="0.6592170000"><ele>559</ele><time>2025-12-07T07:36:37Z</time></trkpt>
<trkpt lat="43.0483370000" lon="0.6592450000"><ele>559</ele><time>2025-12-07T07:36:39Z</time></trkpt>
<trkpt lat="43.0483520000" lon="0.6592720000"><ele>559</ele><time>2025-12-07T07:36:41Z</time></trkpt>
<trkpt lat="43.0483650000" lon="0.6592970000"><ele>559</ele><time>2025-12-07T07:36:43Z</time></trkpt>
<trkpt lat="43.0483750000" lon="0.6593220000"><ele>559</ele><time>2025-12-07T07:36:45Z</time></trkpt>
<trkpt lat="43.0483920000" lon="0.6593470000"><ele>560</ele><time>2025-12-07T07:36:48Z</time></trkpt>
<trkpt lat="43.0484070000" lon="0.6593800000"><ele>560</ele><time>2025-12-07T07:36:51Z</time></trkpt>
<trkpt lat="43.0484170000" lon="0.6594050000"><ele>560</ele><time>2025-12-07T07:36:54Z</time></trkpt>
<trkpt lat="43.0484400000" lon="0.6594270000"><ele>560</ele><time>2025-12-07T07:36:57Z</time></trkpt>
<trkpt lat="43.0484550000" lon="0.6594520000"><ele>561</ele><time>2025-12-07T07:36:59Z</time></trkpt>
<trkpt lat="43.0484750000" lon="0.6594600000"><ele>561</ele><time>2025-12-07T07:37:04Z</time></trkpt>
<trkpt lat="43.0484950000" lon="0.6594770000"><ele>561</ele><time>2025-12-07T07:37:07Z</time></trkpt>
<trkpt lat="43.0484950000" lon="0.6595070000"><ele>561</ele><time>2025-12-07T07:37:10Z</time></trkpt>
<trkpt lat="43.0485070000" lon="0.6595400000"><ele>561</ele><time>2025-12-07T07:37:12Z</time></trkpt>
<trkpt lat="43.0485270000" lon="0.6595770000"><ele>562</ele><time>2025-12-07T07:37:14Z</time></trkpt>
<trkpt lat="43.0485470000" lon="0.6595870000"><ele>562</ele><time>2025-12-07T07:37:16Z</time></trkpt>
<trkpt lat="43.0485670000" lon="0.6596020000"><ele>562</ele><time>2025-12-07T07:37:18Z</time></trkpt>
<trkpt lat="43.0485850000" lon="0.6596270000"><ele>562</ele><time>2025-12-07T07:37:20Z</time></trkpt>
<trkpt lat="43.0485920000" lon="0.6596520000"><ele>562</ele><time>2025-12-07T07:37:21Z</time></trkpt>
<trkpt lat="43.0486000000" lon="0.6596800000"><ele>562</ele><time>2025-12-07T07:37:23Z</time></trkpt>
<trkpt lat="43.0486070000" lon="0.6597050000"><ele>563</ele><time>2025-12-07T07:37:26Z</time></trkpt>
<trkpt lat="43.0486320000" lon="0.6597270000"><ele>563</ele><time>2025-12-07T07:37:29Z</time></trkpt>
<trkpt lat="43.0486470000" lon="0.6597470000"><ele>563</ele><time>2025-12-07T07:37:31Z</time></trkpt>
<trkpt lat="43.0486620000" lon="0.6597720000"><ele>563</ele><time>2025-12-07T07:37:34Z</time></trkpt>
<trkpt lat="43.0486800000" lon="0.6597920000"><ele>564</ele><time>2025-12-07T07:37:36Z</time></trkpt>
<trkpt lat="43.0486970000" lon="0.6598120000"><ele>564</ele><time>2025-12-07T07:37:40Z</time></trkpt>
<trkpt lat="43.0487070000" lon="0.6598420000"><ele>564</ele><time>2025-12-07T07:37:43Z</time></trkpt>
<trkpt lat="43.0487170000" lon="0.6598620000"><ele>564</ele><time>2025-12-07T07:37:45Z</time></trkpt>
<trkpt lat="43.0487320000" lon="0.6598850000"><ele>564</ele><time>2025-12-07T07:37:48Z</time></trkpt>
<trkpt lat="43.0487470000" lon="0.6599070000"><ele>565</ele><time>2025-12-07T07:37:51Z</time></trkpt>
<trkpt lat="43.0487670000" lon="0.6599270000"><ele>565</ele><time>2025-12-07T07:37:53Z</time></trkpt>
<trkpt lat="43.0487920000" lon="0.6599370000"><ele>565</ele><time>2025-12-07T07:37:56Z</time></trkpt>
<trkpt lat="43.0488100000" lon="0.6599620000"><ele>565</ele><time>2025-12-07T07:37:59Z</time></trkpt>
<trkpt lat="43.0488220000" lon="0.6599850000"><ele>566</ele><time>2025-12-07T07:38:01Z</time></trkpt>
<trkpt lat="43.0488320000" lon="0.6600070000"><ele>565</ele><time>2025-12-07T07:38:03Z</time></trkpt>
<trkpt lat="43.0488470000" lon="0.6600270000"><ele>566</ele><time>2025-12-07T07:38:06Z</time></trkpt>
<trkpt lat="43.0488570000" lon="0.6600570000"><ele>566</ele><time>2025-12-07T07:38:10Z</time></trkpt>
<trkpt lat="43.0488820000" lon="0.6600750000"><ele>567</ele><time>2025-12-07T07:38:13Z</time></trkpt>
<trkpt lat="43.0489020000" lon="0.6600880000"><ele>567</ele><time>2025-12-07T07:38:15Z</time></trkpt>
<trkpt lat="43.0489150000" lon="0.6601070000"><ele>567</ele><time>2025-12-07T07:38:17Z</time></trkpt>
<trkpt lat="43.0489230000" lon="0.6601300000"><ele>567</ele><time>2025-12-07T07:38:20Z</time></trkpt>
<trkpt lat="43.0489450000" lon="0.6601380000"><ele>567</ele><time>2025-12-07T07:38:23Z</time></trkpt>
<trkpt lat="43.0489570000" lon="0.6601720000"><ele>568</ele><time>2025-12-07T07:38:26Z</time></trkpt>
<trkpt lat="43.0489720000" lon="0.6602050000"><ele>568</ele><time>2025-12-07T07:38:28Z</time></trkpt>
<trkpt lat="43.0489920000" lon="0.6602270000"><ele>568</ele><time>2025-12-07T07:38:30Z</time></trkpt>
<trkpt lat="43.0490050000" lon="0.6602620000"><ele>569</ele><time>2025-12-07T07:38:33Z</time></trkpt>
<trkpt lat="43.0490220000" lon="0.6602820000"><ele>569</ele><time>2025-12-07T07:38:35Z</time></trkpt>
<trkpt lat="43.0490450000" lon="0.6603020000"><ele>569</ele><time>2025-12-07T07:38:38Z</time></trkpt>
<trkpt lat="43.0490570000" lon="0.6603300000"><ele>570</ele><time>2025-12-07T07:38:41Z</time></trkpt>
<trkpt lat="43.0490720000" lon="0.6603520000"><ele>570</ele><time>2025-12-07T07:38:44Z</time></trkpt>
<trkpt lat="43.0490900000" lon="0.6603670000"><ele>570</ele><time>2025-12-07T07:38:46Z</time></trkpt>
<trkpt lat="43.0491020000" lon="0.6603870000"><ele>570</ele><time>2025-12-07T07:38:48Z</time></trkpt>
<trkpt lat="43.0491170000" lon="0.6604070000"><ele>571</ele><time>2025-12-07T07:38:51Z</time></trkpt>
<trkpt lat="43.0491350000" lon="0.6604220000"><ele>571</ele><time>2025-12-07T07:38:53Z</time></trkpt>
<trkpt lat="43.0491470000" lon="0.6604400000"><ele>571</ele><time>2025-12-07T07:38:55Z</time></trkpt>
<trkpt lat="43.0491570000" lon="0.6604670000"><ele>571</ele><time>2025-12-07T07:38:57Z</time></trkpt>
<trkpt lat="43.0491720000" lon="0.6604820000"><ele>571</ele><time>2025-12-07T07:38:59Z</time></trkpt>
<trkpt lat="43.0491920000" lon="0.6604920000"><ele>571</ele><time>2025-12-07T07:39:01Z</time></trkpt>
<trkpt lat="43.0492070000" lon="0.6605170000"><ele>572</ele><time>2025-12-07T07:39:04Z</time></trkpt>
<trkpt lat="43.0492250000" lon="0.6605480000"><ele>572</ele><time>2025-12-07T07:39:06Z</time></trkpt>
<trkpt lat="43.0492400000" lon="0.6605770000"><ele>572</ele><time>2025-12-07T07:39:08Z</time></trkpt>
<trkpt lat="43.0492470000" lon="0.6606070000"><ele>573</ele><time>2025-12-07T07:39:10Z</time></trkpt>
<trkpt lat="43.0492600000" lon="0.6606350000"><ele>573</ele><time>2025-12-07T07:39:13Z</time></trkpt>
<trkpt lat="43.0492770000" lon="0.6606570000"><ele>573</ele><time>2025-12-07T07:39:15Z</time></trkpt>
<trkpt lat="43.0492920000" lon="0.6606720000"><ele>573</ele><time>2025-12-07T07:39:17Z</time></trkpt>
<trkpt lat="43.0493120000" lon="0.6606970000"><ele>573</ele><time>2025-12-07T07:39:20Z</time></trkpt>
<trkpt lat="43.0493350000" lon="0.6607070000"><ele>573</ele><time>2025-12-07T07:39:22Z</time></trkpt>
<trkpt lat="43.0493520000" lon="0.6607150000"><ele>573</ele><time>2025-12-07T07:39:24Z</time></trkpt>
<trkpt lat="43.0493600000" lon="0.6607370000"><ele>573</ele><time>2025-12-07T07:39:26Z</time></trkpt>
<trkpt lat="43.0493770000" lon="0.6607620000"><ele>573</ele><time>2025-12-07T07:39:29Z</time></trkpt>
<trkpt lat="43.0493870000" lon="0.6607830000"><ele>573</ele><time>2025-12-07T07:39:31Z</time></trkpt>
<trkpt lat="43.0493950000" lon="0.6608170000"><ele>573</ele><time>2025-12-07T07:39:34Z</time></trkpt>
<trkpt lat="43.0494120000" lon="0.6608270000"><ele>573</ele><time>2025-12-07T07:39:36Z</time></trkpt>
<trkpt lat="43.0494300000" lon="0.6608470000"><ele>573</ele><time>2025-12-07T07:39:38Z</time></trkpt>
<trkpt lat="43.0494520000" lon="0.6608870000"><ele>573</ele><time>2025-12-07T07:39:40Z</time></trkpt>
<trkpt lat="43.0494670000" lon="0.6609120000"><ele>573</ele><time>2025-12-07T07:39:42Z</time></trkpt>
<trkpt lat="43.0494800000" lon="0.6609350000"><ele>573</ele><time>2025-12-07T07:39:44Z</time></trkpt>
<trkpt lat="43.0495000000" lon="0.6609570000"><ele>573</ele><time>2025-12-07T07:39:46Z</time></trkpt>
<trkpt lat="43.0495100000" lon="0.6609820000"><ele>573</ele><time>2025-12-07T07:39:49Z</time></trkpt>
<trkpt lat="43.0495270000" lon="0.6609970000"><ele>573</ele><time>2025-12-07T07:39:51Z</time></trkpt>
<trkpt lat="43.0495420000" lon="0.6610200000"><ele>573</ele><time>2025-12-07T07:39:53Z</time></trkpt>
<trkpt lat="43.0495570000" lon="0.6610420000"><ele>573</ele><time>2025-12-07T07:39:55Z</time></trkpt>
<trkpt lat="43.0495770000" lon="0.6610600000"><ele>573</ele><time>2025-12-07T07:39:57Z</time></trkpt>
<trkpt lat="43.0495920000" lon="0.6610800000"><ele>573</ele><time>2025-12-07T07:39:59Z</time></trkpt>
<trkpt lat="43.0496120000" lon="0.6610950000"><ele>573</ele><time>2025-12-07T07:40:02Z</time></trkpt>
<trkpt lat="43.0496300000" lon="0.6611120000"><ele>573</ele><time>2025-12-07T07:40:04Z</time></trkpt>
<trkpt lat="43.0496470000" lon="0.6611270000"><ele>573</ele><time>2025-12-07T07:40:06Z</time></trkpt>
<trkpt lat="43.0496720000" lon="0.6611370000"><ele>573</ele><time>2025-12-07T07:40:08Z</time></trkpt>
<trkpt lat="43.0496920000" lon="0.6611570000"><ele>573</ele><time>2025-12-07T07:40:10Z</time></trkpt>
<trkpt lat="43.0497170000" lon="0.6611770000"><ele>573</ele><time>2025-12-07T07:40:12Z</time></trkpt>
<trkpt lat="43.0497350000" lon="0.6611970000"><ele>573</ele><time>2025-12-07T07:40:14Z</time></trkpt>
<trkpt lat="43.0497500000" lon="0.6612320000"><ele>573</ele><time>2025-12-07T07:40:16Z</time></trkpt>
<trkpt lat="43.0497720000" lon="0.6612500000"><ele>573</ele><time>2025-12-07T07:40:18Z</time></trkpt>
<trkpt lat="43.0497900000" lon="0.6612620000"><ele>573</ele><time>2025-12-07T07:40:20Z</time></trkpt>
<trkpt lat="43.0498070000" lon="0.6612850000"><ele>573</ele><time>2025-12-07T07:40:23Z</time></trkpt>
<trkpt lat="43.0498270000" lon="0.6612900000"><ele>573</ele><time>2025-12-07T07:40:25Z</time></trkpt>
<trkpt lat="43.0498500000" lon="0.6612870000"><ele>573</ele><time>2025-12-07T07:40:27Z</time></trkpt>
<trkpt lat="43.0498720000" lon="0.6613020000"><ele>573</ele><time>2025-12-07T07:40:30Z</time></trkpt>
<trkpt lat="43.0498920000" lon="0.6613070000"><ele>573</ele><time>2025-12-07T07:40:32Z</time></trkpt>
<trkpt lat="43.0499120000" lon="0.6612970000"><ele>573</ele><time>2025-12-07T07:40:34Z</time></trkpt>
<trkpt lat="43.0499350000" lon="0.6613070000"><ele>573</ele><time>2025-12-07T07:40:36Z</time></trkpt>
<trkpt lat="43.0499570000" lon="0.6613300000"><ele>573</ele><time>2025-12-07T07:40:39Z</time></trkpt>
<trkpt lat="43.0499770000" lon="0.6613430000"><ele>573</ele><time>2025-12-07T07:40:41Z</time></trkpt>
<trkpt lat="43.0499970000" lon="0.6613580000"><ele>573</ele><time>2025-12-07T07:40:43Z</time></trkpt>
<trkpt lat="43.0500220000" lon="0.6613770000"><ele>573</ele><time>2025-12-07T07:40:45Z</time></trkpt>
<trkpt lat="43.0500420000" lon="0.6613920000"><ele>573</ele><time>2025-12-07T07:40:47Z</time></trkpt>
<trkpt lat="43.0500600000" lon="0.6614050000"><ele>573</ele><time>2025-12-07T07:40:49Z</time></trkpt>
<trkpt lat="43.0500720000" lon="0.6614270000"><ele>573</ele><time>2025-12-07T07:40:51Z</time></trkpt>
<trkpt lat="43.0500900000" lon="0.6614430000"><ele>573</ele><time>2025-12-07T07:40:53Z</time></trkpt>
<trkpt lat="43.0501020000" lon="0.6614670000"><ele>573</ele><time>2025-12-07T07:40:55Z</time></trkpt>
<trkpt lat="43.0501200000" lon="0.6614770000"><ele>573</ele><time>2025-12-07T07:40:58Z</time></trkpt>
<trkpt lat="43.0501320000" lon="0.6614970000"><ele>573</ele><time>2025-12-07T07:41:00Z</time></trkpt>
<trkpt lat="43.0501500000" lon="0.6615130000"><ele>573</ele><time>2025-12-07T07:41:02Z</time></trkpt>
<trkpt lat="43.0501620000" lon="0.6615470000"><ele>573</ele><time>2025-12-07T07:41:06Z</time></trkpt>
<trkpt lat="43.0501770000" lon="0.6615670000"><ele>573</ele><time>2025-12-07T07:41:08Z</time></trkpt>
<trkpt lat="43.0501970000" lon="0.6615820000"><ele>574</ele><time>2025-12-07T07:41:10Z</time></trkpt>
<trkpt lat="43.0502170000" lon="0.6616000000"><ele>574</ele><time>2025-12-07T07:41:12Z</time></trkpt>
<trkpt lat="43.0502400000" lon="0.6616050000"><ele>574</ele><time>2025-12-07T07:41:14Z</time></trkpt>
<trkpt lat="43.0502570000" lon="0.6616320000"><ele>574</ele><time>2025-12-07T07:41:17Z</time></trkpt>
<trkpt lat="43.0502720000" lon="0.6616570000"><ele>574</ele><time>2025-12-07T07:41:20Z</time></trkpt>
<trkpt lat="43.0502870000" lon="0.6616750000"><ele>574</ele><time>2025-12-07T07:41:22Z</time></trkpt>
<trkpt lat="43.0503020000" lon="0.6617020000"><ele>574</ele><time>2025-12-07T07:41:24Z</time></trkpt>
<trkpt lat="43.0503220000" lon="0.6617220000"><ele>574</ele><time>2025-12-07T07:41:26Z</time></trkpt>
<trkpt lat="43.0503370000" lon="0.6617370000"><ele>574</ele><time>2025-12-07T07:41:28Z</time></trkpt>
<trkpt lat="43.0503570000" lon="0.6617620000"><ele>574</ele><time>2025-12-07T07:41:31Z</time></trkpt>
<trkpt lat="43.0503750000" lon="0.6617770000"><ele>574</ele><time>2025-12-07T07:41:33Z</time></trkpt>
<trkpt lat="43.0503970000" lon="0.6617920000"><ele>574</ele><time>2025-12-07T07:41:36Z</time></trkpt>
<trkpt lat="43.0504200000" lon="0.6618020000"><ele>574</ele><time>2025-12-07T07:41:38Z</time></trkpt>
<trkpt lat="43.0504370000" lon="0.6618220000"><ele>574</ele><time>2025-12-07T07:41:40Z</time></trkpt>
<trkpt lat="43.0504550000" lon="0.6618450000"><ele>574</ele><time>2025-12-07T07:41:42Z</time></trkpt>
<trkpt lat="43.0504750000" lon="0.6618650000"><ele>574</ele><time>2025-12-07T07:41:44Z</time></trkpt>
<trkpt lat="43.0505020000" lon="0.6618920000"><ele>573</ele><time>2025-12-07T07:41:46Z</time></trkpt>
<trkpt lat="43.0505170000" lon="0.6619070000"><ele>573</ele><time>2025-12-07T07:41:48Z</time></trkpt>
<trkpt lat="43.0505300000" lon="0.6619320000"><ele>574</ele><time>2025-12-07T07:41:50Z</time></trkpt>
<trkpt lat="43.0505420000" lon="0.6619520000"><ele>574</ele><time>2025-12-07T07:41:52Z</time></trkpt>
<trkpt lat="43.0505620000" lon="0.6619730000"><ele>574</ele><time>2025-12-07T07:41:54Z</time></trkpt>
<trkpt lat="43.0505820000" lon="0.6619850000"><ele>573</ele><time>2025-12-07T07:41:56Z</time></trkpt>
<trkpt lat="43.0506120000" lon="0.6620000000"><ele>574</ele><time>2025-12-07T07:41:59Z</time></trkpt>
<trkpt lat="43.0506320000" lon="0.6620070000"><ele>573</ele><time>2025-12-07T07:42:01Z</time></trkpt>
<trkpt lat="43.0506470000" lon="0.6620320000"><ele>573</ele><time>2025-12-07T07:42:03Z</time></trkpt>
<trkpt lat="43.0506670000" lon="0.6620520000"><ele>573</ele><time>2025-12-07T07:42:05Z</time></trkpt>
<trkpt lat="43.0506870000" lon="0.6620670000"><ele>573</ele><time>2025-12-07T07:42:07Z</time></trkpt>
<trkpt lat="43.0507150000" lon="0.6620950000"><ele>573</ele><time>2025-12-07T07:42:09Z</time></trkpt>
<trkpt lat="43.0507370000" lon="0.6621120000"><ele>573</ele><time>2025-12-07T07:42:10Z</time></trkpt>
<trkpt lat="43.0507520000" lon="0.6621280000"><ele>573</ele><time>2025-12-07T07:42:12Z</time></trkpt>
<trkpt lat="43.0507720000" lon="0.6621380000"><ele>573</ele><time>2025-12-07T07:42:14Z</time></trkpt>
<trkpt lat="43.0507920000" lon="0.6621800000"><ele>573</ele><time>2025-12-07T07:42:17Z</time></trkpt>
<trkpt lat="43.0508050000" lon="0.6622000000"><ele>573</ele><time>2025-12-07T07:42:18Z</time></trkpt>
<trkpt lat="43.0508220000" lon="0.6622150000"><ele>573</ele><time>2025-12-07T07:42:19Z</time></trkpt>
<trkpt lat="43.0508520000" lon="0.6622320000"><ele>573</ele><time>2025-12-07T07:42:21Z</time></trkpt>
<trkpt lat="43.0508720000" lon="0.6622630000"><ele>573</ele><time>2025-12-07T07:42:23Z</time></trkpt>
<trkpt lat="43.0508820000" lon="0.6622920000"><ele>572</ele><time>2025-12-07T07:42:25Z</time></trkpt>
<trkpt lat="43.0508970000" lon="0.6623070000"><ele>573</ele><time>2025-12-07T07:42:27Z</time></trkpt>
<trkpt lat="43.0509120000" lon="0.6623270000"><ele>573</ele><time>2025-12-07T07:42:29Z</time></trkpt>
<trkpt lat="43.0509120000" lon="0.6623570000"><ele>573</ele><time>2025-12-07T07:42:32Z</time></trkpt>
<trkpt lat="43.0509300000" lon="0.6623820000"><ele>573</ele><time>2025-12-07T07:42:34Z</time></trkpt>
<trkpt lat="43.0509450000" lon="0.6623970000"><ele>573</ele><time>2025-12-07T07:42:36Z</time></trkpt>
<trkpt lat="43.0509570000" lon="0.6624200000"><ele>573</ele><time>2025-12-07T07:42:38Z</time></trkpt>
<trkpt lat="43.0509720000" lon="0.6624520000"><ele>572</ele><time>2025-12-07T07:42:40Z</time></trkpt>
<trkpt lat="43.0509870000" lon="0.6624700000"><ele>572</ele><time>2025-12-07T07:42:42Z</time></trkpt>
<trkpt lat="43.0510070000" lon="0.6624970000"><ele>573</ele><time>2025-12-07T07:42:45Z</time></trkpt>
<trkpt lat="43.0510270000" lon="0.6625220000"><ele>573</ele><time>2025-12-07T07:42:47Z</time></trkpt>
<trkpt lat="43.0510400000" lon="0.6625450000"><ele>572</ele><time>2025-12-07T07:42:49Z</time></trkpt>
<trkpt lat="43.0510620000" lon="0.6625520000"><ele>573</ele><time>2025-12-07T07:42:54Z</time></trkpt>
<trkpt lat="43.0510820000" lon="0.6625520000"><ele>573</ele><time>2025-12-07T07:42:56Z</time></trkpt>
<trkpt lat="43.0511020000" lon="0.6625720000"><ele>572</ele><time>2025-12-07T07:42:59Z</time></trkpt>
<trkpt lat="43.0511270000" lon="0.6625850000"><ele>572</ele><time>2025-12-07T07:43:01Z</time></trkpt>
<trkpt lat="43.0511420000" lon="0.6626020000"><ele>572</ele><time>2025-12-07T07:43:03Z</time></trkpt>
<trkpt lat="43.0511670000" lon="0.6626220000"><ele>572</ele><time>2025-12-07T07:43:06Z</time></trkpt>
<trkpt lat="43.0511920000" lon="0.6626320000"><ele>572</ele><time>2025-12-07T07:43:08Z</time></trkpt>
<trkpt lat="43.0512170000" lon="0.6626400000"><ele>572</ele><time>2025-12-07T07:43:10Z</time></trkpt>
<trkpt lat="43.0512420000" lon="0.6626470000"><ele>572</ele><time>2025-12-07T07:43:12Z</time></trkpt>
<trkpt lat="43.0512670000" lon="0.6626570000"><ele>572</ele><time>2025-12-07T07:43:14Z</time></trkpt>
<trkpt lat="43.0512920000" lon="0.6626800000"><ele>572</ele><time>2025-12-07T07:43:16Z</time></trkpt>
<trkpt lat="43.0513150000" lon="0.6627020000"><ele>572</ele><time>2025-12-07T07:43:18Z</time></trkpt>
<trkpt lat="43.0513320000" lon="0.6627120000"><ele>572</ele><time>2025-12-07T07:43:19Z</time></trkpt>
<trkpt lat="43.0513600000" lon="0.6627170000"><ele>572</ele><time>2025-12-07T07:43:21Z</time></trkpt>
<trkpt lat="43.0513820000" lon="0.6627370000"><ele>571</ele><time>2025-12-07T07:43:23Z</time></trkpt>
<trkpt lat="43.0513820000" lon="0.6627680000"><ele>571</ele><time>2025-12-07T07:43:24Z</time></trkpt>
<trkpt lat="43.0513970000" lon="0.6627920000"><ele>571</ele><time>2025-12-07T07:43:26Z</time></trkpt>
<trkpt lat="43.0514170000" lon="0.6628170000"><ele>571</ele><time>2025-12-07T07:43:28Z</time></trkpt>
<trkpt lat="43.0514370000" lon="0.6628400000"><ele>571</ele><time>2025-12-07T07:43:30Z</time></trkpt>
<trkpt lat="43.0514550000" lon="0.6628570000"><ele>571</ele><time>2025-12-07T07:43:32Z</time></trkpt>
<trkpt lat="43.0514770000" lon="0.6628600000"><ele>571</ele><time>2025-12-07T07:43:34Z</time></trkpt>
<trkpt lat="43.0514920000" lon="0.6628750000"><ele>571</ele><time>2025-12-07T07:43:37Z</time></trkpt>
<trkpt lat="43.0515050000" lon="0.6628970000"><ele>571</ele><time>2025-12-07T07:43:39Z</time></trkpt>
<trkpt lat="43.0515270000" lon="0.6629170000"><ele>571</ele><time>2025-12-07T07:43:42Z</time></trkpt>
<trkpt lat="43.0515420000" lon="0.6629320000"><ele>571</ele><time>2025-12-07T07:43:44Z</time></trkpt>
<trkpt lat="43.0515620000" lon="0.6629570000"><ele>571</ele><time>2025-12-07T07:43:46Z</time></trkpt>
<trkpt lat="43.0515720000" lon="0.6629800000"><ele>571</ele><time>2025-12-07T07:43:48Z</time></trkpt>
<trkpt lat="43.0515820000" lon="0.6630020000"><ele>571</ele><time>2025-12-07T07:43:50Z</time></trkpt>
<trkpt lat="43.0516000000" lon="0.6630250000"><ele>570</ele><time>2025-12-07T07:43:52Z</time></trkpt>
<trkpt lat="43.0516200000" lon="0.6630300000"><ele>570</ele><time>2025-12-07T07:43:54Z</time></trkpt>
<trkpt lat="43.0516470000" lon="0.6630320000"><ele>570</ele><time>2025-12-07T07:43:56Z</time></trkpt>
<trkpt lat="43.0516700000" lon="0.6630520000"><ele>570</ele><time>2025-12-07T07:43:58Z</time></trkpt>
<trkpt lat="43.0516870000" lon="0.6630820000"><ele>570</ele><time>2025-12-07T07:44:00Z</time></trkpt>
<trkpt lat="43.0517070000" lon="0.6630970000"><ele>570</ele><time>2025-12-07T07:44:02Z</time></trkpt>
<trkpt lat="43.0517220000" lon="0.6631220000"><ele>570</ele><time>2025-12-07T07:44:04Z</time></trkpt>
<trkpt lat="43.0517350000" lon="0.6631520000"><ele>570</ele><time>2025-12-07T07:44:06Z</time></trkpt>
<trkpt lat="43.0517520000" lon="0.6631620000"><ele>570</ele><time>2025-12-07T07:44:07Z</time></trkpt>
<trkpt lat="43.0517720000" lon="0.6631870000"><ele>570</ele><time>2025-12-07T07:44:09Z</time></trkpt>
<trkpt lat="43.0517900000" lon="0.6632170000"><ele>570</ele><time>2025-12-07T07:44:11Z</time></trkpt>
<trkpt lat="43.0518120000" lon="0.6632320000"><ele>570</ele><time>2025-12-07T07:44:13Z</time></trkpt>
<trkpt lat="43.0518320000" lon="0.6632370000"><ele>570</ele><time>2025-12-07T07:44:15Z</time></trkpt>
<trkpt lat="43.0518520000" lon="0.6632480000"><ele>570</ele><time>2025-12-07T07:44:17Z</time></trkpt>
<trkpt lat="43.0518720000" lon="0.6632700000"><ele>570</ele><time>2025-12-07T07:44:19Z</time></trkpt>
<trkpt lat="43.0519020000" lon="0.6632770000"><ele>570</ele><time>2025-12-07T07:44:21Z</time></trkpt>
<trkpt lat="43.0519220000" lon="0.6632800000"><ele>571</ele><time>2025-12-07T07:44:23Z</time></trkpt>
<trkpt lat="43.0519470000" lon="0.6632850000"><ele>571</ele><time>2025-12-07T07:44:24Z</time></trkpt>
<trkpt lat="43.0519670000" lon="0.6632870000"><ele>570</ele><time>2025-12-07T07:44:26Z</time></trkpt>
<trkpt lat="43.0519820000" lon="0.6633150000"><ele>570</ele><time>2025-12-07T07:44:29Z</time></trkpt>
<trkpt lat="43.0520070000" lon="0.6633200000"><ele>570</ele><time>2025-12-07T07:44:31Z</time></trkpt>
<trkpt lat="43.0520270000" lon="0.6633200000"><ele>570</ele><time>2025-12-07T07:44:33Z</time></trkpt>
<trkpt lat="43.0520520000" lon="0.6633280000"><ele>570</ele><time>2025-12-07T07:44:35Z</time></trkpt>
<trkpt lat="43.0520750000" lon="0.6633520000"><ele>570</ele><time>2025-12-07T07:44:37Z</time></trkpt>
<trkpt lat="43.0520920000" lon="0.6633670000"><ele>570</ele><time>2025-12-07T07:44:39Z</time></trkpt>
<trkpt lat="43.0521120000" lon="0.6633670000"><ele>570</ele><time>2025-12-07T07:44:41Z</time></trkpt>
<trkpt lat="43.0521320000" lon="0.6633720000"><ele>570</ele><time>2025-12-07T07:44:43Z</time></trkpt>
<trkpt lat="43.0521520000" lon="0.6633770000"><ele>570</ele><time>2025-12-07T07:44:45Z</time></trkpt>
<trkpt lat="43.0521770000" lon="0.6633870000"><ele>570</ele><time>2025-12-07T07:44:47Z</time></trkpt>
<trkpt lat="43.0522020000" lon="0.6633920000"><ele>570</ele><time>2025-12-07T07:44:50Z</time></trkpt>
<trkpt lat="43.0522220000" lon="0.6633870000"><ele>570</ele><time>2025-12-07T07:44:53Z</time></trkpt>
<trkpt lat="43.0522500000" lon="0.6633830000"><ele>570</ele><time>2025-12-07T07:44:55Z</time></trkpt>
<trkpt lat="43.0522620000" lon="0.6633670000"><ele>570</ele><time>2025-12-07T07:44:56Z</time></trkpt>
<trkpt lat="43.0522820000" lon="0.6633520000"><ele>570</ele><time>2025-12-07T07:44:58Z</time></trkpt>
<trkpt lat="43.0523020000" lon="0.6633370000"><ele>570</ele><time>2025-12-07T07:45:00Z</time></trkpt>
<trkpt lat="43.0523270000" lon="0.6633080000"><ele>570</ele><time>2025-12-07T07:45:06Z</time></trkpt>
<trkpt lat="43.0523420000" lon="0.6632720000"><ele>570</ele><time>2025-12-07T07:45:08Z</time></trkpt>
<trkpt lat="43.0523600000" lon="0.6632170000"><ele>570</ele><time>2025-12-07T07:45:10Z</time></trkpt>
<trkpt lat="43.0523670000" lon="0.6631920000"><ele>570</ele><time>2025-12-07T07:45:11Z</time></trkpt>
<trkpt lat="43.0523850000" lon="0.6631770000"><ele>570</ele><time>2025-12-07T07:45:14Z</time></trkpt>
<trkpt lat="43.0524020000" lon="0.6631650000"><ele>570</ele><time>2025-12-07T07:45:16Z</time></trkpt>
<trkpt lat="43.0524150000" lon="0.6631380000"><ele>570</ele><time>2025-12-07T07:45:18Z</time></trkpt>
<trkpt lat="43.0524420000" lon="0.6631270000"><ele>570</ele><time>2025-12-07T07:45:21Z</time></trkpt>
<trkpt lat="43.0524520000" lon="0.6630930000"><ele>570</ele><time>2025-12-07T07:45:23Z</time></trkpt>
<trkpt lat="43.0524620000" lon="0.6630700000"><ele>570</ele><time>2025-12-07T07:45:25Z</time></trkpt>
<trkpt lat="43.0524770000" lon="0.6630450000"><ele>570</ele><time>2025-12-07T07:45:28Z</time></trkpt>
<trkpt lat="43.0524950000" lon="0.6630250000"><ele>570</ele><time>2025-12-07T07:45:31Z</time></trkpt>
<trkpt lat="43.0524950000" lon="0.6629970000"><ele>570</ele><time>2025-12-07T07:45:33Z</time></trkpt>
<trkpt lat="43.0525100000" lon="0.6629650000"><ele>570</ele><time>2025-12-07T07:45:36Z</time></trkpt>
<trkpt lat="43.0525220000" lon="0.6629450000"><ele>570</ele><time>2025-12-07T07:45:37Z</time></trkpt>
<trkpt lat="43.0525370000" lon="0.6629180000"><ele>570</ele><time>2025-12-07T07:45:39Z</time></trkpt>
<trkpt lat="43.0525520000" lon="0.6629020000"><ele>570</ele><time>2025-12-07T07:45:41Z</time></trkpt>
<trkpt lat="43.0525720000" lon="0.6628820000"><ele>570</ele><time>2025-12-07T07:45:44Z</time></trkpt>
<trkpt lat="43.0525870000" lon="0.6628520000"><ele>570</ele><time>2025-12-07T07:45:47Z</time></trkpt>
<trkpt lat="43.0526000000" lon="0.6628320000"><ele>570</ele><time>2025-12-07T07:45:49Z</time></trkpt>
<trkpt lat="43.0526170000" lon="0.6628170000"><ele>570</ele><time>2025-12-07T07:45:51Z</time></trkpt>
<trkpt lat="43.0526320000" lon="0.6627950000"><ele>570</ele><time>2025-12-07T07:45:54Z</time></trkpt>
<trkpt lat="43.0526570000" lon="0.6627920000"><ele>571</ele><time>2025-12-07T07:45:57Z</time></trkpt>
<trkpt lat="43.0526650000" lon="0.6627650000"><ele>570</ele><time>2025-12-07T07:46:00Z</time></trkpt>
<trkpt lat="43.0526720000" lon="0.6627220000"><ele>570</ele><time>2025-12-07T07:46:02Z</time></trkpt>
<trkpt lat="43.0526870000" lon="0.6627000000"><ele>571</ele><time>2025-12-07T07:46:03Z</time></trkpt>
<trkpt lat="43.0526900000" lon="0.6626720000"><ele>570</ele><time>2025-12-07T07:46:05Z</time></trkpt>
<trkpt lat="43.0527150000" lon="0.6626720000"><ele>570</ele><time>2025-12-07T07:46:08Z</time></trkpt>
<trkpt lat="43.0527450000" lon="0.6626520000"><ele>571</ele><time>2025-12-07T07:46:10Z</time></trkpt>
<trkpt lat="43.0527650000" lon="0.6626570000"><ele>571</ele><time>2025-12-07T07:46:12Z</time></trkpt>
<trkpt lat="43.0527780000" lon="0.6626420000"><ele>571</ele><time>2025-12-07T07:46:14Z</time></trkpt>
<trkpt lat="43.0528020000" lon="0.6626300000"><ele>571</ele><time>2025-12-07T07:46:16Z</time></trkpt>
<trkpt lat="43.0528150000" lon="0.6626100000"><ele>571</ele><time>2025-12-07T07:46:18Z</time></trkpt>
<trkpt lat="43.0528420000" lon="0.6626220000"><ele>571</ele><time>2025-12-07T07:46:20Z</time></trkpt>
<trkpt lat="43.0528630000" lon="0.6626450000"><ele>571</ele><time>2025-12-07T07:46:23Z</time></trkpt>
<trkpt lat="43.0528870000" lon="0.6626680000"><ele>571</ele><time>2025-12-07T07:46:25Z</time></trkpt>
<trkpt lat="43.0529050000" lon="0.6626920000"><ele>572</ele><time>2025-12-07T07:46:27Z</time></trkpt>
<trkpt lat="43.0529270000" lon="0.6627120000"><ele>572</ele><time>2025-12-07T07:46:29Z</time></trkpt>
<trkpt lat="43.0529500000" lon="0.6627250000"><ele>572</ele><time>2025-12-07T07:46:31Z</time></trkpt>
<trkpt lat="43.0529670000" lon="0.6627330000"><ele>573</ele><time>2025-12-07T07:46:33Z</time></trkpt>
<trkpt lat="43.0529900000" lon="0.6627300000"><ele>573</ele><time>2025-12-07T07:46:36Z</time></trkpt>
<trkpt lat="43.0530120000" lon="0.6627400000"><ele>573</ele><time>2025-12-07T07:46:39Z</time></trkpt>
<trkpt lat="43.0530270000" lon="0.6627650000"><ele>573</ele><time>2025-12-07T07:46:41Z</time></trkpt>
<trkpt lat="43.0530470000" lon="0.6627770000"><ele>574</ele><time>2025-12-07T07:46:44Z</time></trkpt>
<trkpt lat="43.0530750000" lon="0.6627820000"><ele>574</ele><time>2025-12-07T07:46:46Z</time></trkpt>
<trkpt lat="43.0530970000" lon="0.6627800000"><ele>574</ele><time>2025-12-07T07:46:48Z</time></trkpt>
<trkpt lat="43.0531250000" lon="0.6627820000"><ele>574</ele><time>2025-12-07T07:46:51Z</time></trkpt>
<trkpt lat="43.0531470000" lon="0.6628030000"><ele>575</ele><time>2025-12-07T07:46:54Z</time></trkpt>
<trkpt lat="43.0531670000" lon="0.6628350000"><ele>575</ele><time>2025-12-07T07:46:56Z</time></trkpt>
<trkpt lat="43.0531970000" lon="0.6628570000"><ele>575</ele><time>2025-12-07T07:46:58Z</time></trkpt>
<trkpt lat="43.0532220000" lon="0.6628620000"><ele>575</ele><time>2025-12-07T07:47:00Z</time></trkpt>
<trkpt lat="43.0532400000" lon="0.6628770000"><ele>575</ele><time>2025-12-07T07:47:03Z</time></trkpt>
<trkpt lat="43.0532570000" lon="0.6628970000"><ele>575</ele><time>2025-12-07T07:47:07Z</time></trkpt>
<trkpt lat="43.0532750000" lon="0.6629220000"><ele>575</ele><time>2025-12-07T07:47:09Z</time></trkpt>
<trkpt lat="43.0533120000" lon="0.6629370000"><ele>575</ele><time>2025-12-07T07:47:11Z</time></trkpt>
<trkpt lat="43.0533300000" lon="0.6629500000"><ele>575</ele><time>2025-12-07T07:47:12Z</time></trkpt>
<trkpt lat="43.0533220000" lon="0.6629770000"><ele>575</ele><time>2025-12-07T07:47:15Z</time></trkpt>
<trkpt lat="43.0533350000" lon="0.6629620000"><ele>575</ele><time>2025-12-07T07:47:19Z</time></trkpt>
<trkpt lat="43.0533600000" lon="0.6629720000"><ele>575</ele><time>2025-12-07T07:47:20Z</time></trkpt>
<trkpt lat="43.0533720000" lon="0.6629870000"><ele>575</ele><time>2025-12-07T07:47:21Z</time></trkpt>
<trkpt lat="43.0533820000" lon="0.6630170000"><ele>575</ele><time>2025-12-07T07:47:23Z</time></trkpt>
<trkpt lat="43.0533920000" lon="0.6630370000"><ele>575</ele><time>2025-12-07T07:47:24Z</time></trkpt>
<trkpt lat="43.0534020000" lon="0.6630670000"><ele>575</ele><time>2025-12-07T07:47:26Z</time></trkpt>
<trkpt lat="43.0534170000" lon="0.6630820000"><ele>575</ele><time>2025-12-07T07:47:28Z</time></trkpt>
<trkpt lat="43.0534350000" lon="0.6631000000"><ele>575</ele><time>2025-12-07T07:47:30Z</time></trkpt>
<trkpt lat="43.0534470000" lon="0.6631170000"><ele>576</ele><time>2025-12-07T07:47:33Z</time></trkpt>
<trkpt lat="43.0534650000" lon="0.6631450000"><ele>575</ele><time>2025-12-07T07:47:35Z</time></trkpt>
<trkpt lat="43.0534900000" lon="0.6631650000"><ele>576</ele><time>2025-12-07T07:47:37Z</time></trkpt>
<trkpt lat="43.0535050000" lon="0.6631850000"><ele>576</ele><time>2025-12-07T07:47:39Z</time></trkpt>
<trkpt lat="43.0535170000" lon="0.6632170000"><ele>576</ele><time>2025-12-07T07:47:42Z</time></trkpt>
<trkpt lat="43.0535250000" lon="0.6632420000"><ele>576</ele><time>2025-12-07T07:47:43Z</time></trkpt>
<trkpt lat="43.0535350000" lon="0.6632700000"><ele>576</ele><time>2025-12-07T07:47:44Z</time></trkpt>
<trkpt lat="43.0535520000" lon="0.6632870000"><ele>576</ele><time>2025-12-07T07:47:45Z</time></trkpt>
<trkpt lat="43.0535650000" lon="0.6633080000"><ele>576</ele><time>2025-12-07T07:47:47Z</time></trkpt>
<trkpt lat="43.0535770000" lon="0.6633320000"><ele>576</ele><time>2025-12-07T07:47:50Z</time></trkpt>
<trkpt lat="43.0535920000" lon="0.6633430000"><ele>576</ele><time>2025-12-07T07:47:52Z</time></trkpt>
<trkpt lat="43.0536120000" lon="0.6633620000"><ele>576</ele><time>2025-12-07T07:47:55Z</time></trkpt>
<trkpt lat="43.0536220000" lon="0.6633920000"><ele>576</ele><time>2025-12-07T07:47:58Z</time></trkpt>
<trkpt lat="43.0536370000" lon="0.6634150000"><ele>576</ele><time>2025-12-07T07:48:00Z</time></trkpt>
<trkpt lat="43.0536450000" lon="0.6634400000"><ele>576</ele><time>2025-12-07T07:48:02Z</time></trkpt>
<trkpt lat="43.0536470000" lon="0.6634700000"><ele>575</ele><time>2025-12-07T07:48:04Z</time></trkpt>
<trkpt lat="43.0536620000" lon="0.6634970000"><ele>576</ele><time>2025-12-07T07:48:07Z</time></trkpt>
<trkpt lat="43.0536720000" lon="0.6635220000"><ele>576</ele><time>2025-12-07T07:48:09Z</time></trkpt>
<trkpt lat="43.0536720000" lon="0.6635620000"><ele>576</ele><time>2025-12-07T07:48:12Z</time></trkpt>
<trkpt lat="43.0536650000" lon="0.6635900000"><ele>576</ele><time>2025-12-07T07:48:14Z</time></trkpt>
<trkpt lat="43.0536800000" lon="0.6636180000"><ele>576</ele><time>2025-12-07T07:48:17Z</time></trkpt>
<trkpt lat="43.0536850000" lon="0.6636570000"><ele>575</ele><time>2025-12-07T07:48:19Z</time></trkpt>
<trkpt lat="43.0536930000" lon="0.6636870000"><ele>575</ele><time>2025-12-07T07:48:21Z</time></trkpt>
<trkpt lat="43.0537070000" lon="0.6637100000"><ele>575</ele><time>2025-12-07T07:48:23Z</time></trkpt>
<trkpt lat="43.0537220000" lon="0.6637420000"><ele>576</ele><time>2025-12-07T07:48:25Z</time></trkpt>
<trkpt lat="43.0537420000" lon="0.6637870000"><ele>576</ele><time>2025-12-07T07:48:28Z</time></trkpt>
<trkpt lat="43.0537550000" lon="0.6638170000"><ele>576</ele><time>2025-12-07T07:48:31Z</time></trkpt>
<trkpt lat="43.0537620000" lon="0.6638570000"><ele>576</ele><time>2025-12-07T07:48:33Z</time></trkpt>
<trkpt lat="43.0537720000" lon="0.6638950000"><ele>576</ele><time>2025-12-07T07:48:35Z</time></trkpt>
<trkpt lat="43.0537770000" lon="0.6639270000"><ele>576</ele><time>2025-12-07T07:48:37Z</time></trkpt>
<trkpt lat="43.0537770000" lon="0.6639620000"><ele>576</ele><time>2025-12-07T07:48:39Z</time></trkpt>
<trkpt lat="43.0537820000" lon="0.6639920000"><ele>576</ele><time>2025-12-07T07:48:41Z</time></trkpt>
<trkpt lat="43.0537850000" lon="0.6640170000"><ele>576</ele><time>2025-12-07T07:48:42Z</time></trkpt>
<trkpt lat="43.0537970000" lon="0.6640570000"><ele>576</ele><time>2025-12-07T07:48:44Z</time></trkpt>
<trkpt lat="43.0538250000" lon="0.6640820000"><ele>576</ele><time>2025-12-07T07:48:52Z</time></trkpt>
<trkpt lat="43.0538400000" lon="0.6641030000"><ele>576</ele><time>2025-12-07T07:48:55Z</time></trkpt>
<trkpt lat="43.0538520000" lon="0.6641320000"><ele>576</ele><time>2025-12-07T07:49:17Z</time></trkpt>
<trkpt lat="43.0538670000" lon="0.6641470000"><ele>576</ele><time>2025-12-07T07:49:19Z</time></trkpt>
<trkpt lat="43.0538920000" lon="0.6641500000"><ele>576</ele><time>2025-12-07T07:49:22Z</time></trkpt>
<trkpt lat="43.0539170000" lon="0.6641520000"><ele>576</ele><time>2025-12-07T07:49:25Z</time></trkpt>
<trkpt lat="43.0539370000" lon="0.6641550000"><ele>576</ele><time>2025-12-07T07:49:27Z</time></trkpt>
<trkpt lat="43.0539570000" lon="0.6641450000"><ele>576</ele><time>2025-12-07T07:49:29Z</time></trkpt>
<trkpt lat="43.0539770000" lon="0.6641450000"><ele>576</ele><time>2025-12-07T07:49:31Z</time></trkpt>
<trkpt lat="43.0539970000" lon="0.6641520000"><ele>576</ele><time>2025-12-07T07:49:33Z</time></trkpt>
<trkpt lat="43.0540170000" lon="0.6641570000"><ele>576</ele><time>2025-12-07T07:49:35Z</time></trkpt>
<trkpt lat="43.0540370000" lon="0.6641700000"><ele>576</ele><time>2025-12-07T07:49:36Z</time></trkpt>
<trkpt lat="43.0540570000" lon="0.6641820000"><ele>576</ele><time>2025-12-07T07:49:38Z</time></trkpt>
<trkpt lat="43.0540770000" lon="0.6641870000"><ele>576</ele><time>2025-12-07T07:49:40Z</time></trkpt>
<trkpt lat="43.0540970000" lon="0.6641930000"><ele>576</ele><time>2025-12-07T07:49:42Z</time></trkpt>
<trkpt lat="43.0541170000" lon="0.6642070000"><ele>576</ele><time>2025-12-07T07:49:44Z</time></trkpt>
<trkpt lat="43.0541370000" lon="0.6642170000"><ele>576</ele><time>2025-12-07T07:49:46Z</time></trkpt>
<trkpt lat="43.0541520000" lon="0.6642320000"><ele>576</ele><time>2025-12-07T07:49:48Z</time></trkpt>
<trkpt lat="43.0541720000" lon="0.6642500000"><ele>576</ele><time>2025-12-07T07:49:50Z</time></trkpt>
<trkpt lat="43.0541970000" lon="0.6642520000"><ele>576</ele><time>2025-12-07T07:49:52Z</time></trkpt>
<trkpt lat="43.0542220000" lon="0.6642580000"><ele>576</ele><time>2025-12-07T07:49:55Z</time></trkpt>
<trkpt lat="43.0542470000" lon="0.6642520000"><ele>576</ele><time>2025-12-07T07:49:57Z</time></trkpt>
<trkpt lat="43.0542700000" lon="0.6642520000"><ele>576</ele><time>2025-12-07T07:49:59Z</time></trkpt>
<trkpt lat="43.0542900000" lon="0.6642620000"><ele>577</ele><time>2025-12-07T07:50:02Z</time></trkpt>
<trkpt lat="43.0543120000" lon="0.6642570000"><ele>577</ele><time>2025-12-07T07:50:04Z</time></trkpt>
<trkpt lat="43.0543320000" lon="0.6642620000"><ele>577</ele><time>2025-12-07T07:50:06Z</time></trkpt>
<trkpt lat="43.0543620000" lon="0.6642620000"><ele>577</ele><time>2025-12-07T07:50:09Z</time></trkpt>
<trkpt lat="43.0543920000" lon="0.6642370000"><ele>578</ele><time>2025-12-07T07:50:12Z</time></trkpt>
<trkpt lat="43.0544120000" lon="0.6642320000"><ele>578</ele><time>2025-12-07T07:50:13Z</time></trkpt>
<trkpt lat="43.0544320000" lon="0.6642300000"><ele>578</ele><time>2025-12-07T07:50:16Z</time></trkpt>
<trkpt lat="43.0544500000" lon="0.6642250000"><ele>578</ele><time>2025-12-07T07:50:19Z</time></trkpt>
<trkpt lat="43.0544720000" lon="0.6642170000"><ele>578</ele><time>2025-12-07T07:50:22Z</time></trkpt>
<trkpt lat="43.0544870000" lon="0.6642000000"><ele>578</ele><time>2025-12-07T07:50:24Z</time></trkpt>
<trkpt lat="43.0545070000" lon="0.6641820000"><ele>579</ele><time>2025-12-07T07:50:27Z</time></trkpt>
<trkpt lat="43.0545270000" lon="0.6641700000"><ele>579</ele><time>2025-12-07T07:50:30Z</time></trkpt>
<trkpt lat="43.0545470000" lon="0.6641720000"><ele>579</ele><time>2025-12-07T07:50:32Z</time></trkpt>
<trkpt lat="43.0545620000" lon="0.6641470000"><ele>580</ele><time>2025-12-07T07:50:34Z</time></trkpt>
<trkpt lat="43.0545800000" lon="0.6641300000"><ele>580</ele><time>2025-12-07T07:50:36Z</time></trkpt>
<trkpt lat="43.0546000000" lon="0.6641270000"><ele>580</ele><time>2025-12-07T07:50:38Z</time></trkpt>
<trkpt lat="43.0546220000" lon="0.6641300000"><ele>581</ele><time>2025-12-07T07:50:40Z</time></trkpt>
<trkpt lat="43.0546450000" lon="0.6641320000"><ele>581</ele><time>2025-12-07T07:50:42Z</time></trkpt>
<trkpt lat="43.0546670000" lon="0.6641380000"><ele>581</ele><time>2025-12-07T07:50:45Z</time></trkpt>
<trkpt lat="43.0546850000" lon="0.6641270000"><ele>582</ele><time>2025-12-07T07:50:50Z</time></trkpt>
<trkpt lat="43.0547050000" lon="0.6641150000"><ele>582</ele><time>2025-12-07T07:50:52Z</time></trkpt>
<trkpt lat="43.0547320000" lon="0.6641270000"><ele>582</ele><time>2025-12-07T07:50:54Z</time></trkpt>
<trkpt lat="43.0547570000" lon="0.6641220000"><ele>583</ele><time>2025-12-07T07:50:57Z</time></trkpt>
<trkpt lat="43.0547820000" lon="0.6641170000"><ele>583</ele><time>2025-12-07T07:50:59Z</time></trkpt>
<trkpt lat="43.0547970000" lon="0.6641020000"><ele>583</ele><time>2025-12-07T07:51:00Z</time></trkpt>
<trkpt lat="43.0548220000" lon="0.6640920000"><ele>583</ele><time>2025-12-07T07:51:02Z</time></trkpt>
<trkpt lat="43.0548370000" lon="0.6641070000"><ele>583</ele><time>2025-12-07T07:51:21Z</time></trkpt>
<trkpt lat="43.0548570000" lon="0.6641220000"><ele>583</ele><time>2025-12-07T07:51:24Z</time></trkpt>
<trkpt lat="43.0548770000" lon="0.6641370000"><ele>583</ele><time>2025-12-07T07:51:25Z</time></trkpt>
<trkpt lat="43.0549020000" lon="0.6641520000"><ele>583</ele><time>2025-12-07T07:51:26Z</time></trkpt>
<trkpt lat="43.0549270000" lon="0.6641670000"><ele>583</ele><time>2025-12-07T07:51:27Z</time></trkpt>
<trkpt lat="43.0549570000" lon="0.6641900000"><ele>583</ele><time>2025-12-07T07:51:28Z</time></trkpt>
<trkpt lat="43.0549770000" lon="0.6642070000"><ele>583</ele><time>2025-12-07T07:51:29Z</time></trkpt>
<trkpt lat="43.0549850000" lon="0.6642300000"><ele>583</ele><time>2025-12-07T07:51:33Z</time></trkpt>
<trkpt lat="43.0549870000" lon="0.6642550000"><ele>583</ele><time>2025-12-07T07:51:38Z</time></trkpt>
<trkpt lat="43.0549970000" lon="0.6642820000"><ele>583</ele><time>2025-12-07T07:51:40Z</time></trkpt>
<trkpt lat="43.0550020000" lon="0.6643070000"><ele>583</ele><time>2025-12-07T07:51:42Z</time></trkpt>
<trkpt lat="43.0549920000" lon="0.6643400000"><ele>584</ele><time>2025-12-07T07:51:45Z</time></trkpt>
<trkpt lat="43.0549670000" lon="0.6643170000"><ele>583</ele><time>2025-12-07T07:52:29Z</time></trkpt>
<trkpt lat="43.0549420000" lon="0.6643020000"><ele>583</ele><time>2025-12-07T07:52:30Z</time></trkpt>
<trkpt lat="43.0549170000" lon="0.6642870000"><ele>583</ele><time>2025-12-07T07:52:31Z</time></trkpt>
<trkpt lat="43.0548950000" lon="0.6642770000"><ele>583</ele><time>2025-12-07T07:52:32Z</time></trkpt>
<trkpt lat="43.0548700000" lon="0.6642730000"><ele>583</ele><time>2025-12-07T07:52:34Z</time></trkpt>
<trkpt lat="43.0548670000" lon="0.6643020000"><ele>583</ele><time>2025-12-07T07:53:45Z</time></trkpt>
<trkpt lat="43.0548720000" lon="0.6643270000"><ele>584</ele><time>2025-12-07T07:55:01Z</time></trkpt>
<trkpt lat="43.0548620000" lon="0.6643550000"><ele>584</ele><time>2025-12-07T07:55:03Z</time></trkpt>
<trkpt lat="43.0548720000" lon="0.6643870000"><ele>584</ele><time>2025-12-07T07:55:20Z</time></trkpt>
<trkpt lat="43.0548870000" lon="0.6644150000"><ele>584</ele><time>2025-12-07T07:55:22Z</time></trkpt>
<trkpt lat="43.0549000000" lon="0.6643900000"><ele>584</ele><time>2025-12-07T07:56:04Z</time></trkpt>
<trkpt lat="43.0548900000" lon="0.6643670000"><ele>584</ele><time>2025-12-07T07:56:08Z</time></trkpt>
<trkpt lat="43.0549070000" lon="0.6643620000"><ele>584</ele><time>2025-12-07T07:56:25Z</time></trkpt>
<trkpt lat="43.0549420000" lon="0.6643470000"><ele>584</ele><time>2025-12-07T07:56:27Z</time></trkpt>
<trkpt lat="43.0549620000" lon="0.6643270000"><ele>584</ele><time>2025-12-07T07:56:29Z</time></trkpt>
<trkpt lat="43.0549420000" lon="0.6643270000"><ele>584</ele><time>2025-12-07T07:56:33Z</time></trkpt>
<trkpt lat="43.0549270000" lon="0.6642970000"><ele>584</ele><time>2025-12-07T07:56:39Z</time></trkpt>
<trkpt lat="43.0549170000" lon="0.6642670000"><ele>584</ele><time>2025-12-07T07:56:44Z</time></trkpt>
<trkpt lat="43.0549070000" lon="0.6642370000"><ele>584</ele><time>2025-12-07T07:56:46Z</time></trkpt>
<trkpt lat="43.0549020000" lon="0.6641970000"><ele>584</ele><time>2025-12-07T07:56:48Z</time></trkpt>
<trkpt lat="43.0549120000" lon="0.6641670000"><ele>584</ele><time>2025-12-07T07:56:50Z</time></trkpt>
<trkpt lat="43.0549300000" lon="0.6641450000"><ele>583</ele><time>2025-12-07T07:56:52Z</time></trkpt>
<trkpt lat="43.0549570000" lon="0.6641170000"><ele>583</ele><time>2025-12-07T07:56:54Z</time></trkpt>
<trkpt lat="43.0549820000" lon="0.6640950000"><ele>583</ele><time>2025-12-07T07:56:56Z</time></trkpt>
<trkpt lat="43.0550000000" lon="0.6640620000"><ele>583</ele><time>2025-12-07T07:56:58Z</time></trkpt>
<trkpt lat="43.0550170000" lon="0.6640420000"><ele>583</ele><time>2025-12-07T07:57:00Z</time></trkpt>
<trkpt lat="43.0550320000" lon="0.6640270000"><ele>583</ele><time>2025-12-07T07:57:02Z</time></trkpt>
<trkpt lat="43.0550520000" lon="0.6639970000"><ele>582</ele><time>2025-12-07T07:57:05Z</time></trkpt>
<trkpt lat="43.0550620000" lon="0.6639620000"><ele>582</ele><time>2025-12-07T07:57:07Z</time></trkpt>
<trkpt lat="43.0550750000" lon="0.6639450000"><ele>582</ele><time>2025-12-07T07:57:09Z</time></trkpt>
<trkpt lat="43.0550920000" lon="0.6639220000"><ele>582</ele><time>2025-12-07T07:57:11Z</time></trkpt>
<trkpt lat="43.0551150000" lon="0.6639030000"><ele>581</ele><time>2025-12-07T07:57:13Z</time></trkpt>
<trkpt lat="43.0551400000" lon="0.6638800000"><ele>581</ele><time>2025-12-07T07:57:15Z</time></trkpt>
<trkpt lat="43.0551600000" lon="0.6638620000"><ele>581</ele><time>2025-12-07T07:57:17Z</time></trkpt>
<trkpt lat="43.0551650000" lon="0.6638300000"><ele>580</ele><time>2025-12-07T07:57:19Z</time></trkpt>
<trkpt lat="43.0551770000" lon="0.6638050000"><ele>580</ele><time>2025-12-07T07:57:22Z</time></trkpt>
<trkpt lat="43.0551800000" lon="0.6637750000"><ele>580</ele><time>2025-12-07T07:57:27Z</time></trkpt>
<trkpt lat="43.0551720000" lon="0.6637420000"><ele>580</ele><time>2025-12-07T07:57:31Z</time></trkpt>
<trkpt lat="43.0551950000" lon="0.6637420000"><ele>580</ele><time>2025-12-07T07:57:36Z</time></trkpt>
<trkpt lat="43.0552130000" lon="0.6637400000"><ele>580</ele><time>2025-12-07T07:57:38Z</time></trkpt>
<trkpt lat="43.0552420000" lon="0.6637300000"><ele>579</ele><time>2025-12-07T07:57:40Z</time></trkpt>
<trkpt lat="43.0552670000" lon="0.6637220000"><ele>578</ele><time>2025-12-07T07:57:42Z</time></trkpt>
<trkpt lat="43.0552870000" lon="0.6637220000"><ele>578</ele><time>2025-12-07T07:57:44Z</time></trkpt>
<trkpt lat="43.0553200000" lon="0.6637320000"><ele>577</ele><time>2025-12-07T07:57:47Z</time></trkpt>
<trkpt lat="43.0553420000" lon="0.6637370000"><ele>577</ele><time>2025-12-07T07:57:49Z</time></trkpt>
<trkpt lat="43.0553600000" lon="0.6637370000"><ele>577</ele><time>2025-12-07T07:57:52Z</time></trkpt>
<trkpt lat="43.0553720000" lon="0.6637120000"><ele>576</ele><time>2025-12-07T07:57:55Z</time></trkpt>
<trkpt lat="43.0553850000" lon="0.6636870000"><ele>576</ele><time>2025-12-07T07:57:58Z</time></trkpt>
<trkpt lat="43.0554020000" lon="0.6636720000"><ele>575</ele><time>2025-12-07T07:58:00Z</time></trkpt>
<trkpt lat="43.0554200000" lon="0.6636530000"><ele>575</ele><time>2025-12-07T07:58:02Z</time></trkpt>
<trkpt lat="43.0554450000" lon="0.6636450000"><ele>574</ele><time>2025-12-07T07:58:04Z</time></trkpt>
<trkpt lat="43.0554670000" lon="0.6636320000"><ele>574</ele><time>2025-12-07T07:58:06Z</time></trkpt>
<trkpt lat="43.0554870000" lon="0.6636270000"><ele>574</ele><time>2025-12-07T07:58:08Z</time></trkpt>
<trkpt lat="43.0555000000" lon="0.6636020000"><ele>573</ele><time>2025-12-07T07:58:10Z</time></trkpt>
<trkpt lat="43.0555250000" lon="0.6635900000"><ele>573</ele><time>2025-12-07T07:58:13Z</time></trkpt>
<trkpt lat="43.0555470000" lon="0.6635870000"><ele>572</ele><time>2025-12-07T07:58:16Z</time></trkpt>
<trkpt lat="43.0555670000" lon="0.6635720000"><ele>572</ele><time>2025-12-07T07:58:19Z</time></trkpt>
<trkpt lat="43.0555770000" lon="0.6635420000"><ele>571</ele><time>2025-12-07T07:58:22Z</time></trkpt>
<trkpt lat="43.0555970000" lon="0.6635450000"><ele>571</ele><time>2025-12-07T07:58:25Z</time></trkpt>
<trkpt lat="43.0556170000" lon="0.6635420000"><ele>570</ele><time>2025-12-07T07:58:28Z</time></trkpt>
<trkpt lat="43.0556350000" lon="0.6635220000"><ele>570</ele><time>2025-12-07T07:58:31Z</time></trkpt>
<trkpt lat="43.0556520000" lon="0.6635120000"><ele>569</ele><time>2025-12-07T07:58:34Z</time></trkpt>
<trkpt lat="43.0556750000" lon="0.6635120000"><ele>569</ele><time>2025-12-07T07:58:37Z</time></trkpt>
<trkpt lat="43.0556970000" lon="0.6635070000"><ele>569</ele><time>2025-12-07T07:58:39Z</time></trkpt>
<trkpt lat="43.0557120000" lon="0.6634870000"><ele>568</ele><time>2025-12-07T07:58:44Z</time></trkpt>
<trkpt lat="43.0557270000" lon="0.6634670000"><ele>568</ele><time>2025-12-07T07:58:46Z</time></trkpt>
<trkpt lat="43.0557350000" lon="0.6634370000"><ele>567</ele><time>2025-12-07T07:58:48Z</time></trkpt>
<trkpt lat="43.0557150000" lon="0.6634170000"><ele>567</ele><time>2025-12-07T07:58:50Z</time></trkpt>
<trkpt lat="43.0557400000" lon="0.6634220000"><ele>567</ele><time>2025-12-07T07:58:54Z</time></trkpt>
<trkpt lat="43.0557750000" lon="0.6634220000"><ele>566</ele><time>2025-12-07T07:58:56Z</time></trkpt>
<trkpt lat="43.0557950000" lon="0.6634270000"><ele>566</ele><time>2025-12-07T07:58:58Z</time></trkpt>
<trkpt lat="43.0558070000" lon="0.6634070000"><ele>565</ele><time>2025-12-07T07:59:01Z</time></trkpt>
<trkpt lat="43.0558150000" lon="0.6633800000"><ele>565</ele><time>2025-12-07T07:59:05Z</time></trkpt>
<trkpt lat="43.0558370000" lon="0.6633720000"><ele>565</ele><time>2025-12-07T07:59:08Z</time></trkpt>
<trkpt lat="43.0558570000" lon="0.6633570000"><ele>564</ele><time>2025-12-07T07:59:10Z</time></trkpt>
<trkpt lat="43.0558720000" lon="0.6633400000"><ele>564</ele><time>2025-12-07T07:59:14Z</time></trkpt>
<trkpt lat="43.0558820000" lon="0.6633170000"><ele>563</ele><time>2025-12-07T07:59:16Z</time></trkpt>
<trkpt lat="43.0558970000" lon="0.6633000000"><ele>563</ele><time>2025-12-07T07:59:19Z</time></trkpt>
<trkpt lat="43.0559220000" lon="0.6632850000"><ele>561</ele><time>2025-12-07T07:59:30Z</time></trkpt>
<trkpt lat="43.0559350000" lon="0.6632670000"><ele>561</ele><time>2025-12-07T07:59:31Z</time></trkpt>
<trkpt lat="43.0559620000" lon="0.6632420000"><ele>561</ele><time>2025-12-07T07:59:33Z</time></trkpt>
<trkpt lat="43.0559820000" lon="0.6632350000"><ele>561</ele><time>2025-12-07T07:59:35Z</time></trkpt>
<trkpt lat="43.0560020000" lon="0.6632220000"><ele>561</ele><time>2025-12-07T07:59:38Z</time></trkpt>
<trkpt lat="43.0560170000" lon="0.6632020000"><ele>559</ele><time>2025-12-07T07:59:41Z</time></trkpt>
<trkpt lat="43.0560320000" lon="0.6631880000"><ele>559</ele><time>2025-12-07T07:59:44Z</time></trkpt>
<trkpt lat="43.0560520000" lon="0.6631820000"><ele>559</ele><time>2025-12-07T07:59:46Z</time></trkpt>
<trkpt lat="43.0560720000" lon="0.6631600000"><ele>559</ele><time>2025-12-07T07:59:49Z</time></trkpt>
<trkpt lat="43.0560900000" lon="0.6631670000"><ele>558</ele><time>2025-12-07T07:59:51Z</time></trkpt>
<trkpt lat="43.0561170000" lon="0.6631380000"><ele>558</ele><time>2025-12-07T07:59:55Z</time></trkpt>
<trkpt lat="43.0561370000" lon="0.6631470000"><ele>557</ele><time>2025-12-07T07:59:57Z</time></trkpt>
<trkpt lat="43.0561500000" lon="0.6631250000"><ele>557</ele><time>2025-12-07T08:00:02Z</time></trkpt>
<trkpt lat="43.0561650000" lon="0.6631050000"><ele>557</ele><time>2025-12-07T08:00:04Z</time></trkpt>
<trkpt lat="43.0561770000" lon="0.6630770000"><ele>556</ele><time>2025-12-07T08:00:06Z</time></trkpt>
<trkpt lat="43.0561920000" lon="0.6630570000"><ele>556</ele><time>2025-12-07T08:00:09Z</time></trkpt>
<trkpt lat="43.0562120000" lon="0.6630420000"><ele>555</ele><time>2025-12-07T08:00:12Z</time></trkpt>
<trkpt lat="43.0562270000" lon="0.6630170000"><ele>555</ele><time>2025-12-07T08:00:14Z</time></trkpt>
<trkpt lat="43.0562470000" lon="0.6630070000"><ele>554</ele><time>2025-12-07T08:00:19Z</time></trkpt>
<trkpt lat="43.0562670000" lon="0.6629680000"><ele>554</ele><time>2025-12-07T08:00:21Z</time></trkpt>
<trkpt lat="43.0562720000" lon="0.6629420000"><ele>553</ele><time>2025-12-07T08:00:22Z</time></trkpt>
<trkpt lat="43.0562970000" lon="0.6629180000"><ele>553</ele><time>2025-12-07T08:00:25Z</time></trkpt>
<trkpt lat="43.0563270000" lon="0.6629120000"><ele>553</ele><time>2025-12-07T08:00:27Z</time></trkpt>
<trkpt lat="43.0563500000" lon="0.6629030000"><ele>552</ele><time>2025-12-07T08:00:30Z</time></trkpt>
<trkpt lat="43.0563570000" lon="0.6628820000"><ele>552</ele><time>2025-12-07T08:00:32Z</time></trkpt>
<trkpt lat="43.0563770000" lon="0.6628670000"><ele>551</ele><time>2025-12-07T08:00:36Z</time></trkpt>
<trkpt lat="43.0563970000" lon="0.6628600000"><ele>550</ele><time>2025-12-07T08:00:39Z</time></trkpt>
<trkpt lat="43.0564120000" lon="0.6628450000"><ele>549</ele><time>2025-12-07T08:00:42Z</time></trkpt>
<trkpt lat="43.0564400000" lon="0.6628420000"><ele>549</ele><time>2025-12-07T08:00:45Z</time></trkpt>
<trkpt lat="43.0564570000" lon="0.6628300000"><ele>548</ele><time>2025-12-07T08:00:54Z</time></trkpt>
<trkpt lat="43.0564820000" lon="0.6628020000"><ele>547</ele><time>2025-12-07T08:00:56Z</time></trkpt>
<trkpt lat="43.0565070000" lon="0.6627870000"><ele>546</ele><time>2025-12-07T08:01:02Z</time></trkpt>
<trkpt lat="43.0565270000" lon="0.6627770000"><ele>546</ele><time>2025-12-07T08:01:03Z</time></trkpt>
<trkpt lat="43.0565500000" lon="0.6627650000"><ele>546</ele><time>2025-12-07T08:01:04Z</time></trkpt>
<trkpt lat="43.0565750000" lon="0.6627570000"><ele>546</ele><time>2025-12-07T08:01:05Z</time></trkpt>
<trkpt lat="43.0566000000" lon="0.6627520000"><ele>545</ele><time>2025-12-07T08:01:07Z</time></trkpt>
<trkpt lat="43.0566170000" lon="0.6627330000"><ele>544</ele><time>2025-12-07T08:01:11Z</time></trkpt>
<trkpt lat="43.0566370000" lon="0.6627120000"><ele>544</ele><time>2025-12-07T08:01:13Z</time></trkpt>
<trkpt lat="43.0566600000" lon="0.6627070000"><ele>543</ele><time>2025-12-07T08:01:15Z</time></trkpt>
<trkpt lat="43.0566800000" lon="0.6627150000"><ele>543</ele><time>2025-12-07T08:01:16Z</time></trkpt>
<trkpt lat="43.0567000000" lon="0.6626800000"><ele>542</ele><time>2025-12-07T08:01:19Z</time></trkpt>
<trkpt lat="43.0567120000" lon="0.6626520000"><ele>542</ele><time>2025-12-07T08:01:21Z</time></trkpt>
<trkpt lat="43.0567270000" lon="0.6626370000"><ele>541</ele><time>2025-12-07T08:01:23Z</time></trkpt>
<trkpt lat="43.0567470000" lon="0.6626470000"><ele>541</ele><time>2025-12-07T08:01:28Z</time></trkpt>
<trkpt lat="43.0567670000" lon="0.6626450000"><ele>540</ele><time>2025-12-07T08:01:30Z</time></trkpt>
<trkpt lat="43.0567850000" lon="0.6626370000"><ele>540</ele><time>2025-12-07T08:01:33Z</time></trkpt>
<trkpt lat="43.0568120000" lon="0.6626220000"><ele>539</ele><time>2025-12-07T08:01:36Z</time></trkpt>
<trkpt lat="43.0568400000" lon="0.6626050000"><ele>538</ele><time>2025-12-07T08:01:38Z</time></trkpt>
<trkpt lat="43.0568620000" lon="0.6625720000"><ele>538</ele><time>2025-12-07T08:01:40Z</time></trkpt>
<trkpt lat="43.0568850000" lon="0.6625470000"><ele>538</ele><time>2025-12-07T08:01:42Z</time></trkpt>
<trkpt lat="43.0569050000" lon="0.6625270000"><ele>537</ele><time>2025-12-07T08:01:44Z</time></trkpt>
<trkpt lat="43.0569270000" lon="0.6625130000"><ele>537</ele><time>2025-12-07T08:01:46Z</time></trkpt>
<trkpt lat="43.0569420000" lon="0.6624850000"><ele>536</ele><time>2025-12-07T08:01:50Z</time></trkpt>
<trkpt lat="43.0569570000" lon="0.6624550000"><ele>536</ele><time>2025-12-07T08:01:52Z</time></trkpt>
<trkpt lat="43.0569620000" lon="0.6624270000"><ele>535</ele><time>2025-12-07T08:01:54Z</time></trkpt>
<trkpt lat="43.0569700000" lon="0.6624020000"><ele>535</ele><time>2025-12-07T08:01:56Z</time></trkpt>
<trkpt lat="43.0569850000" lon="0.6623820000"><ele>535</ele><time>2025-12-07T08:01:58Z</time></trkpt>
<trkpt lat="43.0570020000" lon="0.6623570000"><ele>535</ele><time>2025-12-07T08:02:00Z</time></trkpt>
<trkpt lat="43.0570170000" lon="0.6623420000"><ele>535</ele><time>2025-12-07T08:02:02Z</time></trkpt>
<trkpt lat="43.0570320000" lon="0.6623220000"><ele>534</ele><time>2025-12-07T08:02:05Z</time></trkpt>
<trkpt lat="43.0570520000" lon="0.6623220000"><ele>534</ele><time>2025-12-07T08:02:07Z</time></trkpt>
<trkpt lat="43.0570670000" lon="0.6623120000"><ele>534</ele><time>2025-12-07T08:02:09Z</time></trkpt>
<trkpt lat="43.0570900000" lon="0.6623020000"><ele>534</ele><time>2025-12-07T08:02:14Z</time></trkpt>
<trkpt lat="43.0571200000" lon="0.6623020000"><ele>533</ele><time>2025-12-07T08:02:16Z</time></trkpt>
<trkpt lat="43.0571470000" lon="0.6622920000"><ele>533</ele><time>2025-12-07T08:02:18Z</time></trkpt>
<trkpt lat="43.0571670000" lon="0.6622900000"><ele>533</ele><time>2025-12-07T08:02:20Z</time></trkpt>
<trkpt lat="43.0571870000" lon="0.6622950000"><ele>533</ele><time>2025-12-07T08:02:22Z</time></trkpt>
<trkpt lat="43.0572100000" lon="0.6623050000"><ele>532</ele><time>2025-12-07T08:02:24Z</time></trkpt>
<trkpt lat="43.0572320000" lon="0.6623050000"><ele>532</ele><time>2025-12-07T08:02:26Z</time></trkpt>
<trkpt lat="43.0572530000" lon="0.6622850000"><ele>532</ele><time>2025-12-07T08:02:27Z</time></trkpt>
<trkpt lat="43.0572770000" lon="0.6622820000"><ele>531</ele><time>2025-12-07T08:02:29Z</time></trkpt>
<trkpt lat="43.0573020000" lon="0.6622720000"><ele>531</ele><time>2025-12-07T08:02:31Z</time></trkpt>
<trkpt lat="43.0573220000" lon="0.6622620000"><ele>531</ele><time>2025-12-07T08:02:33Z</time></trkpt>
<trkpt lat="43.0573470000" lon="0.6622430000"><ele>530</ele><time>2025-12-07T08:02:36Z</time></trkpt>
<trkpt lat="43.0573670000" lon="0.6622320000"><ele>530</ele><time>2025-12-07T08:02:38Z</time></trkpt>
<trkpt lat="43.0573920000" lon="0.6622280000"><ele>530</ele><time>2025-12-07T08:02:40Z</time></trkpt>
<trkpt lat="43.0574120000" lon="0.6622230000"><ele>530</ele><time>2025-12-07T08:02:42Z</time></trkpt>
<trkpt lat="43.0574270000" lon="0.6622370000"><ele>529</ele><time>2025-12-07T08:02:53Z</time></trkpt>
<trkpt lat="43.0574600000" lon="0.6622570000"><ele>529</ele><time>2025-12-07T08:02:55Z</time></trkpt>
<trkpt lat="43.0574850000" lon="0.6622620000"><ele>529</ele><time>2025-12-07T08:02:59Z</time></trkpt>
<trkpt lat="43.0575050000" lon="0.6622670000"><ele>529</ele><time>2025-12-07T08:03:00Z</time></trkpt>
<trkpt lat="43.0575250000" lon="0.6622720000"><ele>529</ele><time>2025-12-07T08:03:01Z</time></trkpt>
<trkpt lat="43.0575500000" lon="0.6622770000"><ele>528</ele><time>2025-12-07T08:03:02Z</time></trkpt>
<trkpt lat="43.0575670000" lon="0.6622850000"><ele>528</ele><time>2025-12-07T08:03:03Z</time></trkpt>
<trkpt lat="43.0575820000" lon="0.6623050000"><ele>528</ele><time>2025-12-07T08:03:05Z</time></trkpt>
<trkpt lat="43.0576050000" lon="0.6623150000"><ele>527</ele><time>2025-12-07T08:03:08Z</time></trkpt>
<trkpt lat="43.0576250000" lon="0.6623150000"><ele>527</ele><time>2025-12-07T08:03:09Z</time></trkpt>
<trkpt lat="43.0576470000" lon="0.6623080000"><ele>527</ele><time>2025-12-07T08:03:11Z</time></trkpt>
<trkpt lat="43.0576770000" lon="0.6623200000"><ele>526</ele><time>2025-12-07T08:03:13Z</time></trkpt>
<trkpt lat="43.0576970000" lon="0.6623350000"><ele>526</ele><time>2025-12-07T08:03:14Z</time></trkpt>
<trkpt lat="43.0577270000" lon="0.6623470000"><ele>526</ele><time>2025-12-07T08:03:16Z</time></trkpt>
<trkpt lat="43.0577520000" lon="0.6623430000"><ele>526</ele><time>2025-12-07T08:03:17Z</time></trkpt>
<trkpt lat="43.0577800000" lon="0.6623370000"><ele>525</ele><time>2025-12-07T08:03:20Z</time></trkpt>
<trkpt lat="43.0578020000" lon="0.6623550000"><ele>525</ele><time>2025-12-07T08:03:21Z</time></trkpt>
<trkpt lat="43.0578170000" lon="0.6623700000"><ele>525</ele><time>2025-12-07T08:03:22Z</time></trkpt>
<trkpt lat="43.0578400000" lon="0.6623720000"><ele>525</ele><time>2025-12-07T08:03:24Z</time></trkpt>
<trkpt lat="43.0578620000" lon="0.6623770000"><ele>524</ele><time>2025-12-07T08:03:26Z</time></trkpt>
<trkpt lat="43.0578850000" lon="0.6623850000"><ele>524</ele><time>2025-12-07T08:03:29Z</time></trkpt>
<trkpt lat="43.0579120000" lon="0.6623970000"><ele>523</ele><time>2025-12-07T08:03:32Z</time></trkpt>
<trkpt lat="43.0579320000" lon="0.6624120000"><ele>523</ele><time>2025-12-07T08:03:34Z</time></trkpt>
<trkpt lat="43.0579570000" lon="0.6624220000"><ele>523</ele><time>2025-12-07T08:03:36Z</time></trkpt>
<trkpt lat="43.0579800000" lon="0.6624250000"><ele>522</ele><time>2025-12-07T08:03:38Z</time></trkpt>
<trkpt lat="43.0580000000" lon="0.6624270000"><ele>522</ele><time>2025-12-07T08:03:40Z</time></trkpt>
<trkpt lat="43.0580170000" lon="0.6624250000"><ele>522</ele><time>2025-12-07T08:03:42Z</time></trkpt>
<trkpt lat="43.0580370000" lon="0.6624270000"><ele>521</ele><time>2025-12-07T08:03:45Z</time></trkpt>
<trkpt lat="43.0580620000" lon="0.6624320000"><ele>521</ele><time>2025-12-07T08:03:47Z</time></trkpt>
<trkpt lat="43.0580870000" lon="0.6624320000"><ele>521</ele><time>2025-12-07T08:03:51Z</time></trkpt>
<trkpt lat="43.0581120000" lon="0.6624430000"><ele>520</ele><time>2025-12-07T08:03:53Z</time></trkpt>
<trkpt lat="43.0581350000" lon="0.6624620000"><ele>520</ele><time>2025-12-07T08:03:55Z</time></trkpt>
<trkpt lat="43.0581600000" lon="0.6624750000"><ele>520</ele><time>2025-12-07T08:03:58Z</time></trkpt>
<trkpt lat="43.0581800000" lon="0.6624820000"><ele>519</ele><time>2025-12-07T08:04:00Z</time></trkpt>
<trkpt lat="43.0581970000" lon="0.6624980000"><ele>519</ele><time>2025-12-07T08:04:02Z</time></trkpt>
<trkpt lat="43.0582220000" lon="0.6625100000"><ele>519</ele><time>2025-12-07T08:04:04Z</time></trkpt>
<trkpt lat="43.0582420000" lon="0.6625070000"><ele>518</ele><time>2025-12-07T08:04:07Z</time></trkpt>
<trkpt lat="43.0582650000" lon="0.6625100000"><ele>518</ele><time>2025-12-07T08:04:09Z</time></trkpt>
<trkpt lat="43.0582870000" lon="0.6625200000"><ele>518</ele><time>2025-12-07T08:04:11Z</time></trkpt>
<trkpt lat="43.0583120000" lon="0.6625270000"><ele>518</ele><time>2025-12-07T08:04:13Z</time></trkpt>
<trkpt lat="43.0583320000" lon="0.6625320000"><ele>517</ele><time>2025-12-07T08:04:16Z</time></trkpt>
<trkpt lat="43.0583520000" lon="0.6625420000"><ele>517</ele><time>2025-12-07T08:04:18Z</time></trkpt>
<trkpt lat="43.0583770000" lon="0.6625600000"><ele>517</ele><time>2025-12-07T08:04:20Z</time></trkpt>
<trkpt lat="43.0583900000" lon="0.6625820000"><ele>517</ele><time>2025-12-07T08:04:22Z</time></trkpt>
<trkpt lat="43.0584170000" lon="0.6626020000"><ele>516</ele><time>2025-12-07T08:04:24Z</time></trkpt>
<trkpt lat="43.0584420000" lon="0.6626100000"><ele>516</ele><time>2025-12-07T08:04:26Z</time></trkpt>
<trkpt lat="43.0584670000" lon="0.6626250000"><ele>515</ele><time>2025-12-07T08:04:29Z</time></trkpt>
<trkpt lat="43.0584870000" lon="0.6626420000"><ele>515</ele><time>2025-12-07T08:04:31Z</time></trkpt>
<trkpt lat="43.0585020000" lon="0.6626620000"><ele>515</ele><time>2025-12-07T08:04:33Z</time></trkpt>
<trkpt lat="43.0585220000" lon="0.6626820000"><ele>515</ele><time>2025-12-07T08:04:35Z</time></trkpt>
<trkpt lat="43.0585420000" lon="0.6626970000"><ele>514</ele><time>2025-12-07T08:04:37Z</time></trkpt>
<trkpt lat="43.0585670000" lon="0.6627120000"><ele>514</ele><time>2025-12-07T08:04:40Z</time></trkpt>
<trkpt lat="43.0585870000" lon="0.6627270000"><ele>514</ele><time>2025-12-07T08:04:43Z</time></trkpt>
<trkpt lat="43.0586070000" lon="0.6627450000"><ele>513</ele><time>2025-12-07T08:04:47Z</time></trkpt>
<trkpt lat="43.0586270000" lon="0.6627420000"><ele>513</ele><time>2025-12-07T08:04:50Z</time></trkpt>
<trkpt lat="43.0586500000" lon="0.6627550000"><ele>512</ele><time>2025-12-07T08:04:53Z</time></trkpt>
<trkpt lat="43.0586750000" lon="0.6627470000"><ele>512</ele><time>2025-12-07T08:04:56Z</time></trkpt>
<trkpt lat="43.0586950000" lon="0.6627450000"><ele>511</ele><time>2025-12-07T08:04:59Z</time></trkpt>
<trkpt lat="43.0587200000" lon="0.6627520000"><ele>511</ele><time>2025-12-07T08:05:03Z</time></trkpt>
<trkpt lat="43.0587470000" lon="0.6627520000"><ele>511</ele><time>2025-12-07T08:05:05Z</time></trkpt>
<trkpt lat="43.0587770000" lon="0.6627720000"><ele>510</ele><time>2025-12-07T08:05:07Z</time></trkpt>
<trkpt lat="43.0588070000" lon="0.6627820000"><ele>510</ele><time>2025-12-07T08:05:09Z</time></trkpt>
<trkpt lat="43.0588270000" lon="0.6627920000"><ele>510</ele><time>2025-12-07T08:05:11Z</time></trkpt>
<trkpt lat="43.0588320000" lon="0.6628150000"><ele>510</ele><time>2025-12-07T08:05:12Z</time></trkpt>
<trkpt lat="43.0588520000" lon="0.6628270000"><ele>510</ele><time>2025-12-07T08:05:14Z</time></trkpt>
<trkpt lat="43.0588720000" lon="0.6628000000"><ele>510</ele><time>2025-12-07T08:05:16Z</time></trkpt>
<trkpt lat="43.0588920000" lon="0.6628030000"><ele>509</ele><time>2025-12-07T08:05:18Z</time></trkpt>
<trkpt lat="43.0589170000" lon="0.6628220000"><ele>509</ele><time>2025-12-07T08:05:21Z</time></trkpt>
<trkpt lat="43.0589520000" lon="0.6628320000"><ele>509</ele><time>2025-12-07T08:05:23Z</time></trkpt>
<trkpt lat="43.0589720000" lon="0.6628420000"><ele>509</ele><time>2025-12-07T08:05:25Z</time></trkpt>
<trkpt lat="43.0589970000" lon="0.6628620000"><ele>508</ele><time>2025-12-07T08:05:27Z</time></trkpt>
<trkpt lat="43.0590200000" lon="0.6628770000"><ele>508</ele><time>2025-12-07T08:05:29Z</time></trkpt>
<trkpt lat="43.0590370000" lon="0.6628830000"><ele>507</ele><time>2025-12-07T08:05:33Z</time></trkpt>
<trkpt lat="43.0590570000" lon="0.6628720000"><ele>507</ele><time>2025-12-07T08:05:35Z</time></trkpt>
<trkpt lat="43.0590800000" lon="0.6628500000"><ele>507</ele><time>2025-12-07T08:05:37Z</time></trkpt>
<trkpt lat="43.0590820000" lon="0.6628170000"><ele>506</ele><time>2025-12-07T08:05:40Z</time></trkpt>
<trkpt lat="43.0590820000" lon="0.6627820000"><ele>506</ele><time>2025-12-07T08:05:43Z</time></trkpt>
<trkpt lat="43.0591070000" lon="0.6627970000"><ele>506</ele><time>2025-12-07T08:05:48Z</time></trkpt>
<trkpt lat="43.0591270000" lon="0.6628200000"><ele>506</ele><time>2025-12-07T08:05:51Z</time></trkpt>
<trkpt lat="43.0591520000" lon="0.6627920000"><ele>505</ele><time>2025-12-07T08:05:54Z</time></trkpt>
<trkpt lat="43.0591720000" lon="0.6628020000"><ele>505</ele><time>2025-12-07T08:05:58Z</time></trkpt>
<trkpt lat="43.0591870000" lon="0.6628230000"><ele>504</ele><time>2025-12-07T08:06:00Z</time></trkpt>
<trkpt lat="43.0592050000" lon="0.6628350000"><ele>504</ele><time>2025-12-07T08:06:05Z</time></trkpt>
<trkpt lat="43.0592220000" lon="0.6628520000"><ele>504</ele><time>2025-12-07T08:06:09Z</time></trkpt>
<trkpt lat="43.0592570000" lon="0.6628620000"><ele>503</ele><time>2025-12-07T08:06:10Z</time></trkpt>
<trkpt lat="43.0592720000" lon="0.6628370000"><ele>503</ele><time>2025-12-07T08:06:14Z</time></trkpt>
<trkpt lat="43.0592850000" lon="0.6628200000"><ele>502</ele><time>2025-12-07T08:06:18Z</time></trkpt>
<trkpt lat="43.0593050000" lon="0.6628400000"><ele>502</ele><time>2025-12-07T08:06:32Z</time></trkpt>
<trkpt lat="43.0593270000" lon="0.6628600000"><ele>502</ele><time>2025-12-07T08:06:34Z</time></trkpt>
<trkpt lat="43.0593520000" lon="0.6628650000"><ele>501</ele><time>2025-12-07T08:06:36Z</time></trkpt>
<trkpt lat="43.0593770000" lon="0.6628550000"><ele>501</ele><time>2025-12-07T08:06:38Z</time></trkpt>
<trkpt lat="43.0594070000" lon="0.6628570000"><ele>501</ele><time>2025-12-07T08:06:40Z</time></trkpt>
<trkpt lat="43.0594250000" lon="0.6628570000"><ele>501</ele><time>2025-12-07T08:06:41Z</time></trkpt>
<trkpt lat="43.0594470000" lon="0.6628680000"><ele>501</ele><time>2025-12-07T08:06:43Z</time></trkpt>
<trkpt lat="43.0594620000" lon="0.6628830000"><ele>501</ele><time>2025-12-07T08:06:45Z</time></trkpt>
<trkpt lat="43.0594670000" lon="0.6629120000"><ele>500</ele><time>2025-12-07T08:06:47Z</time></trkpt>
<trkpt lat="43.0594800000" lon="0.6629300000"><ele>500</ele><time>2025-12-07T08:06:48Z</time></trkpt>
<trkpt lat="43.0595000000" lon="0.6629450000"><ele>500</ele><time>2025-12-07T08:06:50Z</time></trkpt>
<trkpt lat="43.0595220000" lon="0.6629470000"><ele>499</ele><time>2025-12-07T08:06:54Z</time></trkpt>
<trkpt lat="43.0595420000" lon="0.6629420000"><ele>499</ele><time>2025-12-07T08:06:57Z</time></trkpt>
<trkpt lat="43.0595650000" lon="0.6629500000"><ele>499</ele><time>2025-12-07T08:07:01Z</time></trkpt>
<trkpt lat="43.0595850000" lon="0.6629470000"><ele>498</ele><time>2025-12-07T08:07:05Z</time></trkpt>
<trkpt lat="43.0596100000" lon="0.6629420000"><ele>498</ele><time>2025-12-07T08:07:08Z</time></trkpt>
<trkpt lat="43.0596270000" lon="0.6629220000"><ele>497</ele><time>2025-12-07T08:07:10Z</time></trkpt>
<trkpt lat="43.0596520000" lon="0.6629220000"><ele>497</ele><time>2025-12-07T08:07:12Z</time></trkpt>
<trkpt lat="43.0596770000" lon="0.6629030000"><ele>497</ele><time>2025-12-07T08:07:14Z</time></trkpt>
<trkpt lat="43.0597020000" lon="0.6628970000"><ele>497</ele><time>2025-12-07T08:07:16Z</time></trkpt>
<trkpt lat="43.0597220000" lon="0.6628970000"><ele>497</ele><time>2025-12-07T08:07:18Z</time></trkpt>
<trkpt lat="43.0597520000" lon="0.6629020000"><ele>497</ele><time>2025-12-07T08:07:21Z</time></trkpt>
<trkpt lat="43.0597750000" lon="0.6629070000"><ele>497</ele><time>2025-12-07T08:07:22Z</time></trkpt>
<trkpt lat="43.0598000000" lon="0.6629070000"><ele>497</ele><time>2025-12-07T08:07:24Z</time></trkpt>
<trkpt lat="43.0598200000" lon="0.6629070000"><ele>496</ele><time>2025-12-07T08:07:27Z</time></trkpt>
<trkpt lat="43.0598370000" lon="0.6629120000"><ele>496</ele><time>2025-12-07T08:07:29Z</time></trkpt>
<trkpt lat="43.0598620000" lon="0.6629380000"><ele>496</ele><time>2025-12-07T08:07:32Z</time></trkpt>
<trkpt lat="43.0598770000" lon="0.6629550000"><ele>495</ele><time>2025-12-07T08:07:33Z</time></trkpt>
<trkpt lat="43.0599000000" lon="0.6629580000"><ele>495</ele><time>2025-12-07T08:07:35Z</time></trkpt>
<trkpt lat="43.0599170000" lon="0.6629720000"><ele>495</ele><time>2025-12-07T08:07:37Z</time></trkpt>
<trkpt lat="43.0599350000" lon="0.6629770000"><ele>495</ele><time>2025-12-07T08:07:39Z</time></trkpt>
<trkpt lat="43.0599570000" lon="0.6629850000"><ele>494</ele><time>2025-12-07T08:07:41Z</time></trkpt>
<trkpt lat="43.0599820000" lon="0.6630170000"><ele>494</ele><time>2025-12-07T08:07:44Z</time></trkpt>
<trkpt lat="43.0599970000" lon="0.6630470000"><ele>494</ele><time>2025-12-07T08:07:46Z</time></trkpt>
<trkpt lat="43.0600200000" lon="0.6630620000"><ele>494</ele><time>2025-12-07T08:07:49Z</time></trkpt>
<trkpt lat="43.0600270000" lon="0.6630370000"><ele>493</ele><time>2025-12-07T08:07:53Z</time></trkpt>
<trkpt lat="43.0600470000" lon="0.6630320000"><ele>493</ele><time>2025-12-07T08:08:00Z</time></trkpt>
<trkpt lat="43.0600700000" lon="0.6630270000"><ele>493</ele><time>2025-12-07T08:08:02Z</time></trkpt>
<trkpt lat="43.0600870000" lon="0.6630350000"><ele>492</ele><time>2025-12-07T08:08:12Z</time></trkpt>
<trkpt lat="43.0601070000" lon="0.6630420000"><ele>492</ele><time>2025-12-07T08:08:14Z</time></trkpt>
<trkpt lat="43.0601320000" lon="0.6630370000"><ele>491</ele><time>2025-12-07T08:08:16Z</time></trkpt>
<trkpt lat="43.0601500000" lon="0.6630370000"><ele>491</ele><time>2025-12-07T08:08:19Z</time></trkpt>
<trkpt lat="43.0601670000" lon="0.6630470000"><ele>490</ele><time>2025-12-07T08:08:22Z</time></trkpt>
<trkpt lat="43.0601870000" lon="0.6630570000"><ele>490</ele><time>2025-12-07T08:08:24Z</time></trkpt>
<trkpt lat="43.0602050000" lon="0.6630650000"><ele>490</ele><time>2025-12-07T08:08:26Z</time></trkpt>
<trkpt lat="43.0602250000" lon="0.6630700000"><ele>490</ele><time>2025-12-07T08:08:28Z</time></trkpt>
<trkpt lat="43.0602520000" lon="0.6630730000"><ele>489</ele><time>2025-12-07T08:08:32Z</time></trkpt>
<trkpt lat="43.0602720000" lon="0.6630720000"><ele>489</ele><time>2025-12-07T08:08:34Z</time></trkpt>
<trkpt lat="43.0602970000" lon="0.6630620000"><ele>489</ele><time>2025-12-07T08:08:37Z</time></trkpt>
<trkpt lat="43.0603220000" lon="0.6630650000"><ele>488</ele><time>2025-12-07T08:08:39Z</time></trkpt>
<trkpt lat="43.0603420000" lon="0.6630520000"><ele>489</ele><time>2025-12-07T08:08:42Z</time></trkpt>
<trkpt lat="43.0603700000" lon="0.6630370000"><ele>488</ele><time>2025-12-07T08:08:45Z</time></trkpt>
<trkpt lat="43.0603920000" lon="0.6630450000"><ele>488</ele><time>2025-12-07T08:08:47Z</time></trkpt>
<trkpt lat="43.0604120000" lon="0.6630520000"><ele>487</ele><time>2025-12-07T08:08:49Z</time></trkpt>
<trkpt lat="43.0604370000" lon="0.6630530000"><ele>488</ele><time>2025-12-07T08:08:51Z</time></trkpt>
<trkpt lat="43.0604600000" lon="0.6630520000"><ele>487</ele><time>2025-12-07T08:08:54Z</time></trkpt>
<trkpt lat="43.0604870000" lon="0.6630570000"><ele>486</ele><time>2025-12-07T08:09:05Z</time></trkpt>
<trkpt lat="43.0605170000" lon="0.6630730000"><ele>486</ele><time>2025-12-07T08:09:07Z</time></trkpt>
<trkpt lat="43.0605370000" lon="0.6630850000"><ele>486</ele><time>2025-12-07T08:09:08Z</time></trkpt>
<trkpt lat="43.0605550000" lon="0.6630970000"><ele>486</ele><time>2025-12-07T08:09:09Z</time></trkpt>
<trkpt lat="43.0605720000" lon="0.6631150000"><ele>485</ele><time>2025-12-07T08:09:10Z</time></trkpt>
<trkpt lat="43.0606020000" lon="0.6631380000"><ele>485</ele><time>2025-12-07T08:09:12Z</time></trkpt>
<trkpt lat="43.0606300000" lon="0.6631520000"><ele>485</ele><time>2025-12-07T08:09:14Z</time></trkpt>
<trkpt lat="43.0606450000" lon="0.6631720000"><ele>485</ele><time>2025-12-07T08:09:16Z</time></trkpt>
<trkpt lat="43.0606670000" lon="0.6631730000"><ele>484</ele><time>2025-12-07T08:09:19Z</time></trkpt>
<trkpt lat="43.0606870000" lon="0.6631620000"><ele>485</ele><time>2025-12-07T08:09:21Z</time></trkpt>
<trkpt lat="43.0607050000" lon="0.6631450000"><ele>484</ele><time>2025-12-07T08:09:26Z</time></trkpt>
<trkpt lat="43.0607300000" lon="0.6631370000"><ele>484</ele><time>2025-12-07T08:09:29Z</time></trkpt>
<trkpt lat="43.0607470000" lon="0.6631370000"><ele>483</ele><time>2025-12-07T08:09:31Z</time></trkpt>
<trkpt lat="43.0607650000" lon="0.6631520000"><ele>483</ele><time>2025-12-07T08:09:33Z</time></trkpt>
<trkpt lat="43.0607900000" lon="0.6631520000"><ele>483</ele><time>2025-12-07T08:09:35Z</time></trkpt>
<trkpt lat="43.0608220000" lon="0.6631670000"><ele>483</ele><time>2025-12-07T08:09:37Z</time></trkpt>
<trkpt lat="43.0608500000" lon="0.6631720000"><ele>483</ele><time>2025-12-07T08:09:39Z</time></trkpt>
<trkpt lat="43.0608670000" lon="0.6631850000"><ele>483</ele><time>2025-12-07T08:09:40Z</time></trkpt>
<trkpt lat="43.0608970000" lon="0.6632070000"><ele>483</ele><time>2025-12-07T08:09:42Z</time></trkpt>
<trkpt lat="43.0609170000" lon="0.6632270000"><ele>482</ele><time>2025-12-07T08:09:43Z</time></trkpt>
<trkpt lat="43.0609400000" lon="0.6632650000"><ele>482</ele><time>2025-12-07T08:09:45Z</time></trkpt>
<trkpt lat="43.0609570000" lon="0.6632970000"><ele>482</ele><time>2025-12-07T08:09:47Z</time></trkpt>
<trkpt lat="43.0609800000" lon="0.6633200000"><ele>482</ele><time>2025-12-07T08:09:49Z</time></trkpt>
<trkpt lat="43.0610000000" lon="0.6633350000"><ele>481</ele><time>2025-12-07T08:09:51Z</time></trkpt>
<trkpt lat="43.0610200000" lon="0.6633600000"><ele>481</ele><time>2025-12-07T08:09:53Z</time></trkpt>
<trkpt lat="43.0610420000" lon="0.6633770000"><ele>481</ele><time>2025-12-07T08:09:55Z</time></trkpt>
<trkpt lat="43.0610600000" lon="0.6634020000"><ele>481</ele><time>2025-12-07T08:09:57Z</time></trkpt>
<trkpt lat="43.0610750000" lon="0.6634420000"><ele>481</ele><time>2025-12-07T08:09:59Z</time></trkpt>
<trkpt lat="43.0610950000" lon="0.6634750000"><ele>480</ele><time>2025-12-07T08:10:01Z</time></trkpt>
<trkpt lat="43.0611170000" lon="0.6635050000"><ele>480</ele><time>2025-12-07T08:10:03Z</time></trkpt>
<trkpt lat="43.0611270000" lon="0.6635420000"><ele>480</ele><time>2025-12-07T08:10:05Z</time></trkpt>
<trkpt lat="43.0611350000" lon="0.6635700000"><ele>481</ele><time>2025-12-07T08:10:07Z</time></trkpt>
<trkpt lat="43.0611420000" lon="0.6636020000"><ele>480</ele><time>2025-12-07T08:10:09Z</time></trkpt>
<trkpt lat="43.0611520000" lon="0.6636330000"><ele>480</ele><time>2025-12-07T08:10:12Z</time></trkpt>
<trkpt lat="43.0611650000" lon="0.6636520000"><ele>480</ele><time>2025-12-07T08:10:14Z</time></trkpt>
<trkpt lat="43.0611770000" lon="0.6636820000"><ele>480</ele><time>2025-12-07T08:10:16Z</time></trkpt>
<trkpt lat="43.0611820000" lon="0.6637120000"><ele>480</ele><time>2025-12-07T08:10:18Z</time></trkpt>
<trkpt lat="43.0611930000" lon="0.6637320000"><ele>480</ele><time>2025-12-07T08:10:21Z</time></trkpt>
<trkpt lat="43.0612120000" lon="0.6637420000"><ele>479</ele><time>2025-12-07T08:10:23Z</time></trkpt>
<trkpt lat="43.0612370000" lon="0.6637520000"><ele>479</ele><time>2025-12-07T08:10:26Z</time></trkpt>
<trkpt lat="43.0612320000" lon="0.6637220000"><ele>478</ele><time>2025-12-07T08:10:32Z</time></trkpt>
<trkpt lat="43.0612220000" lon="0.6636970000"><ele>478</ele><time>2025-12-07T08:11:17Z</time></trkpt>
<trkpt lat="43.0612150000" lon="0.6636620000"><ele>478</ele><time>2025-12-07T08:11:19Z</time></trkpt>
<trkpt lat="43.0611970000" lon="0.6636170000"><ele>477</ele><time>2025-12-07T08:11:21Z</time></trkpt>
<trkpt lat="43.0611920000" lon="0.6635780000"><ele>478</ele><time>2025-12-07T08:11:23Z</time></trkpt>
<trkpt lat="43.0611850000" lon="0.6635420000"><ele>478</ele><time>2025-12-07T08:11:25Z</time></trkpt>
<trkpt lat="43.0611770000" lon="0.6635120000"><ele>478</ele><time>2025-12-07T08:11:27Z</time></trkpt>
<trkpt lat="43.0611900000" lon="0.6634770000"><ele>478</ele><time>2025-12-07T08:11:29Z</time></trkpt>
<trkpt lat="43.0612120000" lon="0.6634550000"><ele>478</ele><time>2025-12-07T08:11:31Z</time></trkpt>
<trkpt lat="43.0612370000" lon="0.6634320000"><ele>477</ele><time>2025-12-07T08:11:33Z</time></trkpt>
<trkpt lat="43.0612650000" lon="0.6634170000"><ele>477</ele><time>2025-12-07T08:11:35Z</time></trkpt>
<trkpt lat="43.0612900000" lon="0.6633920000"><ele>477</ele><time>2025-12-07T08:11:37Z</time></trkpt>
<trkpt lat="43.0613170000" lon="0.6633870000"><ele>477</ele><time>2025-12-07T08:11:39Z</time></trkpt>
<trkpt lat="43.0613480000" lon="0.6634000000"><ele>477</ele><time>2025-12-07T08:11:41Z</time></trkpt>
<trkpt lat="43.0613750000" lon="0.6634070000"><ele>477</ele><time>2025-12-07T08:11:43Z</time></trkpt>
<trkpt lat="43.0614020000" lon="0.6634020000"><ele>477</ele><time>2025-12-07T08:11:45Z</time></trkpt>
<trkpt lat="43.0614320000" lon="0.6633920000"><ele>478</ele><time>2025-12-07T08:11:47Z</time></trkpt>
<trkpt lat="43.0614600000" lon="0.6633970000"><ele>478</ele><time>2025-12-07T08:11:49Z</time></trkpt>
<trkpt lat="43.0614820000" lon="0.6634070000"><ele>478</ele><time>2025-12-07T08:11:51Z</time></trkpt>
<trkpt lat="43.0615020000" lon="0.6634070000"><ele>478</ele><time>2025-12-07T08:11:53Z</time></trkpt>
<trkpt lat="43.0615270000" lon="0.6634220000"><ele>478</ele><time>2025-12-07T08:11:55Z</time></trkpt>
<trkpt lat="43.0615470000" lon="0.6634520000"><ele>478</ele><time>2025-12-07T08:11:57Z</time></trkpt>
<trkpt lat="43.0615720000" lon="0.6634820000"><ele>478</ele><time>2025-12-07T08:11:59Z</time></trkpt>
<trkpt lat="43.0615970000" lon="0.6635020000"><ele>478</ele><time>2025-12-07T08:12:01Z</time></trkpt>
<trkpt lat="43.0616170000" lon="0.6635120000"><ele>478</ele><time>2025-12-07T08:12:03Z</time></trkpt>
<trkpt lat="43.0616370000" lon="0.6635120000"><ele>478</ele><time>2025-12-07T08:12:05Z</time></trkpt>
<trkpt lat="43.0616620000" lon="0.6635350000"><ele>478</ele><time>2025-12-07T08:12:07Z</time></trkpt>
<trkpt lat="43.0616850000" lon="0.6635420000"><ele>477</ele><time>2025-12-07T08:12:09Z</time></trkpt>
<trkpt lat="43.0617070000" lon="0.6635470000"><ele>477</ele><time>2025-12-07T08:12:11Z</time></trkpt>
<trkpt lat="43.0617270000" lon="0.6635470000"><ele>477</ele><time>2025-12-07T08:12:13Z</time></trkpt>
<trkpt lat="43.0617520000" lon="0.6635450000"><ele>477</ele><time>2025-12-07T08:12:15Z</time></trkpt>
<trkpt lat="43.0617700000" lon="0.6635370000"><ele>477</ele><time>2025-12-07T08:12:17Z</time></trkpt>
<trkpt lat="43.0617920000" lon="0.6635320000"><ele>477</ele><time>2025-12-07T08:12:19Z</time></trkpt>
<trkpt lat="43.0618220000" lon="0.6635270000"><ele>477</ele><time>2025-12-07T08:12:21Z</time></trkpt>
<trkpt lat="43.0618500000" lon="0.6635270000"><ele>477</ele><time>2025-12-07T08:12:23Z</time></trkpt>
<trkpt lat="43.0618670000" lon="0.6635370000"><ele>477</ele><time>2025-12-07T08:12:24Z</time></trkpt>
<trkpt lat="43.0619000000" lon="0.6635550000"><ele>476</ele><time>2025-12-07T08:12:26Z</time></trkpt>
<trkpt lat="43.0619170000" lon="0.6635700000"><ele>477</ele><time>2025-12-07T08:12:27Z</time></trkpt>
<trkpt lat="43.0619350000" lon="0.6635850000"><ele>477</ele><time>2025-12-07T08:12:28Z</time></trkpt>
<trkpt lat="43.0619520000" lon="0.6635770000"><ele>477</ele><time>2025-12-07T08:12:29Z</time></trkpt>
<trkpt lat="43.0619700000" lon="0.6635920000"><ele>476</ele><time>2025-12-07T08:12:31Z</time></trkpt>
<trkpt lat="43.0620000000" lon="0.6635970000"><ele>476</ele><time>2025-12-07T08:12:33Z</time></trkpt>
<trkpt lat="43.0620200000" lon="0.6636050000"><ele>476</ele><time>2025-12-07T08:12:35Z</time></trkpt>
<trkpt lat="43.0620320000" lon="0.6636220000"><ele>476</ele><time>2025-12-07T08:12:38Z</time></trkpt>
<trkpt lat="43.0620570000" lon="0.6636400000"><ele>475</ele><time>2025-12-07T08:12:41Z</time></trkpt>
<trkpt lat="43.0620870000" lon="0.6636530000"><ele>475</ele><time>2025-12-07T08:12:43Z</time></trkpt>
<trkpt lat="43.0621170000" lon="0.6636800000"><ele>475</ele><time>2025-12-07T08:12:45Z</time></trkpt>
<trkpt lat="43.0621450000" lon="0.6636800000"><ele>475</ele><time>2025-12-07T08:12:47Z</time></trkpt>
<trkpt lat="43.0621620000" lon="0.6636850000"><ele>475</ele><time>2025-12-07T08:12:49Z</time></trkpt>
<trkpt lat="43.0621870000" lon="0.6636820000"><ele>475</ele><time>2025-12-07T08:12:52Z</time></trkpt>
<trkpt lat="43.0622120000" lon="0.6636720000"><ele>475</ele><time>2025-12-07T08:12:54Z</time></trkpt>
<trkpt lat="43.0622370000" lon="0.6636620000"><ele>475</ele><time>2025-12-07T08:12:56Z</time></trkpt>
<trkpt lat="43.0622550000" lon="0.6636520000"><ele>475</ele><time>2025-12-07T08:12:58Z</time></trkpt>
<trkpt lat="43.0622720000" lon="0.6636500000"><ele>474</ele><time>2025-12-07T08:12:59Z</time></trkpt>
<trkpt lat="43.0623000000" lon="0.6636470000"><ele>474</ele><time>2025-12-07T08:13:01Z</time></trkpt>
<trkpt lat="43.0623250000" lon="0.6636450000"><ele>474</ele><time>2025-12-07T08:13:03Z</time></trkpt>
<trkpt lat="43.0623570000" lon="0.6636270000"><ele>474</ele><time>2025-12-07T08:13:05Z</time></trkpt>
<trkpt lat="43.0623870000" lon="0.6636450000"><ele>474</ele><time>2025-12-07T08:13:07Z</time></trkpt>
<trkpt lat="43.0624100000" lon="0.6636600000"><ele>474</ele><time>2025-12-07T08:13:08Z</time></trkpt>
<trkpt lat="43.0624270000" lon="0.6636720000"><ele>475</ele><time>2025-12-07T08:13:11Z</time></trkpt>
<trkpt lat="43.0624500000" lon="0.6636620000"><ele>474</ele><time>2025-12-07T08:13:13Z</time></trkpt>
<trkpt lat="43.0624750000" lon="0.6636570000"><ele>474</ele><time>2025-12-07T08:13:15Z</time></trkpt>
<trkpt lat="43.0625020000" lon="0.6636530000"><ele>475</ele><time>2025-12-07T08:13:18Z</time></trkpt>
<trkpt lat="43.0625220000" lon="0.6636570000"><ele>475</ele><time>2025-12-07T08:13:20Z</time></trkpt>
<trkpt lat="43.0625450000" lon="0.6636450000"><ele>475</ele><time>2025-12-07T08:13:22Z</time></trkpt>
<trkpt lat="43.0625720000" lon="0.6636170000"><ele>475</ele><time>2025-12-07T08:13:24Z</time></trkpt>
<trkpt lat="43.0625970000" lon="0.6635980000"><ele>475</ele><time>2025-12-07T08:13:26Z</time></trkpt>
<trkpt lat="43.0626150000" lon="0.6635820000"><ele>475</ele><time>2025-12-07T08:13:27Z</time></trkpt>
<trkpt lat="43.0626420000" lon="0.6635820000"><ele>474</ele><time>2025-12-07T08:13:30Z</time></trkpt>
<trkpt lat="43.0626670000" lon="0.6635780000"><ele>474</ele><time>2025-12-07T08:13:32Z</time></trkpt>
<trkpt lat="43.0626870000" lon="0.6635770000"><ele>474</ele><time>2025-12-07T08:13:34Z</time></trkpt>
<trkpt lat="43.0627100000" lon="0.6635900000"><ele>474</ele><time>2025-12-07T08:13:36Z</time></trkpt>
<trkpt lat="43.0627420000" lon="0.6635920000"><ele>474</ele><time>2025-12-07T08:13:39Z</time></trkpt>
<trkpt lat="43.0627650000" lon="0.6635820000"><ele>473</ele><time>2025-12-07T08:13:41Z</time></trkpt>
<trkpt lat="43.0627900000" lon="0.6635770000"><ele>473</ele><time>2025-12-07T08:13:44Z</time></trkpt>
<trkpt lat="43.0628170000" lon="0.6635750000"><ele>473</ele><time>2025-12-07T08:13:46Z</time></trkpt>
<trkpt lat="43.0628420000" lon="0.6635900000"><ele>473</ele><time>2025-12-07T08:13:48Z</time></trkpt>
<trkpt lat="43.0628720000" lon="0.6635780000"><ele>473</ele><time>2025-12-07T08:13:50Z</time></trkpt>
<trkpt lat="43.0628950000" lon="0.6635720000"><ele>473</ele><time>2025-12-07T08:13:52Z</time></trkpt>
<trkpt lat="43.0629170000" lon="0.6635700000"><ele>472</ele><time>2025-12-07T08:13:54Z</time></trkpt>
<trkpt lat="43.0629450000" lon="0.6635750000"><ele>472</ele><time>2025-12-07T08:13:56Z</time></trkpt>
<trkpt lat="43.0629700000" lon="0.6635620000"><ele>472</ele><time>2025-12-07T08:13:58Z</time></trkpt>
<trkpt lat="43.0629920000" lon="0.6635520000"><ele>472</ele><time>2025-12-07T08:14:00Z</time></trkpt>
<trkpt lat="43.0630120000" lon="0.6635470000"><ele>472</ele><time>2025-12-07T08:14:02Z</time></trkpt>
<trkpt lat="43.0630270000" lon="0.6635270000"><ele>472</ele><time>2025-12-07T08:14:04Z</time></trkpt>
<trkpt lat="43.0630500000" lon="0.6635150000"><ele>472</ele><time>2025-12-07T08:14:06Z</time></trkpt>
<trkpt lat="43.0630700000" lon="0.6635070000"><ele>471</ele><time>2025-12-07T08:14:08Z</time></trkpt>
<trkpt lat="43.0630870000" lon="0.6635070000"><ele>471</ele><time>2025-12-07T08:14:10Z</time></trkpt>
<trkpt lat="43.0631070000" lon="0.6635120000"><ele>471</ele><time>2025-12-07T08:14:12Z</time></trkpt>
<trkpt lat="43.0631300000" lon="0.6635050000"><ele>471</ele><time>2025-12-07T08:14:14Z</time></trkpt>
<trkpt lat="43.0631520000" lon="0.6634980000"><ele>470</ele><time>2025-12-07T08:14:16Z</time></trkpt>
<trkpt lat="43.0631750000" lon="0.6634920000"><ele>470</ele><time>2025-12-07T08:14:18Z</time></trkpt>
<trkpt lat="43.0631920000" lon="0.6634820000"><ele>470</ele><time>2025-12-07T08:14:20Z</time></trkpt>
<trkpt lat="43.0632150000" lon="0.6634820000"><ele>470</ele><time>2025-12-07T08:14:23Z</time></trkpt>
<trkpt lat="43.0632400000" lon="0.6634750000"><ele>470</ele><time>2025-12-07T08:14:25Z</time></trkpt>
<trkpt lat="43.0632620000" lon="0.6634750000"><ele>470</ele><time>2025-12-07T08:14:27Z</time></trkpt>
<trkpt lat="43.0632920000" lon="0.6634670000"><ele>470</ele><time>2025-12-07T08:14:29Z</time></trkpt>
<trkpt lat="43.0633220000" lon="0.6634630000"><ele>470</ele><time>2025-12-07T08:14:31Z</time></trkpt>
<trkpt lat="43.0633420000" lon="0.6634630000"><ele>469</ele><time>2025-12-07T08:14:33Z</time></trkpt>
<trkpt lat="43.0633650000" lon="0.6634550000"><ele>469</ele><time>2025-12-07T08:14:35Z</time></trkpt>
<trkpt lat="43.0633880000" lon="0.6634370000"><ele>469</ele><time>2025-12-07T08:14:37Z</time></trkpt>
<trkpt lat="43.0634150000" lon="0.6634320000"><ele>469</ele><time>2025-12-07T08:14:39Z</time></trkpt>
<trkpt lat="43.0634370000" lon="0.6634220000"><ele>469</ele><time>2025-12-07T08:14:41Z</time></trkpt>
<trkpt lat="43.0634600000" lon="0.6634150000"><ele>469</ele><time>2025-12-07T08:14:43Z</time></trkpt>
<trkpt lat="43.0634770000" lon="0.6634100000"><ele>469</ele><time>2025-12-07T08:14:45Z</time></trkpt>
<trkpt lat="43.0634970000" lon="0.6634070000"><ele>469</ele><time>2025-12-07T08:14:47Z</time></trkpt>
<trkpt lat="43.0635300000" lon="0.6633970000"><ele>469</ele><time>2025-12-07T08:14:49Z</time></trkpt>
<trkpt lat="43.0635500000" lon="0.6633970000"><ele>469</ele><time>2025-12-07T08:14:50Z</time></trkpt>
<trkpt lat="43.0635700000" lon="0.6634000000"><ele>469</ele><time>2025-12-07T08:14:52Z</time></trkpt>
<trkpt lat="43.0636020000" lon="0.6633970000"><ele>469</ele><time>2025-12-07T08:14:55Z</time></trkpt>
<trkpt lat="43.0636220000" lon="0.6633950000"><ele>468</ele><time>2025-12-07T08:14:57Z</time></trkpt>
<trkpt lat="43.0636470000" lon="0.6634000000"><ele>468</ele><time>2025-12-07T08:14:59Z</time></trkpt>
<trkpt lat="43.0636720000" lon="0.6633970000"><ele>469</ele><time>2025-12-07T08:15:02Z</time></trkpt>
<trkpt lat="43.0636920000" lon="0.6634020000"><ele>469</ele><time>2025-12-07T08:15:04Z</time></trkpt>
<trkpt lat="43.0637150000" lon="0.6634070000"><ele>469</ele><time>2025-12-07T08:15:06Z</time></trkpt>
<trkpt lat="43.0637370000" lon="0.6634020000"><ele>469</ele><time>2025-12-07T08:15:08Z</time></trkpt>
<trkpt lat="43.0637650000" lon="0.6633950000"><ele>469</ele><time>2025-12-07T08:15:10Z</time></trkpt>
<trkpt lat="43.0637850000" lon="0.6633970000"><ele>469</ele><time>2025-12-07T08:15:12Z</time></trkpt>
<trkpt lat="43.0638070000" lon="0.6633830000"><ele>469</ele><time>2025-12-07T08:15:15Z</time></trkpt>
<trkpt lat="43.0638270000" lon="0.6633800000"><ele>469</ele><time>2025-12-07T08:15:18Z</time></trkpt>
<trkpt lat="43.0638520000" lon="0.6633750000"><ele>469</ele><time>2025-12-07T08:15:21Z</time></trkpt>
<trkpt lat="43.0638720000" lon="0.6633750000"><ele>468</ele><time>2025-12-07T08:15:23Z</time></trkpt>
<trkpt lat="43.0639000000" lon="0.6633770000"><ele>468</ele><time>2025-12-07T08:15:25Z</time></trkpt>
<trkpt lat="43.0639270000" lon="0.6633670000"><ele>469</ele><time>2025-12-07T08:15:27Z</time></trkpt>
<trkpt lat="43.0639520000" lon="0.6633520000"><ele>469</ele><time>2025-12-07T08:15:29Z</time></trkpt>
<trkpt lat="43.0639770000" lon="0.6633350000"><ele>468</ele><time>2025-12-07T08:15:31Z</time></trkpt>
<trkpt lat="43.0640000000" lon="0.6633170000"><ele>468</ele><time>2025-12-07T08:15:33Z</time></trkpt>
<trkpt lat="43.0640220000" lon="0.6632920000"><ele>468</ele><time>2025-12-07T08:15:35Z</time></trkpt>
<trkpt lat="43.0640320000" lon="0.6632700000"><ele>468</ele><time>2025-12-07T08:15:36Z</time></trkpt>
<trkpt lat="43.0640450000" lon="0.6632420000"><ele>468</ele><time>2025-12-07T08:15:37Z</time></trkpt>
<trkpt lat="43.0640650000" lon="0.6632250000"><ele>468</ele><time>2025-12-07T08:15:39Z</time></trkpt>
<trkpt lat="43.0640920000" lon="0.6632150000"><ele>468</ele><time>2025-12-07T08:15:41Z</time></trkpt>
<trkpt lat="43.0641120000" lon="0.6632020000"><ele>468</ele><time>2025-12-07T08:15:43Z</time></trkpt>
<trkpt lat="43.0641270000" lon="0.6631820000"><ele>468</ele><time>2025-12-07T08:15:45Z</time></trkpt>
<trkpt lat="43.0641450000" lon="0.6631670000"><ele>468</ele><time>2025-12-07T08:15:47Z</time></trkpt>
<trkpt lat="43.0641650000" lon="0.6631520000"><ele>468</ele><time>2025-12-07T08:15:49Z</time></trkpt>
<trkpt lat="43.0641900000" lon="0.6631320000"><ele>468</ele><time>2025-12-07T08:15:51Z</time></trkpt>
<trkpt lat="43.0642070000" lon="0.6631070000"><ele>468</ele><time>2025-12-07T08:15:53Z</time></trkpt>
<trkpt lat="43.0642270000" lon="0.6630820000"><ele>468</ele><time>2025-12-07T08:15:55Z</time></trkpt>
<trkpt lat="43.0642470000" lon="0.6630720000"><ele>468</ele><time>2025-12-07T08:15:57Z</time></trkpt>
<trkpt lat="43.0642600000" lon="0.6630450000"><ele>468</ele><time>2025-12-07T08:15:59Z</time></trkpt>
<trkpt lat="43.0642770000" lon="0.6630300000"><ele>467</ele><time>2025-12-07T08:16:02Z</time></trkpt>
<trkpt lat="43.0643070000" lon="0.6630350000"><ele>467</ele><time>2025-12-07T08:16:04Z</time></trkpt>
<trkpt lat="43.0643220000" lon="0.6630250000"><ele>467</ele><time>2025-12-07T08:16:05Z</time></trkpt>
<trkpt lat="43.0643420000" lon="0.6630070000"><ele>467</ele><time>2025-12-07T08:16:07Z</time></trkpt>
<trkpt lat="43.0643650000" lon="0.6629820000"><ele>467</ele><time>2025-12-07T08:16:09Z</time></trkpt>
<trkpt lat="43.0643820000" lon="0.6629670000"><ele>466</ele><time>2025-12-07T08:16:12Z</time></trkpt>
<trkpt lat="43.0643870000" lon="0.6629380000"><ele>466</ele><time>2025-12-07T08:16:15Z</time></trkpt>
<trkpt lat="43.0644000000" lon="0.6629170000"><ele>467</ele><time>2025-12-07T08:16:17Z</time></trkpt>
<trkpt lat="43.0644220000" lon="0.6628900000"><ele>466</ele><time>2025-12-07T08:16:19Z</time></trkpt>
<trkpt lat="43.0644370000" lon="0.6628600000"><ele>467</ele><time>2025-12-07T08:16:21Z</time></trkpt>
<trkpt lat="43.0644470000" lon="0.6628370000"><ele>467</ele><time>2025-12-07T08:16:23Z</time></trkpt>
<trkpt lat="43.0644670000" lon="0.6628200000"><ele>466</ele><time>2025-12-07T08:16:25Z</time></trkpt>
<trkpt lat="43.0644900000" lon="0.6628020000"><ele>467</ele><time>2025-12-07T08:16:27Z</time></trkpt>
<trkpt lat="43.0645120000" lon="0.6627830000"><ele>466</ele><time>2025-12-07T08:16:30Z</time></trkpt>
<trkpt lat="43.0645420000" lon="0.6627770000"><ele>466</ele><time>2025-12-07T08:16:32Z</time></trkpt>
<trkpt lat="43.0645720000" lon="0.6627770000"><ele>466</ele><time>2025-12-07T08:16:34Z</time></trkpt>
<trkpt lat="43.0645920000" lon="0.6627670000"><ele>466</ele><time>2025-12-07T08:16:36Z</time></trkpt>
<trkpt lat="43.0646150000" lon="0.6627550000"><ele>466</ele><time>2025-12-07T08:16:38Z</time></trkpt>
<trkpt lat="43.0646400000" lon="0.6627400000"><ele>466</ele><time>2025-12-07T08:16:40Z</time></trkpt>
<trkpt lat="43.0646570000" lon="0.6627250000"><ele>465</ele><time>2025-12-07T08:16:42Z</time></trkpt>
<trkpt lat="43.0646650000" lon="0.6627000000"><ele>465</ele><time>2025-12-07T08:16:44Z</time></trkpt>
<trkpt lat="43.0646800000" lon="0.6626620000"><ele>465</ele><time>2025-12-07T08:16:46Z</time></trkpt>
<trkpt lat="43.0647000000" lon="0.6626320000"><ele>465</ele><time>2025-12-07T08:16:48Z</time></trkpt>
<trkpt lat="43.0647120000" lon="0.6626120000"><ele>465</ele><time>2025-12-07T08:16:50Z</time></trkpt>
<trkpt lat="43.0647320000" lon="0.6625850000"><ele>464</ele><time>2025-12-07T08:16:52Z</time></trkpt>
<trkpt lat="43.0647500000" lon="0.6625620000"><ele>464</ele><time>2025-12-07T08:16:54Z</time></trkpt>
<trkpt lat="43.0647620000" lon="0.6625370000"><ele>464</ele><time>2025-12-07T08:16:56Z</time></trkpt>
<trkpt lat="43.0647770000" lon="0.6625100000"><ele>464</ele><time>2025-12-07T08:16:58Z</time></trkpt>
<trkpt lat="43.0647900000" lon="0.6624870000"><ele>464</ele><time>2025-12-07T08:17:00Z</time></trkpt>
<trkpt lat="43.0648020000" lon="0.6624700000"><ele>464</ele><time>2025-12-07T08:17:02Z</time></trkpt>
<trkpt lat="43.0648170000" lon="0.6624370000"><ele>463</ele><time>2025-12-07T08:17:04Z</time></trkpt>
<trkpt lat="43.0648320000" lon="0.6624120000"><ele>463</ele><time>2025-12-07T08:17:06Z</time></trkpt>
<trkpt lat="43.0648470000" lon="0.6623820000"><ele>463</ele><time>2025-12-07T08:17:08Z</time></trkpt>
<trkpt lat="43.0648550000" lon="0.6623470000"><ele>463</ele><time>2025-12-07T08:17:10Z</time></trkpt>
<trkpt lat="43.0648700000" lon="0.6623270000"><ele>463</ele><time>2025-12-07T08:17:13Z</time></trkpt>
<trkpt lat="43.0648870000" lon="0.6623080000"><ele>462</ele><time>2025-12-07T08:17:15Z</time></trkpt>
<trkpt lat="43.0648970000" lon="0.6622850000"><ele>462</ele><time>2025-12-07T08:17:17Z</time></trkpt>
<trkpt lat="43.0649120000" lon="0.6622570000"><ele>462</ele><time>2025-12-07T08:17:19Z</time></trkpt>
<trkpt lat="43.0649270000" lon="0.6622370000"><ele>461</ele><time>2025-12-07T08:17:21Z</time></trkpt>
<trkpt lat="43.0649500000" lon="0.6622120000"><ele>461</ele><time>2025-12-07T08:17:23Z</time></trkpt>
<trkpt lat="43.0649720000" lon="0.6621870000"><ele>461</ele><time>2025-12-07T08:17:25Z</time></trkpt>
<trkpt lat="43.0649900000" lon="0.6621600000"><ele>461</ele><time>2025-12-07T08:17:27Z</time></trkpt>
<trkpt lat="43.0650070000" lon="0.6621450000"><ele>461</ele><time>2025-12-07T08:17:29Z</time></trkpt>
<trkpt lat="43.0650270000" lon="0.6621270000"><ele>460</ele><time>2025-12-07T08:17:32Z</time></trkpt>
<trkpt lat="43.0650470000" lon="0.6621020000"><ele>460</ele><time>2025-12-07T08:17:34Z</time></trkpt>
<trkpt lat="43.0650620000" lon="0.6620800000"><ele>460</ele><time>2025-12-07T08:17:36Z</time></trkpt>
<trkpt lat="43.0650770000" lon="0.6620620000"><ele>460</ele><time>2025-12-07T08:17:38Z</time></trkpt>
<trkpt lat="43.0651000000" lon="0.6620450000"><ele>460</ele><time>2025-12-07T08:17:40Z</time></trkpt>
<trkpt lat="43.0651170000" lon="0.6620120000"><ele>459</ele><time>2025-12-07T08:17:42Z</time></trkpt>
<trkpt lat="43.0651370000" lon="0.6619770000"><ele>459</ele><time>2025-12-07T08:17:44Z</time></trkpt>
<trkpt lat="43.0651500000" lon="0.6619520000"><ele>459</ele><time>2025-12-07T08:17:46Z</time></trkpt>
<trkpt lat="43.0651720000" lon="0.6619300000"><ele>459</ele><time>2025-12-07T08:17:49Z</time></trkpt>
<trkpt lat="43.0651900000" lon="0.6619020000"><ele>459</ele><time>2025-12-07T08:17:51Z</time></trkpt>
<trkpt lat="43.0652020000" lon="0.6618830000"><ele>459</ele><time>2025-12-07T08:17:53Z</time></trkpt>
<trkpt lat="43.0652270000" lon="0.6618570000"><ele>458</ele><time>2025-12-07T08:17:55Z</time></trkpt>
<trkpt lat="43.0652520000" lon="0.6618220000"><ele>458</ele><time>2025-12-07T08:17:57Z</time></trkpt>
<trkpt lat="43.0652550000" lon="0.6617920000"><ele>458</ele><time>2025-12-07T08:17:59Z</time></trkpt>
<trkpt lat="43.0652720000" lon="0.6617720000"><ele>458</ele><time>2025-12-07T08:18:01Z</time></trkpt>
<trkpt lat="43.0652820000" lon="0.6617450000"><ele>457</ele><time>2025-12-07T08:18:03Z</time></trkpt>
<trkpt lat="43.0652970000" lon="0.6617250000"><ele>458</ele><time>2025-12-07T08:18:05Z</time></trkpt>
<trkpt lat="43.0653170000" lon="0.6617120000"><ele>457</ele><time>2025-12-07T08:18:07Z</time></trkpt>
<trkpt lat="43.0653420000" lon="0.6616970000"><ele>457</ele><time>2025-12-07T08:18:10Z</time></trkpt>
<trkpt lat="43.0653620000" lon="0.6616770000"><ele>456</ele><time>2025-12-07T08:18:12Z</time></trkpt>
<trkpt lat="43.0653800000" lon="0.6616520000"><ele>456</ele><time>2025-12-07T08:18:14Z</time></trkpt>
<trkpt lat="43.0654000000" lon="0.6616250000"><ele>456</ele><time>2025-12-07T08:18:16Z</time></trkpt>
<trkpt lat="43.0654150000" lon="0.6616070000"><ele>456</ele><time>2025-12-07T08:18:17Z</time></trkpt>
<trkpt lat="43.0654420000" lon="0.6615920000"><ele>456</ele><time>2025-12-07T08:18:19Z</time></trkpt>
<trkpt lat="43.0654770000" lon="0.6615920000"><ele>456</ele><time>2025-12-07T08:18:21Z</time></trkpt>
<trkpt lat="43.0655020000" lon="0.6615870000"><ele>455</ele><time>2025-12-07T08:18:23Z</time></trkpt>
<trkpt lat="43.0655220000" lon="0.6615820000"><ele>455</ele><time>2025-12-07T08:18:25Z</time></trkpt>
<trkpt lat="43.0655370000" lon="0.6615670000"><ele>455</ele><time>2025-12-07T08:18:27Z</time></trkpt>
<trkpt lat="43.0655620000" lon="0.6615520000"><ele>455</ele><time>2025-12-07T08:18:30Z</time></trkpt>
<trkpt lat="43.0655900000" lon="0.6615470000"><ele>455</ele><time>2025-12-07T08:18:32Z</time></trkpt>
<trkpt lat="43.0656170000" lon="0.6615420000"><ele>455</ele><time>2025-12-07T08:18:34Z</time></trkpt>
<trkpt lat="43.0656420000" lon="0.6615370000"><ele>455</ele><time>2025-12-07T08:18:36Z</time></trkpt>
<trkpt lat="43.0656620000" lon="0.6615370000"><ele>454</ele><time>2025-12-07T08:18:37Z</time></trkpt>
<trkpt lat="43.0656920000" lon="0.6615470000"><ele>454</ele><time>2025-12-07T08:18:39Z</time></trkpt>
<trkpt lat="43.0657150000" lon="0.6615550000"><ele>454</ele><time>2025-12-07T08:18:41Z</time></trkpt>
<trkpt lat="43.0657380000" lon="0.6615670000"><ele>453</ele><time>2025-12-07T08:18:44Z</time></trkpt>
<trkpt lat="43.0657650000" lon="0.6615770000"><ele>453</ele><time>2025-12-07T08:18:46Z</time></trkpt>
<trkpt lat="43.0657900000" lon="0.6615720000"><ele>453</ele><time>2025-12-07T08:18:48Z</time></trkpt>
<trkpt lat="43.0658150000" lon="0.6615750000"><ele>453</ele><time>2025-12-07T08:18:50Z</time></trkpt>
<trkpt lat="43.0658400000" lon="0.6615850000"><ele>453</ele><time>2025-12-07T08:18:52Z</time></trkpt>
<trkpt lat="43.0658620000" lon="0.6615870000"><ele>453</ele><time>2025-12-07T08:18:54Z</time></trkpt>
<trkpt lat="43.0658920000" lon="0.6616000000"><ele>453</ele><time>2025-12-07T08:18:56Z</time></trkpt>
<trkpt lat="43.0659170000" lon="0.6615920000"><ele>453</ele><time>2025-12-07T08:18:58Z</time></trkpt>
<trkpt lat="43.0659370000" lon="0.6615870000"><ele>452</ele><time>2025-12-07T08:19:00Z</time></trkpt>
<trkpt lat="43.0659630000" lon="0.6615920000"><ele>452</ele><time>2025-12-07T08:19:02Z</time></trkpt>
<trkpt lat="43.0659900000" lon="0.6615870000"><ele>452</ele><time>2025-12-07T08:19:04Z</time></trkpt>
<trkpt lat="43.0660100000" lon="0.6615870000"><ele>452</ele><time>2025-12-07T08:19:06Z</time></trkpt>
<trkpt lat="43.0660320000" lon="0.6615820000"><ele>452</ele><time>2025-12-07T08:19:08Z</time></trkpt>
<trkpt lat="43.0660520000" lon="0.6615820000"><ele>452</ele><time>2025-12-07T08:19:10Z</time></trkpt>
<trkpt lat="43.0660770000" lon="0.6615720000"><ele>452</ele><time>2025-12-07T08:19:12Z</time></trkpt>
<trkpt lat="43.0661020000" lon="0.6615650000"><ele>452</ele><time>2025-12-07T08:19:15Z</time></trkpt>
<trkpt lat="43.0661250000" lon="0.6615600000"><ele>451</ele><time>2025-12-07T08:19:17Z</time></trkpt>
<trkpt lat="43.0661470000" lon="0.6615600000"><ele>451</ele><time>2025-12-07T08:19:19Z</time></trkpt>
<trkpt lat="43.0661670000" lon="0.6615570000"><ele>451</ele><time>2025-12-07T08:19:22Z</time></trkpt>
<trkpt lat="43.0661920000" lon="0.6615570000"><ele>451</ele><time>2025-12-07T08:19:24Z</time></trkpt>
<trkpt lat="43.0662120000" lon="0.6615570000"><ele>450</ele><time>2025-12-07T08:19:26Z</time></trkpt>
<trkpt lat="43.0662320000" lon="0.6615600000"><ele>450</ele><time>2025-12-07T08:19:28Z</time></trkpt>
<trkpt lat="43.0662600000" lon="0.6615650000"><ele>450</ele><time>2025-12-07T08:19:30Z</time></trkpt>
<trkpt lat="43.0662970000" lon="0.6615770000"><ele>450</ele><time>2025-12-07T08:19:32Z</time></trkpt>
<trkpt lat="43.0663150000" lon="0.6615780000"><ele>450</ele><time>2025-12-07T08:19:33Z</time></trkpt>
<trkpt lat="43.0663320000" lon="0.6615920000"><ele>449</ele><time>2025-12-07T08:19:35Z</time></trkpt>
<trkpt lat="43.0663520000" lon="0.6616070000"><ele>449</ele><time>2025-12-07T08:19:37Z</time></trkpt>
<trkpt lat="43.0663770000" lon="0.6616170000"><ele>449</ele><time>2025-12-07T08:19:39Z</time></trkpt>
<trkpt lat="43.0663970000" lon="0.6616270000"><ele>449</ele><time>2025-12-07T08:19:41Z</time></trkpt>
<trkpt lat="43.0664220000" lon="0.6616370000"><ele>449</ele><time>2025-12-07T08:19:43Z</time></trkpt>
<trkpt lat="43.0664520000" lon="0.6616300000"><ele>449</ele><time>2025-12-07T08:19:45Z</time></trkpt>
<trkpt lat="43.0664870000" lon="0.6616130000"><ele>448</ele><time>2025-12-07T08:19:47Z</time></trkpt>
<trkpt lat="43.0665120000" lon="0.6616000000"><ele>448</ele><time>2025-12-07T08:19:49Z</time></trkpt>
<trkpt lat="43.0665370000" lon="0.6616200000"><ele>448</ele><time>2025-12-07T08:19:51Z</time></trkpt>
<trkpt lat="43.0665520000" lon="0.6616370000"><ele>448</ele><time>2025-12-07T08:19:52Z</time></trkpt>
<trkpt lat="43.0665700000" lon="0.6616470000"><ele>448</ele><time>2025-12-07T08:19:54Z</time></trkpt>
<trkpt lat="43.0665970000" lon="0.6616600000"><ele>448</ele><time>2025-12-07T08:19:56Z</time></trkpt>
<trkpt lat="43.0666150000" lon="0.6616820000"><ele>447</ele><time>2025-12-07T08:19:58Z</time></trkpt>
<trkpt lat="43.0666270000" lon="0.6617070000"><ele>447</ele><time>2025-12-07T08:20:00Z</time></trkpt>
<trkpt lat="43.0666320000" lon="0.6617400000"><ele>447</ele><time>2025-12-07T08:20:02Z</time></trkpt>
<trkpt lat="43.0666420000" lon="0.6617670000"><ele>447</ele><time>2025-12-07T08:20:04Z</time></trkpt>
<trkpt lat="43.0666570000" lon="0.6618020000"><ele>447</ele><time>2025-12-07T08:20:06Z</time></trkpt>
<trkpt lat="43.0666720000" lon="0.6618270000"><ele>446</ele><time>2025-12-07T08:20:07Z</time></trkpt>
<trkpt lat="43.0666900000" lon="0.6618570000"><ele>446</ele><time>2025-12-07T08:20:09Z</time></trkpt>
<trkpt lat="43.0667020000" lon="0.6618750000"><ele>446</ele><time>2025-12-07T08:20:10Z</time></trkpt>
<trkpt lat="43.0667220000" lon="0.6619000000"><ele>446</ele><time>2025-12-07T08:20:12Z</time></trkpt>
<trkpt lat="43.0667370000" lon="0.6619270000"><ele>445</ele><time>2025-12-07T08:20:14Z</time></trkpt>
<trkpt lat="43.0667520000" lon="0.6619570000"><ele>445</ele><time>2025-12-07T08:20:16Z</time></trkpt>
<trkpt lat="43.0667700000" lon="0.6619820000"><ele>445</ele><time>2025-12-07T08:20:18Z</time></trkpt>
<trkpt lat="43.0667820000" lon="0.6620020000"><ele>445</ele><time>2025-12-07T08:20:20Z</time></trkpt>
<trkpt lat="43.0667950000" lon="0.6620220000"><ele>445</ele><time>2025-12-07T08:20:22Z</time></trkpt>
<trkpt lat="43.0668170000" lon="0.6620570000"><ele>445</ele><time>2025-12-07T08:20:24Z</time></trkpt>
<trkpt lat="43.0668270000" lon="0.6620870000"><ele>444</ele><time>2025-12-07T08:20:26Z</time></trkpt>
<trkpt lat="43.0668400000" lon="0.6621070000"><ele>444</ele><time>2025-12-07T08:20:28Z</time></trkpt>
<trkpt lat="43.0668520000" lon="0.6621420000"><ele>444</ele><time>2025-12-07T08:20:30Z</time></trkpt>
<trkpt lat="43.0668670000" lon="0.6621720000"><ele>444</ele><time>2025-12-07T08:20:32Z</time></trkpt>
<trkpt lat="43.0668820000" lon="0.6621950000"><ele>444</ele><time>2025-12-07T08:20:34Z</time></trkpt>
<trkpt lat="43.0668950000" lon="0.6622150000"><ele>444</ele><time>2025-12-07T08:20:36Z</time></trkpt>
<trkpt lat="43.0669120000" lon="0.6622270000"><ele>443</ele><time>2025-12-07T08:20:38Z</time></trkpt>
<trkpt lat="43.0669350000" lon="0.6622420000"><ele>443</ele><time>2025-12-07T08:20:40Z</time></trkpt>
<trkpt lat="43.0669570000" lon="0.6622630000"><ele>443</ele><time>2025-12-07T08:20:42Z</time></trkpt>
<trkpt lat="43.0669800000" lon="0.6622950000"><ele>443</ele><time>2025-12-07T08:20:44Z</time></trkpt>
<trkpt lat="43.0670000000" lon="0.6623200000"><ele>443</ele><time>2025-12-07T08:20:46Z</time></trkpt>
<trkpt lat="43.0670170000" lon="0.6623470000"><ele>443</ele><time>2025-12-07T08:20:48Z</time></trkpt>
<trkpt lat="43.0670320000" lon="0.6623770000"><ele>442</ele><time>2025-12-07T08:20:50Z</time></trkpt>
<trkpt lat="43.0670570000" lon="0.6624020000"><ele>442</ele><time>2025-12-07T08:20:52Z</time></trkpt>
<trkpt lat="43.0670720000" lon="0.6624120000"><ele>442</ele><time>2025-12-07T08:20:54Z</time></trkpt>
<trkpt lat="43.0670920000" lon="0.6624200000"><ele>442</ele><time>2025-12-07T08:20:57Z</time></trkpt>
<trkpt lat="43.0671120000" lon="0.6624220000"><ele>442</ele><time>2025-12-07T08:21:00Z</time></trkpt>
<trkpt lat="43.0671270000" lon="0.6623970000"><ele>441</ele><time>2025-12-07T08:21:02Z</time></trkpt>
<trkpt lat="43.0671470000" lon="0.6623720000"><ele>441</ele><time>2025-12-07T08:21:04Z</time></trkpt>
<trkpt lat="43.0671770000" lon="0.6623700000"><ele>441</ele><time>2025-12-07T08:21:07Z</time></trkpt>
<trkpt lat="43.0672000000" lon="0.6623780000"><ele>441</ele><time>2025-12-07T08:21:09Z</time></trkpt>
<trkpt lat="43.0672270000" lon="0.6623720000"><ele>441</ele><time>2025-12-07T08:21:11Z</time></trkpt>
<trkpt lat="43.0672520000" lon="0.6623700000"><ele>441</ele><time>2025-12-07T08:21:13Z</time></trkpt>
<trkpt lat="43.0672750000" lon="0.6623670000"><ele>441</ele><time>2025-12-07T08:21:15Z</time></trkpt>
<trkpt lat="43.0673020000" lon="0.6623720000"><ele>441</ele><time>2025-12-07T08:21:18Z</time></trkpt>
<trkpt lat="43.0673270000" lon="0.6623770000"><ele>441</ele><time>2025-12-07T08:21:20Z</time></trkpt>
<trkpt lat="43.0673570000" lon="0.6623980000"><ele>441</ele><time>2025-12-07T08:21:22Z</time></trkpt>
<trkpt lat="43.0673820000" lon="0.6624270000"><ele>441</ele><time>2025-12-07T08:21:24Z</time></trkpt>
<trkpt lat="43.0673950000" lon="0.6624520000"><ele>441</ele><time>2025-12-07T08:21:25Z</time></trkpt>
<trkpt lat="43.0674220000" lon="0.6624970000"><ele>441</ele><time>2025-12-07T08:21:27Z</time></trkpt>
<trkpt lat="43.0674370000" lon="0.6625220000"><ele>441</ele><time>2025-12-07T08:21:28Z</time></trkpt>
<trkpt lat="43.0674500000" lon="0.6625420000"><ele>441</ele><time>2025-12-07T08:21:30Z</time></trkpt>
<trkpt lat="43.0674620000" lon="0.6625650000"><ele>441</ele><time>2025-12-07T08:21:32Z</time></trkpt>
<trkpt lat="43.0674770000" lon="0.6626020000"><ele>440</ele><time>2025-12-07T08:21:34Z</time></trkpt>
<trkpt lat="43.0674870000" lon="0.6626220000"><ele>440</ele><time>2025-12-07T08:21:35Z</time></trkpt>
<trkpt lat="43.0675170000" lon="0.6626330000"><ele>441</ele><time>2025-12-07T08:21:37Z</time></trkpt>
<trkpt lat="43.0675370000" lon="0.6626420000"><ele>440</ele><time>2025-12-07T08:21:39Z</time></trkpt>
<trkpt lat="43.0675520000" lon="0.6626650000"><ele>440</ele><time>2025-12-07T08:21:42Z</time></trkpt>
<trkpt lat="43.0675720000" lon="0.6626770000"><ele>441</ele><time>2025-12-07T08:21:45Z</time></trkpt>
<trkpt lat="43.0675920000" lon="0.6626850000"><ele>440</ele><time>2025-12-07T08:21:47Z</time></trkpt>
<trkpt lat="43.0676120000" lon="0.6627170000"><ele>440</ele><time>2025-12-07T08:21:48Z</time></trkpt>
<trkpt lat="43.0676320000" lon="0.6627370000"><ele>440</ele><time>2025-12-07T08:21:50Z</time></trkpt>
<trkpt lat="43.0676520000" lon="0.6627570000"><ele>440</ele><time>2025-12-07T08:21:52Z</time></trkpt>
<trkpt lat="43.0676670000" lon="0.6627770000"><ele>440</ele><time>2025-12-07T08:21:54Z</time></trkpt>
<trkpt lat="43.0676850000" lon="0.6627900000"><ele>440</ele><time>2025-12-07T08:21:55Z</time></trkpt>
<trkpt lat="43.0677070000" lon="0.6628030000"><ele>440</ele><time>2025-12-07T08:21:57Z</time></trkpt>
<trkpt lat="43.0677320000" lon="0.6628200000"><ele>440</ele><time>2025-12-07T08:22:01Z</time></trkpt>
<trkpt lat="43.0677450000" lon="0.6628470000"><ele>440</ele><time>2025-12-07T08:22:03Z</time></trkpt>
<trkpt lat="43.0677650000" lon="0.6628520000"><ele>440</ele><time>2025-12-07T08:22:05Z</time></trkpt>
<trkpt lat="43.0677820000" lon="0.6628520000"><ele>440</ele><time>2025-12-07T08:22:07Z</time></trkpt>
<trkpt lat="43.0678100000" lon="0.6628470000"><ele>440</ele><time>2025-12-07T08:22:09Z</time></trkpt>
<trkpt lat="43.0678320000" lon="0.6628600000"><ele>440</ele><time>2025-12-07T08:22:12Z</time></trkpt>
<trkpt lat="43.0678500000" lon="0.6628750000"><ele>440</ele><time>2025-12-07T08:22:14Z</time></trkpt>
<trkpt lat="43.0678800000" lon="0.6628770000"><ele>440</ele><time>2025-12-07T08:22:16Z</time></trkpt>
<trkpt lat="43.0678950000" lon="0.6628920000"><ele>441</ele><time>2025-12-07T08:22:18Z</time></trkpt>
<trkpt lat="43.0679170000" lon="0.6629020000"><ele>441</ele><time>2025-12-07T08:22:20Z</time></trkpt>
<trkpt lat="43.0679370000" lon="0.6629370000"><ele>441</ele><time>2025-12-07T08:22:22Z</time></trkpt>
<trkpt lat="43.0679520000" lon="0.6629580000"><ele>441</ele><time>2025-12-07T08:22:23Z</time></trkpt>
<trkpt lat="43.0679750000" lon="0.6630020000"><ele>441</ele><time>2025-12-07T08:22:25Z</time></trkpt>
<trkpt lat="43.0679900000" lon="0.6630270000"><ele>441</ele><time>2025-12-07T08:22:26Z</time></trkpt>
<trkpt lat="43.0680020000" lon="0.6630520000"><ele>440</ele><time>2025-12-07T08:22:28Z</time></trkpt>
<trkpt lat="43.0680170000" lon="0.6630700000"><ele>440</ele><time>2025-12-07T08:22:30Z</time></trkpt>
<trkpt lat="43.0680420000" lon="0.6630820000"><ele>440</ele><time>2025-12-07T08:22:33Z</time></trkpt>
<trkpt lat="43.0680600000" lon="0.6631050000"><ele>440</ele><time>2025-12-07T08:22:45Z</time></trkpt>
<trkpt lat="43.0680870000" lon="0.6631450000"><ele>440</ele><time>2025-12-07T08:22:47Z</time></trkpt>
<trkpt lat="43.0681020000" lon="0.6631650000"><ele>440</ele><time>2025-12-07T08:22:48Z</time></trkpt>
<trkpt lat="43.0681200000" lon="0.6631820000"><ele>440</ele><time>2025-12-07T08:22:49Z</time></trkpt>
<trkpt lat="43.0681420000" lon="0.6632020000"><ele>440</ele><time>2025-12-07T08:22:51Z</time></trkpt>
<trkpt lat="43.0681700000" lon="0.6632120000"><ele>440</ele><time>2025-12-07T08:22:53Z</time></trkpt>
<trkpt lat="43.0681850000" lon="0.6632370000"><ele>440</ele><time>2025-12-07T08:22:55Z</time></trkpt>
<trkpt lat="43.0682020000" lon="0.6632470000"><ele>440</ele><time>2025-12-07T08:22:57Z</time></trkpt>
<trkpt lat="43.0682220000" lon="0.6632550000"><ele>440</ele><time>2025-12-07T08:23:01Z</time></trkpt>
<trkpt lat="43.0682420000" lon="0.6632720000"><ele>440</ele><time>2025-12-07T08:23:04Z</time></trkpt>
<trkpt lat="43.0682650000" lon="0.6632820000"><ele>440</ele><time>2025-12-07T08:23:07Z</time></trkpt>
<trkpt lat="43.0682850000" lon="0.6632850000"><ele>439</ele><time>2025-12-07T08:23:09Z</time></trkpt>
<trkpt lat="43.0683100000" lon="0.6632920000"><ele>439</ele><time>2025-12-07T08:23:11Z</time></trkpt>
<trkpt lat="43.0683320000" lon="0.6633000000"><ele>440</ele><time>2025-12-07T08:23:13Z</time></trkpt>
<trkpt lat="43.0683500000" lon="0.6633050000"><ele>440</ele><time>2025-12-07T08:23:15Z</time></trkpt>
<trkpt lat="43.0683720000" lon="0.6633020000"><ele>440</ele><time>2025-12-07T08:23:17Z</time></trkpt>
<trkpt lat="43.0683920000" lon="0.6633050000"><ele>440</ele><time>2025-12-07T08:23:19Z</time></trkpt>
<trkpt lat="43.0684200000" lon="0.6633170000"><ele>440</ele><time>2025-12-07T08:23:21Z</time></trkpt>
<trkpt lat="43.0684400000" lon="0.6633270000"><ele>440</ele><time>2025-12-07T08:23:23Z</time></trkpt>
<trkpt lat="43.0684620000" lon="0.6633430000"><ele>440</ele><time>2025-12-07T08:23:25Z</time></trkpt>
<trkpt lat="43.0684750000" lon="0.6633620000"><ele>440</ele><time>2025-12-07T08:23:26Z</time></trkpt>
<trkpt lat="43.0684870000" lon="0.6633920000"><ele>440</ele><time>2025-12-07T08:23:27Z</time></trkpt>
<trkpt lat="43.0685070000" lon="0.6634170000"><ele>440</ele><time>2025-12-07T08:23:29Z</time></trkpt>
<trkpt lat="43.0685220000" lon="0.6634470000"><ele>440</ele><time>2025-12-07T08:23:31Z</time></trkpt>
<trkpt lat="43.0685300000" lon="0.6634720000"><ele>440</ele><time>2025-12-07T08:23:32Z</time></trkpt>
<trkpt lat="43.0685520000" lon="0.6634970000"><ele>439</ele><time>2025-12-07T08:23:34Z</time></trkpt>
<trkpt lat="43.0685820000" lon="0.6635120000"><ele>439</ele><time>2025-12-07T08:23:36Z</time></trkpt>
<trkpt lat="43.0685970000" lon="0.6635250000"><ele>439</ele><time>2025-12-07T08:23:38Z</time></trkpt>
<trkpt lat="43.0686170000" lon="0.6635370000"><ele>439</ele><time>2025-12-07T08:23:40Z</time></trkpt>
<trkpt lat="43.0686400000" lon="0.6635470000"><ele>439</ele><time>2025-12-07T08:23:42Z</time></trkpt>
<trkpt lat="43.0686620000" lon="0.6635550000"><ele>439</ele><time>2025-12-07T08:23:44Z</time></trkpt>
<trkpt lat="43.0686920000" lon="0.6635570000"><ele>439</ele><time>2025-12-07T08:23:46Z</time></trkpt>
<trkpt lat="43.0687150000" lon="0.6635720000"><ele>439</ele><time>2025-12-07T08:23:48Z</time></trkpt>
<trkpt lat="43.0687370000" lon="0.6635920000"><ele>439</ele><time>2025-12-07T08:23:50Z</time></trkpt>
<trkpt lat="43.0687520000" lon="0.6636070000"><ele>439</ele><time>2025-12-07T08:23:51Z</time></trkpt>
<trkpt lat="43.0687720000" lon="0.6636320000"><ele>439</ele><time>2025-12-07T08:23:53Z</time></trkpt>
<trkpt lat="43.0687900000" lon="0.6636570000"><ele>438</ele><time>2025-12-07T08:23:55Z</time></trkpt>
<trkpt lat="43.0688100000" lon="0.6636670000"><ele>438</ele><time>2025-12-07T08:23:57Z</time></trkpt>
<trkpt lat="43.0688300000" lon="0.6636630000"><ele>438</ele><time>2025-12-07T08:23:59Z</time></trkpt>
<trkpt lat="43.0688470000" lon="0.6636820000"><ele>438</ele><time>2025-12-07T08:24:02Z</time></trkpt>
<trkpt lat="43.0688670000" lon="0.6637070000"><ele>438</ele><time>2025-12-07T08:24:04Z</time></trkpt>
<trkpt lat="43.0688950000" lon="0.6637270000"><ele>438</ele><time>2025-12-07T08:24:06Z</time></trkpt>
<trkpt lat="43.0689120000" lon="0.6637470000"><ele>438</ele><time>2025-12-07T08:24:08Z</time></trkpt>
<trkpt lat="43.0689470000" lon="0.6637620000"><ele>438</ele><time>2025-12-07T08:24:10Z</time></trkpt>
<trkpt lat="43.0689700000" lon="0.6637720000"><ele>438</ele><time>2025-12-07T08:24:12Z</time></trkpt>
<trkpt lat="43.0689920000" lon="0.6637870000"><ele>438</ele><time>2025-12-07T08:24:14Z</time></trkpt>
<trkpt lat="43.0690150000" lon="0.6638050000"><ele>438</ele><time>2025-12-07T08:24:16Z</time></trkpt>
<trkpt lat="43.0690370000" lon="0.6638320000"><ele>438</ele><time>2025-12-07T08:24:18Z</time></trkpt>
<trkpt lat="43.0690570000" lon="0.6638520000"><ele>438</ele><time>2025-12-07T08:24:20Z</time></trkpt>
<trkpt lat="43.0690770000" lon="0.6638770000"><ele>438</ele><time>2025-12-07T08:24:22Z</time></trkpt>
<trkpt lat="43.0690900000" lon="0.6638950000"><ele>438</ele><time>2025-12-07T08:24:25Z</time></trkpt>
<trkpt lat="43.0691170000" lon="0.6639100000"><ele>438</ele><time>2025-12-07T08:24:27Z</time></trkpt>
<trkpt lat="43.0691270000" lon="0.6639420000"><ele>438</ele><time>2025-12-07T08:24:28Z</time></trkpt>
<trkpt lat="43.0691420000" lon="0.6639620000"><ele>438</ele><time>2025-12-07T08:24:30Z</time></trkpt>
<trkpt lat="43.0691700000" lon="0.6639850000"><ele>438</ele><time>2025-12-07T08:24:32Z</time></trkpt>
<trkpt lat="43.0691870000" lon="0.6640120000"><ele>437</ele><time>2025-12-07T08:24:34Z</time></trkpt>
<trkpt lat="43.0692100000" lon="0.6640320000"><ele>437</ele><time>2025-12-07T08:24:36Z</time></trkpt>
<trkpt lat="43.0692270000" lon="0.6640370000"><ele>438</ele><time>2025-12-07T08:24:38Z</time></trkpt>
<trkpt lat="43.0692470000" lon="0.6640470000"><ele>438</ele><time>2025-12-07T08:24:40Z</time></trkpt>
<trkpt lat="43.0692700000" lon="0.6640570000"><ele>438</ele><time>2025-12-07T08:24:42Z</time></trkpt>
<trkpt lat="43.0692950000" lon="0.6640770000"><ele>437</ele><time>2025-12-07T08:24:44Z</time></trkpt>
<trkpt lat="43.0693150000" lon="0.6640920000"><ele>438</ele><time>2025-12-07T08:24:46Z</time></trkpt>
<trkpt lat="43.0693370000" lon="0.6641020000"><ele>438</ele><time>2025-12-07T08:24:48Z</time></trkpt>
<trkpt lat="43.0693650000" lon="0.6641170000"><ele>438</ele><time>2025-12-07T08:24:50Z</time></trkpt>
<trkpt lat="43.0693920000" lon="0.6641370000"><ele>438</ele><time>2025-12-07T08:24:52Z</time></trkpt>
<trkpt lat="43.0694170000" lon="0.6641570000"><ele>438</ele><time>2025-12-07T08:24:54Z</time></trkpt>
<trkpt lat="43.0694320000" lon="0.6641820000"><ele>438</ele><time>2025-12-07T08:24:57Z</time></trkpt>
<trkpt lat="43.0694530000" lon="0.6641970000"><ele>438</ele><time>2025-12-07T08:25:00Z</time></trkpt>
<trkpt lat="43.0694750000" lon="0.6642120000"><ele>438</ele><time>2025-12-07T08:25:02Z</time></trkpt>
<trkpt lat="43.0694920000" lon="0.6642300000"><ele>438</ele><time>2025-12-07T08:25:04Z</time></trkpt>
<trkpt lat="43.0695150000" lon="0.6642420000"><ele>438</ele><time>2025-12-07T08:25:06Z</time></trkpt>
<trkpt lat="43.0695350000" lon="0.6642570000"><ele>438</ele><time>2025-12-07T08:25:08Z</time></trkpt>
<trkpt lat="43.0695520000" lon="0.6642720000"><ele>438</ele><time>2025-12-07T08:25:10Z</time></trkpt>
<trkpt lat="43.0695720000" lon="0.6642870000"><ele>438</ele><time>2025-12-07T08:25:12Z</time></trkpt>
<trkpt lat="43.0695970000" lon="0.6643080000"><ele>439</ele><time>2025-12-07T08:25:15Z</time></trkpt>
<trkpt lat="43.0696170000" lon="0.6643170000"><ele>439</ele><time>2025-12-07T08:25:17Z</time></trkpt>
<trkpt lat="43.0696420000" lon="0.6643250000"><ele>438</ele><time>2025-12-07T08:25:19Z</time></trkpt>
<trkpt lat="43.0696670000" lon="0.6643420000"><ele>438</ele><time>2025-12-07T08:25:21Z</time></trkpt>
<trkpt lat="43.0696900000" lon="0.6643570000"><ele>438</ele><time>2025-12-07T08:25:23Z</time></trkpt>
<trkpt lat="43.0697120000" lon="0.6643750000"><ele>438</ele><time>2025-12-07T08:25:25Z</time></trkpt>
<trkpt lat="43.0697370000" lon="0.6643920000"><ele>438</ele><time>2025-12-07T08:25:27Z</time></trkpt>
<trkpt lat="43.0697570000" lon="0.6644070000"><ele>439</ele><time>2025-12-07T08:25:29Z</time></trkpt>
<trkpt lat="43.0697770000" lon="0.6644020000"><ele>438</ele><time>2025-12-07T08:25:32Z</time></trkpt>
<trkpt lat="43.0697920000" lon="0.6643850000"><ele>439</ele><time>2025-12-07T08:25:36Z</time></trkpt>
<trkpt lat="43.0698070000" lon="0.6644250000"><ele>438</ele><time>2025-12-07T08:27:05Z</time></trkpt>
<trkpt lat="43.0698220000" lon="0.6644770000"><ele>438</ele><time>2025-12-07T08:27:07Z</time></trkpt>
<trkpt lat="43.0698270000" lon="0.6645020000"><ele>438</ele><time>2025-12-07T08:27:08Z</time></trkpt>
<trkpt lat="43.0698370000" lon="0.6645220000"><ele>438</ele><time>2025-12-07T08:27:09Z</time></trkpt>
<trkpt lat="43.0698550000" lon="0.6645350000"><ele>438</ele><time>2025-12-07T08:27:11Z</time></trkpt>
<trkpt lat="43.0698720000" lon="0.6645420000"><ele>438</ele><time>2025-12-07T08:27:13Z</time></trkpt>
<trkpt lat="43.0698920000" lon="0.6645270000"><ele>438</ele><time>2025-12-07T08:27:16Z</time></trkpt>
<trkpt lat="43.0698850000" lon="0.6645000000"><ele>438</ele><time>2025-12-07T08:27:20Z</time></trkpt>
<trkpt lat="43.0698650000" lon="0.6645120000"><ele>439</ele><time>2025-12-07T08:27:28Z</time></trkpt>
<trkpt lat="43.0698850000" lon="0.6644830000"><ele>438</ele><time>2025-12-07T08:27:53Z</time></trkpt>
<trkpt lat="43.0698950000" lon="0.6644620000"><ele>438</ele><time>2025-12-07T08:27:54Z</time></trkpt>
<trkpt lat="43.0699070000" lon="0.6644220000"><ele>438</ele><time>2025-12-07T08:27:56Z</time></trkpt>
<trkpt lat="43.0699200000" lon="0.6643920000"><ele>439</ele><time>2025-12-07T08:27:58Z</time></trkpt>
<trkpt lat="43.0699270000" lon="0.6643650000"><ele>439</ele><time>2025-12-07T08:28:00Z</time></trkpt>
<trkpt lat="43.0699320000" lon="0.6643320000"><ele>439</ele><time>2025-12-07T08:28:02Z</time></trkpt>
<trkpt lat="43.0699320000" lon="0.6643070000"><ele>439</ele><time>2025-12-07T08:28:04Z</time></trkpt>
<trkpt lat="43.0699350000" lon="0.6642800000"><ele>440</ele><time>2025-12-07T08:28:06Z</time></trkpt>
<trkpt lat="43.0699420000" lon="0.6642500000"><ele>440</ele><time>2025-12-07T08:28:08Z</time></trkpt>
<trkpt lat="43.0699500000" lon="0.6642220000"><ele>439</ele><time>2025-12-07T08:28:10Z</time></trkpt>
<trkpt lat="43.0699570000" lon="0.6641820000"><ele>440</ele><time>2025-12-07T08:28:12Z</time></trkpt>
<trkpt lat="43.0699720000" lon="0.6641620000"><ele>440</ele><time>2025-12-07T08:28:14Z</time></trkpt>
<trkpt lat="43.0699820000" lon="0.6641270000"><ele>440</ele><time>2025-12-07T08:28:16Z</time></trkpt>
<trkpt lat="43.0699950000" lon="0.6640950000"><ele>440</ele><time>2025-12-07T08:28:18Z</time></trkpt>
<trkpt lat="43.0700020000" lon="0.6640670000"><ele>439</ele><time>2025-12-07T08:28:20Z</time></trkpt>
<trkpt lat="43.0700120000" lon="0.6640380000"><ele>439</ele><time>2025-12-07T08:28:22Z</time></trkpt>
<trkpt lat="43.0700170000" lon="0.6640100000"><ele>439</ele><time>2025-12-07T08:28:24Z</time></trkpt>
<trkpt lat="43.0700200000" lon="0.6639670000"><ele>439</ele><time>2025-12-07T08:28:26Z</time></trkpt>
<trkpt lat="43.0700200000" lon="0.6639420000"><ele>439</ele><time>2025-12-07T08:28:28Z</time></trkpt>
<trkpt lat="43.0700250000" lon="0.6639100000"><ele>440</ele><time>2025-12-07T08:28:30Z</time></trkpt>
<trkpt lat="43.0700270000" lon="0.6638820000"><ele>440</ele><time>2025-12-07T08:28:32Z</time></trkpt>
<trkpt lat="43.0700200000" lon="0.6638570000"><ele>440</ele><time>2025-12-07T08:28:34Z</time></trkpt>
<trkpt lat="43.0700070000" lon="0.6638300000"><ele>440</ele><time>2025-12-07T08:28:36Z</time></trkpt>
<trkpt lat="43.0699920000" lon="0.6638100000"><ele>440</ele><time>2025-12-07T08:28:38Z</time></trkpt>
<trkpt lat="43.0699750000" lon="0.6637720000"><ele>440</ele><time>2025-12-07T08:28:40Z</time></trkpt>
<trkpt lat="43.0699880000" lon="0.6637530000"><ele>441</ele><time>2025-12-07T08:29:21Z</time></trkpt>
<trkpt lat="43.0700020000" lon="0.6637250000"><ele>441</ele><time>2025-12-07T08:29:23Z</time></trkpt>
<trkpt lat="43.0700120000" lon="0.6637020000"><ele>441</ele><time>2025-12-07T08:29:25Z</time></trkpt>
<trkpt lat="43.0700270000" lon="0.6636800000"><ele>441</ele><time>2025-12-07T08:29:28Z</time></trkpt>
<trkpt lat="43.0700370000" lon="0.6636570000"><ele>441</ele><time>2025-12-07T08:29:31Z</time></trkpt>
<trkpt lat="43.0700120000" lon="0.6636570000"><ele>442</ele><time>2025-12-07T08:29:44Z</time></trkpt>
<trkpt lat="43.0699870000" lon="0.6636570000"><ele>442</ele><time>2025-12-07T08:29:46Z</time></trkpt>
<trkpt lat="43.0699620000" lon="0.6636370000"><ele>442</ele><time>2025-12-07T08:29:49Z</time></trkpt>
<trkpt lat="43.0699420000" lon="0.6636170000"><ele>442</ele><time>2025-12-07T08:29:51Z</time></trkpt>
<trkpt lat="43.0699250000" lon="0.6635980000"><ele>442</ele><time>2025-12-07T08:29:53Z</time></trkpt>
<trkpt lat="43.0699120000" lon="0.6635720000"><ele>443</ele><time>2025-12-07T08:29:56Z</time></trkpt>
<trkpt lat="43.0699050000" lon="0.6635450000"><ele>443</ele><time>2025-12-07T08:29:59Z</time></trkpt>
<trkpt lat="43.0699100000" lon="0.6635170000"><ele>443</ele><time>2025-12-07T08:30:01Z</time></trkpt>
<trkpt lat="43.0699120000" lon="0.6634920000"><ele>444</ele><time>2025-12-07T08:30:22Z</time></trkpt>
<trkpt lat="43.0699220000" lon="0.6634720000"><ele>444</ele><time>2025-12-07T08:30:38Z</time></trkpt>
<trkpt lat="43.0699150000" lon="0.6634320000"><ele>444</ele><time>2025-12-07T08:30:40Z</time></trkpt>
<trkpt lat="43.0699100000" lon="0.6634050000"><ele>444</ele><time>2025-12-07T08:30:41Z</time></trkpt>
<trkpt lat="43.0699000000" lon="0.6633720000"><ele>444</ele><time>2025-12-07T08:30:43Z</time></trkpt>
<trkpt lat="43.0699220000" lon="0.6633470000"><ele>445</ele><time>2025-12-07T08:30:47Z</time></trkpt>
<trkpt lat="43.0699400000" lon="0.6633370000"><ele>445</ele><time>2025-12-07T08:30:49Z</time></trkpt>
<trkpt lat="43.0699570000" lon="0.6633270000"><ele>445</ele><time>2025-12-07T08:30:51Z</time></trkpt>
<trkpt lat="43.0699720000" lon="0.6633050000"><ele>445</ele><time>2025-12-07T08:30:53Z</time></trkpt>
<trkpt lat="43.0699820000" lon="0.6632820000"><ele>444</ele><time>2025-12-07T08:30:55Z</time></trkpt>
<trkpt lat="43.0699970000" lon="0.6632620000"><ele>445</ele><time>2025-12-07T08:30:57Z</time></trkpt>
<trkpt lat="43.0700120000" lon="0.6632350000"><ele>444</ele><time>2025-12-07T08:31:01Z</time></trkpt>
<trkpt lat="43.0700320000" lon="0.6632080000"><ele>444</ele><time>2025-12-07T08:31:04Z</time></trkpt>
<trkpt lat="43.0700570000" lon="0.6631970000"><ele>444</ele><time>2025-12-07T08:31:07Z</time></trkpt>
<trkpt lat="43.0700770000" lon="0.6632120000"><ele>444</ele><time>2025-12-07T08:31:09Z</time></trkpt>
<trkpt lat="43.0700570000" lon="0.6632020000"><ele>444</ele><time>2025-12-07T08:31:23Z</time></trkpt>
<trkpt lat="43.0700550000" lon="0.6632350000"><ele>444</ele><time>2025-12-07T08:31:33Z</time></trkpt>
<trkpt lat="43.0700300000" lon="0.6632150000"><ele>443</ele><time>2025-12-07T08:32:45Z</time></trkpt>
<trkpt lat="43.0700000000" lon="0.6631920000"><ele>444</ele><time>2025-12-07T08:32:47Z</time></trkpt>
<trkpt lat="43.0700200000" lon="0.6632000000"><ele>444</ele><time>2025-12-07T08:33:57Z</time></trkpt>
<trkpt lat="43.0700370000" lon="0.6632070000"><ele>444</ele><time>2025-12-07T08:33:58Z</time></trkpt>
<trkpt lat="43.0700700000" lon="0.6632170000"><ele>444</ele><time>2025-12-07T08:34:00Z</time></trkpt>
<trkpt lat="43.0700320000" lon="0.6632570000"><ele>443</ele><time>2025-12-07T08:34:49Z</time></trkpt>
<trkpt lat="43.0700270000" lon="0.6632930000"><ele>443</ele><time>2025-12-07T08:35:04Z</time></trkpt>
<trkpt lat="43.0700070000" lon="0.6633370000"><ele>443</ele><time>2025-12-07T08:35:06Z</time></trkpt>
<trkpt lat="43.0699950000" lon="0.6633550000"><ele>443</ele><time>2025-12-07T08:35:07Z</time></trkpt>
<trkpt lat="43.0699720000" lon="0.6633870000"><ele>443</ele><time>2025-12-07T08:35:09Z</time></trkpt>
<trkpt lat="43.0699520000" lon="0.6633970000"><ele>443</ele><time>2025-12-07T08:35:11Z</time></trkpt>
<trkpt lat="43.0699320000" lon="0.6633970000"><ele>443</ele><time>2025-12-07T08:35:13Z</time></trkpt>
<trkpt lat="43.0699050000" lon="0.6633870000"><ele>443</ele><time>2025-12-07T08:35:15Z</time></trkpt>
<trkpt lat="43.0698820000" lon="0.6633720000"><ele>443</ele><time>2025-12-07T08:35:17Z</time></trkpt>
<trkpt lat="43.0698700000" lon="0.6633470000"><ele>443</ele><time>2025-12-07T08:35:19Z</time></trkpt>
<trkpt lat="43.0698620000" lon="0.6633120000"><ele>443</ele><time>2025-12-07T08:35:21Z</time></trkpt>
<trkpt lat="43.0698520000" lon="0.6632820000"><ele>443</ele><time>2025-12-07T08:35:23Z</time></trkpt>
<trkpt lat="43.0698470000" lon="0.6632570000"><ele>444</ele><time>2025-12-07T08:35:25Z</time></trkpt>
<trkpt lat="43.0698370000" lon="0.6632320000"><ele>444</ele><time>2025-12-07T08:35:28Z</time></trkpt>
<trkpt lat="43.0698330000" lon="0.6631970000"><ele>444</ele><time>2025-12-07T08:35:31Z</time></trkpt>
<trkpt lat="43.0698200000" lon="0.6631670000"><ele>445</ele><time>2025-12-07T08:35:34Z</time></trkpt>
<trkpt lat="43.0698120000" lon="0.6631270000"><ele>445</ele><time>2025-12-07T08:35:37Z</time></trkpt>
<trkpt lat="43.0698120000" lon="0.6631000000"><ele>445</ele><time>2025-12-07T08:35:39Z</time></trkpt>
<trkpt lat="43.0698070000" lon="0.6630670000"><ele>446</ele><time>2025-12-07T08:35:42Z</time></trkpt>
<trkpt lat="43.0697970000" lon="0.6630350000"><ele>446</ele><time>2025-12-07T08:35:45Z</time></trkpt>
<trkpt lat="43.0697950000" lon="0.6630070000"><ele>446</ele><time>2025-12-07T08:35:47Z</time></trkpt>
<trkpt lat="43.0697900000" lon="0.6629770000"><ele>447</ele><time>2025-12-07T08:35:51Z</time></trkpt>
<trkpt lat="43.0697820000" lon="0.6629520000"><ele>447</ele><time>2025-12-07T08:35:54Z</time></trkpt>
<trkpt lat="43.0697720000" lon="0.6629270000"><ele>447</ele><time>2025-12-07T08:35:56Z</time></trkpt>
<trkpt lat="43.0697620000" lon="0.6628970000"><ele>447</ele><time>2025-12-07T08:35:58Z</time></trkpt>
<trkpt lat="43.0697570000" lon="0.6628720000"><ele>447</ele><time>2025-12-07T08:35:59Z</time></trkpt>
<trkpt lat="43.0697450000" lon="0.6628470000"><ele>447</ele><time>2025-12-07T08:36:01Z</time></trkpt>
<trkpt lat="43.0697570000" lon="0.6628170000"><ele>448</ele><time>2025-12-07T08:36:04Z</time></trkpt>
<trkpt lat="43.0697570000" lon="0.6627870000"><ele>448</ele><time>2025-12-07T08:36:08Z</time></trkpt>
<trkpt lat="43.0697450000" lon="0.6627570000"><ele>448</ele><time>2025-12-07T08:36:10Z</time></trkpt>
<trkpt lat="43.0697250000" lon="0.6627370000"><ele>449</ele><time>2025-12-07T08:36:12Z</time></trkpt>
<trkpt lat="43.0697370000" lon="0.6627170000"><ele>449</ele><time>2025-12-07T08:36:14Z</time></trkpt>
<trkpt lat="43.0697470000" lon="0.6626880000"><ele>449</ele><time>2025-12-07T08:36:16Z</time></trkpt>
<trkpt lat="43.0697550000" lon="0.6626620000"><ele>449</ele><time>2025-12-07T08:36:18Z</time></trkpt>
<trkpt lat="43.0697450000" lon="0.6626320000"><ele>450</ele><time>2025-12-07T08:36:21Z</time></trkpt>
<trkpt lat="43.0697320000" lon="0.6626070000"><ele>450</ele><time>2025-12-07T08:36:23Z</time></trkpt>
<trkpt lat="43.0697150000" lon="0.6625900000"><ele>450</ele><time>2025-12-07T08:36:25Z</time></trkpt>
<trkpt lat="43.0697150000" lon="0.6625620000"><ele>451</ele><time>2025-12-07T08:36:30Z</time></trkpt>
<trkpt lat="43.0696920000" lon="0.6625670000"><ele>451</ele><time>2025-12-07T08:36:33Z</time></trkpt>
<trkpt lat="43.0697020000" lon="0.6625420000"><ele>452</ele><time>2025-12-07T08:36:42Z</time></trkpt>
<trkpt lat="43.0696950000" lon="0.6625120000"><ele>452</ele><time>2025-12-07T08:36:44Z</time></trkpt>
<trkpt lat="43.0697000000" lon="0.6624870000"><ele>453</ele><time>2025-12-07T08:36:46Z</time></trkpt>
<trkpt lat="43.0696850000" lon="0.6624570000"><ele>453</ele><time>2025-12-07T08:36:49Z</time></trkpt>
<trkpt lat="43.0696750000" lon="0.6624320000"><ele>453</ele><time>2025-12-07T08:36:51Z</time></trkpt>
<trkpt lat="43.0696720000" lon="0.6624020000"><ele>454</ele><time>2025-12-07T08:36:54Z</time></trkpt>
<trkpt lat="43.0696620000" lon="0.6623720000"><ele>454</ele><time>2025-12-07T08:36:57Z</time></trkpt>
<trkpt lat="43.0696670000" lon="0.6623400000"><ele>455</ele><time>2025-12-07T08:37:04Z</time></trkpt>
<trkpt lat="43.0696620000" lon="0.6623150000"><ele>455</ele><time>2025-12-07T08:37:08Z</time></trkpt>
<trkpt lat="43.0696470000" lon="0.6622920000"><ele>456</ele><time>2025-12-07T08:37:12Z</time></trkpt>
<trkpt lat="43.0696370000" lon="0.6622620000"><ele>457</ele><time>2025-12-07T08:37:16Z</time></trkpt>
<trkpt lat="43.0696270000" lon="0.6622370000"><ele>457</ele><time>2025-12-07T08:37:20Z</time></trkpt>
<trkpt lat="43.0696300000" lon="0.6622070000"><ele>458</ele><time>2025-12-07T08:37:26Z</time></trkpt>
<trkpt lat="43.0696170000" lon="0.6621730000"><ele>458</ele><time>2025-12-07T08:37:30Z</time></trkpt>
<trkpt lat="43.0696170000" lon="0.6621420000"><ele>460</ele><time>2025-12-07T08:37:40Z</time></trkpt>
<trkpt lat="43.0696050000" lon="0.6621120000"><ele>460</ele><time>2025-12-07T08:37:42Z</time></trkpt>
<trkpt lat="43.0695970000" lon="0.6620880000"><ele>460</ele><time>2025-12-07T08:37:44Z</time></trkpt>
<trkpt lat="43.0696170000" lon="0.6620800000"><ele>460</ele><time>2025-12-07T08:37:50Z</time></trkpt>
<trkpt lat="43.0696120000" lon="0.6620500000"><ele>462</ele><time>2025-12-07T08:38:04Z</time></trkpt>
<trkpt lat="43.0696020000" lon="0.6620120000"><ele>463</ele><time>2025-12-07T08:38:06Z</time></trkpt>
<trkpt lat="43.0695920000" lon="0.6619770000"><ele>463</ele><time>2025-12-07T08:38:08Z</time></trkpt>
<trkpt lat="43.0695820000" lon="0.6619520000"><ele>463</ele><time>2025-12-07T08:38:10Z</time></trkpt>
<trkpt lat="43.0695820000" lon="0.6619220000"><ele>463</ele><time>2025-12-07T08:38:12Z</time></trkpt>
<trkpt lat="43.0695820000" lon="0.6618920000"><ele>465</ele><time>2025-12-07T08:38:23Z</time></trkpt>
<trkpt lat="43.0695820000" lon="0.6618550000"><ele>465</ele><time>2025-12-07T08:38:26Z</time></trkpt>
<trkpt lat="43.0695870000" lon="0.6618270000"><ele>465</ele><time>2025-12-07T08:38:28Z</time></trkpt>
<trkpt lat="43.0695900000" lon="0.6617950000"><ele>466</ele><time>2025-12-07T08:38:30Z</time></trkpt>
<trkpt lat="43.0696070000" lon="0.6617770000"><ele>466</ele><time>2025-12-07T08:38:33Z</time></trkpt>
<trkpt lat="43.0696220000" lon="0.6617480000"><ele>467</ele><time>2025-12-07T08:38:37Z</time></trkpt>
<trkpt lat="43.0696350000" lon="0.6617250000"><ele>467</ele><time>2025-12-07T08:38:39Z</time></trkpt>
<trkpt lat="43.0696520000" lon="0.6617150000"><ele>467</ele><time>2025-12-07T08:38:41Z</time></trkpt>
<trkpt lat="43.0696700000" lon="0.6617120000"><ele>467</ele><time>2025-12-07T08:38:43Z</time></trkpt>
<trkpt lat="43.0696820000" lon="0.6616920000"><ele>467</ele><time>2025-12-07T08:38:46Z</time></trkpt>
<trkpt lat="43.0697050000" lon="0.6616820000"><ele>468</ele><time>2025-12-07T08:38:49Z</time></trkpt>
<trkpt lat="43.0697320000" lon="0.6616720000"><ele>468</ele><time>2025-12-07T08:38:52Z</time></trkpt>
<trkpt lat="43.0697500000" lon="0.6616750000"><ele>469</ele><time>2025-12-07T08:38:54Z</time></trkpt>
<trkpt lat="43.0697630000" lon="0.6616600000"><ele>469</ele><time>2025-12-07T08:38:57Z</time></trkpt>
<trkpt lat="43.0697820000" lon="0.6616420000"><ele>469</ele><time>2025-12-07T08:38:59Z</time></trkpt>
<trkpt lat="43.0698020000" lon="0.6616320000"><ele>469</ele><time>2025-12-07T08:39:02Z</time></trkpt>
<trkpt lat="43.0698320000" lon="0.6616320000"><ele>470</ele><time>2025-12-07T08:39:05Z</time></trkpt>
<trkpt lat="43.0698520000" lon="0.6616250000"><ele>470</ele><time>2025-12-07T08:39:07Z</time></trkpt>
<trkpt lat="43.0698470000" lon="0.6616480000"><ele>470</ele><time>2025-12-07T08:39:13Z</time></trkpt>
<trkpt lat="43.0698720000" lon="0.6616570000"><ele>470</ele><time>2025-12-07T08:39:15Z</time></trkpt>
<trkpt lat="43.0699050000" lon="0.6616620000"><ele>470</ele><time>2025-12-07T08:39:18Z</time></trkpt>
<trkpt lat="43.0699220000" lon="0.6616620000"><ele>470</ele><time>2025-12-07T08:39:19Z</time></trkpt>
<trkpt lat="43.0699420000" lon="0.6616620000"><ele>470</ele><time>2025-12-07T08:39:20Z</time></trkpt>
<trkpt lat="43.0699420000" lon="0.6616350000"><ele>471</ele><time>2025-12-07T08:39:31Z</time></trkpt>
<trkpt lat="43.0699570000" lon="0.6616070000"><ele>471</ele><time>2025-12-07T08:39:33Z</time></trkpt>
<trkpt lat="43.0699770000" lon="0.6615900000"><ele>471</ele><time>2025-12-07T08:39:35Z</time></trkpt>
<trkpt lat="43.0699970000" lon="0.6615820000"><ele>471</ele><time>2025-12-07T08:39:37Z</time></trkpt>
<trkpt lat="43.0700170000" lon="0.6615820000"><ele>471</ele><time>2025-12-07T08:39:40Z</time></trkpt>
<trkpt lat="43.0700350000" lon="0.6615820000"><ele>471</ele><time>2025-12-07T08:39:42Z</time></trkpt>
<trkpt lat="43.0700520000" lon="0.6615900000"><ele>471</ele><time>2025-12-07T08:39:44Z</time></trkpt>
<trkpt lat="43.0700720000" lon="0.6615970000"><ele>471</ele><time>2025-12-07T08:39:46Z</time></trkpt>
<trkpt lat="43.0700950000" lon="0.6616020000"><ele>471</ele><time>2025-12-07T08:39:49Z</time></trkpt>
<trkpt lat="43.0701170000" lon="0.6616000000"><ele>470</ele><time>2025-12-07T08:39:52Z</time></trkpt>
<trkpt lat="43.0701370000" lon="0.6615820000"><ele>470</ele><time>2025-12-07T08:39:54Z</time></trkpt>
<trkpt lat="43.0701570000" lon="0.6615670000"><ele>471</ele><time>2025-12-07T08:39:57Z</time></trkpt>
<trkpt lat="43.0701720000" lon="0.6615450000"><ele>471</ele><time>2025-12-07T08:40:02Z</time></trkpt>
<trkpt lat="43.0701850000" lon="0.6615670000"><ele>471</ele><time>2025-12-07T08:40:06Z</time></trkpt>
<trkpt lat="43.0701950000" lon="0.6615470000"><ele>470</ele><time>2025-12-07T08:40:24Z</time></trkpt>
<trkpt lat="43.0701750000" lon="0.6615400000"><ele>470</ele><time>2025-12-07T08:40:45Z</time></trkpt>
<trkpt lat="43.0701550000" lon="0.6615420000"><ele>471</ele><time>2025-12-07T08:40:47Z</time></trkpt>
<trkpt lat="43.0701320000" lon="0.6615420000"><ele>470</ele><time>2025-12-07T08:40:49Z</time></trkpt>
<trkpt lat="43.0701100000" lon="0.6615370000"><ele>471</ele><time>2025-12-07T08:40:52Z</time></trkpt>
<trkpt lat="43.0700870000" lon="0.6615480000"><ele>471</ele><time>2025-12-07T08:40:55Z</time></trkpt>
<trkpt lat="43.0700670000" lon="0.6615680000"><ele>471</ele><time>2025-12-07T08:40:57Z</time></trkpt>
<trkpt lat="43.0700420000" lon="0.6615850000"><ele>471</ele><time>2025-12-07T08:40:59Z</time></trkpt>
<trkpt lat="43.0700200000" lon="0.6615920000"><ele>471</ele><time>2025-12-07T08:41:01Z</time></trkpt>
<trkpt lat="43.0699970000" lon="0.6616070000"><ele>471</ele><time>2025-12-07T08:41:03Z</time></trkpt>
<trkpt lat="43.0699770000" lon="0.6616130000"><ele>471</ele><time>2025-12-07T08:41:05Z</time></trkpt>
<trkpt lat="43.0699550000" lon="0.6616220000"><ele>471</ele><time>2025-12-07T08:41:07Z</time></trkpt>
<trkpt lat="43.0699370000" lon="0.6616370000"><ele>471</ele><time>2025-12-07T08:41:10Z</time></trkpt>
<trkpt lat="43.0699120000" lon="0.6616570000"><ele>471</ele><time>2025-12-07T08:41:12Z</time></trkpt>
<trkpt lat="43.0698870000" lon="0.6616670000"><ele>471</ele><time>2025-12-07T08:41:14Z</time></trkpt>
<trkpt lat="43.0698620000" lon="0.6616770000"><ele>471</ele><time>2025-12-07T08:41:16Z</time></trkpt>
<trkpt lat="43.0698450000" lon="0.6616620000"><ele>471</ele><time>2025-12-07T08:41:18Z</time></trkpt>
<trkpt lat="43.0698250000" lon="0.6616550000"><ele>471</ele><time>2025-12-07T08:41:20Z</time></trkpt>
<trkpt lat="43.0698100000" lon="0.6616370000"><ele>471</ele><time>2025-12-07T08:41:23Z</time></trkpt>
<trkpt lat="43.0697920000" lon="0.6616300000"><ele>472</ele><time>2025-12-07T08:41:26Z</time></trkpt>
<trkpt lat="43.0697850000" lon="0.6616020000"><ele>472</ele><time>2025-12-07T08:41:30Z</time></trkpt>
<trkpt lat="43.0697670000" lon="0.6615970000"><ele>473</ele><time>2025-12-07T08:41:35Z</time></trkpt>
<trkpt lat="43.0697370000" lon="0.6615950000"><ele>474</ele><time>2025-12-07T08:41:40Z</time></trkpt>
<trkpt lat="43.0697220000" lon="0.6615750000"><ele>475</ele><time>2025-12-07T08:41:49Z</time></trkpt>
<trkpt lat="43.0697070000" lon="0.6615600000"><ele>476</ele><time>2025-12-07T08:41:52Z</time></trkpt>
<trkpt lat="43.0696920000" lon="0.6615370000"><ele>477</ele><time>2025-12-07T08:42:01Z</time></trkpt>
<trkpt lat="43.0696750000" lon="0.6615020000"><ele>478</ele><time>2025-12-07T08:42:03Z</time></trkpt>
<trkpt lat="43.0696570000" lon="0.6614770000"><ele>478</ele><time>2025-12-07T08:42:05Z</time></trkpt>
<trkpt lat="43.0696220000" lon="0.6614750000"><ele>478</ele><time>2025-12-07T08:42:09Z</time></trkpt>
<trkpt lat="43.0696120000" lon="0.6615050000"><ele>478</ele><time>2025-12-07T08:42:12Z</time></trkpt>
<trkpt lat="43.0695920000" lon="0.6615070000"><ele>478</ele><time>2025-12-07T08:42:14Z</time></trkpt>
<trkpt lat="43.0695770000" lon="0.6614900000"><ele>479</ele><time>2025-12-07T08:42:17Z</time></trkpt>
<trkpt lat="43.0695620000" lon="0.6614620000"><ele>479</ele><time>2025-12-07T08:42:20Z</time></trkpt>
<trkpt lat="43.0695450000" lon="0.6614520000"><ele>480</ele><time>2025-12-07T08:42:39Z</time></trkpt>
<trkpt lat="43.0695170000" lon="0.6614400000"><ele>480</ele><time>2025-12-07T08:42:41Z</time></trkpt>
<trkpt lat="43.0695000000" lon="0.6614270000"><ele>480</ele><time>2025-12-07T08:42:43Z</time></trkpt>
<trkpt lat="43.0694870000" lon="0.6614050000"><ele>481</ele><time>2025-12-07T08:42:46Z</time></trkpt>
<trkpt lat="43.0694670000" lon="0.6613850000"><ele>481</ele><time>2025-12-07T08:42:50Z</time></trkpt>
<trkpt lat="43.0694520000" lon="0.6613670000"><ele>482</ele><time>2025-12-07T08:42:55Z</time></trkpt>
<trkpt lat="43.0694320000" lon="0.6613700000"><ele>482</ele><time>2025-12-07T08:42:57Z</time></trkpt>
<trkpt lat="43.0694400000" lon="0.6613420000"><ele>482</ele><time>2025-12-07T08:43:00Z</time></trkpt>
<trkpt lat="43.0694450000" lon="0.6613150000"><ele>483</ele><time>2025-12-07T08:43:03Z</time></trkpt>
<trkpt lat="43.0694620000" lon="0.6612970000"><ele>483</ele><time>2025-12-07T08:43:08Z</time></trkpt>
<trkpt lat="43.0694770000" lon="0.6612770000"><ele>483</ele><time>2025-12-07T08:43:11Z</time></trkpt>
<trkpt lat="43.0694870000" lon="0.6612550000"><ele>484</ele><time>2025-12-07T08:43:13Z</time></trkpt>
<trkpt lat="43.0695020000" lon="0.6612370000"><ele>484</ele><time>2025-12-07T08:43:16Z</time></trkpt>
<trkpt lat="43.0695120000" lon="0.6612170000"><ele>485</ele><time>2025-12-07T08:43:21Z</time></trkpt>
<trkpt lat="43.0695170000" lon="0.6611900000"><ele>485</ele><time>2025-12-07T08:43:24Z</time></trkpt>
<trkpt lat="43.0695370000" lon="0.6611770000"><ele>486</ele><time>2025-12-07T08:43:29Z</time></trkpt>
<trkpt lat="43.0695650000" lon="0.6611670000"><ele>486</ele><time>2025-12-07T08:43:34Z</time></trkpt>
<trkpt lat="43.0695450000" lon="0.6611620000"><ele>488</ele><time>2025-12-07T08:43:55Z</time></trkpt>
<trkpt lat="43.0695220000" lon="0.6611470000"><ele>489</ele><time>2025-12-07T08:43:58Z</time></trkpt>
<trkpt lat="43.0694970000" lon="0.6611300000"><ele>492</ele><time>2025-12-07T08:44:22Z</time></trkpt>
<trkpt lat="43.0694820000" lon="0.6611170000"><ele>492</ele><time>2025-12-07T08:44:23Z</time></trkpt>
<trkpt lat="43.0694620000" lon="0.6610970000"><ele>492</ele><time>2025-12-07T08:44:24Z</time></trkpt>
<trkpt lat="43.0694420000" lon="0.6610800000"><ele>492</ele><time>2025-12-07T08:44:25Z</time></trkpt>
<trkpt lat="43.0694270000" lon="0.6610620000"><ele>492</ele><time>2025-12-07T08:44:26Z</time></trkpt>
<trkpt lat="43.0694070000" lon="0.6610350000"><ele>493</ele><time>2025-12-07T08:44:28Z</time></trkpt>
<trkpt lat="43.0694020000" lon="0.6610120000"><ele>493</ele><time>2025-12-07T08:44:31Z</time></trkpt>
<trkpt lat="43.0693820000" lon="0.6610070000"><ele>494</ele><time>2025-12-07T08:44:34Z</time></trkpt>
<trkpt lat="43.0693620000" lon="0.6609870000"><ele>494</ele><time>2025-12-07T08:44:37Z</time></trkpt>
<trkpt lat="43.0693470000" lon="0.6609670000"><ele>494</ele><time>2025-12-07T08:44:40Z</time></trkpt>
<trkpt lat="43.0693270000" lon="0.6609570000"><ele>494</ele><time>2025-12-07T08:44:43Z</time></trkpt>
<trkpt lat="43.0693070000" lon="0.6609400000"><ele>495</ele><time>2025-12-07T08:44:46Z</time></trkpt>
<trkpt lat="43.0692900000" lon="0.6609220000"><ele>496</ele><time>2025-12-07T08:44:50Z</time></trkpt>
<trkpt lat="43.0692770000" lon="0.6609020000"><ele>496</ele><time>2025-12-07T08:44:54Z</time></trkpt>
<trkpt lat="43.0692720000" lon="0.6608770000"><ele>496</ele><time>2025-12-07T08:44:57Z</time></trkpt>
<trkpt lat="43.0692600000" lon="0.6608530000"><ele>497</ele><time>2025-12-07T08:45:02Z</time></trkpt>
<trkpt lat="43.0692570000" lon="0.6608300000"><ele>497</ele><time>2025-12-07T08:45:05Z</time></trkpt>
<trkpt lat="43.0692720000" lon="0.6607920000"><ele>498</ele><time>2025-12-07T08:45:08Z</time></trkpt>
<trkpt lat="43.0692820000" lon="0.6607670000"><ele>498</ele><time>2025-12-07T08:45:10Z</time></trkpt>
<trkpt lat="43.0693070000" lon="0.6607600000"><ele>499</ele><time>2025-12-07T08:45:13Z</time></trkpt>
<trkpt lat="43.0693300000" lon="0.6607520000"><ele>499</ele><time>2025-12-07T08:45:16Z</time></trkpt>
<trkpt lat="43.0693420000" lon="0.6607350000"><ele>500</ele><time>2025-12-07T08:45:20Z</time></trkpt>
<trkpt lat="43.0693670000" lon="0.6607250000"><ele>500</ele><time>2025-12-07T08:45:25Z</time></trkpt>
<trkpt lat="43.0693920000" lon="0.6607150000"><ele>501</ele><time>2025-12-07T08:45:30Z</time></trkpt>
<trkpt lat="43.0694070000" lon="0.6606980000"><ele>502</ele><time>2025-12-07T08:45:38Z</time></trkpt>
<trkpt lat="43.0694200000" lon="0.6606770000"><ele>502</ele><time>2025-12-07T08:45:41Z</time></trkpt>
<trkpt lat="43.0694220000" lon="0.6606470000"><ele>504</ele><time>2025-12-07T08:45:58Z</time></trkpt>
<trkpt lat="43.0694120000" lon="0.6606070000"><ele>505</ele><time>2025-12-07T08:46:00Z</time></trkpt>
<trkpt lat="43.0694120000" lon="0.6605770000"><ele>505</ele><time>2025-12-07T08:46:01Z</time></trkpt>
<trkpt lat="43.0694220000" lon="0.6605470000"><ele>505</ele><time>2025-12-07T08:46:03Z</time></trkpt>
<trkpt lat="43.0694320000" lon="0.6605220000"><ele>505</ele><time>2025-12-07T08:46:05Z</time></trkpt>
<trkpt lat="43.0694500000" lon="0.6605070000"><ele>506</ele><time>2025-12-07T08:46:10Z</time></trkpt>
<trkpt lat="43.0694570000" lon="0.6604850000"><ele>507</ele><time>2025-12-07T08:46:14Z</time></trkpt>
<trkpt lat="43.0694770000" lon="0.6604720000"><ele>507</ele><time>2025-12-07T08:46:16Z</time></trkpt>
<trkpt lat="43.0694920000" lon="0.6604520000"><ele>507</ele><time>2025-12-07T08:46:19Z</time></trkpt>
<trkpt lat="43.0695100000" lon="0.6604270000"><ele>507</ele><time>2025-12-07T08:46:23Z</time></trkpt>
<trkpt lat="43.0695220000" lon="0.6604050000"><ele>508</ele><time>2025-12-07T08:46:26Z</time></trkpt>
<trkpt lat="43.0694970000" lon="0.6604200000"><ele>509</ele><time>2025-12-07T08:46:30Z</time></trkpt>
<trkpt lat="43.0694920000" lon="0.6603850000"><ele>511</ele><time>2025-12-07T08:47:02Z</time></trkpt>
<trkpt lat="43.0694920000" lon="0.6603570000"><ele>511</ele><time>2025-12-07T08:47:03Z</time></trkpt>
<trkpt lat="43.0694920000" lon="0.6603320000"><ele>511</ele><time>2025-12-07T08:47:04Z</time></trkpt>
<trkpt lat="43.0694920000" lon="0.6602920000"><ele>511</ele><time>2025-12-07T08:47:06Z</time></trkpt>
<trkpt lat="43.0694950000" lon="0.6602650000"><ele>511</ele><time>2025-12-07T08:47:08Z</time></trkpt>
<trkpt lat="43.0694950000" lon="0.6602350000"><ele>512</ele><time>2025-12-07T08:47:11Z</time></trkpt>
<trkpt lat="43.0694770000" lon="0.6602050000"><ele>512</ele><time>2025-12-07T08:47:14Z</time></trkpt>
<trkpt lat="43.0694720000" lon="0.6601750000"><ele>513</ele><time>2025-12-07T08:47:16Z</time></trkpt>
<trkpt lat="43.0694620000" lon="0.6601500000"><ele>513</ele><time>2025-12-07T08:47:19Z</time></trkpt>
<trkpt lat="43.0694670000" lon="0.6601200000"><ele>513</ele><time>2025-12-07T08:47:22Z</time></trkpt>
<trkpt lat="43.0694670000" lon="0.6600950000"><ele>514</ele><time>2025-12-07T08:47:24Z</time></trkpt>
<trkpt lat="43.0694720000" lon="0.6600620000"><ele>514</ele><time>2025-12-07T08:47:27Z</time></trkpt>
<trkpt lat="43.0694850000" lon="0.6600470000"><ele>514</ele><time>2025-12-07T08:47:29Z</time></trkpt>
<trkpt lat="43.0695020000" lon="0.6600370000"><ele>515</ele><time>2025-12-07T08:47:31Z</time></trkpt>
<trkpt lat="43.0695200000" lon="0.6600200000"><ele>515</ele><time>2025-12-07T08:47:33Z</time></trkpt>
<trkpt lat="43.0695370000" lon="0.6600080000"><ele>515</ele><time>2025-12-07T08:47:37Z</time></trkpt>
<trkpt lat="43.0695470000" lon="0.6599870000"><ele>516</ele><time>2025-12-07T08:47:41Z</time></trkpt>
<trkpt lat="43.0695620000" lon="0.6599650000"><ele>517</ele><time>2025-12-07T08:47:44Z</time></trkpt>
<trkpt lat="43.0695800000" lon="0.6599470000"><ele>517</ele><time>2025-12-07T08:47:48Z</time></trkpt>
<trkpt lat="43.0695820000" lon="0.6599170000"><ele>517</ele><time>2025-12-07T08:47:52Z</time></trkpt>
<trkpt lat="43.0695970000" lon="0.6599000000"><ele>518</ele><time>2025-12-07T08:47:54Z</time></trkpt>
<trkpt lat="43.0696080000" lon="0.6598770000"><ele>518</ele><time>2025-12-07T08:47:58Z</time></trkpt>
<trkpt lat="43.0696220000" lon="0.6598520000"><ele>519</ele><time>2025-12-07T08:48:00Z</time></trkpt>
<trkpt lat="43.0696400000" lon="0.6598330000"><ele>520</ele><time>2025-12-07T08:48:05Z</time></trkpt>
<trkpt lat="43.0696520000" lon="0.6598150000"><ele>520</ele><time>2025-12-07T08:48:08Z</time></trkpt>
<trkpt lat="43.0696770000" lon="0.6598070000"><ele>521</ele><time>2025-12-07T08:48:13Z</time></trkpt>
<trkpt lat="43.0697020000" lon="0.6598120000"><ele>521</ele><time>2025-12-07T08:48:16Z</time></trkpt>
<trkpt lat="43.0697200000" lon="0.6598020000"><ele>522</ele><time>2025-12-07T08:48:18Z</time></trkpt>
<trkpt lat="43.0697400000" lon="0.6598070000"><ele>522</ele><time>2025-12-07T08:48:21Z</time></trkpt>
<trkpt lat="43.0697570000" lon="0.6597920000"><ele>522</ele><time>2025-12-07T08:48:23Z</time></trkpt>
<trkpt lat="43.0697600000" lon="0.6597670000"><ele>523</ele><time>2025-12-07T08:48:26Z</time></trkpt>
<trkpt lat="43.0697750000" lon="0.6597500000"><ele>523</ele><time>2025-12-07T08:48:32Z</time></trkpt>
<trkpt lat="43.0697700000" lon="0.6597220000"><ele>524</ele><time>2025-12-07T08:48:36Z</time></trkpt>
<trkpt lat="43.0697750000" lon="0.6596970000"><ele>528</ele><time>2025-12-07T08:49:06Z</time></trkpt>
<trkpt lat="43.0697820000" lon="0.6596700000"><ele>528</ele><time>2025-12-07T08:49:07Z</time></trkpt>
<trkpt lat="43.0697870000" lon="0.6596350000"><ele>528</ele><time>2025-12-07T08:49:08Z</time></trkpt>
<trkpt lat="43.0697920000" lon="0.6596020000"><ele>528</ele><time>2025-12-07T08:49:09Z</time></trkpt>
<trkpt lat="43.0697970000" lon="0.6595770000"><ele>528</ele><time>2025-12-07T08:49:10Z</time></trkpt>
<trkpt lat="43.0698070000" lon="0.6595520000"><ele>528</ele><time>2025-12-07T08:49:12Z</time></trkpt>
<trkpt lat="43.0698050000" lon="0.6595220000"><ele>529</ele><time>2025-12-07T08:49:16Z</time></trkpt>
<trkpt lat="43.0698100000" lon="0.6594920000"><ele>530</ele><time>2025-12-07T08:49:25Z</time></trkpt>
<trkpt lat="43.0698200000" lon="0.6594620000"><ele>531</ele><time>2025-12-07T08:49:27Z</time></trkpt>
<trkpt lat="43.0698270000" lon="0.6594370000"><ele>531</ele><time>2025-12-07T08:49:29Z</time></trkpt>
<trkpt lat="43.0698500000" lon="0.6594120000"><ele>531</ele><time>2025-12-07T08:49:31Z</time></trkpt>
<trkpt lat="43.0698720000" lon="0.6593870000"><ele>531</ele><time>2025-12-07T08:49:32Z</time></trkpt>
<trkpt lat="43.0698870000" lon="0.6593700000"><ele>531</ele><time>2025-12-07T08:49:35Z</time></trkpt>
<trkpt lat="43.0698650000" lon="0.6593280000"><ele>532</ele><time>2025-12-07T08:49:39Z</time></trkpt>
<trkpt lat="43.0698470000" lon="0.6593220000"><ele>532</ele><time>2025-12-07T08:49:41Z</time></trkpt>
<trkpt lat="43.0698270000" lon="0.6593080000"><ele>532</ele><time>2025-12-07T08:49:44Z</time></trkpt>
<trkpt lat="43.0698400000" lon="0.6593370000"><ele>532</ele><time>2025-12-07T08:50:31Z</time></trkpt>
<trkpt lat="43.0698650000" lon="0.6593550000"><ele>532</ele><time>2025-12-07T08:50:33Z</time></trkpt>
<trkpt lat="43.0698870000" lon="0.6593520000"><ele>532</ele><time>2025-12-07T08:50:35Z</time></trkpt>
<trkpt lat="43.0699020000" lon="0.6593350000"><ele>532</ele><time>2025-12-07T08:50:38Z</time></trkpt>
<trkpt lat="43.0699050000" lon="0.6593670000"><ele>532</ele><time>2025-12-07T08:51:52Z</time></trkpt>
<trkpt lat="43.0698820000" lon="0.6593820000"><ele>532</ele><time>2025-12-07T08:51:54Z</time></trkpt>
<trkpt lat="43.0698600000" lon="0.6593920000"><ele>532</ele><time>2025-12-07T08:51:56Z</time></trkpt>
<trkpt lat="43.0698470000" lon="0.6593720000"><ele>532</ele><time>2025-12-07T08:52:00Z</time></trkpt>
<trkpt lat="43.0698470000" lon="0.6593420000"><ele>532</ele><time>2025-12-07T08:52:15Z</time></trkpt>
<trkpt lat="43.0698550000" lon="0.6593170000"><ele>533</ele><time>2025-12-07T08:52:17Z</time></trkpt>
<trkpt lat="43.0698670000" lon="0.6593000000"><ele>533</ele><time>2025-12-07T08:52:20Z</time></trkpt>
<trkpt lat="43.0698970000" lon="0.6592920000"><ele>534</ele><time>2025-12-07T08:52:23Z</time></trkpt>
<trkpt lat="43.0699150000" lon="0.6592770000"><ele>534</ele><time>2025-12-07T08:52:27Z</time></trkpt>
<trkpt lat="43.0699250000" lon="0.6592470000"><ele>535</ele><time>2025-12-07T08:52:34Z</time></trkpt>
<trkpt lat="43.0699370000" lon="0.6592230000"><ele>536</ele><time>2025-12-07T08:52:37Z</time></trkpt>
<trkpt lat="43.0699370000" lon="0.6591930000"><ele>536</ele><time>2025-12-07T08:52:41Z</time></trkpt>
<trkpt lat="43.0699570000" lon="0.6591620000"><ele>537</ele><time>2025-12-07T08:52:48Z</time></trkpt>
<trkpt lat="43.0699670000" lon="0.6591220000"><ele>539</ele><time>2025-12-07T08:53:07Z</time></trkpt>
<trkpt lat="43.0699770000" lon="0.6590970000"><ele>540</ele><time>2025-12-07T08:53:08Z</time></trkpt>
<trkpt lat="43.0699880000" lon="0.6590650000"><ele>540</ele><time>2025-12-07T08:53:09Z</time></trkpt>
<trkpt lat="43.0700020000" lon="0.6590370000"><ele>540</ele><time>2025-12-07T08:53:10Z</time></trkpt>
<trkpt lat="43.0700150000" lon="0.6589970000"><ele>540</ele><time>2025-12-07T08:53:12Z</time></trkpt>
<trkpt lat="43.0700270000" lon="0.6589770000"><ele>541</ele><time>2025-12-07T08:53:15Z</time></trkpt>
<trkpt lat="43.0700320000" lon="0.6589420000"><ele>542</ele><time>2025-12-07T08:53:36Z</time></trkpt>
<trkpt lat="43.0700400000" lon="0.6589170000"><ele>543</ele><time>2025-12-07T08:53:41Z</time></trkpt>
<trkpt lat="43.0700420000" lon="0.6588850000"><ele>544</ele><time>2025-12-07T08:53:44Z</time></trkpt>
<trkpt lat="43.0700420000" lon="0.6588530000"><ele>544</ele><time>2025-12-07T08:53:46Z</time></trkpt>
<trkpt lat="43.0700450000" lon="0.6588250000"><ele>544</ele><time>2025-12-07T08:53:48Z</time></trkpt>
<trkpt lat="43.0700420000" lon="0.6588000000"><ele>545</ele><time>2025-12-07T08:53:50Z</time></trkpt>
<trkpt lat="43.0700550000" lon="0.6587720000"><ele>545</ele><time>2025-12-07T08:53:52Z</time></trkpt>
<trkpt lat="43.0700670000" lon="0.6587450000"><ele>545</ele><time>2025-12-07T08:53:56Z</time></trkpt>
<trkpt lat="43.0700720000" lon="0.6587220000"><ele>546</ele><time>2025-12-07T08:54:00Z</time></trkpt>
<trkpt lat="43.0700950000" lon="0.6587220000"><ele>546</ele><time>2025-12-07T08:54:04Z</time></trkpt>
<trkpt lat="43.0700920000" lon="0.6586870000"><ele>547</ele><time>2025-12-07T08:54:09Z</time></trkpt>
<trkpt lat="43.0700920000" lon="0.6586600000"><ele>548</ele><time>2025-12-07T08:54:12Z</time></trkpt>
<trkpt lat="43.0700870000" lon="0.6586330000"><ele>548</ele><time>2025-12-07T08:54:15Z</time></trkpt>
<trkpt lat="43.0701020000" lon="0.6586120000"><ele>549</ele><time>2025-12-07T08:54:19Z</time></trkpt>
<trkpt lat="43.0701220000" lon="0.6585820000"><ele>550</ele><time>2025-12-07T08:54:24Z</time></trkpt>
<trkpt lat="43.0701370000" lon="0.6585570000"><ele>550</ele><time>2025-12-07T08:54:26Z</time></trkpt>
<trkpt lat="43.0701670000" lon="0.6585220000"><ele>552</ele><time>2025-12-07T08:54:42Z</time></trkpt>
<trkpt lat="43.0701870000" lon="0.6584950000"><ele>552</ele><time>2025-12-07T08:54:43Z</time></trkpt>
<trkpt lat="43.0702070000" lon="0.6584620000"><ele>552</ele><time>2025-12-07T08:54:44Z</time></trkpt>
<trkpt lat="43.0702270000" lon="0.6584370000"><ele>552</ele><time>2025-12-07T08:54:45Z</time></trkpt>
<trkpt lat="43.0702470000" lon="0.6584120000"><ele>552</ele><time>2025-12-07T08:54:47Z</time></trkpt>
<trkpt lat="43.0702650000" lon="0.6584150000"><ele>553</ele><time>2025-12-07T08:54:53Z</time></trkpt>
<trkpt lat="43.0702800000" lon="0.6583900000"><ele>553</ele><time>2025-12-07T08:54:57Z</time></trkpt>
<trkpt lat="43.0703000000" lon="0.6583720000"><ele>554</ele><time>2025-12-07T08:55:05Z</time></trkpt>
<trkpt lat="43.0703170000" lon="0.6583520000"><ele>554</ele><time>2025-12-07T08:55:21Z</time></trkpt>
<trkpt lat="43.0703420000" lon="0.6583220000"><ele>554</ele><time>2025-12-07T08:55:23Z</time></trkpt>
<trkpt lat="43.0703320000" lon="0.6583470000"><ele>555</ele><time>2025-12-07T08:55:28Z</time></trkpt>
<trkpt lat="43.0703270000" lon="0.6583220000"><ele>555</ele><time>2025-12-07T08:55:30Z</time></trkpt>
<trkpt lat="43.0703420000" lon="0.6583070000"><ele>556</ele><time>2025-12-07T08:55:40Z</time></trkpt>
<trkpt lat="43.0703570000" lon="0.6582870000"><ele>557</ele><time>2025-12-07T08:55:44Z</time></trkpt>
<trkpt lat="43.0703470000" lon="0.6582520000"><ele>558</ele><time>2025-12-07T08:55:49Z</time></trkpt>
<trkpt lat="43.0703400000" lon="0.6582250000"><ele>558</ele><time>2025-12-07T08:55:50Z</time></trkpt>
<trkpt lat="43.0703270000" lon="0.6581920000"><ele>558</ele><time>2025-12-07T08:55:52Z</time></trkpt>
<trkpt lat="43.0703220000" lon="0.6581620000"><ele>559</ele><time>2025-12-07T08:55:59Z</time></trkpt>
<trkpt lat="43.0703370000" lon="0.6581320000"><ele>561</ele><time>2025-12-07T08:56:15Z</time></trkpt>
<trkpt lat="43.0703450000" lon="0.6580970000"><ele>561</ele><time>2025-12-07T08:56:17Z</time></trkpt>
<trkpt lat="43.0703420000" lon="0.6580670000"><ele>562</ele><time>2025-12-07T08:56:20Z</time></trkpt>
<trkpt lat="43.0703500000" lon="0.6580420000"><ele>562</ele><time>2025-12-07T08:56:23Z</time></trkpt>
<trkpt lat="43.0703470000" lon="0.6580170000"><ele>563</ele><time>2025-12-07T08:56:27Z</time></trkpt>
<trkpt lat="43.0703570000" lon="0.6579970000"><ele>564</ele><time>2025-12-07T08:56:30Z</time></trkpt>
<trkpt lat="43.0703520000" lon="0.6579720000"><ele>564</ele><time>2025-12-07T08:56:36Z</time></trkpt>
<trkpt lat="43.0703470000" lon="0.6579370000"><ele>566</ele><time>2025-12-07T08:56:46Z</time></trkpt>
<trkpt lat="43.0703470000" lon="0.6579020000"><ele>566</ele><time>2025-12-07T08:56:48Z</time></trkpt>
<trkpt lat="43.0703570000" lon="0.6578570000"><ele>566</ele><time>2025-12-07T08:56:50Z</time></trkpt>
<trkpt lat="43.0703620000" lon="0.6578200000"><ele>566</ele><time>2025-12-07T08:56:52Z</time></trkpt>
<trkpt lat="43.0703720000" lon="0.6577920000"><ele>567</ele><time>2025-12-07T08:56:54Z</time></trkpt>
<trkpt lat="43.0703870000" lon="0.6577670000"><ele>567</ele><time>2025-12-07T08:56:57Z</time></trkpt>
<trkpt lat="43.0704050000" lon="0.6577400000"><ele>567</ele><time>2025-12-07T08:57:00Z</time></trkpt>
<trkpt lat="43.0704250000" lon="0.6577170000"><ele>567</ele><time>2025-12-07T08:57:03Z</time></trkpt>
<trkpt lat="43.0704470000" lon="0.6577170000"><ele>567</ele><time>2025-12-07T08:57:05Z</time></trkpt>
<trkpt lat="43.0704620000" lon="0.6577300000"><ele>567</ele><time>2025-12-07T08:57:06Z</time></trkpt>
<trkpt lat="43.0704920000" lon="0.6577550000"><ele>567</ele><time>2025-12-07T08:57:08Z</time></trkpt>
<trkpt lat="43.0705070000" lon="0.6577650000"><ele>568</ele><time>2025-12-07T08:57:10Z</time></trkpt>
<trkpt lat="43.0705300000" lon="0.6577600000"><ele>568</ele><time>2025-12-07T08:57:12Z</time></trkpt>
<trkpt lat="43.0705470000" lon="0.6577420000"><ele>568</ele><time>2025-12-07T08:57:15Z</time></trkpt>
<trkpt lat="43.0705570000" lon="0.6577220000"><ele>568</ele><time>2025-12-07T08:57:17Z</time></trkpt>
<trkpt lat="43.0705700000" lon="0.6576720000"><ele>568</ele><time>2025-12-07T08:57:20Z</time></trkpt>
<trkpt lat="43.0705820000" lon="0.6576480000"><ele>568</ele><time>2025-12-07T08:57:22Z</time></trkpt>
<trkpt lat="43.0705970000" lon="0.6576220000"><ele>568</ele><time>2025-12-07T08:57:25Z</time></trkpt>
<trkpt lat="43.0705970000" lon="0.6575970000"><ele>568</ele><time>2025-12-07T08:57:28Z</time></trkpt>
<trkpt lat="43.0706000000" lon="0.6575620000"><ele>569</ele><time>2025-12-07T08:57:32Z</time></trkpt>
<trkpt lat="43.0706150000" lon="0.6575420000"><ele>569</ele><time>2025-12-07T08:57:35Z</time></trkpt>
<trkpt lat="43.0706220000" lon="0.6575170000"><ele>570</ele><time>2025-12-07T08:57:38Z</time></trkpt>
<trkpt lat="43.0706350000" lon="0.6574970000"><ele>570</ele><time>2025-12-07T08:57:40Z</time></trkpt>
<trkpt lat="43.0706600000" lon="0.6574770000"><ele>570</ele><time>2025-12-07T08:57:42Z</time></trkpt>
<trkpt lat="43.0706820000" lon="0.6574720000"><ele>570</ele><time>2025-12-07T08:57:45Z</time></trkpt>
<trkpt lat="43.0706950000" lon="0.6574370000"><ele>571</ele><time>2025-12-07T08:57:48Z</time></trkpt>
<trkpt lat="43.0707100000" lon="0.6574170000"><ele>571</ele><time>2025-12-07T08:57:50Z</time></trkpt>
<trkpt lat="43.0707250000" lon="0.6573920000"><ele>571</ele><time>2025-12-07T08:57:52Z</time></trkpt>
<trkpt lat="43.0707370000" lon="0.6573670000"><ele>571</ele><time>2025-12-07T08:57:55Z</time></trkpt>
<trkpt lat="43.0707570000" lon="0.6573570000"><ele>571</ele><time>2025-12-07T08:57:57Z</time></trkpt>
<trkpt lat="43.0707820000" lon="0.6573470000"><ele>571</ele><time>2025-12-07T08:57:59Z</time></trkpt>
<trkpt lat="43.0707920000" lon="0.6573170000"><ele>571</ele><time>2025-12-07T08:58:02Z</time></trkpt>
<trkpt lat="43.0707970000" lon="0.6572850000"><ele>572</ele><time>2025-12-07T08:58:04Z</time></trkpt>
<trkpt lat="43.0708220000" lon="0.6572820000"><ele>571</ele><time>2025-12-07T08:58:06Z</time></trkpt>
<trkpt lat="43.0708400000" lon="0.6572670000"><ele>572</ele><time>2025-12-07T08:58:09Z</time></trkpt>
<trkpt lat="43.0708550000" lon="0.6572430000"><ele>572</ele><time>2025-12-07T08:58:12Z</time></trkpt>
<trkpt lat="43.0708650000" lon="0.6572170000"><ele>572</ele><time>2025-12-07T08:58:16Z</time></trkpt>
<trkpt lat="43.0708720000" lon="0.6571870000"><ele>572</ele><time>2025-12-07T08:58:20Z</time></trkpt>
<trkpt lat="43.0708870000" lon="0.6571670000"><ele>572</ele><time>2025-12-07T08:58:22Z</time></trkpt>
<trkpt lat="43.0709020000" lon="0.6571280000"><ele>573</ele><time>2025-12-07T08:58:24Z</time></trkpt>
<trkpt lat="43.0709120000" lon="0.6571050000"><ele>573</ele><time>2025-12-07T08:58:26Z</time></trkpt>
<trkpt lat="43.0709200000" lon="0.6570720000"><ele>573</ele><time>2025-12-07T08:58:28Z</time></trkpt>
<trkpt lat="43.0709350000" lon="0.6570470000"><ele>573</ele><time>2025-12-07T08:58:31Z</time></trkpt>
<trkpt lat="43.0709450000" lon="0.6570270000"><ele>574</ele><time>2025-12-07T08:58:36Z</time></trkpt>
<trkpt lat="43.0709670000" lon="0.6570020000"><ele>575</ele><time>2025-12-07T08:58:41Z</time></trkpt>
<trkpt lat="43.0709770000" lon="0.6569720000"><ele>575</ele><time>2025-12-07T08:58:44Z</time></trkpt>
<trkpt lat="43.0709820000" lon="0.6569370000"><ele>576</ele><time>2025-12-07T08:58:47Z</time></trkpt>
<trkpt lat="43.0709820000" lon="0.6569070000"><ele>576</ele><time>2025-12-07T08:58:49Z</time></trkpt>
<trkpt lat="43.0709920000" lon="0.6568820000"><ele>577</ele><time>2025-12-07T08:58:54Z</time></trkpt>
<trkpt lat="43.0710000000" lon="0.6568570000"><ele>577</ele><time>2025-12-07T08:58:57Z</time></trkpt>
<trkpt lat="43.0710100000" lon="0.6568320000"><ele>578</ele><time>2025-12-07T08:59:01Z</time></trkpt>
<trkpt lat="43.0710020000" lon="0.6568070000"><ele>579</ele><time>2025-12-07T08:59:06Z</time></trkpt>
<trkpt lat="43.0709950000" lon="0.6567830000"><ele>580</ele><time>2025-12-07T08:59:14Z</time></trkpt>
<trkpt lat="43.0709800000" lon="0.6567550000"><ele>581</ele><time>2025-12-07T08:59:22Z</time></trkpt>
<trkpt lat="43.0709550000" lon="0.6567420000"><ele>582</ele><time>2025-12-07T08:59:26Z</time></trkpt>
<trkpt lat="43.0709270000" lon="0.6567570000"><ele>582</ele><time>2025-12-07T08:59:29Z</time></trkpt>
<trkpt lat="43.0709100000" lon="0.6567680000"><ele>582</ele><time>2025-12-07T08:59:32Z</time></trkpt>
<trkpt lat="43.0708950000" lon="0.6567470000"><ele>583</ele><time>2025-12-07T08:59:55Z</time></trkpt>
<trkpt lat="43.0708670000" lon="0.6567420000"><ele>584</ele><time>2025-12-07T08:59:57Z</time></trkpt>
<trkpt lat="43.0708450000" lon="0.6567320000"><ele>584</ele><time>2025-12-07T08:59:59Z</time></trkpt>
<trkpt lat="43.0708270000" lon="0.6567400000"><ele>584</ele><time>2025-12-07T09:00:01Z</time></trkpt>
<trkpt lat="43.0708020000" lon="0.6567320000"><ele>584</ele><time>2025-12-07T09:00:04Z</time></trkpt>
<trkpt lat="43.0708020000" lon="0.6567020000"><ele>584</ele><time>2025-12-07T09:00:08Z</time></trkpt>
<trkpt lat="43.0708150000" lon="0.6566770000"><ele>584</ele><time>2025-12-07T09:00:10Z</time></trkpt>
<trkpt lat="43.0708250000" lon="0.6566420000"><ele>584</ele><time>2025-12-07T09:00:13Z</time></trkpt>
<trkpt lat="43.0708320000" lon="0.6566000000"><ele>584</ele><time>2025-12-07T09:00:16Z</time></trkpt>
<trkpt lat="43.0708370000" lon="0.6565680000"><ele>584</ele><time>2025-12-07T09:00:18Z</time></trkpt>
<trkpt lat="43.0708500000" lon="0.6565470000"><ele>585</ele><time>2025-12-07T09:00:21Z</time></trkpt>
<trkpt lat="43.0708570000" lon="0.6565200000"><ele>586</ele><time>2025-12-07T09:00:24Z</time></trkpt>
<trkpt lat="43.0708800000" lon="0.6565070000"><ele>586</ele><time>2025-12-07T09:00:27Z</time></trkpt>
<trkpt lat="43.0708920000" lon="0.6564870000"><ele>586</ele><time>2025-12-07T09:00:32Z</time></trkpt>
<trkpt lat="43.0709070000" lon="0.6564670000"><ele>586</ele><time>2025-12-07T09:00:35Z</time></trkpt>
<trkpt lat="43.0709220000" lon="0.6564550000"><ele>586</ele><time>2025-12-07T09:00:39Z</time></trkpt>
<trkpt lat="43.0709470000" lon="0.6564500000"><ele>585</ele><time>2025-12-07T09:00:43Z</time></trkpt>
<trkpt lat="43.0709470000" lon="0.6564220000"><ele>586</ele><time>2025-12-07T09:00:50Z</time></trkpt>
<trkpt lat="43.0709650000" lon="0.6564020000"><ele>586</ele><time>2025-12-07T09:00:54Z</time></trkpt>
<trkpt lat="43.0709820000" lon="0.6563900000"><ele>587</ele><time>2025-12-07T09:01:06Z</time></trkpt>
<trkpt lat="43.0710120000" lon="0.6563670000"><ele>587</ele><time>2025-12-07T09:01:08Z</time></trkpt>
<trkpt lat="43.0710370000" lon="0.6563420000"><ele>587</ele><time>2025-12-07T09:01:10Z</time></trkpt>
<trkpt lat="43.0710470000" lon="0.6563170000"><ele>587</ele><time>2025-12-07T09:01:12Z</time></trkpt>
<trkpt lat="43.0710520000" lon="0.6562870000"><ele>587</ele><time>2025-12-07T09:01:15Z</time></trkpt>
<trkpt lat="43.0710420000" lon="0.6562630000"><ele>588</ele><time>2025-12-07T09:01:20Z</time></trkpt>
<trkpt lat="43.0710350000" lon="0.6562320000"><ele>588</ele><time>2025-12-07T09:01:26Z</time></trkpt>
<trkpt lat="43.0710350000" lon="0.6562050000"><ele>588</ele><time>2025-12-07T09:01:28Z</time></trkpt>
<trkpt lat="43.0710270000" lon="0.6561720000"><ele>590</ele><time>2025-12-07T09:01:53Z</time></trkpt>
<trkpt lat="43.0710150000" lon="0.6561270000"><ele>590</ele><time>2025-12-07T09:01:55Z</time></trkpt>
<trkpt lat="43.0709970000" lon="0.6560950000"><ele>590</ele><time>2025-12-07T09:01:57Z</time></trkpt>
<trkpt lat="43.0709800000" lon="0.6560670000"><ele>590</ele><time>2025-12-07T09:02:00Z</time></trkpt>
<trkpt lat="43.0709730000" lon="0.6560320000"><ele>590</ele><time>2025-12-07T09:02:03Z</time></trkpt>
<trkpt lat="43.0709670000" lon="0.6560070000"><ele>590</ele><time>2025-12-07T09:02:06Z</time></trkpt>
<trkpt lat="43.0709600000" lon="0.6559800000"><ele>590</ele><time>2025-12-07T09:02:09Z</time></trkpt>
<trkpt lat="43.0709520000" lon="0.6559570000"><ele>590</ele><time>2025-12-07T09:02:11Z</time></trkpt>
<trkpt lat="43.0709420000" lon="0.6559270000"><ele>590</ele><time>2025-12-07T09:02:14Z</time></trkpt>
<trkpt lat="43.0709300000" lon="0.6559050000"><ele>590</ele><time>2025-12-07T09:02:16Z</time></trkpt>
<trkpt lat="43.0709200000" lon="0.6558770000"><ele>590</ele><time>2025-12-07T09:02:19Z</time></trkpt>
<trkpt lat="43.0709120000" lon="0.6558420000"><ele>590</ele><time>2025-12-07T09:02:22Z</time></trkpt>
<trkpt lat="43.0709070000" lon="0.6558120000"><ele>589</ele><time>2025-12-07T09:02:25Z</time></trkpt>
<trkpt lat="43.0709000000" lon="0.6557870000"><ele>589</ele><time>2025-12-07T09:02:28Z</time></trkpt>
<trkpt lat="43.0708770000" lon="0.6557830000"><ele>589</ele><time>2025-12-07T09:02:32Z</time></trkpt>
<trkpt lat="43.0708650000" lon="0.6558120000"><ele>589</ele><time>2025-12-07T09:02:36Z</time></trkpt>
<trkpt lat="43.0708620000" lon="0.6558380000"><ele>589</ele><time>2025-12-07T09:02:39Z</time></trkpt>
<trkpt lat="43.0708450000" lon="0.6558530000"><ele>588</ele><time>2025-12-07T09:02:44Z</time></trkpt>
<trkpt lat="43.0708220000" lon="0.6558800000"><ele>587</ele><time>2025-12-07T09:02:50Z</time></trkpt>
<trkpt lat="43.0708000000" lon="0.6559000000"><ele>587</ele><time>2025-12-07T09:02:52Z</time></trkpt>
<trkpt lat="43.0707850000" lon="0.6559180000"><ele>586</ele><time>2025-12-07T09:02:54Z</time></trkpt>
<trkpt lat="43.0707670000" lon="0.6559370000"><ele>586</ele><time>2025-12-07T09:02:56Z</time></trkpt>
<trkpt lat="43.0707470000" lon="0.6559520000"><ele>586</ele><time>2025-12-07T09:02:58Z</time></trkpt>
<trkpt lat="43.0707320000" lon="0.6559700000"><ele>586</ele><time>2025-12-07T09:03:01Z</time></trkpt>
<trkpt lat="43.0707070000" lon="0.6559800000"><ele>585</ele><time>2025-12-07T09:03:04Z</time></trkpt>
<trkpt lat="43.0706750000" lon="0.6559820000"><ele>584</ele><time>2025-12-07T09:03:06Z</time></trkpt>
<trkpt lat="43.0706500000" lon="0.6559820000"><ele>584</ele><time>2025-12-07T09:03:08Z</time></trkpt>
<trkpt lat="43.0706150000" lon="0.6559620000"><ele>584</ele><time>2025-12-07T09:03:11Z</time></trkpt>
<trkpt lat="43.0705930000" lon="0.6559620000"><ele>583</ele><time>2025-12-07T09:03:13Z</time></trkpt>
<trkpt lat="43.0705820000" lon="0.6559820000"><ele>583</ele><time>2025-12-07T09:03:16Z</time></trkpt>
<trkpt lat="43.0705670000" lon="0.6560020000"><ele>583</ele><time>2025-12-07T09:03:19Z</time></trkpt>
<trkpt lat="43.0705470000" lon="0.6559920000"><ele>582</ele><time>2025-12-07T09:03:23Z</time></trkpt>
<trkpt lat="43.0705270000" lon="0.6559850000"><ele>582</ele><time>2025-12-07T09:03:25Z</time></trkpt>
<trkpt lat="43.0705120000" lon="0.6559670000"><ele>582</ele><time>2025-12-07T09:03:27Z</time></trkpt>
<trkpt lat="43.0705070000" lon="0.6559370000"><ele>581</ele><time>2025-12-07T09:03:30Z</time></trkpt>
<trkpt lat="43.0704900000" lon="0.6559250000"><ele>581</ele><time>2025-12-07T09:03:33Z</time></trkpt>
<trkpt lat="43.0704670000" lon="0.6559100000"><ele>581</ele><time>2025-12-07T09:03:35Z</time></trkpt>
<trkpt lat="43.0704570000" lon="0.6558820000"><ele>580</ele><time>2025-12-07T09:03:37Z</time></trkpt>
<trkpt lat="43.0704570000" lon="0.6558420000"><ele>580</ele><time>2025-12-07T09:03:40Z</time></trkpt>
<trkpt lat="43.0704470000" lon="0.6558170000"><ele>580</ele><time>2025-12-07T09:03:42Z</time></trkpt>
<trkpt lat="43.0704420000" lon="0.6557820000"><ele>580</ele><time>2025-12-07T09:03:45Z</time></trkpt>
<trkpt lat="43.0704320000" lon="0.6557520000"><ele>580</ele><time>2025-12-07T09:03:48Z</time></trkpt>
<trkpt lat="43.0704170000" lon="0.6557300000"><ele>580</ele><time>2025-12-07T09:03:50Z</time></trkpt>
<trkpt lat="43.0704170000" lon="0.6556920000"><ele>579</ele><time>2025-12-07T09:03:53Z</time></trkpt>
<trkpt lat="43.0704070000" lon="0.6556620000"><ele>579</ele><time>2025-12-07T09:03:56Z</time></trkpt>
<trkpt lat="43.0703950000" lon="0.6556370000"><ele>579</ele><time>2025-12-07T09:03:58Z</time></trkpt>
<trkpt lat="43.0703800000" lon="0.6556100000"><ele>579</ele><time>2025-12-07T09:04:01Z</time></trkpt>
<trkpt lat="43.0703670000" lon="0.6555900000"><ele>578</ele><time>2025-12-07T09:04:04Z</time></trkpt>
<trkpt lat="43.0703470000" lon="0.6555720000"><ele>578</ele><time>2025-12-07T09:04:07Z</time></trkpt>
<trkpt lat="43.0703320000" lon="0.6555470000"><ele>577</ele><time>2025-12-07T09:04:09Z</time></trkpt>
<trkpt lat="43.0703220000" lon="0.6555270000"><ele>577</ele><time>2025-12-07T09:04:11Z</time></trkpt>
<trkpt lat="43.0703100000" lon="0.6555050000"><ele>577</ele><time>2025-12-07T09:04:14Z</time></trkpt>
<trkpt lat="43.0703000000" lon="0.6554820000"><ele>577</ele><time>2025-12-07T09:04:16Z</time></trkpt>
<trkpt lat="43.0702950000" lon="0.6554520000"><ele>576</ele><time>2025-12-07T09:04:18Z</time></trkpt>
<trkpt lat="43.0702830000" lon="0.6554220000"><ele>576</ele><time>2025-12-07T09:04:21Z</time></trkpt>
<trkpt lat="43.0702720000" lon="0.6554020000"><ele>575</ele><time>2025-12-07T09:04:24Z</time></trkpt>
<trkpt lat="43.0702600000" lon="0.6553720000"><ele>575</ele><time>2025-12-07T09:04:31Z</time></trkpt>
<trkpt lat="43.0702470000" lon="0.6553470000"><ele>576</ele><time>2025-12-07T09:04:33Z</time></trkpt>
<trkpt lat="43.0702320000" lon="0.6553300000"><ele>575</ele><time>2025-12-07T09:04:35Z</time></trkpt>
<trkpt lat="43.0702120000" lon="0.6553070000"><ele>575</ele><time>2025-12-07T09:04:38Z</time></trkpt>
<trkpt lat="43.0701970000" lon="0.6552820000"><ele>575</ele><time>2025-12-07T09:04:40Z</time></trkpt>
<trkpt lat="43.0701800000" lon="0.6552520000"><ele>576</ele><time>2025-12-07T09:04:43Z</time></trkpt>
<trkpt lat="43.0701670000" lon="0.6552270000"><ele>575</ele><time>2025-12-07T09:04:45Z</time></trkpt>
<trkpt lat="43.0701620000" lon="0.6552020000"><ele>575</ele><time>2025-12-07T09:04:47Z</time></trkpt>
<trkpt lat="43.0701470000" lon="0.6551780000"><ele>575</ele><time>2025-12-07T09:04:49Z</time></trkpt>
<trkpt lat="43.0701320000" lon="0.6551650000"><ele>575</ele><time>2025-12-07T09:04:51Z</time></trkpt>
<trkpt lat="43.0701170000" lon="0.6551470000"><ele>575</ele><time>2025-12-07T09:04:54Z</time></trkpt>
<trkpt lat="43.0701020000" lon="0.6551320000"><ele>575</ele><time>2025-12-07T09:04:56Z</time></trkpt>
<trkpt lat="43.0700700000" lon="0.6551170000"><ele>575</ele><time>2025-12-07T09:04:59Z</time></trkpt>
<trkpt lat="43.0700520000" lon="0.6551100000"><ele>575</ele><time>2025-12-07T09:05:01Z</time></trkpt>
<trkpt lat="43.0700370000" lon="0.6550920000"><ele>575</ele><time>2025-12-07T09:05:03Z</time></trkpt>
<trkpt lat="43.0700150000" lon="0.6550620000"><ele>576</ele><time>2025-12-07T09:05:05Z</time></trkpt>
<trkpt lat="43.0699970000" lon="0.6550420000"><ele>576</ele><time>2025-12-07T09:05:08Z</time></trkpt>
<trkpt lat="43.0699720000" lon="0.6550370000"><ele>576</ele><time>2025-12-07T09:05:10Z</time></trkpt>
<trkpt lat="43.0699550000" lon="0.6550350000"><ele>577</ele><time>2025-12-07T09:05:12Z</time></trkpt>
<trkpt lat="43.0699370000" lon="0.6550300000"><ele>577</ele><time>2025-12-07T09:05:14Z</time></trkpt>
<trkpt lat="43.0699150000" lon="0.6550030000"><ele>577</ele><time>2025-12-07T09:05:17Z</time></trkpt>
<trkpt lat="43.0699070000" lon="0.6549800000"><ele>578</ele><time>2025-12-07T09:05:21Z</time></trkpt>
<trkpt lat="43.0699200000" lon="0.6549620000"><ele>578</ele><time>2025-12-07T09:05:22Z</time></trkpt>
<trkpt lat="43.0699120000" lon="0.6549220000"><ele>579</ele><time>2025-12-07T09:05:24Z</time></trkpt>
<trkpt lat="43.0699020000" lon="0.6549020000"><ele>579</ele><time>2025-12-07T09:05:28Z</time></trkpt>
<trkpt lat="43.0698720000" lon="0.6548970000"><ele>582</ele><time>2025-12-07T09:05:47Z</time></trkpt>
<trkpt lat="43.0698470000" lon="0.6549070000"><ele>582</ele><time>2025-12-07T09:05:48Z</time></trkpt>
<trkpt lat="43.0698250000" lon="0.6549170000"><ele>582</ele><time>2025-12-07T09:05:49Z</time></trkpt>
<trkpt lat="43.0698070000" lon="0.6549320000"><ele>582</ele><time>2025-12-07T09:05:50Z</time></trkpt>
<trkpt lat="43.0697920000" lon="0.6549470000"><ele>582</ele><time>2025-12-07T09:05:51Z</time></trkpt>
<trkpt lat="43.0697770000" lon="0.6549700000"><ele>582</ele><time>2025-12-07T09:05:53Z</time></trkpt>
<trkpt lat="43.0697550000" lon="0.6549700000"><ele>583</ele><time>2025-12-07T09:05:57Z</time></trkpt>
<trkpt lat="43.0697630000" lon="0.6549420000"><ele>583</ele><time>2025-12-07T09:06:13Z</time></trkpt>
<trkpt lat="43.0697630000" lon="0.6549120000"><ele>583</ele><time>2025-12-07T09:06:15Z</time></trkpt>
<trkpt lat="43.0697520000" lon="0.6548870000"><ele>584</ele><time>2025-12-07T09:06:18Z</time></trkpt>
<trkpt lat="43.0697300000" lon="0.6549000000"><ele>585</ele><time>2025-12-07T09:06:27Z</time></trkpt>
<trkpt lat="43.0696950000" lon="0.6549070000"><ele>585</ele><time>2025-12-07T09:06:29Z</time></trkpt>
<trkpt lat="43.0696720000" lon="0.6549070000"><ele>586</ele><time>2025-12-07T09:06:31Z</time></trkpt>
<trkpt lat="43.0696570000" lon="0.6549370000"><ele>586</ele><time>2025-12-07T09:06:36Z</time></trkpt>
<trkpt lat="43.0696420000" lon="0.6549470000"><ele>587</ele><time>2025-12-07T09:06:39Z</time></trkpt>
<trkpt lat="43.0696400000" lon="0.6549120000"><ele>589</ele><time>2025-12-07T09:06:58Z</time></trkpt>
<trkpt lat="43.0696400000" lon="0.6548820000"><ele>589</ele><time>2025-12-07T09:06:59Z</time></trkpt>
<trkpt lat="43.0696420000" lon="0.6548420000"><ele>590</ele><time>2025-12-07T09:07:00Z</time></trkpt>
<trkpt lat="43.0696420000" lon="0.6548050000"><ele>590</ele><time>2025-12-07T09:07:01Z</time></trkpt>
<trkpt lat="43.0696420000" lon="0.6547730000"><ele>590</ele><time>2025-12-07T09:07:02Z</time></trkpt>
<trkpt lat="43.0696350000" lon="0.6547420000"><ele>590</ele><time>2025-12-07T09:07:04Z</time></trkpt>
<trkpt lat="43.0696170000" lon="0.6547500000"><ele>591</ele><time>2025-12-07T09:07:08Z</time></trkpt>
<trkpt lat="43.0696020000" lon="0.6547820000"><ele>592</ele><time>2025-12-07T09:07:19Z</time></trkpt>
<trkpt lat="43.0695970000" lon="0.6548070000"><ele>592</ele><time>2025-12-07T09:07:21Z</time></trkpt>
<trkpt lat="43.0695920000" lon="0.6548320000"><ele>592</ele><time>2025-12-07T09:07:23Z</time></trkpt>
<trkpt lat="43.0695720000" lon="0.6548370000"><ele>593</ele><time>2025-12-07T09:07:31Z</time></trkpt>
<trkpt lat="43.0695520000" lon="0.6548370000"><ele>594</ele><time>2025-12-07T09:07:37Z</time></trkpt>
<trkpt lat="43.0695420000" lon="0.6548620000"><ele>594</ele><time>2025-12-07T09:07:43Z</time></trkpt>
<trkpt lat="43.0695120000" lon="0.6548770000"><ele>598</ele><time>2025-12-07T09:08:37Z</time></trkpt>
<trkpt lat="43.0694870000" lon="0.6548820000"><ele>598</ele><time>2025-12-07T09:08:38Z</time></trkpt>
<trkpt lat="43.0694530000" lon="0.6548850000"><ele>598</ele><time>2025-12-07T09:08:39Z</time></trkpt>
<trkpt lat="43.0694220000" lon="0.6548850000"><ele>598</ele><time>2025-12-07T09:08:40Z</time></trkpt>
<trkpt lat="43.0693970000" lon="0.6548820000"><ele>599</ele><time>2025-12-07T09:08:41Z</time></trkpt>
<trkpt lat="43.0693750000" lon="0.6548670000"><ele>599</ele><time>2025-12-07T09:08:43Z</time></trkpt>
<trkpt lat="43.0693720000" lon="0.6548400000"><ele>599</ele><time>2025-12-07T09:08:47Z</time></trkpt>
<trkpt lat="43.0693570000" lon="0.6548220000"><ele>600</ele><time>2025-12-07T09:08:50Z</time></trkpt>
<trkpt lat="43.0693370000" lon="0.6548270000"><ele>600</ele><time>2025-12-07T09:08:55Z</time></trkpt>
<trkpt lat="43.0693220000" lon="0.6548370000"><ele>600</ele><time>2025-12-07T09:08:57Z</time></trkpt>
<trkpt lat="43.0693050000" lon="0.6548220000"><ele>600</ele><time>2025-12-07T09:09:04Z</time></trkpt>
<trkpt lat="43.0692970000" lon="0.6548520000"><ele>601</ele><time>2025-12-07T09:09:09Z</time></trkpt>
<trkpt lat="43.0692800000" lon="0.6548420000"><ele>601</ele><time>2025-12-07T09:09:22Z</time></trkpt>
<trkpt lat="43.0692670000" lon="0.6548680000"><ele>604</ele><time>2025-12-07T09:10:02Z</time></trkpt>
<trkpt lat="43.0692750000" lon="0.6548950000"><ele>603</ele><time>2025-12-07T09:10:05Z</time></trkpt>
<trkpt lat="43.0692520000" lon="0.6548950000"><ele>602</ele><time>2025-12-07T09:10:26Z</time></trkpt>
<trkpt lat="43.0692270000" lon="0.6548880000"><ele>602</ele><time>2025-12-07T09:10:28Z</time></trkpt>
<trkpt lat="43.0692020000" lon="0.6548880000"><ele>602</ele><time>2025-12-07T09:10:30Z</time></trkpt>
<trkpt lat="43.0691820000" lon="0.6549000000"><ele>601</ele><time>2025-12-07T09:10:33Z</time></trkpt>
<trkpt lat="43.0691670000" lon="0.6549120000"><ele>600</ele><time>2025-12-07T09:11:02Z</time></trkpt>
<trkpt lat="43.0691520000" lon="0.6549300000"><ele>599</ele><time>2025-12-07T09:11:07Z</time></trkpt>
<trkpt lat="43.0691550000" lon="0.6548920000"><ele>600</ele><time>2025-12-07T09:11:26Z</time></trkpt>
<trkpt lat="43.0691580000" lon="0.6548670000"><ele>600</ele><time>2025-12-07T09:11:28Z</time></trkpt>
<trkpt lat="43.0691770000" lon="0.6548620000"><ele>601</ele><time>2025-12-07T09:11:33Z</time></trkpt>
<trkpt lat="43.0691670000" lon="0.6548920000"><ele>600</ele><time>2025-12-07T09:12:38Z</time></trkpt>
<trkpt lat="43.0691770000" lon="0.6549120000"><ele>601</ele><time>2025-12-07T09:13:53Z</time></trkpt>
<trkpt lat="43.0691570000" lon="0.6549180000"><ele>601</ele><time>2025-12-07T09:14:36Z</time></trkpt>
<trkpt lat="43.0691700000" lon="0.6549420000"><ele>602</ele><time>2025-12-07T09:17:43Z</time></trkpt>
<trkpt lat="43.0691620000" lon="0.6549700000"><ele>602</ele><time>2025-12-07T09:17:46Z</time></trkpt>
<trkpt lat="43.0691670000" lon="0.6549420000"><ele>602</ele><time>2025-12-07T09:18:56Z</time></trkpt>
<trkpt lat="43.0691800000" lon="0.6549170000"><ele>602</ele><time>2025-12-07T09:18:59Z</time></trkpt>
<trkpt lat="43.0691970000" lon="0.6549070000"><ele>602</ele><time>2025-12-07T09:19:03Z</time></trkpt>
<trkpt lat="43.0691970000" lon="0.6549320000"><ele>602</ele><time>2025-12-07T09:20:13Z</time></trkpt>
<trkpt lat="43.0691800000" lon="0.6549220000"><ele>601</ele><time>2025-12-07T09:21:23Z</time></trkpt>
<trkpt lat="43.0691620000" lon="0.6549300000"><ele>601</ele><time>2025-12-07T09:21:25Z</time></trkpt>
<trkpt lat="43.0691500000" lon="0.6549520000"><ele>601</ele><time>2025-12-07T09:21:27Z</time></trkpt>
<trkpt lat="43.0691470000" lon="0.6549820000"><ele>601</ele><time>2025-12-07T09:21:29Z</time></trkpt>
<trkpt lat="43.0691670000" lon="0.6549850000"><ele>601</ele><time>2025-12-07T09:21:31Z</time></trkpt>
<trkpt lat="43.0691700000" lon="0.6549530000"><ele>601</ele><time>2025-12-07T09:21:34Z</time></trkpt>
<trkpt lat="43.0691450000" lon="0.6549620000"><ele>599</ele><time>2025-12-07T09:22:02Z</time></trkpt>
<trkpt lat="43.0691270000" lon="0.6549720000"><ele>598</ele><time>2025-12-07T09:22:03Z</time></trkpt>
<trkpt lat="43.0691070000" lon="0.6549800000"><ele>598</ele><time>2025-12-07T09:22:04Z</time></trkpt>
<trkpt lat="43.0690870000" lon="0.6549820000"><ele>598</ele><time>2025-12-07T09:22:06Z</time></trkpt>
<trkpt lat="43.0690670000" lon="0.6549670000"><ele>597</ele><time>2025-12-07T09:22:12Z</time></trkpt>
<trkpt lat="43.0690520000" lon="0.6549420000"><ele>597</ele><time>2025-12-07T09:22:14Z</time></trkpt>
<trkpt lat="43.0690300000" lon="0.6549520000"><ele>596</ele><time>2025-12-07T09:22:17Z</time></trkpt>
<trkpt lat="43.0690120000" lon="0.6549670000"><ele>595</ele><time>2025-12-07T09:22:20Z</time></trkpt>
<trkpt lat="43.0690020000" lon="0.6549920000"><ele>594</ele><time>2025-12-07T09:22:24Z</time></trkpt>
<trkpt lat="43.0689900000" lon="0.6550120000"><ele>593</ele><time>2025-12-07T09:22:28Z</time></trkpt>
<trkpt lat="43.0689820000" lon="0.6550370000"><ele>593</ele><time>2025-12-07T09:22:30Z</time></trkpt>
<trkpt lat="43.0689820000" lon="0.6550620000"><ele>593</ele><time>2025-12-07T09:22:32Z</time></trkpt>
<trkpt lat="43.0689820000" lon="0.6550920000"><ele>593</ele><time>2025-12-07T09:22:34Z</time></trkpt>
<trkpt lat="43.0689950000" lon="0.6551220000"><ele>593</ele><time>2025-12-07T09:22:36Z</time></trkpt>
<trkpt lat="43.0689920000" lon="0.6551550000"><ele>593</ele><time>2025-12-07T09:22:39Z</time></trkpt>
<trkpt lat="43.0689750000" lon="0.6551720000"><ele>593</ele><time>2025-12-07T09:22:42Z</time></trkpt>
<trkpt lat="43.0689620000" lon="0.6551870000"><ele>592</ele><time>2025-12-07T09:22:45Z</time></trkpt>
<trkpt lat="43.0689350000" lon="0.6551780000"><ele>591</ele><time>2025-12-07T09:22:49Z</time></trkpt>
<trkpt lat="43.0689150000" lon="0.6551770000"><ele>591</ele><time>2025-12-07T09:22:50Z</time></trkpt>
<trkpt lat="43.0688870000" lon="0.6551520000"><ele>590</ele><time>2025-12-07T09:22:52Z</time></trkpt>
<trkpt lat="43.0688670000" lon="0.6551370000"><ele>590</ele><time>2025-12-07T09:22:55Z</time></trkpt>
<trkpt lat="43.0688450000" lon="0.6551520000"><ele>589</ele><time>2025-12-07T09:22:59Z</time></trkpt>
<trkpt lat="43.0688220000" lon="0.6551550000"><ele>589</ele><time>2025-12-07T09:23:01Z</time></trkpt>
<trkpt lat="43.0688100000" lon="0.6551350000"><ele>587</ele><time>2025-12-07T09:23:09Z</time></trkpt>
<trkpt lat="43.0687920000" lon="0.6551470000"><ele>586</ele><time>2025-12-07T09:23:13Z</time></trkpt>
<trkpt lat="43.0687670000" lon="0.6551620000"><ele>584</ele><time>2025-12-07T09:23:18Z</time></trkpt>
<trkpt lat="43.0687470000" lon="0.6551820000"><ele>583</ele><time>2025-12-07T09:23:20Z</time></trkpt>
<trkpt lat="43.0687320000" lon="0.6551980000"><ele>582</ele><time>2025-12-07T09:23:22Z</time></trkpt>
<trkpt lat="43.0687170000" lon="0.6552220000"><ele>581</ele><time>2025-12-07T09:23:27Z</time></trkpt>
<trkpt lat="43.0686970000" lon="0.6552230000"><ele>580</ele><time>2025-12-07T09:23:30Z</time></trkpt>
<trkpt lat="43.0686770000" lon="0.6552370000"><ele>579</ele><time>2025-12-07T09:23:33Z</time></trkpt>
<trkpt lat="43.0686600000" lon="0.6552470000"><ele>578</ele><time>2025-12-07T09:23:35Z</time></trkpt>
<trkpt lat="43.0686420000" lon="0.6552580000"><ele>577</ele><time>2025-12-07T09:23:40Z</time></trkpt>
<trkpt lat="43.0686270000" lon="0.6552770000"><ele>576</ele><time>2025-12-07T09:23:47Z</time></trkpt>
<trkpt lat="43.0686100000" lon="0.6552620000"><ele>575</ele><time>2025-12-07T09:24:03Z</time></trkpt>
<trkpt lat="43.0685970000" lon="0.6552870000"><ele>574</ele><time>2025-12-07T09:24:06Z</time></trkpt>
<trkpt lat="43.0685850000" lon="0.6553270000"><ele>571</ele><time>2025-12-07T09:24:30Z</time></trkpt>
<trkpt lat="43.0685670000" lon="0.6553720000"><ele>571</ele><time>2025-12-07T09:24:32Z</time></trkpt>
<trkpt lat="43.0685550000" lon="0.6554070000"><ele>572</ele><time>2025-12-07T09:24:34Z</time></trkpt>
<trkpt lat="43.0685570000" lon="0.6554350000"><ele>571</ele><time>2025-12-07T09:24:36Z</time></trkpt>
<trkpt lat="43.0685370000" lon="0.6554350000"><ele>570</ele><time>2025-12-07T09:24:42Z</time></trkpt>
<trkpt lat="43.0685220000" lon="0.6554170000"><ele>569</ele><time>2025-12-07T09:24:50Z</time></trkpt>
<trkpt lat="43.0685070000" lon="0.6553930000"><ele>569</ele><time>2025-12-07T09:24:53Z</time></trkpt>
<trkpt lat="43.0684870000" lon="0.6553870000"><ele>568</ele><time>2025-12-07T09:24:55Z</time></trkpt>
<trkpt lat="43.0684570000" lon="0.6553920000"><ele>566</ele><time>2025-12-07T09:25:05Z</time></trkpt>
<trkpt lat="43.0684270000" lon="0.6553920000"><ele>565</ele><time>2025-12-07T09:25:07Z</time></trkpt>
<trkpt lat="43.0684050000" lon="0.6553920000"><ele>565</ele><time>2025-12-07T09:25:09Z</time></trkpt>
<trkpt lat="43.0683820000" lon="0.6553920000"><ele>564</ele><time>2025-12-07T09:25:12Z</time></trkpt>
<trkpt lat="43.0683600000" lon="0.6554020000"><ele>563</ele><time>2025-12-07T09:25:16Z</time></trkpt>
<trkpt lat="43.0683370000" lon="0.6554200000"><ele>562</ele><time>2025-12-07T09:25:18Z</time></trkpt>
<trkpt lat="43.0683130000" lon="0.6554370000"><ele>562</ele><time>2025-12-07T09:25:20Z</time></trkpt>
<trkpt lat="43.0682950000" lon="0.6554570000"><ele>561</ele><time>2025-12-07T09:25:23Z</time></trkpt>
<trkpt lat="43.0682770000" lon="0.6554770000"><ele>560</ele><time>2025-12-07T09:25:25Z</time></trkpt>
<trkpt lat="43.0682570000" lon="0.6554900000"><ele>560</ele><time>2025-12-07T09:25:27Z</time></trkpt>
<trkpt lat="43.0682370000" lon="0.6554970000"><ele>559</ele><time>2025-12-07T09:25:29Z</time></trkpt>
<trkpt lat="43.0682220000" lon="0.6555120000"><ele>559</ele><time>2025-12-07T09:25:32Z</time></trkpt>
<trkpt lat="43.0681970000" lon="0.6555170000"><ele>557</ele><time>2025-12-07T09:25:36Z</time></trkpt>
<trkpt lat="43.0681730000" lon="0.6555320000"><ele>556</ele><time>2025-12-07T09:25:40Z</time></trkpt>
<trkpt lat="43.0681470000" lon="0.6555480000"><ele>555</ele><time>2025-12-07T09:25:43Z</time></trkpt>
<trkpt lat="43.0681350000" lon="0.6555670000"><ele>554</ele><time>2025-12-07T09:25:45Z</time></trkpt>
<trkpt lat="43.0681170000" lon="0.6555820000"><ele>553</ele><time>2025-12-07T09:25:50Z</time></trkpt>
<trkpt lat="43.0680970000" lon="0.6555950000"><ele>552</ele><time>2025-12-07T09:25:53Z</time></trkpt>
<trkpt lat="43.0680720000" lon="0.6556120000"><ele>551</ele><time>2025-12-07T09:25:56Z</time></trkpt>
<trkpt lat="43.0680570000" lon="0.6556300000"><ele>550</ele><time>2025-12-07T09:25:58Z</time></trkpt>
<trkpt lat="43.0680350000" lon="0.6556370000"><ele>550</ele><time>2025-12-07T09:26:00Z</time></trkpt>
<trkpt lat="43.0680170000" lon="0.6556620000"><ele>549</ele><time>2025-12-07T09:26:02Z</time></trkpt>
<trkpt lat="43.0680000000" lon="0.6556770000"><ele>549</ele><time>2025-12-07T09:26:04Z</time></trkpt>
<trkpt lat="43.0679870000" lon="0.6556970000"><ele>548</ele><time>2025-12-07T09:26:07Z</time></trkpt>
<trkpt lat="43.0679620000" lon="0.6556970000"><ele>548</ele><time>2025-12-07T09:26:10Z</time></trkpt>
<trkpt lat="43.0679420000" lon="0.6557030000"><ele>547</ele><time>2025-12-07T09:26:12Z</time></trkpt>
<trkpt lat="43.0679220000" lon="0.6557120000"><ele>547</ele><time>2025-12-07T09:26:14Z</time></trkpt>
<trkpt lat="43.0679070000" lon="0.6557300000"><ele>546</ele><time>2025-12-07T09:26:17Z</time></trkpt>
<trkpt lat="43.0678870000" lon="0.6557270000"><ele>546</ele><time>2025-12-07T09:26:21Z</time></trkpt>
<trkpt lat="43.0678670000" lon="0.6557220000"><ele>545</ele><time>2025-12-07T09:26:23Z</time></trkpt>
<trkpt lat="43.0678400000" lon="0.6557220000"><ele>544</ele><time>2025-12-07T09:26:25Z</time></trkpt>
<trkpt lat="43.0678220000" lon="0.6557370000"><ele>544</ele><time>2025-12-07T09:26:27Z</time></trkpt>
<trkpt lat="43.0678020000" lon="0.6557380000"><ele>543</ele><time>2025-12-07T09:26:29Z</time></trkpt>
<trkpt lat="43.0677820000" lon="0.6557420000"><ele>543</ele><time>2025-12-07T09:26:33Z</time></trkpt>
<trkpt lat="43.0677600000" lon="0.6557320000"><ele>543</ele><time>2025-12-07T09:26:35Z</time></trkpt>
<trkpt lat="43.0677370000" lon="0.6557070000"><ele>542</ele><time>2025-12-07T09:26:37Z</time></trkpt>
<trkpt lat="43.0677200000" lon="0.6557020000"><ele>542</ele><time>2025-12-07T09:26:38Z</time></trkpt>
<trkpt lat="43.0676920000" lon="0.6556920000"><ele>542</ele><time>2025-12-07T09:26:40Z</time></trkpt>
<trkpt lat="43.0676670000" lon="0.6556920000"><ele>541</ele><time>2025-12-07T09:26:43Z</time></trkpt>
<trkpt lat="43.0676470000" lon="0.6556970000"><ele>541</ele><time>2025-12-07T09:26:45Z</time></trkpt>
<trkpt lat="43.0676270000" lon="0.6557070000"><ele>540</ele><time>2025-12-07T09:26:47Z</time></trkpt>
<trkpt lat="43.0676100000" lon="0.6557170000"><ele>540</ele><time>2025-12-07T09:26:49Z</time></trkpt>
<trkpt lat="43.0675820000" lon="0.6557100000"><ele>539</ele><time>2025-12-07T09:26:52Z</time></trkpt>
<trkpt lat="43.0675620000" lon="0.6557020000"><ele>539</ele><time>2025-12-07T09:26:54Z</time></trkpt>
<trkpt lat="43.0675370000" lon="0.6556980000"><ele>539</ele><time>2025-12-07T09:26:56Z</time></trkpt>
<trkpt lat="43.0675150000" lon="0.6557020000"><ele>539</ele><time>2025-12-07T09:26:58Z</time></trkpt>
<trkpt lat="43.0674970000" lon="0.6557250000"><ele>538</ele><time>2025-12-07T09:27:01Z</time></trkpt>
<trkpt lat="43.0675070000" lon="0.6557570000"><ele>539</ele><time>2025-12-07T09:27:04Z</time></trkpt>
<trkpt lat="43.0674950000" lon="0.6557830000"><ele>539</ele><time>2025-12-07T09:27:06Z</time></trkpt>
<trkpt lat="43.0674770000" lon="0.6558070000"><ele>539</ele><time>2025-12-07T09:27:09Z</time></trkpt>
<trkpt lat="43.0674820000" lon="0.6558320000"><ele>539</ele><time>2025-12-07T09:27:13Z</time></trkpt>
<trkpt lat="43.0674670000" lon="0.6558570000"><ele>539</ele><time>2025-12-07T09:27:17Z</time></trkpt>
<trkpt lat="43.0674470000" lon="0.6558530000"><ele>540</ele><time>2025-12-07T09:27:20Z</time></trkpt>
<trkpt lat="43.0674320000" lon="0.6558800000"><ele>540</ele><time>2025-12-07T09:27:24Z</time></trkpt>
<trkpt lat="43.0674120000" lon="0.6558930000"><ele>540</ele><time>2025-12-07T09:27:26Z</time></trkpt>
<trkpt lat="43.0674070000" lon="0.6559180000"><ele>540</ele><time>2025-12-07T09:27:29Z</time></trkpt>
<trkpt lat="43.0673920000" lon="0.6559420000"><ele>541</ele><time>2025-12-07T09:27:31Z</time></trkpt>
<trkpt lat="43.0673800000" lon="0.6559620000"><ele>541</ele><time>2025-12-07T09:27:34Z</time></trkpt>
<trkpt lat="43.0673620000" lon="0.6559880000"><ele>542</ele><time>2025-12-07T09:27:37Z</time></trkpt>
<trkpt lat="43.0673470000" lon="0.6560120000"><ele>542</ele><time>2025-12-07T09:27:40Z</time></trkpt>
<trkpt lat="43.0673280000" lon="0.6560270000"><ele>542</ele><time>2025-12-07T09:27:44Z</time></trkpt>
<trkpt lat="43.0673150000" lon="0.6560420000"><ele>543</ele><time>2025-12-07T09:27:47Z</time></trkpt>
<trkpt lat="43.0672970000" lon="0.6560550000"><ele>543</ele><time>2025-12-07T09:27:49Z</time></trkpt>
<trkpt lat="43.0672820000" lon="0.6560850000"><ele>544</ele><time>2025-12-07T09:27:54Z</time></trkpt>
<trkpt lat="43.0672720000" lon="0.6561170000"><ele>544</ele><time>2025-12-07T09:27:56Z</time></trkpt>
<trkpt lat="43.0672670000" lon="0.6561420000"><ele>545</ele><time>2025-12-07T09:27:59Z</time></trkpt>
<trkpt lat="43.0672720000" lon="0.6561700000"><ele>545</ele><time>2025-12-07T09:28:02Z</time></trkpt>
<trkpt lat="43.0672570000" lon="0.6561970000"><ele>546</ele><time>2025-12-07T09:28:07Z</time></trkpt>
<trkpt lat="43.0672520000" lon="0.6562270000"><ele>546</ele><time>2025-12-07T09:28:11Z</time></trkpt>
<trkpt lat="43.0672770000" lon="0.6562430000"><ele>546</ele><time>2025-12-07T09:28:17Z</time></trkpt>
<trkpt lat="43.0672900000" lon="0.6562220000"><ele>547</ele><time>2025-12-07T09:28:30Z</time></trkpt>
<trkpt lat="43.0672670000" lon="0.6562000000"><ele>547</ele><time>2025-12-07T09:28:33Z</time></trkpt>
<trkpt lat="43.0672470000" lon="0.6561950000"><ele>547</ele><time>2025-12-07T09:28:35Z</time></trkpt>
<trkpt lat="43.0672270000" lon="0.6562070000"><ele>548</ele><time>2025-12-07T09:28:37Z</time></trkpt>
<trkpt lat="43.0672120000" lon="0.6562230000"><ele>548</ele><time>2025-12-07T09:28:41Z</time></trkpt>
<trkpt lat="43.0671950000" lon="0.6562420000"><ele>549</ele><time>2025-12-07T09:28:44Z</time></trkpt>
<trkpt lat="43.0671670000" lon="0.6562500000"><ele>551</ele><time>2025-12-07T09:29:01Z</time></trkpt>
<trkpt lat="43.0671470000" lon="0.6562470000"><ele>551</ele><time>2025-12-07T09:29:02Z</time></trkpt>
<trkpt lat="43.0671120000" lon="0.6562430000"><ele>552</ele><time>2025-12-07T09:29:04Z</time></trkpt>
<trkpt lat="43.0670920000" lon="0.6562420000"><ele>552</ele><time>2025-12-07T09:29:06Z</time></trkpt>
<trkpt lat="43.0670720000" lon="0.6562520000"><ele>552</ele><time>2025-12-07T09:29:09Z</time></trkpt>
<trkpt lat="43.0670600000" lon="0.6562750000"><ele>553</ele><time>2025-12-07T09:29:15Z</time></trkpt>
<trkpt lat="43.0670400000" lon="0.6562750000"><ele>558</ele><time>2025-12-07T09:30:12Z</time></trkpt>
<trkpt lat="43.0670170000" lon="0.6562770000"><ele>558</ele><time>2025-12-07T09:30:13Z</time></trkpt>
<trkpt lat="43.0669920000" lon="0.6562770000"><ele>558</ele><time>2025-12-07T09:30:14Z</time></trkpt>
<trkpt lat="43.0669620000" lon="0.6562750000"><ele>559</ele><time>2025-12-07T09:30:15Z</time></trkpt>
<trkpt lat="43.0669420000" lon="0.6562720000"><ele>559</ele><time>2025-12-07T09:30:16Z</time></trkpt>
<trkpt lat="43.0669200000" lon="0.6562670000"><ele>559</ele><time>2025-12-07T09:30:18Z</time></trkpt>
<trkpt lat="43.0668970000" lon="0.6562620000"><ele>559</ele><time>2025-12-07T09:30:22Z</time></trkpt>
<trkpt lat="43.0668870000" lon="0.6562850000"><ele>560</ele><time>2025-12-07T09:30:26Z</time></trkpt>
<trkpt lat="43.0668450000" lon="0.6563050000"><ele>564</ele><time>2025-12-07T09:31:02Z</time></trkpt>
<trkpt lat="43.0668070000" lon="0.6563170000"><ele>564</ele><time>2025-12-07T09:31:03Z</time></trkpt>
<trkpt lat="43.0667700000" lon="0.6563300000"><ele>564</ele><time>2025-12-07T09:31:04Z</time></trkpt>
<trkpt lat="43.0667420000" lon="0.6563370000"><ele>565</ele><time>2025-12-07T09:31:05Z</time></trkpt>
<trkpt lat="43.0667230000" lon="0.6563420000"><ele>565</ele><time>2025-12-07T09:31:07Z</time></trkpt>
<trkpt lat="43.0667220000" lon="0.6563720000"><ele>565</ele><time>2025-12-07T09:31:28Z</time></trkpt>
<trkpt lat="43.0667020000" lon="0.6563520000"><ele>566</ele><time>2025-12-07T09:31:33Z</time></trkpt>
<trkpt lat="43.0666770000" lon="0.6563500000"><ele>566</ele><time>2025-12-07T09:31:36Z</time></trkpt>
<trkpt lat="43.0666600000" lon="0.6563470000"><ele>567</ele><time>2025-12-07T09:31:38Z</time></trkpt>
<trkpt lat="43.0666420000" lon="0.6563500000"><ele>567</ele><time>2025-12-07T09:31:40Z</time></trkpt>
<trkpt lat="43.0666220000" lon="0.6563520000"><ele>567</ele><time>2025-12-07T09:31:42Z</time></trkpt>
<trkpt lat="43.0665970000" lon="0.6563570000"><ele>568</ele><time>2025-12-07T09:31:45Z</time></trkpt>
<trkpt lat="43.0665820000" lon="0.6563720000"><ele>568</ele><time>2025-12-07T09:31:48Z</time></trkpt>
<trkpt lat="43.0665700000" lon="0.6564020000"><ele>568</ele><time>2025-12-07T09:31:52Z</time></trkpt>
<trkpt lat="43.0665520000" lon="0.6564120000"><ele>569</ele><time>2025-12-07T09:31:53Z</time></trkpt>
<trkpt lat="43.0665370000" lon="0.6564330000"><ele>569</ele><time>2025-12-07T09:31:55Z</time></trkpt>
<trkpt lat="43.0665170000" lon="0.6564250000"><ele>570</ele><time>2025-12-07T09:32:01Z</time></trkpt>
<trkpt lat="43.0664970000" lon="0.6564100000"><ele>570</ele><time>2025-12-07T09:32:04Z</time></trkpt>
<trkpt lat="43.0664770000" lon="0.6564100000"><ele>571</ele><time>2025-12-07T09:32:09Z</time></trkpt>
<trkpt lat="43.0664570000" lon="0.6564130000"><ele>572</ele><time>2025-12-07T09:32:13Z</time></trkpt>
<trkpt lat="43.0664400000" lon="0.6564250000"><ele>572</ele><time>2025-12-07T09:32:18Z</time></trkpt>
<trkpt lat="43.0664200000" lon="0.6564320000"><ele>573</ele><time>2025-12-07T09:32:37Z</time></trkpt>
<trkpt lat="43.0663870000" lon="0.6564370000"><ele>574</ele><time>2025-12-07T09:32:39Z</time></trkpt>
<trkpt lat="43.0663700000" lon="0.6564300000"><ele>574</ele><time>2025-12-07T09:32:40Z</time></trkpt>
<trkpt lat="43.0663520000" lon="0.6564220000"><ele>574</ele><time>2025-12-07T09:32:42Z</time></trkpt>
<trkpt lat="43.0663320000" lon="0.6564270000"><ele>575</ele><time>2025-12-07T09:32:45Z</time></trkpt>
<trkpt lat="43.0663120000" lon="0.6564330000"><ele>575</ele><time>2025-12-07T09:32:51Z</time></trkpt>
<trkpt lat="43.0662920000" lon="0.6564270000"><ele>576</ele><time>2025-12-07T09:32:55Z</time></trkpt>
<trkpt lat="43.0662730000" lon="0.6564270000"><ele>576</ele><time>2025-12-07T09:32:57Z</time></trkpt>
<trkpt lat="43.0662520000" lon="0.6564420000"><ele>577</ele><time>2025-12-07T09:33:02Z</time></trkpt>
<trkpt lat="43.0662320000" lon="0.6564470000"><ele>578</ele><time>2025-12-07T09:33:06Z</time></trkpt>
<trkpt lat="43.0662100000" lon="0.6564520000"><ele>578</ele><time>2025-12-07T09:33:08Z</time></trkpt>
<trkpt lat="43.0661870000" lon="0.6564550000"><ele>579</ele><time>2025-12-07T09:33:13Z</time></trkpt>
<trkpt lat="43.0661670000" lon="0.6564620000"><ele>579</ele><time>2025-12-07T09:33:16Z</time></trkpt>
<trkpt lat="43.0661450000" lon="0.6564720000"><ele>579</ele><time>2025-12-07T09:33:19Z</time></trkpt>
<trkpt lat="43.0661270000" lon="0.6564670000"><ele>580</ele><time>2025-12-07T09:33:25Z</time></trkpt>
<trkpt lat="43.0661070000" lon="0.6564650000"><ele>580</ele><time>2025-12-07T09:33:31Z</time></trkpt>
<trkpt lat="43.0660900000" lon="0.6564670000"><ele>581</ele><time>2025-12-07T09:33:39Z</time></trkpt>
<trkpt lat="43.0660600000" lon="0.6564700000"><ele>581</ele><time>2025-12-07T09:33:41Z</time></trkpt>
<trkpt lat="43.0660420000" lon="0.6564700000"><ele>582</ele><time>2025-12-07T09:33:42Z</time></trkpt>
<trkpt lat="43.0660120000" lon="0.6564770000"><ele>582</ele><time>2025-12-07T09:33:44Z</time></trkpt>
<trkpt lat="43.0660000000" lon="0.6564970000"><ele>582</ele><time>2025-12-07T09:33:47Z</time></trkpt>
<trkpt lat="43.0659770000" lon="0.6565020000"><ele>582</ele><time>2025-12-07T09:33:49Z</time></trkpt>
<trkpt lat="43.0659620000" lon="0.6565170000"><ele>583</ele><time>2025-12-07T09:33:51Z</time></trkpt>
<trkpt lat="43.0659420000" lon="0.6565120000"><ele>583</ele><time>2025-12-07T09:33:53Z</time></trkpt>
<trkpt lat="43.0659120000" lon="0.6565220000"><ele>583</ele><time>2025-12-07T09:33:55Z</time></trkpt>
<trkpt lat="43.0658900000" lon="0.6565100000"><ele>584</ele><time>2025-12-07T09:33:59Z</time></trkpt>
<trkpt lat="43.0658720000" lon="0.6564900000"><ele>584</ele><time>2025-12-07T09:34:04Z</time></trkpt>
<trkpt lat="43.0658550000" lon="0.6564720000"><ele>584</ele><time>2025-12-07T09:34:08Z</time></trkpt>
<trkpt lat="43.0658320000" lon="0.6564720000"><ele>585</ele><time>2025-12-07T09:34:11Z</time></trkpt>
<trkpt lat="43.0658200000" lon="0.6564970000"><ele>585</ele><time>2025-12-07T09:34:15Z</time></trkpt>
<trkpt lat="43.0658070000" lon="0.6565220000"><ele>585</ele><time>2025-12-07T09:34:17Z</time></trkpt>
<trkpt lat="43.0658050000" lon="0.6565470000"><ele>586</ele><time>2025-12-07T09:34:22Z</time></trkpt>
<trkpt lat="43.0657870000" lon="0.6565520000"><ele>586</ele><time>2025-12-07T09:34:27Z</time></trkpt>
<trkpt lat="43.0657450000" lon="0.6565470000"><ele>591</ele><time>2025-12-07T09:35:19Z</time></trkpt>
<trkpt lat="43.0657170000" lon="0.6565480000"><ele>591</ele><time>2025-12-07T09:35:20Z</time></trkpt>
<trkpt lat="43.0656800000" lon="0.6565520000"><ele>592</ele><time>2025-12-07T09:35:21Z</time></trkpt>
<trkpt lat="43.0656420000" lon="0.6565470000"><ele>592</ele><time>2025-12-07T09:35:22Z</time></trkpt>
<trkpt lat="43.0656170000" lon="0.6565420000"><ele>592</ele><time>2025-12-07T09:35:23Z</time></trkpt>
<trkpt lat="43.0655970000" lon="0.6565370000"><ele>592</ele><time>2025-12-07T09:35:25Z</time></trkpt>
<trkpt lat="43.0655720000" lon="0.6565370000"><ele>593</ele><time>2025-12-07T09:35:30Z</time></trkpt>
<trkpt lat="43.0655520000" lon="0.6565400000"><ele>593</ele><time>2025-12-07T09:35:31Z</time></trkpt>
<trkpt lat="43.0655320000" lon="0.6565400000"><ele>593</ele><time>2025-12-07T09:35:32Z</time></trkpt>
<trkpt lat="43.0655120000" lon="0.6565600000"><ele>594</ele><time>2025-12-07T09:35:37Z</time></trkpt>
<trkpt lat="43.0654920000" lon="0.6565750000"><ele>595</ele><time>2025-12-07T09:35:42Z</time></trkpt>
<trkpt lat="43.0654770000" lon="0.6565850000"><ele>595</ele><time>2025-12-07T09:35:44Z</time></trkpt>
<trkpt lat="43.0654570000" lon="0.6565880000"><ele>596</ele><time>2025-12-07T09:35:46Z</time></trkpt>
<trkpt lat="43.0654370000" lon="0.6565920000"><ele>596</ele><time>2025-12-07T09:35:49Z</time></trkpt>
<trkpt lat="43.0654250000" lon="0.6566250000"><ele>597</ele><time>2025-12-07T09:35:56Z</time></trkpt>
<trkpt lat="43.0654020000" lon="0.6566320000"><ele>597</ele><time>2025-12-07T09:36:00Z</time></trkpt>
<trkpt lat="43.0653900000" lon="0.6566100000"><ele>598</ele><time>2025-12-07T09:36:04Z</time></trkpt>
<trkpt lat="43.0653720000" lon="0.6565920000"><ele>599</ele><time>2025-12-07T09:36:09Z</time></trkpt>
<trkpt lat="43.0653520000" lon="0.6565880000"><ele>599</ele><time>2025-12-07T09:36:12Z</time></trkpt>
<trkpt lat="43.0653370000" lon="0.6566100000"><ele>601</ele><time>2025-12-07T09:36:25Z</time></trkpt>
<trkpt lat="43.0653200000" lon="0.6565870000"><ele>601</ele><time>2025-12-07T09:36:37Z</time></trkpt>
<trkpt lat="43.0653020000" lon="0.6565680000"><ele>602</ele><time>2025-12-07T09:36:39Z</time></trkpt>
<trkpt lat="43.0652770000" lon="0.6565480000"><ele>602</ele><time>2025-12-07T09:36:42Z</time></trkpt>
<trkpt lat="43.0652570000" lon="0.6565470000"><ele>602</ele><time>2025-12-07T09:36:45Z</time></trkpt>
<trkpt lat="43.0652370000" lon="0.6565620000"><ele>603</ele><time>2025-12-07T09:36:49Z</time></trkpt>
<trkpt lat="43.0652180000" lon="0.6565650000"><ele>603</ele><time>2025-12-07T09:36:53Z</time></trkpt>
<trkpt lat="43.0652170000" lon="0.6565920000"><ele>604</ele><time>2025-12-07T09:36:57Z</time></trkpt>
<trkpt lat="43.0651950000" lon="0.6566070000"><ele>606</ele><time>2025-12-07T09:37:14Z</time></trkpt>
<trkpt lat="43.0651670000" lon="0.6566120000"><ele>606</ele><time>2025-12-07T09:37:16Z</time></trkpt>
<trkpt lat="43.0651470000" lon="0.6566170000"><ele>606</ele><time>2025-12-07T09:37:17Z</time></trkpt>
<trkpt lat="43.0651300000" lon="0.6566200000"><ele>607</ele><time>2025-12-07T09:37:18Z</time></trkpt>
<trkpt lat="43.0651050000" lon="0.6566270000"><ele>607</ele><time>2025-12-07T09:37:20Z</time></trkpt>
<trkpt lat="43.0650820000" lon="0.6566370000"><ele>607</ele><time>2025-12-07T09:37:23Z</time></trkpt>
<trkpt lat="43.0650600000" lon="0.6566300000"><ele>608</ele><time>2025-12-07T09:37:29Z</time></trkpt>
<trkpt lat="43.0650420000" lon="0.6566220000"><ele>609</ele><time>2025-12-07T09:37:36Z</time></trkpt>
<trkpt lat="43.0650120000" lon="0.6566270000"><ele>612</ele><time>2025-12-07T09:37:57Z</time></trkpt>
<trkpt lat="43.0649920000" lon="0.6566250000"><ele>612</ele><time>2025-12-07T09:37:58Z</time></trkpt>
<trkpt lat="43.0649720000" lon="0.6566220000"><ele>612</ele><time>2025-12-07T09:37:59Z</time></trkpt>
<trkpt lat="43.0649500000" lon="0.6566170000"><ele>612</ele><time>2025-12-07T09:38:00Z</time></trkpt>
<trkpt lat="43.0649300000" lon="0.6566130000"><ele>612</ele><time>2025-12-07T09:38:01Z</time></trkpt>
<trkpt lat="43.0649020000" lon="0.6566070000"><ele>613</ele><time>2025-12-07T09:38:03Z</time></trkpt>
<trkpt lat="43.0648770000" lon="0.6566070000"><ele>613</ele><time>2025-12-07T09:38:05Z</time></trkpt>
<trkpt lat="43.0648570000" lon="0.6566170000"><ele>613</ele><time>2025-12-07T09:38:08Z</time></trkpt>
<trkpt lat="43.0648520000" lon="0.6566420000"><ele>614</ele><time>2025-12-07T09:38:13Z</time></trkpt>
<trkpt lat="43.0648570000" lon="0.6566680000"><ele>614</ele><time>2025-12-07T09:38:16Z</time></trkpt>
<trkpt lat="43.0648300000" lon="0.6566820000"><ele>616</ele><time>2025-12-07T09:38:34Z</time></trkpt>
<trkpt lat="43.0648120000" lon="0.6566870000"><ele>617</ele><time>2025-12-07T09:38:35Z</time></trkpt>
<trkpt lat="43.0647870000" lon="0.6566970000"><ele>617</ele><time>2025-12-07T09:38:36Z</time></trkpt>
<trkpt lat="43.0647620000" lon="0.6567030000"><ele>617</ele><time>2025-12-07T09:38:37Z</time></trkpt>
<trkpt lat="43.0647420000" lon="0.6567070000"><ele>617</ele><time>2025-12-07T09:38:38Z</time></trkpt>
<trkpt lat="43.0647220000" lon="0.6567120000"><ele>617</ele><time>2025-12-07T09:38:40Z</time></trkpt>
<trkpt lat="43.0647020000" lon="0.6566970000"><ele>618</ele><time>2025-12-07T09:38:43Z</time></trkpt>
<trkpt lat="43.0646820000" lon="0.6566870000"><ele>619</ele><time>2025-12-07T09:39:09Z</time></trkpt>
<trkpt lat="43.0646520000" lon="0.6566620000"><ele>619</ele><time>2025-12-07T09:39:11Z</time></trkpt>
<trkpt lat="43.0646350000" lon="0.6566480000"><ele>620</ele><time>2025-12-07T09:39:12Z</time></trkpt>
<trkpt lat="43.0646170000" lon="0.6566400000"><ele>620</ele><time>2025-12-07T09:39:13Z</time></trkpt>
<trkpt lat="43.0645950000" lon="0.6566300000"><ele>620</ele><time>2025-12-07T09:39:15Z</time></trkpt>
<trkpt lat="43.0645770000" lon="0.6566470000"><ele>622</ele><time>2025-12-07T09:39:29Z</time></trkpt>
<trkpt lat="43.0645620000" lon="0.6566680000"><ele>622</ele><time>2025-12-07T09:39:32Z</time></trkpt>
<trkpt lat="43.0645500000" lon="0.6566870000"><ele>623</ele><time>2025-12-07T09:39:34Z</time></trkpt>
<trkpt lat="43.0645320000" lon="0.6567020000"><ele>623</ele><time>2025-12-07T09:39:37Z</time></trkpt>
<trkpt lat="43.0645100000" lon="0.6567120000"><ele>624</ele><time>2025-12-07T09:39:43Z</time></trkpt>
<trkpt lat="43.0644920000" lon="0.6567220000"><ele>625</ele><time>2025-12-07T09:39:49Z</time></trkpt>
<trkpt lat="43.0644720000" lon="0.6567320000"><ele>628</ele><time>2025-12-07T09:40:26Z</time></trkpt>
<trkpt lat="43.0644420000" lon="0.6567470000"><ele>629</ele><time>2025-12-07T09:40:28Z</time></trkpt>
<trkpt lat="43.0644070000" lon="0.6567520000"><ele>629</ele><time>2025-12-07T09:40:30Z</time></trkpt>
<trkpt lat="43.0643730000" lon="0.6567420000"><ele>629</ele><time>2025-12-07T09:40:32Z</time></trkpt>
<trkpt lat="43.0643520000" lon="0.6567350000"><ele>629</ele><time>2025-12-07T09:40:34Z</time></trkpt>
<trkpt lat="43.0643700000" lon="0.6567170000"><ele>629</ele><time>2025-12-07T09:40:38Z</time></trkpt>
<trkpt lat="43.0643570000" lon="0.6567450000"><ele>631</ele><time>2025-12-07T09:41:15Z</time></trkpt>
<trkpt lat="43.0643350000" lon="0.6567520000"><ele>632</ele><time>2025-12-07T09:41:18Z</time></trkpt>
<trkpt lat="43.0643220000" lon="0.6567300000"><ele>633</ele><time>2025-12-07T09:41:21Z</time></trkpt>
<trkpt lat="43.0643100000" lon="0.6567070000"><ele>633</ele><time>2025-12-07T09:41:24Z</time></trkpt>
<trkpt lat="43.0642920000" lon="0.6567020000"><ele>634</ele><time>2025-12-07T09:41:32Z</time></trkpt>
<trkpt lat="43.0642700000" lon="0.6567070000"><ele>636</ele><time>2025-12-07T09:42:01Z</time></trkpt>
<trkpt lat="43.0642520000" lon="0.6567320000"><ele>636</ele><time>2025-12-07T09:42:04Z</time></trkpt>
<trkpt lat="43.0642330000" lon="0.6567420000"><ele>637</ele><time>2025-12-07T09:42:10Z</time></trkpt>
<trkpt lat="43.0642100000" lon="0.6567550000"><ele>639</ele><time>2025-12-07T09:42:20Z</time></trkpt>
<trkpt lat="43.0641870000" lon="0.6567520000"><ele>639</ele><time>2025-12-07T09:42:22Z</time></trkpt>
<trkpt lat="43.0641620000" lon="0.6567570000"><ele>639</ele><time>2025-12-07T09:42:24Z</time></trkpt>
<trkpt lat="43.0641420000" lon="0.6567680000"><ele>640</ele><time>2025-12-07T09:42:27Z</time></trkpt>
<trkpt lat="43.0641250000" lon="0.6567900000"><ele>640</ele><time>2025-12-07T09:42:31Z</time></trkpt>
<trkpt lat="43.0641050000" lon="0.6567920000"><ele>641</ele><time>2025-12-07T09:43:08Z</time></trkpt>
<trkpt lat="43.0640850000" lon="0.6568020000"><ele>641</ele><time>2025-12-07T09:43:12Z</time></trkpt>
<trkpt lat="43.0640650000" lon="0.6568030000"><ele>645</ele><time>2025-12-07T09:43:53Z</time></trkpt>
<trkpt lat="43.0640370000" lon="0.6567970000"><ele>645</ele><time>2025-12-07T09:43:54Z</time></trkpt>
<trkpt lat="43.0640120000" lon="0.6567900000"><ele>645</ele><time>2025-12-07T09:43:55Z</time></trkpt>
<trkpt lat="43.0639900000" lon="0.6567820000"><ele>645</ele><time>2025-12-07T09:43:56Z</time></trkpt>
<trkpt lat="43.0639620000" lon="0.6567750000"><ele>645</ele><time>2025-12-07T09:43:58Z</time></trkpt>
<trkpt lat="43.0639470000" lon="0.6567950000"><ele>646</ele><time>2025-12-07T09:44:00Z</time></trkpt>
<trkpt lat="43.0639300000" lon="0.6568070000"><ele>646</ele><time>2025-12-07T09:44:05Z</time></trkpt>
<trkpt lat="43.0639120000" lon="0.6568180000"><ele>647</ele><time>2025-12-07T09:44:07Z</time></trkpt>
<trkpt lat="43.0638950000" lon="0.6568300000"><ele>647</ele><time>2025-12-07T09:44:09Z</time></trkpt>
<trkpt lat="43.0638770000" lon="0.6568370000"><ele>648</ele><time>2025-12-07T09:44:13Z</time></trkpt>
<trkpt lat="43.0638520000" lon="0.6568370000"><ele>649</ele><time>2025-12-07T09:44:20Z</time></trkpt>
<trkpt lat="43.0638300000" lon="0.6568350000"><ele>649</ele><time>2025-12-07T09:44:22Z</time></trkpt>
<trkpt lat="43.0638100000" lon="0.6568150000"><ele>650</ele><time>2025-12-07T09:44:24Z</time></trkpt>
<trkpt lat="43.0637870000" lon="0.6568170000"><ele>650</ele><time>2025-12-07T09:44:27Z</time></trkpt>
<trkpt lat="43.0637770000" lon="0.6568420000"><ele>651</ele><time>2025-12-07T09:44:29Z</time></trkpt>
<trkpt lat="43.0637770000" lon="0.6568750000"><ele>651</ele><time>2025-12-07T09:44:36Z</time></trkpt>
<trkpt lat="43.0637520000" lon="0.6568770000"><ele>657</ele><time>2025-12-07T09:45:33Z</time></trkpt>
<trkpt lat="43.0637270000" lon="0.6568720000"><ele>657</ele><time>2025-12-07T09:45:34Z</time></trkpt>
<trkpt lat="43.0636970000" lon="0.6568620000"><ele>657</ele><time>2025-12-07T09:45:35Z</time></trkpt>
<trkpt lat="43.0636620000" lon="0.6568500000"><ele>657</ele><time>2025-12-07T09:45:36Z</time></trkpt>
<trkpt lat="43.0636320000" lon="0.6568370000"><ele>657</ele><time>2025-12-07T09:45:37Z</time></trkpt>
<trkpt lat="43.0636100000" lon="0.6568320000"><ele>657</ele><time>2025-12-07T09:45:38Z</time></trkpt>
<trkpt lat="43.0635850000" lon="0.6568300000"><ele>658</ele><time>2025-12-07T09:45:40Z</time></trkpt>
<trkpt lat="43.0635600000" lon="0.6568370000"><ele>658</ele><time>2025-12-07T09:45:43Z</time></trkpt>
<trkpt lat="43.0635400000" lon="0.6568470000"><ele>658</ele><time>2025-12-07T09:45:45Z</time></trkpt>
<trkpt lat="43.0635170000" lon="0.6568550000"><ele>658</ele><time>2025-12-07T09:45:48Z</time></trkpt>
<trkpt lat="43.0635000000" lon="0.6568500000"><ele>659</ele><time>2025-12-07T09:45:51Z</time></trkpt>
<trkpt lat="43.0634800000" lon="0.6568570000"><ele>659</ele><time>2025-12-07T09:45:54Z</time></trkpt>
<trkpt lat="43.0634570000" lon="0.6568570000"><ele>659</ele><time>2025-12-07T09:45:58Z</time></trkpt>
<trkpt lat="43.0634370000" lon="0.6568580000"><ele>660</ele><time>2025-12-07T09:46:01Z</time></trkpt>
<trkpt lat="43.0634170000" lon="0.6568620000"><ele>660</ele><time>2025-12-07T09:46:03Z</time></trkpt>
<trkpt lat="43.0633970000" lon="0.6568770000"><ele>660</ele><time>2025-12-07T09:46:07Z</time></trkpt>
<trkpt lat="43.0633750000" lon="0.6568770000"><ele>660</ele><time>2025-12-07T09:46:10Z</time></trkpt>
<trkpt lat="43.0633470000" lon="0.6568650000"><ele>660</ele><time>2025-12-07T09:46:12Z</time></trkpt>
<trkpt lat="43.0633300000" lon="0.6568520000"><ele>661</ele><time>2025-12-07T09:46:14Z</time></trkpt>
<trkpt lat="43.0633020000" lon="0.6568520000"><ele>661</ele><time>2025-12-07T09:46:16Z</time></trkpt>
<trkpt lat="43.0632820000" lon="0.6568470000"><ele>661</ele><time>2025-12-07T09:46:18Z</time></trkpt>
<trkpt lat="43.0632620000" lon="0.6568420000"><ele>661</ele><time>2025-12-07T09:46:22Z</time></trkpt>
<trkpt lat="43.0632420000" lon="0.6568470000"><ele>662</ele><time>2025-12-07T09:46:26Z</time></trkpt>
<trkpt lat="43.0632170000" lon="0.6568520000"><ele>662</ele><time>2025-12-07T09:46:29Z</time></trkpt>
<trkpt lat="43.0631970000" lon="0.6568620000"><ele>662</ele><time>2025-12-07T09:46:31Z</time></trkpt>
<trkpt lat="43.0631700000" lon="0.6568570000"><ele>662</ele><time>2025-12-07T09:46:33Z</time></trkpt>
<trkpt lat="43.0631500000" lon="0.6568520000"><ele>662</ele><time>2025-12-07T09:46:35Z</time></trkpt>
<trkpt lat="43.0631270000" lon="0.6568420000"><ele>663</ele><time>2025-12-07T09:46:39Z</time></trkpt>
<trkpt lat="43.0631020000" lon="0.6568420000"><ele>663</ele><time>2025-12-07T09:46:42Z</time></trkpt>
<trkpt lat="43.0630820000" lon="0.6568420000"><ele>664</ele><time>2025-12-07T09:46:46Z</time></trkpt>
<trkpt lat="43.0630620000" lon="0.6568300000"><ele>664</ele><time>2025-12-07T09:46:48Z</time></trkpt>
<trkpt lat="43.0630450000" lon="0.6568100000"><ele>664</ele><time>2025-12-07T09:46:52Z</time></trkpt>
<trkpt lat="43.0630170000" lon="0.6568170000"><ele>665</ele><time>2025-12-07T09:46:56Z</time></trkpt>
<trkpt lat="43.0629970000" lon="0.6568420000"><ele>665</ele><time>2025-12-07T09:46:58Z</time></trkpt>
<trkpt lat="43.0629770000" lon="0.6568470000"><ele>667</ele><time>2025-12-07T09:47:03Z</time></trkpt>
<trkpt lat="43.0629570000" lon="0.6568320000"><ele>667</ele><time>2025-12-07T09:47:07Z</time></trkpt>
<trkpt lat="43.0629370000" lon="0.6568170000"><ele>667</ele><time>2025-12-07T09:47:11Z</time></trkpt>
<trkpt lat="43.0629200000" lon="0.6568270000"><ele>668</ele><time>2025-12-07T09:47:13Z</time></trkpt>
<trkpt lat="43.0628970000" lon="0.6568450000"><ele>668</ele><time>2025-12-07T09:47:16Z</time></trkpt>
<trkpt lat="43.0628720000" lon="0.6568570000"><ele>668</ele><time>2025-12-07T09:47:19Z</time></trkpt>
<trkpt lat="43.0628520000" lon="0.6568670000"><ele>669</ele><time>2025-12-07T09:47:23Z</time></trkpt>
<trkpt lat="43.0628320000" lon="0.6568720000"><ele>670</ele><time>2025-12-07T09:47:26Z</time></trkpt>
<trkpt lat="43.0628100000" lon="0.6568620000"><ele>670</ele><time>2025-12-07T09:47:30Z</time></trkpt>
<trkpt lat="43.0627920000" lon="0.6568670000"><ele>671</ele><time>2025-12-07T09:47:33Z</time></trkpt>
<trkpt lat="43.0627650000" lon="0.6568650000"><ele>671</ele><time>2025-12-07T09:47:36Z</time></trkpt>
<trkpt lat="43.0627400000" lon="0.6568550000"><ele>671</ele><time>2025-12-07T09:47:38Z</time></trkpt>
<trkpt lat="43.0627170000" lon="0.6568500000"><ele>672</ele><time>2025-12-07T09:47:40Z</time></trkpt>
<trkpt lat="43.0627000000" lon="0.6568550000"><ele>672</ele><time>2025-12-07T09:47:43Z</time></trkpt>
<trkpt lat="43.0626770000" lon="0.6568520000"><ele>672</ele><time>2025-12-07T09:47:45Z</time></trkpt>
<trkpt lat="43.0626570000" lon="0.6568450000"><ele>672</ele><time>2025-12-07T09:47:47Z</time></trkpt>
<trkpt lat="43.0626370000" lon="0.6568370000"><ele>673</ele><time>2025-12-07T09:47:50Z</time></trkpt>
<trkpt lat="43.0626120000" lon="0.6568420000"><ele>673</ele><time>2025-12-07T09:47:53Z</time></trkpt>
<trkpt lat="43.0625900000" lon="0.6568420000"><ele>674</ele><time>2025-12-07T09:47:57Z</time></trkpt>
<trkpt lat="43.0625700000" lon="0.6568470000"><ele>674</ele><time>2025-12-07T09:48:00Z</time></trkpt>
<trkpt lat="43.0625500000" lon="0.6568450000"><ele>674</ele><time>2025-12-07T09:48:02Z</time></trkpt>
<trkpt lat="43.0625270000" lon="0.6568380000"><ele>675</ele><time>2025-12-07T09:48:04Z</time></trkpt>
<trkpt lat="43.0625070000" lon="0.6568370000"><ele>675</ele><time>2025-12-07T09:48:07Z</time></trkpt>
<trkpt lat="43.0624820000" lon="0.6568220000"><ele>675</ele><time>2025-12-07T09:48:10Z</time></trkpt>
<trkpt lat="43.0624650000" lon="0.6568120000"><ele>676</ele><time>2025-12-07T09:48:13Z</time></trkpt>
<trkpt lat="43.0624320000" lon="0.6568170000"><ele>676</ele><time>2025-12-07T09:48:16Z</time></trkpt>
<trkpt lat="43.0624100000" lon="0.6568180000"><ele>677</ele><time>2025-12-07T09:48:22Z</time></trkpt>
<trkpt lat="43.0623770000" lon="0.6568270000"><ele>677</ele><time>2025-12-07T09:48:26Z</time></trkpt>
<trkpt lat="43.0623500000" lon="0.6568370000"><ele>678</ele><time>2025-12-07T09:48:28Z</time></trkpt>
<trkpt lat="43.0623320000" lon="0.6568370000"><ele>678</ele><time>2025-12-07T09:48:30Z</time></trkpt>
<trkpt lat="43.0623120000" lon="0.6568270000"><ele>678</ele><time>2025-12-07T09:48:32Z</time></trkpt>
<trkpt lat="43.0622870000" lon="0.6568270000"><ele>678</ele><time>2025-12-07T09:48:35Z</time></trkpt>
<trkpt lat="43.0622620000" lon="0.6568220000"><ele>678</ele><time>2025-12-07T09:48:38Z</time></trkpt>
<trkpt lat="43.0622420000" lon="0.6568020000"><ele>679</ele><time>2025-12-07T09:48:41Z</time></trkpt>
<trkpt lat="43.0622220000" lon="0.6567970000"><ele>679</ele><time>2025-12-07T09:48:43Z</time></trkpt>
<trkpt lat="43.0622050000" lon="0.6567870000"><ele>679</ele><time>2025-12-07T09:48:46Z</time></trkpt>
<trkpt lat="43.0621870000" lon="0.6567770000"><ele>680</ele><time>2025-12-07T09:48:49Z</time></trkpt>
<trkpt lat="43.0621650000" lon="0.6567820000"><ele>680</ele><time>2025-12-07T09:48:51Z</time></trkpt>
<trkpt lat="43.0621470000" lon="0.6568020000"><ele>680</ele><time>2025-12-07T09:48:54Z</time></trkpt>
<trkpt lat="43.0621250000" lon="0.6568120000"><ele>681</ele><time>2025-12-07T09:48:58Z</time></trkpt>
<trkpt lat="43.0620970000" lon="0.6567970000"><ele>681</ele><time>2025-12-07T09:49:01Z</time></trkpt>
<trkpt lat="43.0620770000" lon="0.6568000000"><ele>682</ele><time>2025-12-07T09:49:05Z</time></trkpt>
<trkpt lat="43.0620520000" lon="0.6568000000"><ele>682</ele><time>2025-12-07T09:49:09Z</time></trkpt>
<trkpt lat="43.0620320000" lon="0.6567870000"><ele>683</ele><time>2025-12-07T09:49:12Z</time></trkpt>
<trkpt lat="43.0620150000" lon="0.6567870000"><ele>683</ele><time>2025-12-07T09:49:14Z</time></trkpt>
<trkpt lat="43.0619970000" lon="0.6568020000"><ele>684</ele><time>2025-12-07T09:49:17Z</time></trkpt>
<trkpt lat="43.0619800000" lon="0.6568120000"><ele>684</ele><time>2025-12-07T09:49:22Z</time></trkpt>
<trkpt lat="43.0619620000" lon="0.6568070000"><ele>685</ele><time>2025-12-07T09:49:28Z</time></trkpt>
<trkpt lat="43.0619570000" lon="0.6568370000"><ele>685</ele><time>2025-12-07T09:49:35Z</time></trkpt>
<trkpt lat="43.0619370000" lon="0.6568670000"><ele>685</ele><time>2025-12-07T09:49:37Z</time></trkpt>
<trkpt lat="43.0619170000" lon="0.6568870000"><ele>686</ele><time>2025-12-07T09:49:38Z</time></trkpt>
<trkpt lat="43.0619000000" lon="0.6569030000"><ele>686</ele><time>2025-12-07T09:49:39Z</time></trkpt>
<trkpt lat="43.0618770000" lon="0.6569220000"><ele>686</ele><time>2025-12-07T09:49:41Z</time></trkpt>
<trkpt lat="43.0618620000" lon="0.6569350000"><ele>686</ele><time>2025-12-07T09:49:43Z</time></trkpt>
<trkpt lat="43.0618420000" lon="0.6569520000"><ele>686</ele><time>2025-12-07T09:49:45Z</time></trkpt>
<trkpt lat="43.0618170000" lon="0.6569500000"><ele>686</ele><time>2025-12-07T09:49:48Z</time></trkpt>
<trkpt lat="43.0617970000" lon="0.6569470000"><ele>687</ele><time>2025-12-07T09:49:52Z</time></trkpt>
<trkpt lat="43.0617870000" lon="0.6569670000"><ele>687</ele><time>2025-12-07T09:50:13Z</time></trkpt>
<trkpt lat="43.0617620000" lon="0.6569770000"><ele>686</ele><time>2025-12-07T09:50:23Z</time></trkpt>
<trkpt lat="43.0617420000" lon="0.6569820000"><ele>686</ele><time>2025-12-07T09:50:24Z</time></trkpt>
<trkpt lat="43.0617200000" lon="0.6569820000"><ele>686</ele><time>2025-12-07T09:50:25Z</time></trkpt>
<trkpt lat="43.0616970000" lon="0.6569850000"><ele>686</ele><time>2025-12-07T09:50:26Z</time></trkpt>
<trkpt lat="43.0616700000" lon="0.6569900000"><ele>685</ele><time>2025-12-07T09:50:28Z</time></trkpt>
<trkpt lat="43.0616550000" lon="0.6570070000"><ele>685</ele><time>2025-12-07T09:50:31Z</time></trkpt>
<trkpt lat="43.0616420000" lon="0.6570300000"><ele>684</ele><time>2025-12-07T09:50:34Z</time></trkpt>
<trkpt lat="43.0616220000" lon="0.6570220000"><ele>685</ele><time>2025-12-07T09:50:37Z</time></trkpt>
<trkpt lat="43.0615970000" lon="0.6570250000"><ele>684</ele><time>2025-12-07T09:50:43Z</time></trkpt>
<trkpt lat="43.0615770000" lon="0.6570350000"><ele>684</ele><time>2025-12-07T09:50:46Z</time></trkpt>
<trkpt lat="43.0615550000" lon="0.6570520000"><ele>684</ele><time>2025-12-07T09:50:49Z</time></trkpt>
<trkpt lat="43.0615350000" lon="0.6570730000"><ele>683</ele><time>2025-12-07T09:50:51Z</time></trkpt>
<trkpt lat="43.0615200000" lon="0.6570880000"><ele>683</ele><time>2025-12-07T09:50:53Z</time></trkpt>
<trkpt lat="43.0615000000" lon="0.6570930000"><ele>683</ele><time>2025-12-07T09:50:56Z</time></trkpt>
<trkpt lat="43.0614820000" lon="0.6570930000"><ele>683</ele><time>2025-12-07T09:50:58Z</time></trkpt>
<trkpt lat="43.0614620000" lon="0.6571070000"><ele>683</ele><time>2025-12-07T09:51:00Z</time></trkpt>
<trkpt lat="43.0614400000" lon="0.6571050000"><ele>683</ele><time>2025-12-07T09:51:02Z</time></trkpt>
<trkpt lat="43.0614170000" lon="0.6571120000"><ele>682</ele><time>2025-12-07T09:51:06Z</time></trkpt>
<trkpt lat="43.0613920000" lon="0.6571070000"><ele>682</ele><time>2025-12-07T09:51:08Z</time></trkpt>
<trkpt lat="43.0613720000" lon="0.6571020000"><ele>681</ele><time>2025-12-07T09:51:10Z</time></trkpt>
<trkpt lat="43.0613520000" lon="0.6571000000"><ele>681</ele><time>2025-12-07T09:51:13Z</time></trkpt>
<trkpt lat="43.0613320000" lon="0.6570870000"><ele>681</ele><time>2025-12-07T09:51:16Z</time></trkpt>
<trkpt lat="43.0613120000" lon="0.6570880000"><ele>680</ele><time>2025-12-07T09:51:18Z</time></trkpt>
<trkpt lat="43.0612920000" lon="0.6570920000"><ele>680</ele><time>2025-12-07T09:51:20Z</time></trkpt>
<trkpt lat="43.0612720000" lon="0.6570930000"><ele>680</ele><time>2025-12-07T09:51:24Z</time></trkpt>
<trkpt lat="43.0612520000" lon="0.6570920000"><ele>679</ele><time>2025-12-07T09:51:27Z</time></trkpt>
<trkpt lat="43.0612350000" lon="0.6570880000"><ele>679</ele><time>2025-12-07T09:51:29Z</time></trkpt>
<trkpt lat="43.0612070000" lon="0.6570720000"><ele>678</ele><time>2025-12-07T09:51:32Z</time></trkpt>
<trkpt lat="43.0611870000" lon="0.6570600000"><ele>678</ele><time>2025-12-07T09:51:34Z</time></trkpt>
<trkpt lat="43.0611670000" lon="0.6570420000"><ele>678</ele><time>2025-12-07T09:51:37Z</time></trkpt>
<trkpt lat="43.0611450000" lon="0.6570370000"><ele>678</ele><time>2025-12-07T09:51:40Z</time></trkpt>
<trkpt lat="43.0611270000" lon="0.6570380000"><ele>677</ele><time>2025-12-07T09:51:42Z</time></trkpt>
<trkpt lat="43.0611020000" lon="0.6570420000"><ele>677</ele><time>2025-12-07T09:51:44Z</time></trkpt>
<trkpt lat="43.0610750000" lon="0.6570420000"><ele>677</ele><time>2025-12-07T09:51:47Z</time></trkpt>
<trkpt lat="43.0610550000" lon="0.6570380000"><ele>676</ele><time>2025-12-07T09:51:49Z</time></trkpt>
<trkpt lat="43.0610300000" lon="0.6570250000"><ele>676</ele><time>2025-12-07T09:51:51Z</time></trkpt>
<trkpt lat="43.0610070000" lon="0.6570150000"><ele>675</ele><time>2025-12-07T09:51:53Z</time></trkpt>
<trkpt lat="43.0609870000" lon="0.6570070000"><ele>675</ele><time>2025-12-07T09:51:56Z</time></trkpt>
<trkpt lat="43.0609650000" lon="0.6570200000"><ele>674</ele><time>2025-12-07T09:51:59Z</time></trkpt>
<trkpt lat="43.0609400000" lon="0.6570020000"><ele>674</ele><time>2025-12-07T09:52:02Z</time></trkpt>
<trkpt lat="43.0609120000" lon="0.6570030000"><ele>673</ele><time>2025-12-07T09:52:05Z</time></trkpt>
<trkpt lat="43.0608920000" lon="0.6570070000"><ele>673</ele><time>2025-12-07T09:52:08Z</time></trkpt>
<trkpt lat="43.0608670000" lon="0.6570020000"><ele>673</ele><time>2025-12-07T09:52:11Z</time></trkpt>
<trkpt lat="43.0608470000" lon="0.6570000000"><ele>672</ele><time>2025-12-07T09:52:13Z</time></trkpt>
<trkpt lat="43.0608300000" lon="0.6570120000"><ele>672</ele><time>2025-12-07T09:52:15Z</time></trkpt>
<trkpt lat="43.0608100000" lon="0.6570350000"><ele>672</ele><time>2025-12-07T09:52:18Z</time></trkpt>
<trkpt lat="43.0607850000" lon="0.6570250000"><ele>671</ele><time>2025-12-07T09:52:20Z</time></trkpt>
<trkpt lat="43.0607650000" lon="0.6570170000"><ele>670</ele><time>2025-12-07T09:52:27Z</time></trkpt>
<trkpt lat="43.0607470000" lon="0.6569930000"><ele>671</ele><time>2025-12-07T09:52:54Z</time></trkpt>
<trkpt lat="43.0607550000" lon="0.6569620000"><ele>671</ele><time>2025-12-07T09:52:56Z</time></trkpt>
<trkpt lat="43.0607670000" lon="0.6569370000"><ele>670</ele><time>2025-12-07T09:53:31Z</time></trkpt>
<trkpt lat="43.0607570000" lon="0.6569170000"><ele>670</ele><time>2025-12-07T09:54:58Z</time></trkpt>
<trkpt lat="43.0607620000" lon="0.6568920000"><ele>670</ele><time>2025-12-07T09:54:59Z</time></trkpt>
<trkpt lat="43.0607720000" lon="0.6568580000"><ele>670</ele><time>2025-12-07T09:55:01Z</time></trkpt>
<trkpt lat="43.0607720000" lon="0.6568320000"><ele>670</ele><time>2025-12-07T09:55:05Z</time></trkpt>
<trkpt lat="43.0607720000" lon="0.6568020000"><ele>671</ele><time>2025-12-07T09:55:08Z</time></trkpt>
<trkpt lat="43.0607720000" lon="0.6567750000"><ele>671</ele><time>2025-12-07T09:55:13Z</time></trkpt>
<trkpt lat="43.0607600000" lon="0.6567520000"><ele>671</ele><time>2025-12-07T09:55:16Z</time></trkpt>
<trkpt lat="43.0607470000" lon="0.6567320000"><ele>671</ele><time>2025-12-07T09:55:18Z</time></trkpt>
<trkpt lat="43.0607320000" lon="0.6567100000"><ele>671</ele><time>2025-12-07T09:55:20Z</time></trkpt>
<trkpt lat="43.0607070000" lon="0.6566920000"><ele>671</ele><time>2025-12-07T09:55:22Z</time></trkpt>
<trkpt lat="43.0606900000" lon="0.6566750000"><ele>671</ele><time>2025-12-07T09:55:24Z</time></trkpt>
<trkpt lat="43.0606700000" lon="0.6566620000"><ele>672</ele><time>2025-12-07T09:55:26Z</time></trkpt>
<trkpt lat="43.0606470000" lon="0.6566620000"><ele>671</ele><time>2025-12-07T09:55:29Z</time></trkpt>
<trkpt lat="43.0606470000" lon="0.6566320000"><ele>671</ele><time>2025-12-07T09:55:50Z</time></trkpt>
<trkpt lat="43.0606370000" lon="0.6566600000"><ele>672</ele><time>2025-12-07T09:55:55Z</time></trkpt>
<trkpt lat="43.0606200000" lon="0.6566770000"><ele>672</ele><time>2025-12-07T09:56:01Z</time></trkpt>
<trkpt lat="43.0606070000" lon="0.6566950000"><ele>672</ele><time>2025-12-07T09:56:04Z</time></trkpt>
<trkpt lat="43.0605880000" lon="0.6567150000"><ele>672</ele><time>2025-12-07T09:56:09Z</time></trkpt>
<trkpt lat="43.0605720000" lon="0.6567170000"><ele>673</ele><time>2025-12-07T09:56:12Z</time></trkpt>
<trkpt lat="43.0605520000" lon="0.6566970000"><ele>673</ele><time>2025-12-07T09:56:16Z</time></trkpt>
<trkpt lat="43.0605250000" lon="0.6567100000"><ele>675</ele><time>2025-12-07T09:56:41Z</time></trkpt>
<trkpt lat="43.0604970000" lon="0.6567350000"><ele>676</ele><time>2025-12-07T09:56:43Z</time></trkpt>
<trkpt lat="43.0604770000" lon="0.6567620000"><ele>676</ele><time>2025-12-07T09:56:45Z</time></trkpt>
<trkpt lat="43.0604600000" lon="0.6567800000"><ele>676</ele><time>2025-12-07T09:56:49Z</time></trkpt>
<trkpt lat="43.0604450000" lon="0.6567950000"><ele>676</ele><time>2025-12-07T09:57:07Z</time></trkpt>
<trkpt lat="43.0604270000" lon="0.6568030000"><ele>677</ele><time>2025-12-07T09:57:25Z</time></trkpt>
<trkpt lat="43.0604070000" lon="0.6568170000"><ele>677</ele><time>2025-12-07T09:57:29Z</time></trkpt>
<trkpt lat="43.0603820000" lon="0.6568120000"><ele>677</ele><time>2025-12-07T09:57:32Z</time></trkpt>
<trkpt lat="43.0603630000" lon="0.6568000000"><ele>679</ele><time>2025-12-07T09:57:47Z</time></trkpt>
<trkpt lat="43.0603370000" lon="0.6568120000"><ele>680</ele><time>2025-12-07T09:57:49Z</time></trkpt>
<trkpt lat="43.0603170000" lon="0.6568300000"><ele>680</ele><time>2025-12-07T09:57:51Z</time></trkpt>
<trkpt lat="43.0603070000" lon="0.6568550000"><ele>680</ele><time>2025-12-07T09:57:54Z</time></trkpt>
<trkpt lat="43.0602900000" lon="0.6568720000"><ele>680</ele><time>2025-12-07T09:57:58Z</time></trkpt>
<trkpt lat="43.0602720000" lon="0.6568820000"><ele>680</ele><time>2025-12-07T09:58:02Z</time></trkpt>
<trkpt lat="43.0602550000" lon="0.6568950000"><ele>680</ele><time>2025-12-07T09:58:05Z</time></trkpt>
<trkpt lat="43.0602470000" lon="0.6569170000"><ele>680</ele><time>2025-12-07T09:58:11Z</time></trkpt>
<trkpt lat="43.0602350000" lon="0.6569350000"><ele>682</ele><time>2025-12-07T09:58:43Z</time></trkpt>
<trkpt lat="43.0602170000" lon="0.6569320000"><ele>685</ele><time>2025-12-07T09:59:15Z</time></trkpt>
<trkpt lat="43.0601950000" lon="0.6569170000"><ele>685</ele><time>2025-12-07T09:59:17Z</time></trkpt>
<trkpt lat="43.0601720000" lon="0.6569000000"><ele>685</ele><time>2025-12-07T09:59:19Z</time></trkpt>
<trkpt lat="43.0601570000" lon="0.6568820000"><ele>685</ele><time>2025-12-07T09:59:21Z</time></trkpt>
<trkpt lat="43.0601370000" lon="0.6568800000"><ele>686</ele><time>2025-12-07T09:59:49Z</time></trkpt>
<trkpt lat="43.0601170000" lon="0.6568870000"><ele>686</ele><time>2025-12-07T09:59:51Z</time></trkpt>
<trkpt lat="43.0601070000" lon="0.6569120000"><ele>686</ele><time>2025-12-07T09:59:55Z</time></trkpt>
<trkpt lat="43.0601050000" lon="0.6568820000"><ele>687</ele><time>2025-12-07T10:00:59Z</time></trkpt>
<trkpt lat="43.0601120000" lon="0.6568550000"><ele>687</ele><time>2025-12-07T10:01:01Z</time></trkpt>
<trkpt lat="43.0601170000" lon="0.6568300000"><ele>687</ele><time>2025-12-07T10:01:03Z</time></trkpt>
<trkpt lat="43.0601000000" lon="0.6568450000"><ele>689</ele><time>2025-12-07T10:02:10Z</time></trkpt>
<trkpt lat="43.0600770000" lon="0.6568270000"><ele>689</ele><time>2025-12-07T10:02:12Z</time></trkpt>
<trkpt lat="43.0600600000" lon="0.6568100000"><ele>689</ele><time>2025-12-07T10:02:14Z</time></trkpt>
<trkpt lat="43.0600470000" lon="0.6568300000"><ele>689</ele><time>2025-12-07T10:02:18Z</time></trkpt>
<trkpt lat="43.0600500000" lon="0.6568620000"><ele>688</ele><time>2025-12-07T10:02:22Z</time></trkpt>
<trkpt lat="43.0600420000" lon="0.6568970000"><ele>689</ele><time>2025-12-07T10:02:32Z</time></trkpt>
<trkpt lat="43.0600400000" lon="0.6569220000"><ele>689</ele><time>2025-12-07T10:02:34Z</time></trkpt>
<trkpt lat="43.0600370000" lon="0.6569500000"><ele>689</ele><time>2025-12-07T10:02:38Z</time></trkpt>
<trkpt lat="43.0600120000" lon="0.6569570000"><ele>692</ele><time>2025-12-07T10:03:36Z</time></trkpt>
<trkpt lat="43.0599920000" lon="0.6569720000"><ele>692</ele><time>2025-12-07T10:03:37Z</time></trkpt>
<trkpt lat="43.0599670000" lon="0.6569900000"><ele>692</ele><time>2025-12-07T10:03:38Z</time></trkpt>
<trkpt lat="43.0599370000" lon="0.6570030000"><ele>692</ele><time>2025-12-07T10:03:39Z</time></trkpt>
<trkpt lat="43.0599070000" lon="0.6570150000"><ele>692</ele><time>2025-12-07T10:03:40Z</time></trkpt>
<trkpt lat="43.0598870000" lon="0.6570170000"><ele>692</ele><time>2025-12-07T10:03:41Z</time></trkpt>
<trkpt lat="43.0598850000" lon="0.6570520000"><ele>693</ele><time>2025-12-07T10:03:54Z</time></trkpt>
<trkpt lat="43.0598670000" lon="0.6570770000"><ele>693</ele><time>2025-12-07T10:04:44Z</time></trkpt>
<trkpt lat="43.0598470000" lon="0.6570870000"><ele>694</ele><time>2025-12-07T10:04:45Z</time></trkpt>
<trkpt lat="43.0598270000" lon="0.6570970000"><ele>694</ele><time>2025-12-07T10:04:46Z</time></trkpt>
<trkpt lat="43.0598070000" lon="0.6571070000"><ele>694</ele><time>2025-12-07T10:04:47Z</time></trkpt>
<trkpt lat="43.0597870000" lon="0.6571170000"><ele>693</ele><time>2025-12-07T10:04:48Z</time></trkpt>
<trkpt lat="43.0597650000" lon="0.6571270000"><ele>693</ele><time>2025-12-07T10:04:50Z</time></trkpt>
<trkpt lat="43.0597620000" lon="0.6571520000"><ele>693</ele><time>2025-12-07T10:04:53Z</time></trkpt>
<trkpt lat="43.0597370000" lon="0.6571380000"><ele>694</ele><time>2025-12-07T10:05:00Z</time></trkpt>
<trkpt lat="43.0597220000" lon="0.6571620000"><ele>694</ele><time>2025-12-07T10:05:05Z</time></trkpt>
<trkpt lat="43.0597000000" lon="0.6571800000"><ele>694</ele><time>2025-12-07T10:05:10Z</time></trkpt>
<trkpt lat="43.0596770000" lon="0.6571870000"><ele>694</ele><time>2025-12-07T10:05:13Z</time></trkpt>
<trkpt lat="43.0596520000" lon="0.6571770000"><ele>695</ele><time>2025-12-07T10:05:15Z</time></trkpt>
<trkpt lat="43.0596350000" lon="0.6571720000"><ele>695</ele><time>2025-12-07T10:05:19Z</time></trkpt>
<trkpt lat="43.0596150000" lon="0.6571700000"><ele>695</ele><time>2025-12-07T10:05:22Z</time></trkpt>
<trkpt lat="43.0596070000" lon="0.6571950000"><ele>696</ele><time>2025-12-07T10:05:26Z</time></trkpt>
<trkpt lat="43.0595970000" lon="0.6572170000"><ele>696</ele><time>2025-12-07T10:05:28Z</time></trkpt>
<trkpt lat="43.0595720000" lon="0.6572120000"><ele>696</ele><time>2025-12-07T10:05:31Z</time></trkpt>
<trkpt lat="43.0595600000" lon="0.6571920000"><ele>696</ele><time>2025-12-07T10:05:32Z</time></trkpt>
<trkpt lat="43.0595450000" lon="0.6571720000"><ele>696</ele><time>2025-12-07T10:05:34Z</time></trkpt>
<trkpt lat="43.0595300000" lon="0.6571550000"><ele>697</ele><time>2025-12-07T10:05:36Z</time></trkpt>
<trkpt lat="43.0595200000" lon="0.6571320000"><ele>697</ele><time>2025-12-07T10:05:38Z</time></trkpt>
<trkpt lat="43.0595020000" lon="0.6571170000"><ele>697</ele><time>2025-12-07T10:05:41Z</time></trkpt>
<trkpt lat="43.0594920000" lon="0.6570970000"><ele>698</ele><time>2025-12-07T10:05:48Z</time></trkpt>
<trkpt lat="43.0594670000" lon="0.6570880000"><ele>698</ele><time>2025-12-07T10:05:52Z</time></trkpt>
<trkpt lat="43.0594470000" lon="0.6570970000"><ele>699</ele><time>2025-12-07T10:06:04Z</time></trkpt>
<trkpt lat="43.0594250000" lon="0.6571070000"><ele>699</ele><time>2025-12-07T10:06:06Z</time></trkpt>
<trkpt lat="43.0594020000" lon="0.6571080000"><ele>699</ele><time>2025-12-07T10:06:09Z</time></trkpt>
<trkpt lat="43.0593850000" lon="0.6570970000"><ele>699</ele><time>2025-12-07T10:06:12Z</time></trkpt>
<trkpt lat="43.0593700000" lon="0.6571270000"><ele>699</ele><time>2025-12-07T10:06:17Z</time></trkpt>
<trkpt lat="43.0593470000" lon="0.6571520000"><ele>701</ele><time>2025-12-07T10:06:27Z</time></trkpt>
<trkpt lat="43.0593320000" lon="0.6571850000"><ele>701</ele><time>2025-12-07T10:06:29Z</time></trkpt>
<trkpt lat="43.0593270000" lon="0.6572150000"><ele>701</ele><time>2025-12-07T10:06:31Z</time></trkpt>
<trkpt lat="43.0593250000" lon="0.6572420000"><ele>701</ele><time>2025-12-07T10:06:34Z</time></trkpt>
<trkpt lat="43.0593350000" lon="0.6572670000"><ele>701</ele><time>2025-12-07T10:06:39Z</time></trkpt>
<trkpt lat="43.0593200000" lon="0.6572820000"><ele>700</ele><time>2025-12-07T10:06:42Z</time></trkpt>
<trkpt lat="43.0592870000" lon="0.6572850000"><ele>701</ele><time>2025-12-07T10:06:57Z</time></trkpt>
<trkpt lat="43.0592570000" lon="0.6572770000"><ele>702</ele><time>2025-12-07T10:06:59Z</time></trkpt>
<trkpt lat="43.0592370000" lon="0.6572700000"><ele>702</ele><time>2025-12-07T10:07:00Z</time></trkpt>
<trkpt lat="43.0592120000" lon="0.6572720000"><ele>702</ele><time>2025-12-07T10:07:02Z</time></trkpt>
<trkpt lat="43.0591900000" lon="0.6572700000"><ele>703</ele><time>2025-12-07T10:07:16Z</time></trkpt>
<trkpt lat="43.0591720000" lon="0.6572430000"><ele>703</ele><time>2025-12-07T10:07:18Z</time></trkpt>
<trkpt lat="43.0591500000" lon="0.6572220000"><ele>703</ele><time>2025-12-07T10:07:20Z</time></trkpt>
<trkpt lat="43.0591400000" lon="0.6572000000"><ele>703</ele><time>2025-12-07T10:07:25Z</time></trkpt>
<trkpt lat="43.0591220000" lon="0.6571870000"><ele>704</ele><time>2025-12-07T10:07:29Z</time></trkpt>
<trkpt lat="43.0591120000" lon="0.6572170000"><ele>704</ele><time>2025-12-07T10:07:40Z</time></trkpt>
<trkpt lat="43.0591120000" lon="0.6572420000"><ele>704</ele><time>2025-12-07T10:07:42Z</time></trkpt>
<trkpt lat="43.0591120000" lon="0.6572670000"><ele>704</ele><time>2025-12-07T10:07:45Z</time></trkpt>
<trkpt lat="43.0590870000" lon="0.6572820000"><ele>704</ele><time>2025-12-07T10:07:50Z</time></trkpt>
<trkpt lat="43.0590680000" lon="0.6572750000"><ele>705</ele><time>2025-12-07T10:07:53Z</time></trkpt>
<trkpt lat="43.0590550000" lon="0.6572570000"><ele>705</ele><time>2025-12-07T10:07:56Z</time></trkpt>
<trkpt lat="43.0590420000" lon="0.6572770000"><ele>705</ele><time>2025-12-07T10:08:01Z</time></trkpt>
<trkpt lat="43.0590170000" lon="0.6572900000"><ele>705</ele><time>2025-12-07T10:08:04Z</time></trkpt>
<trkpt lat="43.0589920000" lon="0.6573070000"><ele>706</ele><time>2025-12-07T10:08:10Z</time></trkpt>
<trkpt lat="43.0589770000" lon="0.6573200000"><ele>706</ele><time>2025-12-07T10:08:14Z</time></trkpt>
<trkpt lat="43.0589620000" lon="0.6573470000"><ele>706</ele><time>2025-12-07T10:08:21Z</time></trkpt>
<trkpt lat="43.0589470000" lon="0.6573370000"><ele>707</ele><time>2025-12-07T10:08:41Z</time></trkpt>
<trkpt lat="43.0589320000" lon="0.6573200000"><ele>707</ele><time>2025-12-07T10:08:43Z</time></trkpt>
<trkpt lat="43.0589120000" lon="0.6573120000"><ele>707</ele><time>2025-12-07T10:08:49Z</time></trkpt>
<trkpt lat="43.0588920000" lon="0.6573120000"><ele>707</ele><time>2025-12-07T10:08:52Z</time></trkpt>
<trkpt lat="43.0588620000" lon="0.6573200000"><ele>707</ele><time>2025-12-07T10:10:05Z</time></trkpt>
<trkpt lat="43.0588420000" lon="0.6573220000"><ele>707</ele><time>2025-12-07T10:10:06Z</time></trkpt>
<trkpt lat="43.0588220000" lon="0.6573250000"><ele>707</ele><time>2025-12-07T10:10:07Z</time></trkpt>
<trkpt lat="43.0587970000" lon="0.6573350000"><ele>707</ele><time>2025-12-07T10:10:09Z</time></trkpt>
<trkpt lat="43.0588120000" lon="0.6573080000"><ele>707</ele><time>2025-12-07T10:10:15Z</time></trkpt>
<trkpt lat="43.0588020000" lon="0.6572850000"><ele>708</ele><time>2025-12-07T10:10:28Z</time></trkpt>
<trkpt lat="43.0587800000" lon="0.6572800000"><ele>707</ele><time>2025-12-07T10:10:30Z</time></trkpt>
<trkpt lat="43.0587600000" lon="0.6572770000"><ele>708</ele><time>2025-12-07T10:10:32Z</time></trkpt>
<trkpt lat="43.0587420000" lon="0.6572800000"><ele>708</ele><time>2025-12-07T10:10:37Z</time></trkpt>
<trkpt lat="43.0587200000" lon="0.6572600000"><ele>708</ele><time>2025-12-07T10:11:02Z</time></trkpt>
<trkpt lat="43.0587020000" lon="0.6572370000"><ele>708</ele><time>2025-12-07T10:11:04Z</time></trkpt>
<trkpt lat="43.0586950000" lon="0.6572020000"><ele>708</ele><time>2025-12-07T10:11:07Z</time></trkpt>
<trkpt lat="43.0586850000" lon="0.6571700000"><ele>708</ele><time>2025-12-07T10:11:10Z</time></trkpt>
<trkpt lat="43.0586770000" lon="0.6571420000"><ele>709</ele><time>2025-12-07T10:11:13Z</time></trkpt>
<trkpt lat="43.0586570000" lon="0.6571250000"><ele>708</ele><time>2025-12-07T10:11:17Z</time></trkpt>
<trkpt lat="43.0586350000" lon="0.6571150000"><ele>708</ele><time>2025-12-07T10:11:19Z</time></trkpt>
<trkpt lat="43.0586170000" lon="0.6571080000"><ele>708</ele><time>2025-12-07T10:11:23Z</time></trkpt>
<trkpt lat="43.0586420000" lon="0.6571070000"><ele>709</ele><time>2025-12-07T10:11:54Z</time></trkpt>
<trkpt lat="43.0586570000" lon="0.6571220000"><ele>708</ele><time>2025-12-07T10:12:00Z</time></trkpt>
<trkpt lat="43.0586720000" lon="0.6571500000"><ele>708</ele><time>2025-12-07T10:12:38Z</time></trkpt>
<trkpt lat="43.0586800000" lon="0.6571730000"><ele>708</ele><time>2025-12-07T10:12:39Z</time></trkpt>
<trkpt lat="43.0586900000" lon="0.6572070000"><ele>708</ele><time>2025-12-07T10:12:40Z</time></trkpt>
<trkpt lat="43.0587000000" lon="0.6572400000"><ele>708</ele><time>2025-12-07T10:12:41Z</time></trkpt>
<trkpt lat="43.0587100000" lon="0.6572670000"><ele>708</ele><time>2025-12-07T10:12:42Z</time></trkpt>
<trkpt lat="43.0587170000" lon="0.6573000000"><ele>708</ele><time>2025-12-07T10:12:44Z</time></trkpt>
<trkpt lat="43.0587300000" lon="0.6572720000"><ele>708</ele><time>2025-12-07T10:13:22Z</time></trkpt>
<trkpt lat="43.0587620000" lon="0.6572620000"><ele>708</ele><time>2025-12-07T10:13:24Z</time></trkpt>
<trkpt lat="43.0587800000" lon="0.6572550000"><ele>708</ele><time>2025-12-07T10:13:25Z</time></trkpt>
<trkpt lat="43.0588120000" lon="0.6572420000"><ele>708</ele><time>2025-12-07T10:13:27Z</time></trkpt>
<trkpt lat="43.0588350000" lon="0.6572400000"><ele>708</ele><time>2025-12-07T10:13:29Z</time></trkpt>
<trkpt lat="43.0588420000" lon="0.6572120000"><ele>707</ele><time>2025-12-07T10:13:47Z</time></trkpt>
<trkpt lat="43.0588570000" lon="0.6571870000"><ele>707</ele><time>2025-12-07T10:13:50Z</time></trkpt>
<trkpt lat="43.0588750000" lon="0.6571730000"><ele>707</ele><time>2025-12-07T10:13:55Z</time></trkpt>
<trkpt lat="43.0588750000" lon="0.6571420000"><ele>707</ele><time>2025-12-07T10:14:00Z</time></trkpt>
<trkpt lat="43.0588670000" lon="0.6571120000"><ele>707</ele><time>2025-12-07T10:14:02Z</time></trkpt>
<trkpt lat="43.0588620000" lon="0.6570870000"><ele>708</ele><time>2025-12-07T10:14:08Z</time></trkpt>
<trkpt lat="43.0588750000" lon="0.6570670000"><ele>707</ele><time>2025-12-07T10:14:10Z</time></trkpt>
<trkpt lat="43.0588950000" lon="0.6570770000"><ele>707</ele><time>2025-12-07T10:14:13Z</time></trkpt>
<trkpt lat="43.0589150000" lon="0.6570970000"><ele>707</ele><time>2025-12-07T10:14:15Z</time></trkpt>
<trkpt lat="43.0589350000" lon="0.6571150000"><ele>707</ele><time>2025-12-07T10:14:22Z</time></trkpt>
<trkpt lat="43.0589520000" lon="0.6571270000"><ele>707</ele><time>2025-12-07T10:14:24Z</time></trkpt>
<trkpt lat="43.0589750000" lon="0.6571270000"><ele>706</ele><time>2025-12-07T10:14:27Z</time></trkpt>
<trkpt lat="43.0589980000" lon="0.6571420000"><ele>706</ele><time>2025-12-07T10:14:43Z</time></trkpt>
<trkpt lat="43.0590170000" lon="0.6571500000"><ele>706</ele><time>2025-12-07T10:14:44Z</time></trkpt>
<trkpt lat="43.0590470000" lon="0.6571570000"><ele>706</ele><time>2025-12-07T10:14:46Z</time></trkpt>
<trkpt lat="43.0590620000" lon="0.6571800000"><ele>706</ele><time>2025-12-07T10:14:50Z</time></trkpt>
<trkpt lat="43.0590570000" lon="0.6572080000"><ele>705</ele><time>2025-12-07T10:14:53Z</time></trkpt>
<trkpt lat="43.0590670000" lon="0.6572400000"><ele>705</ele><time>2025-12-07T10:14:56Z</time></trkpt>
<trkpt lat="43.0590770000" lon="0.6572050000"><ele>705</ele><time>2025-12-07T10:15:05Z</time></trkpt>
<trkpt lat="43.0590970000" lon="0.6571870000"><ele>704</ele><time>2025-12-07T10:15:27Z</time></trkpt>
<trkpt lat="43.0591220000" lon="0.6571670000"><ele>704</ele><time>2025-12-07T10:15:29Z</time></trkpt>
<trkpt lat="43.0591420000" lon="0.6571650000"><ele>704</ele><time>2025-12-07T10:15:31Z</time></trkpt>
<trkpt lat="43.0591670000" lon="0.6571730000"><ele>703</ele><time>2025-12-07T10:15:33Z</time></trkpt>
<trkpt lat="43.0591920000" lon="0.6571670000"><ele>703</ele><time>2025-12-07T10:15:35Z</time></trkpt>
<trkpt lat="43.0592120000" lon="0.6571870000"><ele>703</ele><time>2025-12-07T10:15:38Z</time></trkpt>
<trkpt lat="43.0592200000" lon="0.6572120000"><ele>703</ele><time>2025-12-07T10:15:40Z</time></trkpt>
<trkpt lat="43.0592300000" lon="0.6572320000"><ele>703</ele><time>2025-12-07T10:15:43Z</time></trkpt>
<trkpt lat="43.0592470000" lon="0.6572470000"><ele>702</ele><time>2025-12-07T10:15:47Z</time></trkpt>
<trkpt lat="43.0592650000" lon="0.6572320000"><ele>702</ele><time>2025-12-07T10:15:51Z</time></trkpt>
<trkpt lat="43.0592850000" lon="0.6572520000"><ele>702</ele><time>2025-12-07T10:15:54Z</time></trkpt>
<trkpt lat="43.0592970000" lon="0.6572820000"><ele>702</ele><time>2025-12-07T10:15:57Z</time></trkpt>
<trkpt lat="43.0592970000" lon="0.6573150000"><ele>701</ele><time>2025-12-07T10:16:00Z</time></trkpt>
<trkpt lat="43.0593120000" lon="0.6573370000"><ele>701</ele><time>2025-12-07T10:16:02Z</time></trkpt>
<trkpt lat="43.0593300000" lon="0.6573550000"><ele>701</ele><time>2025-12-07T10:16:05Z</time></trkpt>
<trkpt lat="43.0593420000" lon="0.6573770000"><ele>701</ele><time>2025-12-07T10:16:08Z</time></trkpt>
<trkpt lat="43.0593470000" lon="0.6574020000"><ele>700</ele><time>2025-12-07T10:16:14Z</time></trkpt>
<trkpt lat="43.0593350000" lon="0.6574270000"><ele>700</ele><time>2025-12-07T10:16:16Z</time></trkpt>
<trkpt lat="43.0593450000" lon="0.6574550000"><ele>700</ele><time>2025-12-07T10:16:20Z</time></trkpt>
<trkpt lat="43.0593470000" lon="0.6574820000"><ele>699</ele><time>2025-12-07T10:16:23Z</time></trkpt>
<trkpt lat="43.0593670000" lon="0.6575020000"><ele>699</ele><time>2025-12-07T10:16:25Z</time></trkpt>
<trkpt lat="43.0593970000" lon="0.6575170000"><ele>699</ele><time>2025-12-07T10:16:27Z</time></trkpt>
<trkpt lat="43.0594220000" lon="0.6575330000"><ele>699</ele><time>2025-12-07T10:16:29Z</time></trkpt>
<trkpt lat="43.0594420000" lon="0.6575420000"><ele>698</ele><time>2025-12-07T10:16:31Z</time></trkpt>
<trkpt lat="43.0594570000" lon="0.6575570000"><ele>697</ele><time>2025-12-07T10:16:35Z</time></trkpt>
<trkpt lat="43.0594770000" lon="0.6575670000"><ele>695</ele><time>2025-12-07T10:17:01Z</time></trkpt>
<trkpt lat="43.0594950000" lon="0.6575770000"><ele>695</ele><time>2025-12-07T10:17:02Z</time></trkpt>
<trkpt lat="43.0595250000" lon="0.6575950000"><ele>694</ele><time>2025-12-07T10:17:04Z</time></trkpt>
<trkpt lat="43.0595400000" lon="0.6576170000"><ele>694</ele><time>2025-12-07T10:17:06Z</time></trkpt>
<trkpt lat="43.0595550000" lon="0.6576320000"><ele>694</ele><time>2025-12-07T10:17:08Z</time></trkpt>
<trkpt lat="43.0595620000" lon="0.6576600000"><ele>693</ele><time>2025-12-07T10:17:11Z</time></trkpt>
<trkpt lat="43.0595620000" lon="0.6576850000"><ele>692</ele><time>2025-12-07T10:17:34Z</time></trkpt>
<trkpt lat="43.0595670000" lon="0.6577170000"><ele>691</ele><time>2025-12-07T10:17:37Z</time></trkpt>
<trkpt lat="43.0595850000" lon="0.6577270000"><ele>689</ele><time>2025-12-07T10:17:52Z</time></trkpt>
<trkpt lat="43.0596030000" lon="0.6577270000"><ele>689</ele><time>2025-12-07T10:17:54Z</time></trkpt>
<trkpt lat="43.0596270000" lon="0.6577330000"><ele>689</ele><time>2025-12-07T10:17:56Z</time></trkpt>
<trkpt lat="43.0596450000" lon="0.6577570000"><ele>688</ele><time>2025-12-07T10:18:00Z</time></trkpt>
<trkpt lat="43.0596670000" lon="0.6577820000"><ele>687</ele><time>2025-12-07T10:18:04Z</time></trkpt>
<trkpt lat="43.0596850000" lon="0.6577920000"><ele>687</ele><time>2025-12-07T10:18:08Z</time></trkpt>
<trkpt lat="43.0597000000" lon="0.6578120000"><ele>686</ele><time>2025-12-07T10:18:13Z</time></trkpt>
<trkpt lat="43.0596900000" lon="0.6578370000"><ele>686</ele><time>2025-12-07T10:18:16Z</time></trkpt>
<trkpt lat="43.0596770000" lon="0.6578570000"><ele>685</ele><time>2025-12-07T10:18:18Z</time></trkpt>
<trkpt lat="43.0596670000" lon="0.6578870000"><ele>684</ele><time>2025-12-07T10:18:20Z</time></trkpt>
<trkpt lat="43.0596770000" lon="0.6579100000"><ele>684</ele><time>2025-12-07T10:18:23Z</time></trkpt>
<trkpt lat="43.0596870000" lon="0.6579320000"><ele>677</ele><time>2025-12-07T10:18:59Z</time></trkpt>
<trkpt lat="43.0597120000" lon="0.6579720000"><ele>677</ele><time>2025-12-07T10:19:01Z</time></trkpt>
<trkpt lat="43.0597320000" lon="0.6579720000"><ele>678</ele><time>2025-12-07T10:19:04Z</time></trkpt>
<trkpt lat="43.0597520000" lon="0.6579700000"><ele>678</ele><time>2025-12-07T10:19:07Z</time></trkpt>
<trkpt lat="43.0597770000" lon="0.6579670000"><ele>678</ele><time>2025-12-07T10:19:18Z</time></trkpt>
<trkpt lat="43.0597800000" lon="0.6579970000"><ele>677</ele><time>2025-12-07T10:19:24Z</time></trkpt>
<trkpt lat="43.0597670000" lon="0.6580170000"><ele>676</ele><time>2025-12-07T10:19:26Z</time></trkpt>
<trkpt lat="43.0597870000" lon="0.6580220000"><ele>673</ele><time>2025-12-07T10:19:49Z</time></trkpt>
<trkpt lat="43.0598070000" lon="0.6579870000"><ele>673</ele><time>2025-12-07T10:19:51Z</time></trkpt>
<trkpt lat="43.0598270000" lon="0.6579670000"><ele>673</ele><time>2025-12-07T10:19:53Z</time></trkpt>
<trkpt lat="43.0598520000" lon="0.6579700000"><ele>673</ele><time>2025-12-07T10:19:55Z</time></trkpt>
<trkpt lat="43.0598720000" lon="0.6579720000"><ele>673</ele><time>2025-12-07T10:20:01Z</time></trkpt>
<trkpt lat="43.0598900000" lon="0.6580000000"><ele>672</ele><time>2025-12-07T10:20:04Z</time></trkpt>
<trkpt lat="43.0598770000" lon="0.6580220000"><ele>672</ele><time>2025-12-07T10:20:07Z</time></trkpt>
<trkpt lat="43.0598720000" lon="0.6580470000"><ele>671</ele><time>2025-12-07T10:20:19Z</time></trkpt>
<trkpt lat="43.0598750000" lon="0.6580770000"><ele>671</ele><time>2025-12-07T10:20:21Z</time></trkpt>
<trkpt lat="43.0598870000" lon="0.6581020000"><ele>671</ele><time>2025-12-07T10:20:23Z</time></trkpt>
<trkpt lat="43.0599050000" lon="0.6581050000"><ele>671</ele><time>2025-12-07T10:20:24Z</time></trkpt>
<trkpt lat="43.0599250000" lon="0.6581070000"><ele>671</ele><time>2025-12-07T10:20:25Z</time></trkpt>
<trkpt lat="43.0599420000" lon="0.6580970000"><ele>670</ele><time>2025-12-07T10:20:26Z</time></trkpt>
<trkpt lat="43.0599620000" lon="0.6580800000"><ele>670</ele><time>2025-12-07T10:20:28Z</time></trkpt>
<trkpt lat="43.0599820000" lon="0.6580720000"><ele>669</ele><time>2025-12-07T10:20:30Z</time></trkpt>
<trkpt lat="43.0599650000" lon="0.6580920000"><ele>668</ele><time>2025-12-07T10:20:37Z</time></trkpt>
<trkpt lat="43.0599520000" lon="0.6581200000"><ele>666</ele><time>2025-12-07T10:21:12Z</time></trkpt>
<trkpt lat="43.0599350000" lon="0.6581300000"><ele>666</ele><time>2025-12-07T10:21:24Z</time></trkpt>
<trkpt lat="43.0599550000" lon="0.6581670000"><ele>665</ele><time>2025-12-07T10:21:35Z</time></trkpt>
<trkpt lat="43.0599670000" lon="0.6581920000"><ele>663</ele><time>2025-12-07T10:21:57Z</time></trkpt>
<trkpt lat="43.0599950000" lon="0.6582220000"><ele>663</ele><time>2025-12-07T10:21:59Z</time></trkpt>
<trkpt lat="43.0600120000" lon="0.6582320000"><ele>662</ele><time>2025-12-07T10:22:00Z</time></trkpt>
<trkpt lat="43.0600300000" lon="0.6582420000"><ele>662</ele><time>2025-12-07T10:22:01Z</time></trkpt>
<trkpt lat="43.0600520000" lon="0.6582450000"><ele>662</ele><time>2025-12-07T10:22:03Z</time></trkpt>
<trkpt lat="43.0600370000" lon="0.6582770000"><ele>660</ele><time>2025-12-07T10:22:09Z</time></trkpt>
<trkpt lat="43.0600200000" lon="0.6582930000"><ele>660</ele><time>2025-12-07T10:22:11Z</time></trkpt>
<trkpt lat="43.0600070000" lon="0.6583270000"><ele>658</ele><time>2025-12-07T10:22:26Z</time></trkpt>
<trkpt lat="43.0600050000" lon="0.6583570000"><ele>658</ele><time>2025-12-07T10:22:29Z</time></trkpt>
<trkpt lat="43.0600170000" lon="0.6583920000"><ele>657</ele><time>2025-12-07T10:22:34Z</time></trkpt>
<trkpt lat="43.0600120000" lon="0.6584220000"><ele>657</ele><time>2025-12-07T10:22:36Z</time></trkpt>
<trkpt lat="43.0600270000" lon="0.6584470000"><ele>655</ele><time>2025-12-07T10:22:53Z</time></trkpt>
<trkpt lat="43.0600420000" lon="0.6584830000"><ele>654</ele><time>2025-12-07T10:22:55Z</time></trkpt>
<trkpt lat="43.0600570000" lon="0.6585180000"><ele>654</ele><time>2025-12-07T10:22:57Z</time></trkpt>
<trkpt lat="43.0600770000" lon="0.6585470000"><ele>653</ele><time>2025-12-07T10:22:59Z</time></trkpt>
<trkpt lat="43.0601050000" lon="0.6585630000"><ele>653</ele><time>2025-12-07T10:23:01Z</time></trkpt>
<trkpt lat="43.0601270000" lon="0.6585770000"><ele>652</ele><time>2025-12-07T10:23:03Z</time></trkpt>
<trkpt lat="43.0601500000" lon="0.6585950000"><ele>652</ele><time>2025-12-07T10:23:05Z</time></trkpt>
<trkpt lat="43.0601720000" lon="0.6586020000"><ele>651</ele><time>2025-12-07T10:23:07Z</time></trkpt>
<trkpt lat="43.0601870000" lon="0.6585870000"><ele>651</ele><time>2025-12-07T10:23:10Z</time></trkpt>
<trkpt lat="43.0602080000" lon="0.6586070000"><ele>650</ele><time>2025-12-07T10:23:18Z</time></trkpt>
<trkpt lat="43.0602270000" lon="0.6586270000"><ele>650</ele><time>2025-12-07T10:23:20Z</time></trkpt>
<trkpt lat="43.0602270000" lon="0.6586520000"><ele>650</ele><time>2025-12-07T10:23:23Z</time></trkpt>
<trkpt lat="43.0602050000" lon="0.6586800000"><ele>649</ele><time>2025-12-07T10:23:27Z</time></trkpt>
<trkpt lat="43.0601670000" lon="0.6586970000"><ele>649</ele><time>2025-12-07T10:23:29Z</time></trkpt>
<trkpt lat="43.0601600000" lon="0.6587250000"><ele>649</ele><time>2025-12-07T10:23:33Z</time></trkpt>
<trkpt lat="43.0601770000" lon="0.6587120000"><ele>648</ele><time>2025-12-07T10:23:36Z</time></trkpt>
<trkpt lat="43.0601970000" lon="0.6587200000"><ele>648</ele><time>2025-12-07T10:23:39Z</time></trkpt>
<trkpt lat="43.0601870000" lon="0.6587470000"><ele>647</ele><time>2025-12-07T10:23:49Z</time></trkpt>
<trkpt lat="43.0601750000" lon="0.6587770000"><ele>647</ele><time>2025-12-07T10:23:51Z</time></trkpt>
<trkpt lat="43.0601500000" lon="0.6587920000"><ele>647</ele><time>2025-12-07T10:23:53Z</time></trkpt>
<trkpt lat="43.0601550000" lon="0.6588200000"><ele>646</ele><time>2025-12-07T10:24:02Z</time></trkpt>
<trkpt lat="43.0601820000" lon="0.6588420000"><ele>644</ele><time>2025-12-07T10:24:17Z</time></trkpt>
<trkpt lat="43.0602020000" lon="0.6588570000"><ele>643</ele><time>2025-12-07T10:24:18Z</time></trkpt>
<trkpt lat="43.0602270000" lon="0.6588750000"><ele>643</ele><time>2025-12-07T10:24:19Z</time></trkpt>
<trkpt lat="43.0602470000" lon="0.6588950000"><ele>643</ele><time>2025-12-07T10:24:20Z</time></trkpt>
<trkpt lat="43.0602520000" lon="0.6589300000"><ele>643</ele><time>2025-12-07T10:24:22Z</time></trkpt>
<trkpt lat="43.0602370000" lon="0.6589500000"><ele>643</ele><time>2025-12-07T10:24:23Z</time></trkpt>
<trkpt lat="43.0602250000" lon="0.6589670000"><ele>642</ele><time>2025-12-07T10:24:24Z</time></trkpt>
<trkpt lat="43.0602080000" lon="0.6589850000"><ele>642</ele><time>2025-12-07T10:24:25Z</time></trkpt>
<trkpt lat="43.0601820000" lon="0.6590150000"><ele>642</ele><time>2025-12-07T10:24:27Z</time></trkpt>
<trkpt lat="43.0601620000" lon="0.6590300000"><ele>641</ele><time>2025-12-07T10:24:29Z</time></trkpt>
<trkpt lat="43.0601470000" lon="0.6590650000"><ele>641</ele><time>2025-12-07T10:24:31Z</time></trkpt>
<trkpt lat="43.0601270000" lon="0.6590820000"><ele>641</ele><time>2025-12-07T10:24:33Z</time></trkpt>
<trkpt lat="43.0600920000" lon="0.6590900000"><ele>641</ele><time>2025-12-07T10:24:35Z</time></trkpt>
<trkpt lat="43.0600620000" lon="0.6590900000"><ele>641</ele><time>2025-12-07T10:24:37Z</time></trkpt>
<trkpt lat="43.0600420000" lon="0.6590950000"><ele>641</ele><time>2025-12-07T10:24:39Z</time></trkpt>
<trkpt lat="43.0600250000" lon="0.6591020000"><ele>641</ele><time>2025-12-07T10:24:41Z</time></trkpt>
<trkpt lat="43.0600050000" lon="0.6591170000"><ele>641</ele><time>2025-12-07T10:24:43Z</time></trkpt>
<trkpt lat="43.0599820000" lon="0.6591420000"><ele>641</ele><time>2025-12-07T10:24:45Z</time></trkpt>
<trkpt lat="43.0599520000" lon="0.6591570000"><ele>641</ele><time>2025-12-07T10:24:47Z</time></trkpt>
<trkpt lat="43.0599350000" lon="0.6591820000"><ele>641</ele><time>2025-12-07T10:24:50Z</time></trkpt>
<trkpt lat="43.0599120000" lon="0.6591930000"><ele>641</ele><time>2025-12-07T10:24:52Z</time></trkpt>
<trkpt lat="43.0598920000" lon="0.6592050000"><ele>641</ele><time>2025-12-07T10:24:54Z</time></trkpt>
<trkpt lat="43.0598750000" lon="0.6592220000"><ele>641</ele><time>2025-12-07T10:24:56Z</time></trkpt>
<trkpt lat="43.0598520000" lon="0.6592370000"><ele>640</ele><time>2025-12-07T10:24:58Z</time></trkpt>
<trkpt lat="43.0598320000" lon="0.6592520000"><ele>640</ele><time>2025-12-07T10:25:01Z</time></trkpt>
<trkpt lat="43.0598070000" lon="0.6592650000"><ele>640</ele><time>2025-12-07T10:25:03Z</time></trkpt>
<trkpt lat="43.0597850000" lon="0.6592870000"><ele>640</ele><time>2025-12-07T10:25:05Z</time></trkpt>
<trkpt lat="43.0597700000" lon="0.6593020000"><ele>640</ele><time>2025-12-07T10:25:07Z</time></trkpt>
<trkpt lat="43.0597670000" lon="0.6593270000"><ele>640</ele><time>2025-12-07T10:25:09Z</time></trkpt>
<trkpt lat="43.0597370000" lon="0.6593350000"><ele>640</ele><time>2025-12-07T10:25:12Z</time></trkpt>
<trkpt lat="43.0597170000" lon="0.6593280000"><ele>640</ele><time>2025-12-07T10:25:15Z</time></trkpt>
<trkpt lat="43.0596920000" lon="0.6593480000"><ele>640</ele><time>2025-12-07T10:25:18Z</time></trkpt>
<trkpt lat="43.0596720000" lon="0.6593470000"><ele>639</ele><time>2025-12-07T10:25:19Z</time></trkpt>
<trkpt lat="43.0596470000" lon="0.6593470000"><ele>639</ele><time>2025-12-07T10:25:20Z</time></trkpt>
<trkpt lat="43.0596150000" lon="0.6593420000"><ele>639</ele><time>2025-12-07T10:25:22Z</time></trkpt>
<trkpt lat="43.0595950000" lon="0.6593420000"><ele>639</ele><time>2025-12-07T10:25:23Z</time></trkpt>
<trkpt lat="43.0595720000" lon="0.6593620000"><ele>639</ele><time>2025-12-07T10:25:25Z</time></trkpt>
<trkpt lat="43.0595570000" lon="0.6593770000"><ele>639</ele><time>2025-12-07T10:25:26Z</time></trkpt>
<trkpt lat="43.0595300000" lon="0.6593870000"><ele>639</ele><time>2025-12-07T10:25:28Z</time></trkpt>
<trkpt lat="43.0595050000" lon="0.6594070000"><ele>639</ele><time>2025-12-07T10:25:30Z</time></trkpt>
<trkpt lat="43.0595000000" lon="0.6594370000"><ele>640</ele><time>2025-12-07T10:25:33Z</time></trkpt>
<trkpt lat="43.0594920000" lon="0.6594630000"><ele>640</ele><time>2025-12-07T10:25:35Z</time></trkpt>
<trkpt lat="43.0594650000" lon="0.6594620000"><ele>640</ele><time>2025-12-07T10:25:37Z</time></trkpt>
<trkpt lat="43.0594420000" lon="0.6594550000"><ele>640</ele><time>2025-12-07T10:25:39Z</time></trkpt>
<trkpt lat="43.0594170000" lon="0.6594620000"><ele>640</ele><time>2025-12-07T10:25:41Z</time></trkpt>
<trkpt lat="43.0593900000" lon="0.6594600000"><ele>640</ele><time>2025-12-07T10:25:43Z</time></trkpt>
<trkpt lat="43.0593670000" lon="0.6594470000"><ele>640</ele><time>2025-12-07T10:25:46Z</time></trkpt>
<trkpt lat="43.0593450000" lon="0.6594370000"><ele>640</ele><time>2025-12-07T10:25:48Z</time></trkpt>
<trkpt lat="43.0593200000" lon="0.6594270000"><ele>641</ele><time>2025-12-07T10:25:52Z</time></trkpt>
<trkpt lat="43.0593050000" lon="0.6594470000"><ele>641</ele><time>2025-12-07T10:25:53Z</time></trkpt>
<trkpt lat="43.0592800000" lon="0.6594670000"><ele>641</ele><time>2025-12-07T10:25:55Z</time></trkpt>
<trkpt lat="43.0592620000" lon="0.6594720000"><ele>640</ele><time>2025-12-07T10:25:58Z</time></trkpt>
<trkpt lat="43.0592450000" lon="0.6594820000"><ele>640</ele><time>2025-12-07T10:26:01Z</time></trkpt>
<trkpt lat="43.0592370000" lon="0.6595070000"><ele>640</ele><time>2025-12-07T10:26:04Z</time></trkpt>
<trkpt lat="43.0592170000" lon="0.6595170000"><ele>640</ele><time>2025-12-07T10:26:07Z</time></trkpt>
<trkpt lat="43.0591920000" lon="0.6595150000"><ele>640</ele><time>2025-12-07T10:26:11Z</time></trkpt>
<trkpt lat="43.0591750000" lon="0.6595070000"><ele>640</ele><time>2025-12-07T10:26:13Z</time></trkpt>
<trkpt lat="43.0591500000" lon="0.6595020000"><ele>640</ele><time>2025-12-07T10:26:15Z</time></trkpt>
<trkpt lat="43.0591250000" lon="0.6595070000"><ele>641</ele><time>2025-12-07T10:26:17Z</time></trkpt>
<trkpt lat="43.0591000000" lon="0.6595100000"><ele>640</ele><time>2025-12-07T10:26:19Z</time></trkpt>
<trkpt lat="43.0590770000" lon="0.6595100000"><ele>640</ele><time>2025-12-07T10:26:21Z</time></trkpt>
<trkpt lat="43.0590520000" lon="0.6595200000"><ele>640</ele><time>2025-12-07T10:26:23Z</time></trkpt>
<trkpt lat="43.0590350000" lon="0.6595170000"><ele>640</ele><time>2025-12-07T10:26:25Z</time></trkpt>
<trkpt lat="43.0590120000" lon="0.6595220000"><ele>640</ele><time>2025-12-07T10:26:27Z</time></trkpt>
<trkpt lat="43.0589900000" lon="0.6595200000"><ele>640</ele><time>2025-12-07T10:26:29Z</time></trkpt>
<trkpt lat="43.0589670000" lon="0.6595170000"><ele>640</ele><time>2025-12-07T10:26:31Z</time></trkpt>
<trkpt lat="43.0589420000" lon="0.6595100000"><ele>640</ele><time>2025-12-07T10:26:33Z</time></trkpt>
<trkpt lat="43.0589200000" lon="0.6595050000"><ele>640</ele><time>2025-12-07T10:26:35Z</time></trkpt>
<trkpt lat="43.0588970000" lon="0.6595220000"><ele>640</ele><time>2025-12-07T10:26:37Z</time></trkpt>
<trkpt lat="43.0588670000" lon="0.6595620000"><ele>640</ele><time>2025-12-07T10:26:39Z</time></trkpt>
<trkpt lat="43.0588430000" lon="0.6595670000"><ele>640</ele><time>2025-12-07T10:26:41Z</time></trkpt>
<trkpt lat="43.0588170000" lon="0.6595800000"><ele>640</ele><time>2025-12-07T10:26:43Z</time></trkpt>
<trkpt lat="43.0587900000" lon="0.6595820000"><ele>640</ele><time>2025-12-07T10:26:45Z</time></trkpt>
<trkpt lat="43.0587670000" lon="0.6595870000"><ele>640</ele><time>2025-12-07T10:26:54Z</time></trkpt>
<trkpt lat="43.0587470000" lon="0.6595970000"><ele>640</ele><time>2025-12-07T10:27:18Z</time></trkpt>
<trkpt lat="43.0587220000" lon="0.6596050000"><ele>640</ele><time>2025-12-07T10:27:20Z</time></trkpt>
<trkpt lat="43.0586920000" lon="0.6596050000"><ele>640</ele><time>2025-12-07T10:27:22Z</time></trkpt>
<trkpt lat="43.0586620000" lon="0.6596020000"><ele>640</ele><time>2025-12-07T10:27:24Z</time></trkpt>
<trkpt lat="43.0586400000" lon="0.6596020000"><ele>640</ele><time>2025-12-07T10:27:26Z</time></trkpt>
<trkpt lat="43.0586150000" lon="0.6596070000"><ele>639</ele><time>2025-12-07T10:27:29Z</time></trkpt>
<trkpt lat="43.0585920000" lon="0.6596170000"><ele>639</ele><time>2025-12-07T10:27:31Z</time></trkpt>
<trkpt lat="43.0585720000" lon="0.6596220000"><ele>639</ele><time>2025-12-07T10:27:33Z</time></trkpt>
<trkpt lat="43.0585520000" lon="0.6596180000"><ele>639</ele><time>2025-12-07T10:27:35Z</time></trkpt>
<trkpt lat="43.0585300000" lon="0.6596180000"><ele>639</ele><time>2025-12-07T10:27:37Z</time></trkpt>
<trkpt lat="43.0585020000" lon="0.6596070000"><ele>639</ele><time>2025-12-07T10:27:40Z</time></trkpt>
<trkpt lat="43.0584770000" lon="0.6595950000"><ele>639</ele><time>2025-12-07T10:27:42Z</time></trkpt>
<trkpt lat="43.0584550000" lon="0.6595830000"><ele>639</ele><time>2025-12-07T10:27:44Z</time></trkpt>
<trkpt lat="43.0584300000" lon="0.6595750000"><ele>639</ele><time>2025-12-07T10:27:46Z</time></trkpt>
<trkpt lat="43.0584070000" lon="0.6595600000"><ele>639</ele><time>2025-12-07T10:27:48Z</time></trkpt>
<trkpt lat="43.0583800000" lon="0.6595630000"><ele>639</ele><time>2025-12-07T10:27:51Z</time></trkpt>
<trkpt lat="43.0583520000" lon="0.6595670000"><ele>639</ele><time>2025-12-07T10:27:53Z</time></trkpt>
<trkpt lat="43.0583270000" lon="0.6595700000"><ele>639</ele><time>2025-12-07T10:27:55Z</time></trkpt>
<trkpt lat="43.0583020000" lon="0.6595720000"><ele>639</ele><time>2025-12-07T10:27:57Z</time></trkpt>
<trkpt lat="43.0582850000" lon="0.6595750000"><ele>639</ele><time>2025-12-07T10:27:59Z</time></trkpt>
<trkpt lat="43.0582670000" lon="0.6595800000"><ele>639</ele><time>2025-12-07T10:28:02Z</time></trkpt>
<trkpt lat="43.0582470000" lon="0.6595700000"><ele>638</ele><time>2025-12-07T10:28:24Z</time></trkpt>
<trkpt lat="43.0582300000" lon="0.6595620000"><ele>638</ele><time>2025-12-07T10:28:25Z</time></trkpt>
<trkpt lat="43.0582070000" lon="0.6595400000"><ele>638</ele><time>2025-12-07T10:28:27Z</time></trkpt>
<trkpt lat="43.0581850000" lon="0.6595170000"><ele>638</ele><time>2025-12-07T10:28:30Z</time></trkpt>
<trkpt lat="43.0581670000" lon="0.6595020000"><ele>638</ele><time>2025-12-07T10:28:32Z</time></trkpt>
<trkpt lat="43.0581520000" lon="0.6594820000"><ele>638</ele><time>2025-12-07T10:28:34Z</time></trkpt>
<trkpt lat="43.0581320000" lon="0.6594750000"><ele>638</ele><time>2025-12-07T10:28:36Z</time></trkpt>
<trkpt lat="43.0581120000" lon="0.6594700000"><ele>638</ele><time>2025-12-07T10:28:38Z</time></trkpt>
<trkpt lat="43.0580920000" lon="0.6594670000"><ele>638</ele><time>2025-12-07T10:28:40Z</time></trkpt>
<trkpt lat="43.0580670000" lon="0.6594770000"><ele>638</ele><time>2025-12-07T10:28:42Z</time></trkpt>
<trkpt lat="43.0580470000" lon="0.6594770000"><ele>638</ele><time>2025-12-07T10:28:44Z</time></trkpt>
<trkpt lat="43.0580250000" lon="0.6594630000"><ele>638</ele><time>2025-12-07T10:28:46Z</time></trkpt>
<trkpt lat="43.0580020000" lon="0.6594600000"><ele>638</ele><time>2025-12-07T10:28:48Z</time></trkpt>
<trkpt lat="43.0579770000" lon="0.6594620000"><ele>638</ele><time>2025-12-07T10:28:50Z</time></trkpt>
<trkpt lat="43.0579520000" lon="0.6594570000"><ele>638</ele><time>2025-12-07T10:28:52Z</time></trkpt>
<trkpt lat="43.0579270000" lon="0.6594550000"><ele>638</ele><time>2025-12-07T10:28:54Z</time></trkpt>
<trkpt lat="43.0579050000" lon="0.6594570000"><ele>638</ele><time>2025-12-07T10:28:56Z</time></trkpt>
<trkpt lat="43.0578720000" lon="0.6594480000"><ele>638</ele><time>2025-12-07T10:28:58Z</time></trkpt>
<trkpt lat="43.0578470000" lon="0.6594430000"><ele>638</ele><time>2025-12-07T10:29:00Z</time></trkpt>
<trkpt lat="43.0578300000" lon="0.6594400000"><ele>637</ele><time>2025-12-07T10:29:02Z</time></trkpt>
<trkpt lat="43.0578070000" lon="0.6594370000"><ele>637</ele><time>2025-12-07T10:29:04Z</time></trkpt>
<trkpt lat="43.0577880000" lon="0.6594220000"><ele>637</ele><time>2025-12-07T10:29:06Z</time></trkpt>
<trkpt lat="43.0577770000" lon="0.6594020000"><ele>637</ele><time>2025-12-07T10:29:08Z</time></trkpt>
<trkpt lat="43.0577520000" lon="0.6593900000"><ele>637</ele><time>2025-12-07T10:29:10Z</time></trkpt>
<trkpt lat="43.0577320000" lon="0.6593820000"><ele>637</ele><time>2025-12-07T10:29:12Z</time></trkpt>
<trkpt lat="43.0577070000" lon="0.6593900000"><ele>637</ele><time>2025-12-07T10:29:14Z</time></trkpt>
<trkpt lat="43.0576800000" lon="0.6593930000"><ele>637</ele><time>2025-12-07T10:29:16Z</time></trkpt>
<trkpt lat="43.0576500000" lon="0.6593920000"><ele>637</ele><time>2025-12-07T10:29:18Z</time></trkpt>
<trkpt lat="43.0576220000" lon="0.6593970000"><ele>637</ele><time>2025-12-07T10:29:20Z</time></trkpt>
<trkpt lat="43.0576020000" lon="0.6593970000"><ele>637</ele><time>2025-12-07T10:29:22Z</time></trkpt>
<trkpt lat="43.0575850000" lon="0.6593970000"><ele>637</ele><time>2025-12-07T10:29:24Z</time></trkpt>
<trkpt lat="43.0575620000" lon="0.6593850000"><ele>637</ele><time>2025-12-07T10:29:26Z</time></trkpt>
<trkpt lat="43.0575370000" lon="0.6593720000"><ele>637</ele><time>2025-12-07T10:29:28Z</time></trkpt>
<trkpt lat="43.0575100000" lon="0.6593620000"><ele>637</ele><time>2025-12-07T10:29:30Z</time></trkpt>
<trkpt lat="43.0574970000" lon="0.6593450000"><ele>637</ele><time>2025-12-07T10:29:32Z</time></trkpt>
<trkpt lat="43.0574780000" lon="0.6593350000"><ele>637</ele><time>2025-12-07T10:29:34Z</time></trkpt>
<trkpt lat="43.0574600000" lon="0.6593270000"><ele>637</ele><time>2025-12-07T10:29:36Z</time></trkpt>
<trkpt lat="43.0574420000" lon="0.6593220000"><ele>637</ele><time>2025-12-07T10:29:38Z</time></trkpt>
<trkpt lat="43.0574220000" lon="0.6593170000"><ele>637</ele><time>2025-12-07T10:29:40Z</time></trkpt>
<trkpt lat="43.0573970000" lon="0.6593120000"><ele>637</ele><time>2025-12-07T10:29:42Z</time></trkpt>
<trkpt lat="43.0573720000" lon="0.6593050000"><ele>637</ele><time>2025-12-07T10:29:44Z</time></trkpt>
<trkpt lat="43.0573520000" lon="0.6593020000"><ele>637</ele><time>2025-12-07T10:29:46Z</time></trkpt>
<trkpt lat="43.0573220000" lon="0.6592970000"><ele>637</ele><time>2025-12-07T10:29:48Z</time></trkpt>
<trkpt lat="43.0573020000" lon="0.6592970000"><ele>637</ele><time>2025-12-07T10:29:50Z</time></trkpt>
<trkpt lat="43.0572850000" lon="0.6592920000"><ele>636</ele><time>2025-12-07T10:29:52Z</time></trkpt>
<trkpt lat="43.0572670000" lon="0.6592670000"><ele>636</ele><time>2025-12-07T10:29:54Z</time></trkpt>
<trkpt lat="43.0572470000" lon="0.6592500000"><ele>636</ele><time>2025-12-07T10:29:56Z</time></trkpt>
<trkpt lat="43.0572320000" lon="0.6592230000"><ele>636</ele><time>2025-12-07T10:29:58Z</time></trkpt>
<trkpt lat="43.0572170000" lon="0.6592070000"><ele>636</ele><time>2025-12-07T10:30:01Z</time></trkpt>
<trkpt lat="43.0571870000" lon="0.6592170000"><ele>636</ele><time>2025-12-07T10:30:03Z</time></trkpt>
<trkpt lat="43.0571570000" lon="0.6592200000"><ele>636</ele><time>2025-12-07T10:30:05Z</time></trkpt>
<trkpt lat="43.0571300000" lon="0.6592170000"><ele>636</ele><time>2025-12-07T10:30:07Z</time></trkpt>
<trkpt lat="43.0571100000" lon="0.6592220000"><ele>636</ele><time>2025-12-07T10:30:09Z</time></trkpt>
<trkpt lat="43.0570870000" lon="0.6591920000"><ele>635</ele><time>2025-12-07T10:30:12Z</time></trkpt>
<trkpt lat="43.0570700000" lon="0.6591820000"><ele>636</ele><time>2025-12-07T10:30:14Z</time></trkpt>
<trkpt lat="43.0570420000" lon="0.6591650000"><ele>635</ele><time>2025-12-07T10:30:16Z</time></trkpt>
<trkpt lat="43.0570220000" lon="0.6591520000"><ele>635</ele><time>2025-12-07T10:30:18Z</time></trkpt>
<trkpt lat="43.0570020000" lon="0.6591370000"><ele>635</ele><time>2025-12-07T10:30:20Z</time></trkpt>
<trkpt lat="43.0569700000" lon="0.6591220000"><ele>635</ele><time>2025-12-07T10:30:22Z</time></trkpt>
<trkpt lat="43.0569520000" lon="0.6591220000"><ele>635</ele><time>2025-12-07T10:30:23Z</time></trkpt>
<trkpt lat="43.0569350000" lon="0.6591380000"><ele>635</ele><time>2025-12-07T10:30:24Z</time></trkpt>
<trkpt lat="43.0569200000" lon="0.6591570000"><ele>635</ele><time>2025-12-07T10:30:25Z</time></trkpt>
<trkpt lat="43.0569050000" lon="0.6591730000"><ele>635</ele><time>2025-12-07T10:30:31Z</time></trkpt>
<trkpt lat="43.0568870000" lon="0.6591700000"><ele>635</ele><time>2025-12-07T10:30:35Z</time></trkpt>
<trkpt lat="43.0569170000" lon="0.6591500000"><ele>635</ele><time>2025-12-07T10:30:37Z</time></trkpt>
<trkpt lat="43.0569320000" lon="0.6591270000"><ele>636</ele><time>2025-12-07T10:30:42Z</time></trkpt>
<trkpt lat="43.0569320000" lon="0.6590920000"><ele>636</ele><time>2025-12-07T10:30:44Z</time></trkpt>
<trkpt lat="43.0569270000" lon="0.6590580000"><ele>636</ele><time>2025-12-07T10:30:46Z</time></trkpt>
<trkpt lat="43.0569170000" lon="0.6590350000"><ele>636</ele><time>2025-12-07T10:30:48Z</time></trkpt>
<trkpt lat="43.0568970000" lon="0.6590170000"><ele>636</ele><time>2025-12-07T10:30:50Z</time></trkpt>
<trkpt lat="43.0568770000" lon="0.6589970000"><ele>636</ele><time>2025-12-07T10:30:52Z</time></trkpt>
<trkpt lat="43.0568570000" lon="0.6589770000"><ele>637</ele><time>2025-12-07T10:30:54Z</time></trkpt>
<trkpt lat="43.0568370000" lon="0.6589620000"><ele>637</ele><time>2025-12-07T10:30:56Z</time></trkpt>
<trkpt lat="43.0568170000" lon="0.6589400000"><ele>637</ele><time>2025-12-07T10:30:59Z</time></trkpt>
<trkpt lat="43.0568030000" lon="0.6589200000"><ele>638</ele><time>2025-12-07T10:31:01Z</time></trkpt>
<trkpt lat="43.0567870000" lon="0.6589020000"><ele>637</ele><time>2025-12-07T10:31:03Z</time></trkpt>
<trkpt lat="43.0567670000" lon="0.6588770000"><ele>638</ele><time>2025-12-07T10:31:08Z</time></trkpt>
<trkpt lat="43.0567500000" lon="0.6588620000"><ele>638</ele><time>2025-12-07T10:31:10Z</time></trkpt>
<trkpt lat="43.0567300000" lon="0.6588420000"><ele>638</ele><time>2025-12-07T10:31:12Z</time></trkpt>
<trkpt lat="43.0567120000" lon="0.6588270000"><ele>638</ele><time>2025-12-07T10:31:16Z</time></trkpt>
<trkpt lat="43.0566920000" lon="0.6588370000"><ele>638</ele><time>2025-12-07T10:31:19Z</time></trkpt>
<trkpt lat="43.0566920000" lon="0.6588670000"><ele>638</ele><time>2025-12-07T10:31:32Z</time></trkpt>
<trkpt lat="43.0566850000" lon="0.6589020000"><ele>638</ele><time>2025-12-07T10:31:34Z</time></trkpt>
<trkpt lat="43.0566720000" lon="0.6589320000"><ele>638</ele><time>2025-12-07T10:31:36Z</time></trkpt>
<trkpt lat="43.0566650000" lon="0.6589570000"><ele>638</ele><time>2025-12-07T10:31:38Z</time></trkpt>
<trkpt lat="43.0566520000" lon="0.6589870000"><ele>638</ele><time>2025-12-07T10:31:40Z</time></trkpt>
<trkpt lat="43.0566370000" lon="0.6590230000"><ele>638</ele><time>2025-12-07T10:31:43Z</time></trkpt>
<trkpt lat="43.0566220000" lon="0.6590580000"><ele>638</ele><time>2025-12-07T10:31:45Z</time></trkpt>
<trkpt lat="43.0566070000" lon="0.6590770000"><ele>638</ele><time>2025-12-07T10:31:46Z</time></trkpt>
<trkpt lat="43.0565920000" lon="0.6591050000"><ele>637</ele><time>2025-12-07T10:31:48Z</time></trkpt>
<trkpt lat="43.0565780000" lon="0.6591320000"><ele>637</ele><time>2025-12-07T10:31:50Z</time></trkpt>
<trkpt lat="43.0565650000" lon="0.6591700000"><ele>637</ele><time>2025-12-07T10:31:53Z</time></trkpt>
<trkpt lat="43.0565470000" lon="0.6592020000"><ele>636</ele><time>2025-12-07T10:31:59Z</time></trkpt>
<trkpt lat="43.0565250000" lon="0.6592320000"><ele>636</ele><time>2025-12-07T10:32:15Z</time></trkpt>
<trkpt lat="43.0564970000" lon="0.6592620000"><ele>636</ele><time>2025-12-07T10:32:17Z</time></trkpt>
<trkpt lat="43.0564820000" lon="0.6592870000"><ele>636</ele><time>2025-12-07T10:32:18Z</time></trkpt>
<trkpt lat="43.0564720000" lon="0.6593120000"><ele>636</ele><time>2025-12-07T10:32:19Z</time></trkpt>
<trkpt lat="43.0564620000" lon="0.6593370000"><ele>636</ele><time>2025-12-07T10:32:20Z</time></trkpt>
<trkpt lat="43.0564470000" lon="0.6593770000"><ele>636</ele><time>2025-12-07T10:32:22Z</time></trkpt>
<trkpt lat="43.0564370000" lon="0.6594020000"><ele>636</ele><time>2025-12-07T10:32:24Z</time></trkpt>
<trkpt lat="43.0564320000" lon="0.6594320000"><ele>636</ele><time>2025-12-07T10:32:26Z</time></trkpt>
<trkpt lat="43.0564400000" lon="0.6594630000"><ele>636</ele><time>2025-12-07T10:32:28Z</time></trkpt>
<trkpt lat="43.0564400000" lon="0.6594920000"><ele>636</ele><time>2025-12-07T10:32:30Z</time></trkpt>
<trkpt lat="43.0564400000" lon="0.6595170000"><ele>636</ele><time>2025-12-07T10:32:33Z</time></trkpt>
<trkpt lat="43.0564220000" lon="0.6595420000"><ele>636</ele><time>2025-12-07T10:32:35Z</time></trkpt>
<trkpt lat="43.0564120000" lon="0.6595720000"><ele>636</ele><time>2025-12-07T10:32:37Z</time></trkpt>
<trkpt lat="43.0564020000" lon="0.6596020000"><ele>636</ele><time>2025-12-07T10:32:40Z</time></trkpt>
<trkpt lat="43.0563900000" lon="0.6596320000"><ele>636</ele><time>2025-12-07T10:32:42Z</time></trkpt>
<trkpt lat="43.0563800000" lon="0.6596570000"><ele>636</ele><time>2025-12-07T10:32:44Z</time></trkpt>
<trkpt lat="43.0563620000" lon="0.6596820000"><ele>636</ele><time>2025-12-07T10:32:46Z</time></trkpt>
<trkpt lat="43.0563350000" lon="0.6597020000"><ele>636</ele><time>2025-12-07T10:32:48Z</time></trkpt>
<trkpt lat="43.0563120000" lon="0.6597270000"><ele>636</ele><time>2025-12-07T10:32:50Z</time></trkpt>
<trkpt lat="43.0562970000" lon="0.6597530000"><ele>636</ele><time>2025-12-07T10:32:52Z</time></trkpt>
<trkpt lat="43.0562870000" lon="0.6597770000"><ele>636</ele><time>2025-12-07T10:32:54Z</time></trkpt>
<trkpt lat="43.0562770000" lon="0.6598120000"><ele>636</ele><time>2025-12-07T10:32:56Z</time></trkpt>
<trkpt lat="43.0562670000" lon="0.6598400000"><ele>635</ele><time>2025-12-07T10:32:58Z</time></trkpt>
<trkpt lat="43.0562520000" lon="0.6598220000"><ele>635</ele><time>2025-12-07T10:33:03Z</time></trkpt>
<trkpt lat="43.0562500000" lon="0.6598680000"><ele>635</ele><time>2025-12-07T10:33:06Z</time></trkpt>
<trkpt lat="43.0562400000" lon="0.6599170000"><ele>635</ele><time>2025-12-07T10:33:08Z</time></trkpt>
<trkpt lat="43.0562250000" lon="0.6599450000"><ele>635</ele><time>2025-12-07T10:33:09Z</time></trkpt>
<trkpt lat="43.0562150000" lon="0.6599670000"><ele>635</ele><time>2025-12-07T10:33:10Z</time></trkpt>
<trkpt lat="43.0561870000" lon="0.6600020000"><ele>634</ele><time>2025-12-07T10:33:12Z</time></trkpt>
<trkpt lat="43.0561670000" lon="0.6600170000"><ele>634</ele><time>2025-12-07T10:33:14Z</time></trkpt>
<trkpt lat="43.0561520000" lon="0.6600350000"><ele>635</ele><time>2025-12-07T10:33:16Z</time></trkpt>
<trkpt lat="43.0561350000" lon="0.6600500000"><ele>635</ele><time>2025-12-07T10:33:18Z</time></trkpt>
<trkpt lat="43.0561130000" lon="0.6600720000"><ele>634</ele><time>2025-12-07T10:33:20Z</time></trkpt>
<trkpt lat="43.0560900000" lon="0.6600800000"><ele>634</ele><time>2025-12-07T10:33:22Z</time></trkpt>
<trkpt lat="43.0560620000" lon="0.6601020000"><ele>634</ele><time>2025-12-07T10:33:24Z</time></trkpt>
<trkpt lat="43.0560470000" lon="0.6601300000"><ele>634</ele><time>2025-12-07T10:33:26Z</time></trkpt>
<trkpt lat="43.0560320000" lon="0.6601470000"><ele>634</ele><time>2025-12-07T10:33:28Z</time></trkpt>
<trkpt lat="43.0560170000" lon="0.6601670000"><ele>633</ele><time>2025-12-07T10:33:30Z</time></trkpt>
<trkpt lat="43.0560020000" lon="0.6601850000"><ele>633</ele><time>2025-12-07T10:33:32Z</time></trkpt>
<trkpt lat="43.0559870000" lon="0.6602050000"><ele>633</ele><time>2025-12-07T10:33:34Z</time></trkpt>
<trkpt lat="43.0559720000" lon="0.6602270000"><ele>632</ele><time>2025-12-07T10:33:36Z</time></trkpt>
<trkpt lat="43.0559470000" lon="0.6602450000"><ele>632</ele><time>2025-12-07T10:33:38Z</time></trkpt>
<trkpt lat="43.0559220000" lon="0.6602470000"><ele>632</ele><time>2025-12-07T10:33:40Z</time></trkpt>
<trkpt lat="43.0558970000" lon="0.6602500000"><ele>632</ele><time>2025-12-07T10:33:42Z</time></trkpt>
<trkpt lat="43.0558770000" lon="0.6602520000"><ele>632</ele><time>2025-12-07T10:33:44Z</time></trkpt>
<trkpt lat="43.0558500000" lon="0.6602470000"><ele>632</ele><time>2025-12-07T10:33:47Z</time></trkpt>
<trkpt lat="43.0558220000" lon="0.6602470000"><ele>632</ele><time>2025-12-07T10:33:50Z</time></trkpt>
<trkpt lat="43.0558020000" lon="0.6602500000"><ele>632</ele><time>2025-12-07T10:33:52Z</time></trkpt>
<trkpt lat="43.0557770000" lon="0.6602580000"><ele>632</ele><time>2025-12-07T10:33:55Z</time></trkpt>
<trkpt lat="43.0557520000" lon="0.6602620000"><ele>632</ele><time>2025-12-07T10:33:57Z</time></trkpt>
<trkpt lat="43.0557350000" lon="0.6602570000"><ele>632</ele><time>2025-12-07T10:33:59Z</time></trkpt>
<trkpt lat="43.0557170000" lon="0.6602570000"><ele>632</ele><time>2025-12-07T10:34:01Z</time></trkpt>
<trkpt lat="43.0556950000" lon="0.6602470000"><ele>633</ele><time>2025-12-07T10:34:03Z</time></trkpt>
<trkpt lat="43.0556770000" lon="0.6602620000"><ele>633</ele><time>2025-12-07T10:34:05Z</time></trkpt>
<trkpt lat="43.0556570000" lon="0.6602700000"><ele>632</ele><time>2025-12-07T10:34:14Z</time></trkpt>
<trkpt lat="43.0556420000" lon="0.6602470000"><ele>633</ele><time>2025-12-07T10:34:17Z</time></trkpt>
<trkpt lat="43.0556270000" lon="0.6602670000"><ele>632</ele><time>2025-12-07T10:34:20Z</time></trkpt>
<trkpt lat="43.0556070000" lon="0.6602870000"><ele>632</ele><time>2025-12-07T10:34:25Z</time></trkpt>
<trkpt lat="43.0555870000" lon="0.6603170000"><ele>632</ele><time>2025-12-07T10:34:27Z</time></trkpt>
<trkpt lat="43.0555700000" lon="0.6603320000"><ele>632</ele><time>2025-12-07T10:34:28Z</time></trkpt>
<trkpt lat="43.0555520000" lon="0.6603470000"><ele>631</ele><time>2025-12-07T10:34:30Z</time></trkpt>
<trkpt lat="43.0555500000" lon="0.6603770000"><ele>631</ele><time>2025-12-07T10:34:32Z</time></trkpt>
<trkpt lat="43.0555450000" lon="0.6604020000"><ele>631</ele><time>2025-12-07T10:34:34Z</time></trkpt>
<trkpt lat="43.0555400000" lon="0.6604270000"><ele>631</ele><time>2025-12-07T10:34:36Z</time></trkpt>
<trkpt lat="43.0555320000" lon="0.6604520000"><ele>630</ele><time>2025-12-07T10:34:39Z</time></trkpt>
<trkpt lat="43.0555270000" lon="0.6604820000"><ele>630</ele><time>2025-12-07T10:34:41Z</time></trkpt>
<trkpt lat="43.0555120000" lon="0.6605120000"><ele>629</ele><time>2025-12-07T10:34:43Z</time></trkpt>
<trkpt lat="43.0554920000" lon="0.6605370000"><ele>629</ele><time>2025-12-07T10:34:45Z</time></trkpt>
<trkpt lat="43.0554720000" lon="0.6605520000"><ele>629</ele><time>2025-12-07T10:34:47Z</time></trkpt>
<trkpt lat="43.0554470000" lon="0.6605700000"><ele>629</ele><time>2025-12-07T10:34:49Z</time></trkpt>
<trkpt lat="43.0554320000" lon="0.6605600000"><ele>629</ele><time>2025-12-07T10:34:50Z</time></trkpt>
<trkpt lat="43.0554050000" lon="0.6605720000"><ele>629</ele><time>2025-12-07T10:34:52Z</time></trkpt>
<trkpt lat="43.0553850000" lon="0.6605720000"><ele>629</ele><time>2025-12-07T10:34:54Z</time></trkpt>
<trkpt lat="43.0553670000" lon="0.6605520000"><ele>629</ele><time>2025-12-07T10:34:58Z</time></trkpt>
<trkpt lat="43.0553570000" lon="0.6605270000"><ele>630</ele><time>2025-12-07T10:35:00Z</time></trkpt>
<trkpt lat="43.0553350000" lon="0.6605270000"><ele>631</ele><time>2025-12-07T10:35:03Z</time></trkpt>
<trkpt lat="43.0553200000" lon="0.6605070000"><ele>632</ele><time>2025-12-07T10:35:10Z</time></trkpt>
<trkpt lat="43.0553120000" lon="0.6604820000"><ele>632</ele><time>2025-12-07T10:35:12Z</time></trkpt>
<trkpt lat="43.0553270000" lon="0.6605000000"><ele>632</ele><time>2025-12-07T10:35:28Z</time></trkpt>
<trkpt lat="43.0553470000" lon="0.6604800000"><ele>632</ele><time>2025-12-07T10:35:31Z</time></trkpt>
<trkpt lat="43.0553320000" lon="0.6604570000"><ele>632</ele><time>2025-12-07T10:35:34Z</time></trkpt>
<trkpt lat="43.0553150000" lon="0.6604520000"><ele>632</ele><time>2025-12-07T10:36:18Z</time></trkpt>
<trkpt lat="43.0552870000" lon="0.6604600000"><ele>632</ele><time>2025-12-07T10:36:20Z</time></trkpt>
<trkpt lat="43.0552570000" lon="0.6604550000"><ele>632</ele><time>2025-12-07T10:36:22Z</time></trkpt>
<trkpt lat="43.0552370000" lon="0.6604470000"><ele>632</ele><time>2025-12-07T10:36:24Z</time></trkpt>
<trkpt lat="43.0552170000" lon="0.6604470000"><ele>632</ele><time>2025-12-07T10:36:38Z</time></trkpt>
<trkpt lat="43.0551920000" lon="0.6604720000"><ele>632</ele><time>2025-12-07T10:36:41Z</time></trkpt>
<trkpt lat="43.0551670000" lon="0.6604820000"><ele>632</ele><time>2025-12-07T10:36:43Z</time></trkpt>
<trkpt lat="43.0551870000" lon="0.6604800000"><ele>632</ele><time>2025-12-07T10:36:50Z</time></trkpt>
<trkpt lat="43.0552220000" lon="0.6604750000"><ele>632</ele><time>2025-12-07T10:36:51Z</time></trkpt>
<trkpt lat="43.0553020000" lon="0.6604600000"><ele>632</ele><time>2025-12-07T10:36:53Z</time></trkpt>
<trkpt lat="43.0553270000" lon="0.6604570000"><ele>632</ele><time>2025-12-07T10:36:54Z</time></trkpt>
<trkpt lat="43.0553450000" lon="0.6604670000"><ele>632</ele><time>2025-12-07T10:37:01Z</time></trkpt>
<trkpt lat="43.0553750000" lon="0.6604520000"><ele>632</ele><time>2025-12-07T10:37:26Z</time></trkpt>
<trkpt lat="43.0553920000" lon="0.6604370000"><ele>632</ele><time>2025-12-07T10:37:27Z</time></trkpt>
<trkpt lat="43.0554220000" lon="0.6604170000"><ele>632</ele><time>2025-12-07T10:37:29Z</time></trkpt>
<trkpt lat="43.0554380000" lon="0.6604070000"><ele>633</ele><time>2025-12-07T10:37:31Z</time></trkpt>
<trkpt lat="43.0554570000" lon="0.6604120000"><ele>634</ele><time>2025-12-07T10:39:45Z</time></trkpt>
<trkpt lat="43.0554270000" lon="0.6604350000"><ele>634</ele><time>2025-12-07T10:39:48Z</time></trkpt>
<trkpt lat="43.0554120000" lon="0.6604480000"><ele>634</ele><time>2025-12-07T10:39:52Z</time></trkpt>
<trkpt lat="43.0554100000" lon="0.6604220000"><ele>634</ele><time>2025-12-07T10:40:32Z</time></trkpt>
<trkpt lat="43.0554200000" lon="0.6604480000"><ele>634</ele><time>2025-12-07T10:40:52Z</time></trkpt>
<trkpt lat="43.0554380000" lon="0.6604670000"><ele>635</ele><time>2025-12-07T10:40:55Z</time></trkpt>
<trkpt lat="43.0554320000" lon="0.6605000000"><ele>634</ele><time>2025-12-07T10:41:02Z</time></trkpt>
<trkpt lat="43.0554170000" lon="0.6604850000"><ele>636</ele><time>2025-12-07T10:42:19Z</time></trkpt>
<trkpt lat="43.0554120000" lon="0.6604420000"><ele>636</ele><time>2025-12-07T10:42:21Z</time></trkpt>
<trkpt lat="43.0554050000" lon="0.6604120000"><ele>636</ele><time>2025-12-07T10:42:23Z</time></trkpt>
<trkpt lat="43.0554120000" lon="0.6603870000"><ele>636</ele><time>2025-12-07T10:42:26Z</time></trkpt>
<trkpt lat="43.0554320000" lon="0.6603820000"><ele>636</ele><time>2025-12-07T10:42:30Z</time></trkpt>
<trkpt lat="43.0554170000" lon="0.6604020000"><ele>637</ele><time>2025-12-07T10:42:46Z</time></trkpt>
<trkpt lat="43.0553820000" lon="0.6604270000"><ele>637</ele><time>2025-12-07T10:42:48Z</time></trkpt>
<trkpt lat="43.0553620000" lon="0.6604420000"><ele>636</ele><time>2025-12-07T10:42:49Z</time></trkpt>
<trkpt lat="43.0553420000" lon="0.6604570000"><ele>636</ele><time>2025-12-07T10:42:50Z</time></trkpt>
<trkpt lat="43.0553220000" lon="0.6604820000"><ele>637</ele><time>2025-12-07T10:42:52Z</time></trkpt>
<trkpt lat="43.0553250000" lon="0.6604570000"><ele>639</ele><time>2025-12-07T10:43:38Z</time></trkpt>
<trkpt lat="43.0553100000" lon="0.6604120000"><ele>639</ele><time>2025-12-07T10:43:40Z</time></trkpt>
<trkpt lat="43.0553000000" lon="0.6603900000"><ele>639</ele><time>2025-12-07T10:43:41Z</time></trkpt>
<trkpt lat="43.0552870000" lon="0.6603620000"><ele>640</ele><time>2025-12-07T10:43:43Z</time></trkpt>
<trkpt lat="43.0552800000" lon="0.6603370000"><ele>640</ele><time>2025-12-07T10:43:46Z</time></trkpt>
<trkpt lat="43.0552700000" lon="0.6603120000"><ele>641</ele><time>2025-12-07T10:43:50Z</time></trkpt>
<trkpt lat="43.0552620000" lon="0.6602770000"><ele>644</ele><time>2025-12-07T10:44:03Z</time></trkpt>
<trkpt lat="43.0552470000" lon="0.6602450000"><ele>644</ele><time>2025-12-07T10:44:05Z</time></trkpt>
<trkpt lat="43.0552320000" lon="0.6602230000"><ele>644</ele><time>2025-12-07T10:44:06Z</time></trkpt>
<trkpt lat="43.0552250000" lon="0.6602020000"><ele>644</ele><time>2025-12-07T10:44:07Z</time></trkpt>
<trkpt lat="43.0552130000" lon="0.6601700000"><ele>644</ele><time>2025-12-07T10:44:09Z</time></trkpt>
<trkpt lat="43.0552120000" lon="0.6601420000"><ele>645</ele><time>2025-12-07T10:44:13Z</time></trkpt>
<trkpt lat="43.0552100000" lon="0.6601120000"><ele>645</ele><time>2025-12-07T10:44:14Z</time></trkpt>
<trkpt lat="43.0552070000" lon="0.6600850000"><ele>645</ele><time>2025-12-07T10:44:15Z</time></trkpt>
<trkpt lat="43.0552000000" lon="0.6600420000"><ele>645</ele><time>2025-12-07T10:44:17Z</time></trkpt>
<trkpt lat="43.0551970000" lon="0.6600170000"><ele>646</ele><time>2025-12-07T10:44:19Z</time></trkpt>
<trkpt lat="43.0552020000" lon="0.6599920000"><ele>646</ele><time>2025-12-07T10:44:21Z</time></trkpt>
<trkpt lat="43.0551800000" lon="0.6600020000"><ele>647</ele><time>2025-12-07T10:44:26Z</time></trkpt>
<trkpt lat="43.0551720000" lon="0.6600270000"><ele>647</ele><time>2025-12-07T10:44:30Z</time></trkpt>
<trkpt lat="43.0551920000" lon="0.6600220000"><ele>647</ele><time>2025-12-07T10:44:42Z</time></trkpt>
<trkpt lat="43.0552100000" lon="0.6600000000"><ele>647</ele><time>2025-12-07T10:44:44Z</time></trkpt>
<trkpt lat="43.0552120000" lon="0.6599720000"><ele>648</ele><time>2025-12-07T10:44:46Z</time></trkpt>
<trkpt lat="43.0551920000" lon="0.6599520000"><ele>648</ele><time>2025-12-07T10:44:48Z</time></trkpt>
<trkpt lat="43.0551670000" lon="0.6599370000"><ele>648</ele><time>2025-12-07T10:44:50Z</time></trkpt>
<trkpt lat="43.0551600000" lon="0.6599020000"><ele>648</ele><time>2025-12-07T10:44:52Z</time></trkpt>
<trkpt lat="43.0551470000" lon="0.6598680000"><ele>648</ele><time>2025-12-07T10:44:55Z</time></trkpt>
<trkpt lat="43.0551350000" lon="0.6598420000"><ele>649</ele><time>2025-12-07T10:44:58Z</time></trkpt>
<trkpt lat="43.0551250000" lon="0.6598180000"><ele>649</ele><time>2025-12-07T10:45:02Z</time></trkpt>
<trkpt lat="43.0551220000" lon="0.6597920000"><ele>649</ele><time>2025-12-07T10:45:04Z</time></trkpt>
<trkpt lat="43.0551150000" lon="0.6597670000"><ele>649</ele><time>2025-12-07T10:45:06Z</time></trkpt>
<trkpt lat="43.0551100000" lon="0.6597420000"><ele>649</ele><time>2025-12-07T10:45:09Z</time></trkpt>
<trkpt lat="43.0551170000" lon="0.6597120000"><ele>649</ele><time>2025-12-07T10:45:21Z</time></trkpt>
<trkpt lat="43.0551070000" lon="0.6596870000"><ele>650</ele><time>2025-12-07T10:45:25Z</time></trkpt>
<trkpt lat="43.0550920000" lon="0.6596520000"><ele>650</ele><time>2025-12-07T10:45:28Z</time></trkpt>
<trkpt lat="43.0550770000" lon="0.6596370000"><ele>650</ele><time>2025-12-07T10:45:31Z</time></trkpt>
<trkpt lat="43.0550420000" lon="0.6596350000"><ele>651</ele><time>2025-12-07T10:45:34Z</time></trkpt>
<trkpt lat="43.0550220000" lon="0.6596300000"><ele>651</ele><time>2025-12-07T10:45:36Z</time></trkpt>
<trkpt lat="43.0550050000" lon="0.6596300000"><ele>652</ele><time>2025-12-07T10:45:38Z</time></trkpt>
<trkpt lat="43.0549870000" lon="0.6596170000"><ele>652</ele><time>2025-12-07T10:45:40Z</time></trkpt>
<trkpt lat="43.0549720000" lon="0.6595950000"><ele>652</ele><time>2025-12-07T10:45:43Z</time></trkpt>
<trkpt lat="43.0549570000" lon="0.6595770000"><ele>653</ele><time>2025-12-07T10:45:46Z</time></trkpt>
<trkpt lat="43.0549450000" lon="0.6595600000"><ele>653</ele><time>2025-12-07T10:45:49Z</time></trkpt>
<trkpt lat="43.0549300000" lon="0.6595420000"><ele>654</ele><time>2025-12-07T10:45:51Z</time></trkpt>
<trkpt lat="43.0549120000" lon="0.6595200000"><ele>655</ele><time>2025-12-07T10:45:55Z</time></trkpt>
<trkpt lat="43.0549000000" lon="0.6594970000"><ele>655</ele><time>2025-12-07T10:45:59Z</time></trkpt>
<trkpt lat="43.0548920000" lon="0.6594750000"><ele>656</ele><time>2025-12-07T10:46:03Z</time></trkpt>
<trkpt lat="43.0548770000" lon="0.6594600000"><ele>657</ele><time>2025-12-07T10:46:08Z</time></trkpt>
<trkpt lat="43.0548820000" lon="0.6594280000"><ele>657</ele><time>2025-12-07T10:46:12Z</time></trkpt>
<trkpt lat="43.0548650000" lon="0.6594070000"><ele>659</ele><time>2025-12-07T10:46:35Z</time></trkpt>
<trkpt lat="43.0548620000" lon="0.6593770000"><ele>659</ele><time>2025-12-07T10:46:38Z</time></trkpt>
<trkpt lat="43.0548720000" lon="0.6593550000"><ele>660</ele><time>2025-12-07T10:46:42Z</time></trkpt>
<trkpt lat="43.0548550000" lon="0.6593270000"><ele>661</ele><time>2025-12-07T10:46:49Z</time></trkpt>
<trkpt lat="43.0548420000" lon="0.6593020000"><ele>661</ele><time>2025-12-07T10:46:52Z</time></trkpt>
<trkpt lat="43.0548420000" lon="0.6592720000"><ele>662</ele><time>2025-12-07T10:46:56Z</time></trkpt>
<trkpt lat="43.0548330000" lon="0.6592320000"><ele>664</ele><time>2025-12-07T10:47:18Z</time></trkpt>
<trkpt lat="43.0548300000" lon="0.6592050000"><ele>664</ele><time>2025-12-07T10:47:19Z</time></trkpt>
<trkpt lat="43.0548270000" lon="0.6591770000"><ele>665</ele><time>2025-12-07T10:47:20Z</time></trkpt>
<trkpt lat="43.0548270000" lon="0.6591500000"><ele>665</ele><time>2025-12-07T10:47:21Z</time></trkpt>
<trkpt lat="43.0548270000" lon="0.6591120000"><ele>665</ele><time>2025-12-07T10:47:23Z</time></trkpt>
<trkpt lat="43.0548320000" lon="0.6590820000"><ele>665</ele><time>2025-12-07T10:47:25Z</time></trkpt>
<trkpt lat="43.0548420000" lon="0.6590520000"><ele>665</ele><time>2025-12-07T10:47:28Z</time></trkpt>
<trkpt lat="43.0548520000" lon="0.6590270000"><ele>666</ele><time>2025-12-07T10:47:31Z</time></trkpt>
<trkpt lat="43.0548620000" lon="0.6590020000"><ele>666</ele><time>2025-12-07T10:47:33Z</time></trkpt>
<trkpt lat="43.0548720000" lon="0.6589720000"><ele>666</ele><time>2025-12-07T10:47:35Z</time></trkpt>
<trkpt lat="43.0548820000" lon="0.6589470000"><ele>667</ele><time>2025-12-07T10:47:37Z</time></trkpt>
<trkpt lat="43.0548970000" lon="0.6589300000"><ele>667</ele><time>2025-12-07T10:47:39Z</time></trkpt>
<trkpt lat="43.0549100000" lon="0.6589070000"><ele>667</ele><time>2025-12-07T10:47:42Z</time></trkpt>
<trkpt lat="43.0549270000" lon="0.6589020000"><ele>668</ele><time>2025-12-07T10:47:47Z</time></trkpt>
<trkpt lat="43.0549370000" lon="0.6588750000"><ele>669</ele><time>2025-12-07T10:47:51Z</time></trkpt>
<trkpt lat="43.0549420000" lon="0.6588470000"><ele>670</ele><time>2025-12-07T10:47:58Z</time></trkpt>
<trkpt lat="43.0549520000" lon="0.6588250000"><ele>670</ele><time>2025-12-07T10:48:04Z</time></trkpt>
<trkpt lat="43.0549650000" lon="0.6588000000"><ele>671</ele><time>2025-12-07T10:48:08Z</time></trkpt>
<trkpt lat="43.0549470000" lon="0.6588170000"><ele>670</ele><time>2025-12-07T10:48:14Z</time></trkpt>
<trkpt lat="43.0549370000" lon="0.6587720000"><ele>675</ele><time>2025-12-07T10:48:46Z</time></trkpt>
<trkpt lat="43.0549300000" lon="0.6587320000"><ele>675</ele><time>2025-12-07T10:48:47Z</time></trkpt>
<trkpt lat="43.0549170000" lon="0.6586870000"><ele>675</ele><time>2025-12-07T10:48:48Z</time></trkpt>
<trkpt lat="43.0549120000" lon="0.6586500000"><ele>675</ele><time>2025-12-07T10:48:49Z</time></trkpt>
<trkpt lat="43.0549070000" lon="0.6586220000"><ele>675</ele><time>2025-12-07T10:48:50Z</time></trkpt>
<trkpt lat="43.0549020000" lon="0.6585920000"><ele>675</ele><time>2025-12-07T10:48:52Z</time></trkpt>
<trkpt lat="43.0549070000" lon="0.6585620000"><ele>676</ele><time>2025-12-07T10:48:54Z</time></trkpt>
<trkpt lat="43.0549220000" lon="0.6585320000"><ele>676</ele><time>2025-12-07T10:48:57Z</time></trkpt>
<trkpt lat="43.0549320000" lon="0.6585120000"><ele>676</ele><time>2025-12-07T10:49:00Z</time></trkpt>
<trkpt lat="43.0549470000" lon="0.6584920000"><ele>677</ele><time>2025-12-07T10:49:02Z</time></trkpt>
<trkpt lat="43.0549650000" lon="0.6584820000"><ele>677</ele><time>2025-12-07T10:49:04Z</time></trkpt>
<trkpt lat="43.0549720000" lon="0.6584520000"><ele>677</ele><time>2025-12-07T10:49:08Z</time></trkpt>
<trkpt lat="43.0549700000" lon="0.6584270000"><ele>677</ele><time>2025-12-07T10:49:11Z</time></trkpt>
<trkpt lat="43.0549880000" lon="0.6584220000"><ele>678</ele><time>2025-12-07T10:49:16Z</time></trkpt>
<trkpt lat="43.0549770000" lon="0.6583970000"><ele>678</ele><time>2025-12-07T10:49:20Z</time></trkpt>
<trkpt lat="43.0549570000" lon="0.6583970000"><ele>678</ele><time>2025-12-07T10:49:22Z</time></trkpt>
<trkpt lat="43.0549420000" lon="0.6583820000"><ele>679</ele><time>2025-12-07T10:49:30Z</time></trkpt>
<trkpt lat="43.0549470000" lon="0.6583520000"><ele>679</ele><time>2025-12-07T10:49:33Z</time></trkpt>
<trkpt lat="43.0549600000" lon="0.6583270000"><ele>680</ele><time>2025-12-07T10:49:35Z</time></trkpt>
<trkpt lat="43.0549800000" lon="0.6583080000"><ele>680</ele><time>2025-12-07T10:49:39Z</time></trkpt>
<trkpt lat="43.0549920000" lon="0.6582800000"><ele>681</ele><time>2025-12-07T10:49:44Z</time></trkpt>
<trkpt lat="43.0550020000" lon="0.6582570000"><ele>681</ele><time>2025-12-07T10:49:48Z</time></trkpt>
<trkpt lat="43.0550120000" lon="0.6582350000"><ele>681</ele><time>2025-12-07T10:49:50Z</time></trkpt>
<trkpt lat="43.0550020000" lon="0.6582120000"><ele>681</ele><time>2025-12-07T10:49:52Z</time></trkpt>
<trkpt lat="43.0550020000" lon="0.6581850000"><ele>682</ele><time>2025-12-07T10:49:57Z</time></trkpt>
<trkpt lat="43.0550170000" lon="0.6581700000"><ele>682</ele><time>2025-12-07T10:49:59Z</time></trkpt>
<trkpt lat="43.0550370000" lon="0.6581520000"><ele>682</ele><time>2025-12-07T10:50:01Z</time></trkpt>
<trkpt lat="43.0550550000" lon="0.6581370000"><ele>682</ele><time>2025-12-07T10:50:03Z</time></trkpt>
<trkpt lat="43.0550720000" lon="0.6581270000"><ele>682</ele><time>2025-12-07T10:50:05Z</time></trkpt>
<trkpt lat="43.0550870000" lon="0.6581070000"><ele>682</ele><time>2025-12-07T10:50:09Z</time></trkpt>
<trkpt lat="43.0550970000" lon="0.6580820000"><ele>683</ele><time>2025-12-07T10:50:12Z</time></trkpt>
<trkpt lat="43.0550820000" lon="0.6580420000"><ele>683</ele><time>2025-12-07T10:50:17Z</time></trkpt>
<trkpt lat="43.0550770000" lon="0.6580120000"><ele>684</ele><time>2025-12-07T10:50:20Z</time></trkpt>
<trkpt lat="43.0550800000" lon="0.6579870000"><ele>684</ele><time>2025-12-07T10:50:24Z</time></trkpt>
<trkpt lat="43.0550720000" lon="0.6579580000"><ele>684</ele><time>2025-12-07T10:50:29Z</time></trkpt>
<trkpt lat="43.0550870000" lon="0.6579450000"><ele>685</ele><time>2025-12-07T10:50:34Z</time></trkpt>
<trkpt lat="43.0551020000" lon="0.6579230000"><ele>685</ele><time>2025-12-07T10:50:38Z</time></trkpt>
<trkpt lat="43.0551070000" lon="0.6579020000"><ele>686</ele><time>2025-12-07T10:50:42Z</time></trkpt>
<trkpt lat="43.0551170000" lon="0.6578670000"><ele>686</ele><time>2025-12-07T10:50:44Z</time></trkpt>
<trkpt lat="43.0551270000" lon="0.6578450000"><ele>686</ele><time>2025-12-07T10:50:46Z</time></trkpt>
<trkpt lat="43.0551370000" lon="0.6578220000"><ele>687</ele><time>2025-12-07T10:50:50Z</time></trkpt>
<trkpt lat="43.0551320000" lon="0.6577970000"><ele>687</ele><time>2025-12-07T10:50:56Z</time></trkpt>
<trkpt lat="43.0551170000" lon="0.6577720000"><ele>688</ele><time>2025-12-07T10:51:13Z</time></trkpt>
<trkpt lat="43.0551150000" lon="0.6577330000"><ele>688</ele><time>2025-12-07T10:51:15Z</time></trkpt>
<trkpt lat="43.0551120000" lon="0.6577100000"><ele>688</ele><time>2025-12-07T10:51:17Z</time></trkpt>
<trkpt lat="43.0551070000" lon="0.6576800000"><ele>688</ele><time>2025-12-07T10:51:21Z</time></trkpt>
<trkpt lat="43.0551170000" lon="0.6576550000"><ele>688</ele><time>2025-12-07T10:51:25Z</time></trkpt>
<trkpt lat="43.0551120000" lon="0.6576270000"><ele>689</ele><time>2025-12-07T10:51:27Z</time></trkpt>
<trkpt lat="43.0551120000" lon="0.6575980000"><ele>689</ele><time>2025-12-07T10:51:29Z</time></trkpt>
<trkpt lat="43.0551100000" lon="0.6575750000"><ele>689</ele><time>2025-12-07T10:51:31Z</time></trkpt>
<trkpt lat="43.0550920000" lon="0.6575620000"><ele>689</ele><time>2025-12-07T10:51:34Z</time></trkpt>
<trkpt lat="43.0550970000" lon="0.6575370000"><ele>690</ele><time>2025-12-07T10:51:38Z</time></trkpt>
<trkpt lat="43.0551070000" lon="0.6575100000"><ele>690</ele><time>2025-12-07T10:51:41Z</time></trkpt>
<trkpt lat="43.0551200000" lon="0.6574870000"><ele>690</ele><time>2025-12-07T10:51:44Z</time></trkpt>
<trkpt lat="43.0551250000" lon="0.6574570000"><ele>690</ele><time>2025-12-07T10:51:46Z</time></trkpt>
<trkpt lat="43.0551070000" lon="0.6574500000"><ele>690</ele><time>2025-12-07T10:51:48Z</time></trkpt>
<trkpt lat="43.0550850000" lon="0.6574420000"><ele>690</ele><time>2025-12-07T10:51:49Z</time></trkpt>
<trkpt lat="43.0550620000" lon="0.6574500000"><ele>690</ele><time>2025-12-07T10:51:51Z</time></trkpt>
<trkpt lat="43.0550470000" lon="0.6574630000"><ele>690</ele><time>2025-12-07T10:51:53Z</time></trkpt>
<trkpt lat="43.0550320000" lon="0.6574820000"><ele>690</ele><time>2025-12-07T10:51:55Z</time></trkpt>
<trkpt lat="43.0550120000" lon="0.6574900000"><ele>690</ele><time>2025-12-07T10:51:57Z</time></trkpt>
<trkpt lat="43.0549920000" lon="0.6574620000"><ele>691</ele><time>2025-12-07T10:51:59Z</time></trkpt>
<trkpt lat="43.0549820000" lon="0.6574400000"><ele>690</ele><time>2025-12-07T10:52:01Z</time></trkpt>
<trkpt lat="43.0549770000" lon="0.6574020000"><ele>691</ele><time>2025-12-07T10:52:03Z</time></trkpt>
<trkpt lat="43.0549650000" lon="0.6573700000"><ele>691</ele><time>2025-12-07T10:52:07Z</time></trkpt>
<trkpt lat="43.0549720000" lon="0.6573370000"><ele>690</ele><time>2025-12-07T10:52:11Z</time></trkpt>
<trkpt lat="43.0549870000" lon="0.6573220000"><ele>690</ele><time>2025-12-07T10:52:12Z</time></trkpt>
<trkpt lat="43.0549750000" lon="0.6572970000"><ele>690</ele><time>2025-12-07T10:52:15Z</time></trkpt>
<trkpt lat="43.0549550000" lon="0.6573220000"><ele>690</ele><time>2025-12-07T10:53:00Z</time></trkpt>
<trkpt lat="43.0549220000" lon="0.6573250000"><ele>690</ele><time>2025-12-07T10:53:02Z</time></trkpt>
<trkpt lat="43.0549470000" lon="0.6573320000"><ele>690</ele><time>2025-12-07T10:53:04Z</time></trkpt>
<trkpt lat="43.0549670000" lon="0.6573350000"><ele>690</ele><time>2025-12-07T10:53:06Z</time></trkpt>
<trkpt lat="43.0549880000" lon="0.6573430000"><ele>690</ele><time>2025-12-07T10:53:09Z</time></trkpt>
<trkpt lat="43.0550000000" lon="0.6573700000"><ele>690</ele><time>2025-12-07T10:53:21Z</time></trkpt>
<trkpt lat="43.0550120000" lon="0.6573500000"><ele>690</ele><time>2025-12-07T10:53:59Z</time></trkpt>
<trkpt lat="43.0550220000" lon="0.6573270000"><ele>690</ele><time>2025-12-07T10:54:02Z</time></trkpt>
<trkpt lat="43.0550420000" lon="0.6573250000"><ele>689</ele><time>2025-12-07T10:54:22Z</time></trkpt>
<trkpt lat="43.0550580000" lon="0.6573370000"><ele>689</ele><time>2025-12-07T10:54:41Z</time></trkpt>
<trkpt lat="43.0550770000" lon="0.6573570000"><ele>689</ele><time>2025-12-07T10:54:44Z</time></trkpt>
<trkpt lat="43.0550650000" lon="0.6573720000"><ele>689</ele><time>2025-12-07T10:55:03Z</time></trkpt>
<trkpt lat="43.0550350000" lon="0.6573620000"><ele>689</ele><time>2025-12-07T10:55:05Z</time></trkpt>
<trkpt lat="43.0550070000" lon="0.6573520000"><ele>689</ele><time>2025-12-07T10:55:07Z</time></trkpt>
<trkpt lat="43.0550300000" lon="0.6573520000"><ele>689</ele><time>2025-12-07T10:55:13Z</time></trkpt>
<trkpt lat="43.0550520000" lon="0.6573550000"><ele>688</ele><time>2025-12-07T10:56:30Z</time></trkpt>
<trkpt lat="43.0550720000" lon="0.6573570000"><ele>688</ele><time>2025-12-07T10:56:33Z</time></trkpt>
<trkpt lat="43.0550500000" lon="0.6573320000"><ele>688</ele><time>2025-12-07T10:57:21Z</time></trkpt>
<trkpt lat="43.0550220000" lon="0.6573220000"><ele>688</ele><time>2025-12-07T10:57:23Z</time></trkpt>
<trkpt lat="43.0550050000" lon="0.6573430000"><ele>688</ele><time>2025-12-07T10:57:26Z</time></trkpt>
<trkpt lat="43.0550170000" lon="0.6573700000"><ele>688</ele><time>2025-12-07T10:57:33Z</time></trkpt>
<trkpt lat="43.0550070000" lon="0.6573920000"><ele>688</ele><time>2025-12-07T10:57:41Z</time></trkpt>
<trkpt lat="43.0550070000" lon="0.6574220000"><ele>688</ele><time>2025-12-07T10:57:48Z</time></trkpt>
<trkpt lat="43.0550220000" lon="0.6574520000"><ele>688</ele><time>2025-12-07T10:57:52Z</time></trkpt>
<trkpt lat="43.0550420000" lon="0.6574900000"><ele>688</ele><time>2025-12-07T10:57:54Z</time></trkpt>
<trkpt lat="43.0550450000" lon="0.6575220000"><ele>688</ele><time>2025-12-07T10:57:56Z</time></trkpt>
<trkpt lat="43.0550420000" lon="0.6575470000"><ele>687</ele><time>2025-12-07T10:57:57Z</time></trkpt>
<trkpt lat="43.0550420000" lon="0.6575770000"><ele>687</ele><time>2025-12-07T10:57:59Z</time></trkpt>
<trkpt lat="43.0550470000" lon="0.6576070000"><ele>687</ele><time>2025-12-07T10:58:02Z</time></trkpt>
<trkpt lat="43.0550520000" lon="0.6576330000"><ele>687</ele><time>2025-12-07T10:58:07Z</time></trkpt>
<trkpt lat="43.0550450000" lon="0.6576620000"><ele>687</ele><time>2025-12-07T10:58:10Z</time></trkpt>
<trkpt lat="43.0550300000" lon="0.6576970000"><ele>686</ele><time>2025-12-07T10:58:15Z</time></trkpt>
<trkpt lat="43.0550320000" lon="0.6577270000"><ele>686</ele><time>2025-12-07T10:58:17Z</time></trkpt>
<trkpt lat="43.0550270000" lon="0.6577550000"><ele>686</ele><time>2025-12-07T10:58:19Z</time></trkpt>
<trkpt lat="43.0550120000" lon="0.6577830000"><ele>685</ele><time>2025-12-07T10:58:22Z</time></trkpt>
<trkpt lat="43.0550070000" lon="0.6578100000"><ele>685</ele><time>2025-12-07T10:58:25Z</time></trkpt>
<trkpt lat="43.0549970000" lon="0.6578370000"><ele>684</ele><time>2025-12-07T10:58:29Z</time></trkpt>
<trkpt lat="43.0549950000" lon="0.6578620000"><ele>684</ele><time>2025-12-07T10:58:32Z</time></trkpt>
<trkpt lat="43.0549920000" lon="0.6578870000"><ele>683</ele><time>2025-12-07T10:58:35Z</time></trkpt>
<trkpt lat="43.0549820000" lon="0.6579230000"><ele>683</ele><time>2025-12-07T10:58:38Z</time></trkpt>
<trkpt lat="43.0549720000" lon="0.6579520000"><ele>682</ele><time>2025-12-07T10:58:40Z</time></trkpt>
<trkpt lat="43.0549650000" lon="0.6579770000"><ele>682</ele><time>2025-12-07T10:58:43Z</time></trkpt>
<trkpt lat="43.0549620000" lon="0.6580070000"><ele>681</ele><time>2025-12-07T10:58:47Z</time></trkpt>
<trkpt lat="43.0549450000" lon="0.6580120000"><ele>681</ele><time>2025-12-07T10:58:50Z</time></trkpt>
<trkpt lat="43.0549250000" lon="0.6580220000"><ele>680</ele><time>2025-12-07T10:58:53Z</time></trkpt>
<trkpt lat="43.0549220000" lon="0.6580500000"><ele>680</ele><time>2025-12-07T10:58:55Z</time></trkpt>
<trkpt lat="43.0549250000" lon="0.6580870000"><ele>680</ele><time>2025-12-07T10:58:58Z</time></trkpt>
<trkpt lat="43.0549320000" lon="0.6581170000"><ele>679</ele><time>2025-12-07T10:59:00Z</time></trkpt>
<trkpt lat="43.0549420000" lon="0.6581450000"><ele>679</ele><time>2025-12-07T10:59:04Z</time></trkpt>
<trkpt lat="43.0549520000" lon="0.6581720000"><ele>678</ele><time>2025-12-07T10:59:07Z</time></trkpt>
<trkpt lat="43.0549620000" lon="0.6582000000"><ele>678</ele><time>2025-12-07T10:59:10Z</time></trkpt>
<trkpt lat="43.0549700000" lon="0.6582250000"><ele>677</ele><time>2025-12-07T10:59:13Z</time></trkpt>
<trkpt lat="43.0549870000" lon="0.6582400000"><ele>677</ele><time>2025-12-07T10:59:15Z</time></trkpt>
<trkpt lat="43.0550000000" lon="0.6582570000"><ele>676</ele><time>2025-12-07T10:59:17Z</time></trkpt>
<trkpt lat="43.0550050000" lon="0.6582870000"><ele>676</ele><time>2025-12-07T10:59:19Z</time></trkpt>
<trkpt lat="43.0549970000" lon="0.6583120000"><ele>676</ele><time>2025-12-07T10:59:21Z</time></trkpt>
<trkpt lat="43.0549770000" lon="0.6583470000"><ele>675</ele><time>2025-12-07T10:59:23Z</time></trkpt>
<trkpt lat="43.0549620000" lon="0.6583670000"><ele>675</ele><time>2025-12-07T10:59:25Z</time></trkpt>
<trkpt lat="43.0549550000" lon="0.6583970000"><ele>675</ele><time>2025-12-07T10:59:28Z</time></trkpt>
<trkpt lat="43.0549520000" lon="0.6584270000"><ele>675</ele><time>2025-12-07T10:59:30Z</time></trkpt>
<trkpt lat="43.0549470000" lon="0.6584600000"><ele>674</ele><time>2025-12-07T10:59:34Z</time></trkpt>
<trkpt lat="43.0549550000" lon="0.6584830000"><ele>674</ele><time>2025-12-07T10:59:36Z</time></trkpt>
<trkpt lat="43.0549650000" lon="0.6585220000"><ele>673</ele><time>2025-12-07T10:59:39Z</time></trkpt>
<trkpt lat="43.0549700000" lon="0.6585520000"><ele>673</ele><time>2025-12-07T10:59:41Z</time></trkpt>
<trkpt lat="43.0549820000" lon="0.6585720000"><ele>673</ele><time>2025-12-07T10:59:43Z</time></trkpt>
<trkpt lat="43.0549870000" lon="0.6586020000"><ele>672</ele><time>2025-12-07T10:59:46Z</time></trkpt>
<trkpt lat="43.0549720000" lon="0.6586330000"><ele>671</ele><time>2025-12-07T10:59:50Z</time></trkpt>
<trkpt lat="43.0549600000" lon="0.6586570000"><ele>671</ele><time>2025-12-07T10:59:54Z</time></trkpt>
<trkpt lat="43.0549670000" lon="0.6586870000"><ele>670</ele><time>2025-12-07T10:59:58Z</time></trkpt>
<trkpt lat="43.0549670000" lon="0.6587200000"><ele>670</ele><time>2025-12-07T11:00:01Z</time></trkpt>
<trkpt lat="43.0549500000" lon="0.6587480000"><ele>669</ele><time>2025-12-07T11:00:03Z</time></trkpt>
<trkpt lat="43.0549320000" lon="0.6587600000"><ele>669</ele><time>2025-12-07T11:00:05Z</time></trkpt>
<trkpt lat="43.0549220000" lon="0.6588000000"><ele>669</ele><time>2025-12-07T11:00:07Z</time></trkpt>
<trkpt lat="43.0549070000" lon="0.6588370000"><ele>668</ele><time>2025-12-07T11:00:09Z</time></trkpt>
<trkpt lat="43.0549220000" lon="0.6588650000"><ele>668</ele><time>2025-12-07T11:00:12Z</time></trkpt>
<trkpt lat="43.0549420000" lon="0.6588820000"><ele>668</ele><time>2025-12-07T11:00:14Z</time></trkpt>
<trkpt lat="43.0549520000" lon="0.6589020000"><ele>667</ele><time>2025-12-07T11:00:18Z</time></trkpt>
<trkpt lat="43.0549470000" lon="0.6589420000"><ele>665</ele><time>2025-12-07T11:00:21Z</time></trkpt>
<trkpt lat="43.0549470000" lon="0.6589720000"><ele>665</ele><time>2025-12-07T11:00:24Z</time></trkpt>
<trkpt lat="43.0549520000" lon="0.6590000000"><ele>664</ele><time>2025-12-07T11:00:28Z</time></trkpt>
<trkpt lat="43.0549620000" lon="0.6590300000"><ele>663</ele><time>2025-12-07T11:00:30Z</time></trkpt>
<trkpt lat="43.0549720000" lon="0.6590580000"><ele>663</ele><time>2025-12-07T11:00:32Z</time></trkpt>
<trkpt lat="43.0549750000" lon="0.6590920000"><ele>662</ele><time>2025-12-07T11:00:34Z</time></trkpt>
<trkpt lat="43.0549770000" lon="0.6591300000"><ele>662</ele><time>2025-12-07T11:00:36Z</time></trkpt>
<trkpt lat="43.0549720000" lon="0.6591570000"><ele>661</ele><time>2025-12-07T11:00:40Z</time></trkpt>
<trkpt lat="43.0549720000" lon="0.6592070000"><ele>661</ele><time>2025-12-07T11:00:43Z</time></trkpt>
<trkpt lat="43.0549600000" lon="0.6592470000"><ele>661</ele><time>2025-12-07T11:00:44Z</time></trkpt>
<trkpt lat="43.0549700000" lon="0.6592700000"><ele>660</ele><time>2025-12-07T11:00:48Z</time></trkpt>
<trkpt lat="43.0549420000" lon="0.6592820000"><ele>659</ele><time>2025-12-07T11:00:54Z</time></trkpt>
<trkpt lat="43.0549420000" lon="0.6593120000"><ele>656</ele><time>2025-12-07T11:01:03Z</time></trkpt>
<trkpt lat="43.0549370000" lon="0.6593450000"><ele>656</ele><time>2025-12-07T11:01:05Z</time></trkpt>
<trkpt lat="43.0549350000" lon="0.6593930000"><ele>656</ele><time>2025-12-07T11:01:07Z</time></trkpt>
<trkpt lat="43.0549370000" lon="0.6594200000"><ele>655</ele><time>2025-12-07T11:01:08Z</time></trkpt>
<trkpt lat="43.0549370000" lon="0.6594620000"><ele>655</ele><time>2025-12-07T11:01:10Z</time></trkpt>
<trkpt lat="43.0549470000" lon="0.6594870000"><ele>654</ele><time>2025-12-07T11:01:13Z</time></trkpt>
<trkpt lat="43.0549470000" lon="0.6595120000"><ele>652</ele><time>2025-12-07T11:01:18Z</time></trkpt>
<trkpt lat="43.0549650000" lon="0.6595120000"><ele>651</ele><time>2025-12-07T11:01:23Z</time></trkpt>
<trkpt lat="43.0549820000" lon="0.6595220000"><ele>649</ele><time>2025-12-07T11:01:31Z</time></trkpt>
<trkpt lat="43.0550120000" lon="0.6595370000"><ele>648</ele><time>2025-12-07T11:01:33Z</time></trkpt>
<trkpt lat="43.0550320000" lon="0.6595420000"><ele>648</ele><time>2025-12-07T11:01:34Z</time></trkpt>
<trkpt lat="43.0550620000" lon="0.6595470000"><ele>648</ele><time>2025-12-07T11:01:35Z</time></trkpt>
<trkpt lat="43.0550920000" lon="0.6595570000"><ele>647</ele><time>2025-12-07T11:01:36Z</time></trkpt>
<trkpt lat="43.0551150000" lon="0.6595670000"><ele>647</ele><time>2025-12-07T11:01:37Z</time></trkpt>
<trkpt lat="43.0551320000" lon="0.6595770000"><ele>647</ele><time>2025-12-07T11:01:38Z</time></trkpt>
<trkpt lat="43.0551600000" lon="0.6596020000"><ele>647</ele><time>2025-12-07T11:01:40Z</time></trkpt>
<trkpt lat="43.0551770000" lon="0.6596220000"><ele>646</ele><time>2025-12-07T11:01:42Z</time></trkpt>
<trkpt lat="43.0551970000" lon="0.6596470000"><ele>646</ele><time>2025-12-07T11:01:44Z</time></trkpt>
<trkpt lat="43.0552220000" lon="0.6596770000"><ele>645</ele><time>2025-12-07T11:01:47Z</time></trkpt>
<trkpt lat="43.0552370000" lon="0.6596950000"><ele>645</ele><time>2025-12-07T11:01:48Z</time></trkpt>
<trkpt lat="43.0552520000" lon="0.6597150000"><ele>645</ele><time>2025-12-07T11:01:50Z</time></trkpt>
<trkpt lat="43.0552600000" lon="0.6597470000"><ele>645</ele><time>2025-12-07T11:01:52Z</time></trkpt>
<trkpt lat="43.0552700000" lon="0.6597720000"><ele>645</ele><time>2025-12-07T11:01:54Z</time></trkpt>
<trkpt lat="43.0552830000" lon="0.6598050000"><ele>645</ele><time>2025-12-07T11:01:56Z</time></trkpt>
<trkpt lat="43.0553070000" lon="0.6598320000"><ele>645</ele><time>2025-12-07T11:01:58Z</time></trkpt>
<trkpt lat="43.0553070000" lon="0.6598670000"><ele>645</ele><time>2025-12-07T11:02:00Z</time></trkpt>
<trkpt lat="43.0553150000" lon="0.6599000000"><ele>645</ele><time>2025-12-07T11:02:02Z</time></trkpt>
<trkpt lat="43.0553200000" lon="0.6599320000"><ele>644</ele><time>2025-12-07T11:02:05Z</time></trkpt>
<trkpt lat="43.0553270000" lon="0.6599600000"><ele>644</ele><time>2025-12-07T11:02:08Z</time></trkpt>
<trkpt lat="43.0553170000" lon="0.6599820000"><ele>644</ele><time>2025-12-07T11:02:09Z</time></trkpt>
<trkpt lat="43.0553120000" lon="0.6600170000"><ele>643</ele><time>2025-12-07T11:02:11Z</time></trkpt>
<trkpt lat="43.0553070000" lon="0.6600470000"><ele>643</ele><time>2025-12-07T11:02:13Z</time></trkpt>
<trkpt lat="43.0553070000" lon="0.6600720000"><ele>643</ele><time>2025-12-07T11:02:15Z</time></trkpt>
<trkpt lat="43.0553100000" lon="0.6601020000"><ele>642</ele><time>2025-12-07T11:02:17Z</time></trkpt>
<trkpt lat="43.0553170000" lon="0.6601350000"><ele>642</ele><time>2025-12-07T11:02:19Z</time></trkpt>
<trkpt lat="43.0553220000" lon="0.6601620000"><ele>642</ele><time>2025-12-07T11:02:21Z</time></trkpt>
<trkpt lat="43.0553320000" lon="0.6601900000"><ele>641</ele><time>2025-12-07T11:02:25Z</time></trkpt>
<trkpt lat="43.0553370000" lon="0.6602150000"><ele>641</ele><time>2025-12-07T11:02:28Z</time></trkpt>
<trkpt lat="43.0553500000" lon="0.6602350000"><ele>640</ele><time>2025-12-07T11:02:31Z</time></trkpt>
<trkpt lat="43.0553720000" lon="0.6602520000"><ele>639</ele><time>2025-12-07T11:02:34Z</time></trkpt>
<trkpt lat="43.0553820000" lon="0.6602770000"><ele>638</ele><time>2025-12-07T11:02:37Z</time></trkpt>
<trkpt lat="43.0554000000" lon="0.6602970000"><ele>637</ele><time>2025-12-07T11:02:40Z</time></trkpt>
<trkpt lat="43.0553820000" lon="0.6603100000"><ele>637</ele><time>2025-12-07T11:02:41Z</time></trkpt>
<trkpt lat="43.0553700000" lon="0.6603300000"><ele>636</ele><time>2025-12-07T11:02:46Z</time></trkpt>
<trkpt lat="43.0553750000" lon="0.6603550000"><ele>636</ele><time>2025-12-07T11:02:51Z</time></trkpt>
<trkpt lat="43.0553900000" lon="0.6603750000"><ele>636</ele><time>2025-12-07T11:02:55Z</time></trkpt>
<trkpt lat="43.0554070000" lon="0.6603920000"><ele>635</ele><time>2025-12-07T11:02:58Z</time></trkpt>
<trkpt lat="43.0554320000" lon="0.6604270000"><ele>635</ele><time>2025-12-07T11:03:02Z</time></trkpt>
<trkpt lat="43.0554450000" lon="0.6604620000"><ele>633</ele><time>2025-12-07T11:03:06Z</time></trkpt>
<trkpt lat="43.0554370000" lon="0.6604870000"><ele>632</ele><time>2025-12-07T11:03:08Z</time></trkpt>
<trkpt lat="43.0554380000" lon="0.6605170000"><ele>632</ele><time>2025-12-07T11:03:13Z</time></trkpt>
<trkpt lat="43.0554550000" lon="0.6605570000"><ele>631</ele><time>2025-12-07T11:03:16Z</time></trkpt>
<trkpt lat="43.0554700000" lon="0.6605750000"><ele>630</ele><time>2025-12-07T11:03:18Z</time></trkpt>
<trkpt lat="43.0554770000" lon="0.6606020000"><ele>630</ele><time>2025-12-07T11:03:20Z</time></trkpt>
<trkpt lat="43.0554870000" lon="0.6606320000"><ele>630</ele><time>2025-12-07T11:03:22Z</time></trkpt>
<trkpt lat="43.0554900000" lon="0.6606630000"><ele>629</ele><time>2025-12-07T11:03:24Z</time></trkpt>
<trkpt lat="43.0554920000" lon="0.6607020000"><ele>629</ele><time>2025-12-07T11:03:26Z</time></trkpt>
<trkpt lat="43.0554920000" lon="0.6607300000"><ele>629</ele><time>2025-12-07T11:03:29Z</time></trkpt>
<trkpt lat="43.0554820000" lon="0.6607520000"><ele>629</ele><time>2025-12-07T11:03:31Z</time></trkpt>
<trkpt lat="43.0554750000" lon="0.6607870000"><ele>628</ele><time>2025-12-07T11:03:34Z</time></trkpt>
<trkpt lat="43.0554650000" lon="0.6608170000"><ele>628</ele><time>2025-12-07T11:03:36Z</time></trkpt>
<trkpt lat="43.0554550000" lon="0.6608420000"><ele>627</ele><time>2025-12-07T11:03:38Z</time></trkpt>
<trkpt lat="43.0554520000" lon="0.6608730000"><ele>627</ele><time>2025-12-07T11:03:40Z</time></trkpt>
<trkpt lat="43.0554420000" lon="0.6609070000"><ele>627</ele><time>2025-12-07T11:03:42Z</time></trkpt>
<trkpt lat="43.0554270000" lon="0.6609400000"><ele>627</ele><time>2025-12-07T11:03:44Z</time></trkpt>
<trkpt lat="43.0554150000" lon="0.6609670000"><ele>627</ele><time>2025-12-07T11:03:46Z</time></trkpt>
<trkpt lat="43.0554000000" lon="0.6609880000"><ele>627</ele><time>2025-12-07T11:03:48Z</time></trkpt>
<trkpt lat="43.0553870000" lon="0.6610170000"><ele>627</ele><time>2025-12-07T11:03:50Z</time></trkpt>
<trkpt lat="43.0553700000" lon="0.6610350000"><ele>626</ele><time>2025-12-07T11:03:53Z</time></trkpt>
<trkpt lat="43.0553520000" lon="0.6610600000"><ele>626</ele><time>2025-12-07T11:03:55Z</time></trkpt>
<trkpt lat="43.0553300000" lon="0.6610950000"><ele>626</ele><time>2025-12-07T11:03:57Z</time></trkpt>
<trkpt lat="43.0553270000" lon="0.6611270000"><ele>625</ele><time>2025-12-07T11:04:01Z</time></trkpt>
<trkpt lat="43.0553270000" lon="0.6611570000"><ele>625</ele><time>2025-12-07T11:04:03Z</time></trkpt>
<trkpt lat="43.0553270000" lon="0.6612000000"><ele>625</ele><time>2025-12-07T11:04:05Z</time></trkpt>
<trkpt lat="43.0553120000" lon="0.6612420000"><ele>625</ele><time>2025-12-07T11:04:07Z</time></trkpt>
<trkpt lat="43.0552970000" lon="0.6612770000"><ele>624</ele><time>2025-12-07T11:04:09Z</time></trkpt>
<trkpt lat="43.0552820000" lon="0.6613050000"><ele>624</ele><time>2025-12-07T11:04:11Z</time></trkpt>
<trkpt lat="43.0552600000" lon="0.6613300000"><ele>624</ele><time>2025-12-07T11:04:13Z</time></trkpt>
<trkpt lat="43.0552520000" lon="0.6613580000"><ele>624</ele><time>2025-12-07T11:04:15Z</time></trkpt>
<trkpt lat="43.0552370000" lon="0.6613900000"><ele>624</ele><time>2025-12-07T11:04:18Z</time></trkpt>
<trkpt lat="43.0552320000" lon="0.6614170000"><ele>624</ele><time>2025-12-07T11:04:21Z</time></trkpt>
<trkpt lat="43.0552220000" lon="0.6614520000"><ele>624</ele><time>2025-12-07T11:04:24Z</time></trkpt>
<trkpt lat="43.0552020000" lon="0.6614920000"><ele>624</ele><time>2025-12-07T11:04:26Z</time></trkpt>
<trkpt lat="43.0551800000" lon="0.6615200000"><ele>623</ele><time>2025-12-07T11:04:28Z</time></trkpt>
<trkpt lat="43.0551720000" lon="0.6615520000"><ele>624</ele><time>2025-12-07T11:04:31Z</time></trkpt>
<trkpt lat="43.0551570000" lon="0.6615770000"><ele>623</ele><time>2025-12-07T11:04:33Z</time></trkpt>
<trkpt lat="43.0551350000" lon="0.6616250000"><ele>623</ele><time>2025-12-07T11:04:35Z</time></trkpt>
<trkpt lat="43.0551220000" lon="0.6616570000"><ele>623</ele><time>2025-12-07T11:04:37Z</time></trkpt>
<trkpt lat="43.0551120000" lon="0.6616820000"><ele>623</ele><time>2025-12-07T11:04:39Z</time></trkpt>
<trkpt lat="43.0551020000" lon="0.6617200000"><ele>623</ele><time>2025-12-07T11:04:42Z</time></trkpt>
<trkpt lat="43.0550900000" lon="0.6617570000"><ele>623</ele><time>2025-12-07T11:04:45Z</time></trkpt>
<trkpt lat="43.0550870000" lon="0.6617870000"><ele>622</ele><time>2025-12-07T11:04:47Z</time></trkpt>
<trkpt lat="43.0550820000" lon="0.6618170000"><ele>622</ele><time>2025-12-07T11:04:49Z</time></trkpt>
<trkpt lat="43.0550720000" lon="0.6618420000"><ele>622</ele><time>2025-12-07T11:04:51Z</time></trkpt>
<trkpt lat="43.0550670000" lon="0.6618770000"><ele>621</ele><time>2025-12-07T11:04:54Z</time></trkpt>
<trkpt lat="43.0550620000" lon="0.6619020000"><ele>621</ele><time>2025-12-07T11:04:56Z</time></trkpt>
<trkpt lat="43.0550570000" lon="0.6619320000"><ele>621</ele><time>2025-12-07T11:04:58Z</time></trkpt>
<trkpt lat="43.0550550000" lon="0.6619570000"><ele>620</ele><time>2025-12-07T11:05:00Z</time></trkpt>
<trkpt lat="43.0550470000" lon="0.6619820000"><ele>620</ele><time>2025-12-07T11:05:03Z</time></trkpt>
<trkpt lat="43.0550370000" lon="0.6620050000"><ele>620</ele><time>2025-12-07T11:05:08Z</time></trkpt>
<trkpt lat="43.0550220000" lon="0.6620220000"><ele>620</ele><time>2025-12-07T11:05:10Z</time></trkpt>
<trkpt lat="43.0549920000" lon="0.6620220000"><ele>620</ele><time>2025-12-07T11:05:12Z</time></trkpt>
<trkpt lat="43.0549800000" lon="0.6620420000"><ele>620</ele><time>2025-12-07T11:05:13Z</time></trkpt>
<trkpt lat="43.0549620000" lon="0.6620650000"><ele>620</ele><time>2025-12-07T11:05:16Z</time></trkpt>
<trkpt lat="43.0549570000" lon="0.6620920000"><ele>620</ele><time>2025-12-07T11:05:21Z</time></trkpt>
<trkpt lat="43.0549600000" lon="0.6621220000"><ele>620</ele><time>2025-12-07T11:05:24Z</time></trkpt>
<trkpt lat="43.0549700000" lon="0.6621620000"><ele>620</ele><time>2025-12-07T11:05:26Z</time></trkpt>
<trkpt lat="43.0549670000" lon="0.6621920000"><ele>620</ele><time>2025-12-07T11:05:29Z</time></trkpt>
<trkpt lat="43.0549470000" lon="0.6622000000"><ele>619</ele><time>2025-12-07T11:06:01Z</time></trkpt>
<trkpt lat="43.0549270000" lon="0.6622120000"><ele>620</ele><time>2025-12-07T11:06:03Z</time></trkpt>
<trkpt lat="43.0549170000" lon="0.6622430000"><ele>620</ele><time>2025-12-07T11:06:06Z</time></trkpt>
<trkpt lat="43.0549150000" lon="0.6622700000"><ele>620</ele><time>2025-12-07T11:06:08Z</time></trkpt>
<trkpt lat="43.0549020000" lon="0.6622970000"><ele>620</ele><time>2025-12-07T11:06:10Z</time></trkpt>
<trkpt lat="43.0548920000" lon="0.6623220000"><ele>619</ele><time>2025-12-07T11:06:14Z</time></trkpt>
<trkpt lat="43.0548820000" lon="0.6623470000"><ele>619</ele><time>2025-12-07T11:06:16Z</time></trkpt>
<trkpt lat="43.0548670000" lon="0.6623720000"><ele>619</ele><time>2025-12-07T11:06:18Z</time></trkpt>
<trkpt lat="43.0548550000" lon="0.6623900000"><ele>619</ele><time>2025-12-07T11:06:20Z</time></trkpt>
<trkpt lat="43.0548370000" lon="0.6624120000"><ele>619</ele><time>2025-12-07T11:06:22Z</time></trkpt>
<trkpt lat="43.0548250000" lon="0.6624420000"><ele>619</ele><time>2025-12-07T11:06:24Z</time></trkpt>
<trkpt lat="43.0548070000" lon="0.6624570000"><ele>619</ele><time>2025-12-07T11:06:27Z</time></trkpt>
<trkpt lat="43.0547870000" lon="0.6624670000"><ele>618</ele><time>2025-12-07T11:06:31Z</time></trkpt>
<trkpt lat="43.0547820000" lon="0.6624920000"><ele>618</ele><time>2025-12-07T11:06:33Z</time></trkpt>
<trkpt lat="43.0547800000" lon="0.6625370000"><ele>618</ele><time>2025-12-07T11:06:36Z</time></trkpt>
<trkpt lat="43.0547770000" lon="0.6625700000"><ele>618</ele><time>2025-12-07T11:06:37Z</time></trkpt>
<trkpt lat="43.0547720000" lon="0.6626070000"><ele>617</ele><time>2025-12-07T11:06:39Z</time></trkpt>
<trkpt lat="43.0547650000" lon="0.6626320000"><ele>617</ele><time>2025-12-07T11:06:42Z</time></trkpt>
<trkpt lat="43.0547470000" lon="0.6626420000"><ele>617</ele><time>2025-12-07T11:06:45Z</time></trkpt>
<trkpt lat="43.0547270000" lon="0.6626670000"><ele>617</ele><time>2025-12-07T11:06:48Z</time></trkpt>
<trkpt lat="43.0547170000" lon="0.6626880000"><ele>617</ele><time>2025-12-07T11:06:50Z</time></trkpt>
<trkpt lat="43.0547000000" lon="0.6627150000"><ele>617</ele><time>2025-12-07T11:06:52Z</time></trkpt>
<trkpt lat="43.0546850000" lon="0.6627370000"><ele>617</ele><time>2025-12-07T11:06:54Z</time></trkpt>
<trkpt lat="43.0546670000" lon="0.6627620000"><ele>617</ele><time>2025-12-07T11:06:57Z</time></trkpt>
<trkpt lat="43.0546570000" lon="0.6627920000"><ele>617</ele><time>2025-12-07T11:06:59Z</time></trkpt>
<trkpt lat="43.0546470000" lon="0.6628270000"><ele>616</ele><time>2025-12-07T11:07:01Z</time></trkpt>
<trkpt lat="43.0546300000" lon="0.6628400000"><ele>616</ele><time>2025-12-07T11:07:04Z</time></trkpt>
<trkpt lat="43.0546220000" lon="0.6628670000"><ele>616</ele><time>2025-12-07T11:07:07Z</time></trkpt>
<trkpt lat="43.0546120000" lon="0.6629030000"><ele>615</ele><time>2025-12-07T11:07:09Z</time></trkpt>
<trkpt lat="43.0545970000" lon="0.6629270000"><ele>615</ele><time>2025-12-07T11:07:11Z</time></trkpt>
<trkpt lat="43.0545800000" lon="0.6629470000"><ele>615</ele><time>2025-12-07T11:07:13Z</time></trkpt>
<trkpt lat="43.0545600000" lon="0.6629670000"><ele>615</ele><time>2025-12-07T11:07:15Z</time></trkpt>
<trkpt lat="43.0545370000" lon="0.6629750000"><ele>614</ele><time>2025-12-07T11:07:17Z</time></trkpt>
<trkpt lat="43.0545020000" lon="0.6630000000"><ele>614</ele><time>2025-12-07T11:07:20Z</time></trkpt>
<trkpt lat="43.0544850000" lon="0.6630030000"><ele>614</ele><time>2025-12-07T11:07:21Z</time></trkpt>
<trkpt lat="43.0544570000" lon="0.6630120000"><ele>613</ele><time>2025-12-07T11:07:23Z</time></trkpt>
<trkpt lat="43.0544250000" lon="0.6630220000"><ele>613</ele><time>2025-12-07T11:07:25Z</time></trkpt>
<trkpt lat="43.0544020000" lon="0.6630350000"><ele>613</ele><time>2025-12-07T11:07:27Z</time></trkpt>
<trkpt lat="43.0543850000" lon="0.6630370000"><ele>612</ele><time>2025-12-07T11:07:29Z</time></trkpt>
<trkpt lat="43.0543620000" lon="0.6630320000"><ele>612</ele><time>2025-12-07T11:07:31Z</time></trkpt>
<trkpt lat="43.0543370000" lon="0.6630470000"><ele>612</ele><time>2025-12-07T11:07:33Z</time></trkpt>
<trkpt lat="43.0543170000" lon="0.6630420000"><ele>612</ele><time>2025-12-07T11:07:35Z</time></trkpt>
<trkpt lat="43.0542980000" lon="0.6630380000"><ele>612</ele><time>2025-12-07T11:07:37Z</time></trkpt>
<trkpt lat="43.0542720000" lon="0.6630420000"><ele>611</ele><time>2025-12-07T11:07:39Z</time></trkpt>
<trkpt lat="43.0542470000" lon="0.6630420000"><ele>611</ele><time>2025-12-07T11:07:42Z</time></trkpt>
<trkpt lat="43.0542120000" lon="0.6630370000"><ele>610</ele><time>2025-12-07T11:07:44Z</time></trkpt>
<trkpt lat="43.0541870000" lon="0.6630380000"><ele>610</ele><time>2025-12-07T11:07:46Z</time></trkpt>
<trkpt lat="43.0541670000" lon="0.6630370000"><ele>610</ele><time>2025-12-07T11:07:48Z</time></trkpt>
<trkpt lat="43.0541420000" lon="0.6630170000"><ele>610</ele><time>2025-12-07T11:07:50Z</time></trkpt>
<trkpt lat="43.0541250000" lon="0.6630070000"><ele>609</ele><time>2025-12-07T11:07:52Z</time></trkpt>
<trkpt lat="43.0541000000" lon="0.6629870000"><ele>609</ele><time>2025-12-07T11:07:54Z</time></trkpt>
<trkpt lat="43.0540820000" lon="0.6629670000"><ele>609</ele><time>2025-12-07T11:07:56Z</time></trkpt>
<trkpt lat="43.0540620000" lon="0.6629570000"><ele>609</ele><time>2025-12-07T11:07:58Z</time></trkpt>
<trkpt lat="43.0540450000" lon="0.6629420000"><ele>608</ele><time>2025-12-07T11:08:00Z</time></trkpt>
<trkpt lat="43.0540220000" lon="0.6629230000"><ele>608</ele><time>2025-12-07T11:08:03Z</time></trkpt>
<trkpt lat="43.0540020000" lon="0.6629070000"><ele>608</ele><time>2025-12-07T11:08:05Z</time></trkpt>
<trkpt lat="43.0539870000" lon="0.6628870000"><ele>607</ele><time>2025-12-07T11:08:07Z</time></trkpt>
<trkpt lat="43.0539770000" lon="0.6628550000"><ele>607</ele><time>2025-12-07T11:08:09Z</time></trkpt>
<trkpt lat="43.0539620000" lon="0.6628270000"><ele>607</ele><time>2025-12-07T11:08:11Z</time></trkpt>
<trkpt lat="43.0539470000" lon="0.6628070000"><ele>606</ele><time>2025-12-07T11:08:13Z</time></trkpt>
<trkpt lat="43.0539300000" lon="0.6627870000"><ele>606</ele><time>2025-12-07T11:08:15Z</time></trkpt>
<trkpt lat="43.0539120000" lon="0.6627670000"><ele>606</ele><time>2025-12-07T11:08:17Z</time></trkpt>
<trkpt lat="43.0538870000" lon="0.6627480000"><ele>606</ele><time>2025-12-07T11:08:19Z</time></trkpt>
<trkpt lat="43.0538720000" lon="0.6627300000"><ele>606</ele><time>2025-12-07T11:08:21Z</time></trkpt>
<trkpt lat="43.0538520000" lon="0.6627120000"><ele>606</ele><time>2025-12-07T11:08:23Z</time></trkpt>
<trkpt lat="43.0538370000" lon="0.6626920000"><ele>606</ele><time>2025-12-07T11:08:25Z</time></trkpt>
<trkpt lat="43.0538170000" lon="0.6626750000"><ele>605</ele><time>2025-12-07T11:08:27Z</time></trkpt>
<trkpt lat="43.0538020000" lon="0.6626550000"><ele>605</ele><time>2025-12-07T11:08:29Z</time></trkpt>
<trkpt lat="43.0537850000" lon="0.6626170000"><ele>605</ele><time>2025-12-07T11:08:31Z</time></trkpt>
<trkpt lat="43.0537750000" lon="0.6625950000"><ele>604</ele><time>2025-12-07T11:08:33Z</time></trkpt>
<trkpt lat="43.0537570000" lon="0.6625770000"><ele>604</ele><time>2025-12-07T11:08:35Z</time></trkpt>
<trkpt lat="43.0537350000" lon="0.6625570000"><ele>604</ele><time>2025-12-07T11:08:37Z</time></trkpt>
<trkpt lat="43.0537170000" lon="0.6625470000"><ele>604</ele><time>2025-12-07T11:08:39Z</time></trkpt>
<trkpt lat="43.0537000000" lon="0.6625320000"><ele>604</ele><time>2025-12-07T11:08:41Z</time></trkpt>
<trkpt lat="43.0536850000" lon="0.6625130000"><ele>603</ele><time>2025-12-07T11:08:43Z</time></trkpt>
<trkpt lat="43.0536700000" lon="0.6624970000"><ele>603</ele><time>2025-12-07T11:08:45Z</time></trkpt>
<trkpt lat="43.0536450000" lon="0.6624820000"><ele>603</ele><time>2025-12-07T11:08:48Z</time></trkpt>
<trkpt lat="43.0536220000" lon="0.6624720000"><ele>603</ele><time>2025-12-07T11:08:50Z</time></trkpt>
<trkpt lat="43.0536070000" lon="0.6624370000"><ele>602</ele><time>2025-12-07T11:08:52Z</time></trkpt>
<trkpt lat="43.0536000000" lon="0.6624070000"><ele>603</ele><time>2025-12-07T11:08:54Z</time></trkpt>
<trkpt lat="43.0535820000" lon="0.6623850000"><ele>602</ele><time>2025-12-07T11:08:57Z</time></trkpt>
<trkpt lat="43.0535820000" lon="0.6623570000"><ele>602</ele><time>2025-12-07T11:08:59Z</time></trkpt>
<trkpt lat="43.0535670000" lon="0.6623350000"><ele>602</ele><time>2025-12-07T11:09:01Z</time></trkpt>
<trkpt lat="43.0535420000" lon="0.6623270000"><ele>602</ele><time>2025-12-07T11:09:03Z</time></trkpt>
<trkpt lat="43.0535220000" lon="0.6623270000"><ele>602</ele><time>2025-12-07T11:09:04Z</time></trkpt>
<trkpt lat="43.0534920000" lon="0.6623150000"><ele>601</ele><time>2025-12-07T11:09:06Z</time></trkpt>
<trkpt lat="43.0534670000" lon="0.6622920000"><ele>601</ele><time>2025-12-07T11:09:08Z</time></trkpt>
<trkpt lat="43.0534420000" lon="0.6622670000"><ele>601</ele><time>2025-12-07T11:09:10Z</time></trkpt>
<trkpt lat="43.0534220000" lon="0.6622520000"><ele>601</ele><time>2025-12-07T11:09:12Z</time></trkpt>
<trkpt lat="43.0534070000" lon="0.6622370000"><ele>600</ele><time>2025-12-07T11:09:14Z</time></trkpt>
<trkpt lat="43.0533920000" lon="0.6622170000"><ele>600</ele><time>2025-12-07T11:09:17Z</time></trkpt>
<trkpt lat="43.0533770000" lon="0.6621820000"><ele>599</ele><time>2025-12-07T11:09:20Z</time></trkpt>
<trkpt lat="43.0533650000" lon="0.6621570000"><ele>599</ele><time>2025-12-07T11:09:22Z</time></trkpt>
<trkpt lat="43.0533470000" lon="0.6621320000"><ele>598</ele><time>2025-12-07T11:09:25Z</time></trkpt>
<trkpt lat="43.0533350000" lon="0.6621080000"><ele>598</ele><time>2025-12-07T11:09:27Z</time></trkpt>
<trkpt lat="43.0533170000" lon="0.6621370000"><ele>598</ele><time>2025-12-07T11:09:49Z</time></trkpt>
<trkpt lat="43.0533100000" lon="0.6621620000"><ele>597</ele><time>2025-12-07T11:09:52Z</time></trkpt>
<trkpt lat="43.0532970000" lon="0.6621880000"><ele>596</ele><time>2025-12-07T11:09:57Z</time></trkpt>
<trkpt lat="43.0532870000" lon="0.6622170000"><ele>595</ele><time>2025-12-07T11:10:00Z</time></trkpt>
<trkpt lat="43.0532820000" lon="0.6622470000"><ele>594</ele><time>2025-12-07T11:10:02Z</time></trkpt>
<trkpt lat="43.0532720000" lon="0.6622730000"><ele>594</ele><time>2025-12-07T11:10:04Z</time></trkpt>
<trkpt lat="43.0532670000" lon="0.6623000000"><ele>593</ele><time>2025-12-07T11:10:07Z</time></trkpt>
<trkpt lat="43.0532470000" lon="0.6623270000"><ele>593</ele><time>2025-12-07T11:10:11Z</time></trkpt>
<trkpt lat="43.0532270000" lon="0.6623500000"><ele>592</ele><time>2025-12-07T11:10:13Z</time></trkpt>
<trkpt lat="43.0532070000" lon="0.6623750000"><ele>591</ele><time>2025-12-07T11:10:15Z</time></trkpt>
<trkpt lat="43.0531920000" lon="0.6624020000"><ele>591</ele><time>2025-12-07T11:10:17Z</time></trkpt>
<trkpt lat="43.0531750000" lon="0.6624220000"><ele>591</ele><time>2025-12-07T11:10:19Z</time></trkpt>
<trkpt lat="43.0531580000" lon="0.6624430000"><ele>590</ele><time>2025-12-07T11:10:22Z</time></trkpt>
<trkpt lat="43.0531400000" lon="0.6624650000"><ele>590</ele><time>2025-12-07T11:10:27Z</time></trkpt>
<trkpt lat="43.0531270000" lon="0.6624870000"><ele>590</ele><time>2025-12-07T11:10:29Z</time></trkpt>
<trkpt lat="43.0531220000" lon="0.6625200000"><ele>590</ele><time>2025-12-07T11:10:32Z</time></trkpt>
<trkpt lat="43.0531320000" lon="0.6625420000"><ele>590</ele><time>2025-12-07T11:10:34Z</time></trkpt>
<trkpt lat="43.0531170000" lon="0.6625750000"><ele>589</ele><time>2025-12-07T11:10:40Z</time></trkpt>
<trkpt lat="43.0531120000" lon="0.6626070000"><ele>588</ele><time>2025-12-07T11:10:44Z</time></trkpt>
<trkpt lat="43.0530920000" lon="0.6626270000"><ele>588</ele><time>2025-12-07T11:10:47Z</time></trkpt>
<trkpt lat="43.0530750000" lon="0.6626400000"><ele>587</ele><time>2025-12-07T11:10:50Z</time></trkpt>
<trkpt lat="43.0530670000" lon="0.6626720000"><ele>587</ele><time>2025-12-07T11:10:53Z</time></trkpt>
<trkpt lat="43.0530600000" lon="0.6626970000"><ele>587</ele><time>2025-12-07T11:10:55Z</time></trkpt>
<trkpt lat="43.0530500000" lon="0.6627170000"><ele>586</ele><time>2025-12-07T11:10:58Z</time></trkpt>
<trkpt lat="43.0530500000" lon="0.6627420000"><ele>586</ele><time>2025-12-07T11:11:01Z</time></trkpt>
<trkpt lat="43.0530570000" lon="0.6627720000"><ele>586</ele><time>2025-12-07T11:11:04Z</time></trkpt>
<trkpt lat="43.0530570000" lon="0.6628070000"><ele>586</ele><time>2025-12-07T11:11:08Z</time></trkpt>
<trkpt lat="43.0530420000" lon="0.6628270000"><ele>585</ele><time>2025-12-07T11:11:10Z</time></trkpt>
<trkpt lat="43.0530320000" lon="0.6628520000"><ele>585</ele><time>2025-12-07T11:11:13Z</time></trkpt>
<trkpt lat="43.0530220000" lon="0.6628770000"><ele>585</ele><time>2025-12-07T11:11:16Z</time></trkpt>
<trkpt lat="43.0529970000" lon="0.6629000000"><ele>585</ele><time>2025-12-07T11:11:18Z</time></trkpt>
<trkpt lat="43.0529750000" lon="0.6628900000"><ele>584</ele><time>2025-12-07T11:11:20Z</time></trkpt>
<trkpt lat="43.0529570000" lon="0.6628750000"><ele>584</ele><time>2025-12-07T11:11:22Z</time></trkpt>
<trkpt lat="43.0529330000" lon="0.6628570000"><ele>584</ele><time>2025-12-07T11:11:24Z</time></trkpt>
<trkpt lat="43.0529170000" lon="0.6628500000"><ele>584</ele><time>2025-12-07T11:11:26Z</time></trkpt>
<trkpt lat="43.0528870000" lon="0.6628320000"><ele>584</ele><time>2025-12-07T11:11:28Z</time></trkpt>
<trkpt lat="43.0528700000" lon="0.6628220000"><ele>583</ele><time>2025-12-07T11:11:30Z</time></trkpt>
<trkpt lat="43.0528420000" lon="0.6628000000"><ele>583</ele><time>2025-12-07T11:11:34Z</time></trkpt>
<trkpt lat="43.0528270000" lon="0.6627800000"><ele>583</ele><time>2025-12-07T11:11:36Z</time></trkpt>
<trkpt lat="43.0528070000" lon="0.6627670000"><ele>583</ele><time>2025-12-07T11:11:38Z</time></trkpt>
<trkpt lat="43.0527770000" lon="0.6627770000"><ele>583</ele><time>2025-12-07T11:11:40Z</time></trkpt>
<trkpt lat="43.0527620000" lon="0.6627920000"><ele>582</ele><time>2025-12-07T11:11:41Z</time></trkpt>
<trkpt lat="43.0527370000" lon="0.6628100000"><ele>583</ele><time>2025-12-07T11:11:43Z</time></trkpt>
<trkpt lat="43.0527120000" lon="0.6628220000"><ele>582</ele><time>2025-12-07T11:11:45Z</time></trkpt>
<trkpt lat="43.0526870000" lon="0.6628300000"><ele>582</ele><time>2025-12-07T11:11:48Z</time></trkpt>
<trkpt lat="43.0526670000" lon="0.6628220000"><ele>582</ele><time>2025-12-07T11:11:50Z</time></trkpt>
<trkpt lat="43.0526470000" lon="0.6628100000"><ele>582</ele><time>2025-12-07T11:11:56Z</time></trkpt>
<trkpt lat="43.0526220000" lon="0.6628350000"><ele>582</ele><time>2025-12-07T11:12:05Z</time></trkpt>
<trkpt lat="43.0526100000" lon="0.6628570000"><ele>582</ele><time>2025-12-07T11:12:13Z</time></trkpt>
<trkpt lat="43.0525950000" lon="0.6628970000"><ele>582</ele><time>2025-12-07T11:12:15Z</time></trkpt>
<trkpt lat="43.0525820000" lon="0.6629150000"><ele>582</ele><time>2025-12-07T11:12:16Z</time></trkpt>
<trkpt lat="43.0525650000" lon="0.6629300000"><ele>582</ele><time>2025-12-07T11:12:17Z</time></trkpt>
<trkpt lat="43.0525500000" lon="0.6629450000"><ele>582</ele><time>2025-12-07T11:12:18Z</time></trkpt>
<trkpt lat="43.0525350000" lon="0.6629670000"><ele>583</ele><time>2025-12-07T11:12:20Z</time></trkpt>
<trkpt lat="43.0525320000" lon="0.6629970000"><ele>583</ele><time>2025-12-07T11:12:23Z</time></trkpt>
<trkpt lat="43.0525200000" lon="0.6630200000"><ele>582</ele><time>2025-12-07T11:12:26Z</time></trkpt>
<trkpt lat="43.0525100000" lon="0.6630520000"><ele>583</ele><time>2025-12-07T11:12:30Z</time></trkpt>
<trkpt lat="43.0525170000" lon="0.6630850000"><ele>583</ele><time>2025-12-07T11:12:34Z</time></trkpt>
<trkpt lat="43.0525100000" lon="0.6631220000"><ele>583</ele><time>2025-12-07T11:12:38Z</time></trkpt>
<trkpt lat="43.0524950000" lon="0.6631450000"><ele>583</ele><time>2025-12-07T11:12:40Z</time></trkpt>
<trkpt lat="43.0524750000" lon="0.6631720000"><ele>583</ele><time>2025-12-07T11:12:43Z</time></trkpt>
<trkpt lat="43.0524620000" lon="0.6631920000"><ele>583</ele><time>2025-12-07T11:12:45Z</time></trkpt>
<trkpt lat="43.0524470000" lon="0.6632120000"><ele>583</ele><time>2025-12-07T11:12:47Z</time></trkpt>
<trkpt lat="43.0524350000" lon="0.6632320000"><ele>583</ele><time>2025-12-07T11:12:49Z</time></trkpt>
<trkpt lat="43.0524200000" lon="0.6632620000"><ele>583</ele><time>2025-12-07T11:12:51Z</time></trkpt>
<trkpt lat="43.0524120000" lon="0.6633000000"><ele>583</ele><time>2025-12-07T11:12:53Z</time></trkpt>
<trkpt lat="43.0524100000" lon="0.6633370000"><ele>583</ele><time>2025-12-07T11:12:55Z</time></trkpt>
<trkpt lat="43.0523950000" lon="0.6633750000"><ele>583</ele><time>2025-12-07T11:12:57Z</time></trkpt>
<trkpt lat="43.0523870000" lon="0.6634020000"><ele>583</ele><time>2025-12-07T11:12:59Z</time></trkpt>
<trkpt lat="43.0523770000" lon="0.6634220000"><ele>583</ele><time>2025-12-07T11:13:01Z</time></trkpt>
<trkpt lat="43.0523500000" lon="0.6634420000"><ele>583</ele><time>2025-12-07T11:13:03Z</time></trkpt>
<trkpt lat="43.0523220000" lon="0.6634670000"><ele>583</ele><time>2025-12-07T11:13:05Z</time></trkpt>
<trkpt lat="43.0523100000" lon="0.6634920000"><ele>583</ele><time>2025-12-07T11:13:06Z</time></trkpt>
<trkpt lat="43.0522950000" lon="0.6635100000"><ele>583</ele><time>2025-12-07T11:13:09Z</time></trkpt>
<trkpt lat="43.0522650000" lon="0.6635180000"><ele>583</ele><time>2025-12-07T11:13:11Z</time></trkpt>
<trkpt lat="43.0522450000" lon="0.6635270000"><ele>582</ele><time>2025-12-07T11:13:13Z</time></trkpt>
<trkpt lat="43.0522270000" lon="0.6635320000"><ele>583</ele><time>2025-12-07T11:13:15Z</time></trkpt>
<trkpt lat="43.0522050000" lon="0.6635420000"><ele>583</ele><time>2025-12-07T11:13:17Z</time></trkpt>
<trkpt lat="43.0521870000" lon="0.6635320000"><ele>583</ele><time>2025-12-07T11:13:19Z</time></trkpt>
<trkpt lat="43.0521600000" lon="0.6635270000"><ele>583</ele><time>2025-12-07T11:13:21Z</time></trkpt>
<trkpt lat="43.0521300000" lon="0.6635170000"><ele>583</ele><time>2025-12-07T11:13:23Z</time></trkpt>
<trkpt lat="43.0521070000" lon="0.6635150000"><ele>583</ele><time>2025-12-07T11:13:25Z</time></trkpt>
<trkpt lat="43.0520820000" lon="0.6635070000"><ele>583</ele><time>2025-12-07T11:13:27Z</time></trkpt>
<trkpt lat="43.0520620000" lon="0.6635020000"><ele>582</ele><time>2025-12-07T11:13:29Z</time></trkpt>
<trkpt lat="43.0520420000" lon="0.6634980000"><ele>582</ele><time>2025-12-07T11:13:31Z</time></trkpt>
<trkpt lat="43.0520220000" lon="0.6634850000"><ele>583</ele><time>2025-12-07T11:13:33Z</time></trkpt>
<trkpt lat="43.0520020000" lon="0.6634670000"><ele>583</ele><time>2025-12-07T11:13:35Z</time></trkpt>
<trkpt lat="43.0519800000" lon="0.6634570000"><ele>583</ele><time>2025-12-07T11:13:37Z</time></trkpt>
<trkpt lat="43.0519620000" lon="0.6634470000"><ele>583</ele><time>2025-12-07T11:13:39Z</time></trkpt>
<trkpt lat="43.0519370000" lon="0.6634370000"><ele>583</ele><time>2025-12-07T11:13:41Z</time></trkpt>
<trkpt lat="43.0519220000" lon="0.6634070000"><ele>583</ele><time>2025-12-07T11:13:43Z</time></trkpt>
<trkpt lat="43.0518970000" lon="0.6633870000"><ele>583</ele><time>2025-12-07T11:13:45Z</time></trkpt>
<trkpt lat="43.0518720000" lon="0.6633670000"><ele>583</ele><time>2025-12-07T11:13:47Z</time></trkpt>
<trkpt lat="43.0518520000" lon="0.6633520000"><ele>583</ele><time>2025-12-07T11:13:49Z</time></trkpt>
<trkpt lat="43.0518320000" lon="0.6633420000"><ele>583</ele><time>2025-12-07T11:13:51Z</time></trkpt>
<trkpt lat="43.0518120000" lon="0.6633350000"><ele>583</ele><time>2025-12-07T11:13:53Z</time></trkpt>
<trkpt lat="43.0517850000" lon="0.6633220000"><ele>583</ele><time>2025-12-07T11:13:55Z</time></trkpt>
<trkpt lat="43.0517600000" lon="0.6633120000"><ele>583</ele><time>2025-12-07T11:13:57Z</time></trkpt>
<trkpt lat="43.0517420000" lon="0.6632900000"><ele>583</ele><time>2025-12-07T11:13:59Z</time></trkpt>
<trkpt lat="43.0517220000" lon="0.6632730000"><ele>583</ele><time>2025-12-07T11:14:01Z</time></trkpt>
<trkpt lat="43.0516970000" lon="0.6632620000"><ele>583</ele><time>2025-12-07T11:14:05Z</time></trkpt>
<trkpt lat="43.0516720000" lon="0.6632470000"><ele>584</ele><time>2025-12-07T11:14:07Z</time></trkpt>
<trkpt lat="43.0516520000" lon="0.6632220000"><ele>584</ele><time>2025-12-07T11:14:08Z</time></trkpt>
<trkpt lat="43.0516320000" lon="0.6631970000"><ele>583</ele><time>2025-12-07T11:14:09Z</time></trkpt>
<trkpt lat="43.0516170000" lon="0.6631800000"><ele>583</ele><time>2025-12-07T11:14:10Z</time></trkpt>
<trkpt lat="43.0516070000" lon="0.6631570000"><ele>584</ele><time>2025-12-07T11:14:12Z</time></trkpt>
<trkpt lat="43.0515920000" lon="0.6631470000"><ele>584</ele><time>2025-12-07T11:14:14Z</time></trkpt>
<trkpt lat="43.0515720000" lon="0.6631270000"><ele>584</ele><time>2025-12-07T11:14:16Z</time></trkpt>
<trkpt lat="43.0515600000" lon="0.6631050000"><ele>584</ele><time>2025-12-07T11:14:18Z</time></trkpt>
<trkpt lat="43.0515450000" lon="0.6630850000"><ele>584</ele><time>2025-12-07T11:14:20Z</time></trkpt>
<trkpt lat="43.0515270000" lon="0.6630580000"><ele>584</ele><time>2025-12-07T11:14:23Z</time></trkpt>
<trkpt lat="43.0515120000" lon="0.6630420000"><ele>584</ele><time>2025-12-07T11:14:24Z</time></trkpt>
<trkpt lat="43.0514950000" lon="0.6630150000"><ele>584</ele><time>2025-12-07T11:14:26Z</time></trkpt>
<trkpt lat="43.0514750000" lon="0.6629920000"><ele>584</ele><time>2025-12-07T11:14:29Z</time></trkpt>
<trkpt lat="43.0514550000" lon="0.6629800000"><ele>585</ele><time>2025-12-07T11:14:31Z</time></trkpt>
<trkpt lat="43.0514370000" lon="0.6629680000"><ele>585</ele><time>2025-12-07T11:14:33Z</time></trkpt>
<trkpt lat="43.0514220000" lon="0.6629570000"><ele>585</ele><time>2025-12-07T11:14:35Z</time></trkpt>
<trkpt lat="43.0514050000" lon="0.6629770000"><ele>585</ele><time>2025-12-07T11:14:36Z</time></trkpt>
<trkpt lat="43.0513850000" lon="0.6629650000"><ele>585</ele><time>2025-12-07T11:14:38Z</time></trkpt>
<trkpt lat="43.0513550000" lon="0.6629470000"><ele>585</ele><time>2025-12-07T11:14:40Z</time></trkpt>
<trkpt lat="43.0513320000" lon="0.6629300000"><ele>585</ele><time>2025-12-07T11:14:42Z</time></trkpt>
<trkpt lat="43.0513020000" lon="0.6629150000"><ele>585</ele><time>2025-12-07T11:14:45Z</time></trkpt>
<trkpt lat="43.0512770000" lon="0.6628920000"><ele>585</ele><time>2025-12-07T11:14:47Z</time></trkpt>
<trkpt lat="43.0512600000" lon="0.6628620000"><ele>586</ele><time>2025-12-07T11:14:49Z</time></trkpt>
<trkpt lat="43.0512420000" lon="0.6628470000"><ele>586</ele><time>2025-12-07T11:14:51Z</time></trkpt>
<trkpt lat="43.0512170000" lon="0.6628300000"><ele>586</ele><time>2025-12-07T11:14:54Z</time></trkpt>
<trkpt lat="43.0511970000" lon="0.6628120000"><ele>586</ele><time>2025-12-07T11:14:57Z</time></trkpt>
<trkpt lat="43.0511800000" lon="0.6627800000"><ele>586</ele><time>2025-12-07T11:15:00Z</time></trkpt>
<trkpt lat="43.0511620000" lon="0.6627650000"><ele>586</ele><time>2025-12-07T11:15:02Z</time></trkpt>
<trkpt lat="43.0511350000" lon="0.6627480000"><ele>586</ele><time>2025-12-07T11:15:05Z</time></trkpt>
<trkpt lat="43.0511120000" lon="0.6627420000"><ele>586</ele><time>2025-12-07T11:15:07Z</time></trkpt>
<trkpt lat="43.0510920000" lon="0.6627270000"><ele>587</ele><time>2025-12-07T11:15:09Z</time></trkpt>
<trkpt lat="43.0510750000" lon="0.6627100000"><ele>586</ele><time>2025-12-07T11:15:11Z</time></trkpt>
<trkpt lat="43.0510570000" lon="0.6626720000"><ele>587</ele><time>2025-12-07T11:15:13Z</time></trkpt>
<trkpt lat="43.0510550000" lon="0.6626420000"><ele>587</ele><time>2025-12-07T11:15:16Z</time></trkpt>
<trkpt lat="43.0510320000" lon="0.6626400000"><ele>587</ele><time>2025-12-07T11:15:18Z</time></trkpt>
<trkpt lat="43.0510120000" lon="0.6626320000"><ele>587</ele><time>2025-12-07T11:15:20Z</time></trkpt>
<trkpt lat="43.0509920000" lon="0.6626270000"><ele>587</ele><time>2025-12-07T11:15:21Z</time></trkpt>
<trkpt lat="43.0509670000" lon="0.6626020000"><ele>587</ele><time>2025-12-07T11:15:23Z</time></trkpt>
<trkpt lat="43.0509470000" lon="0.6625770000"><ele>587</ele><time>2025-12-07T11:15:25Z</time></trkpt>
<trkpt lat="43.0509320000" lon="0.6625570000"><ele>587</ele><time>2025-12-07T11:15:27Z</time></trkpt>
<trkpt lat="43.0509170000" lon="0.6625200000"><ele>587</ele><time>2025-12-07T11:15:29Z</time></trkpt>
<trkpt lat="43.0508920000" lon="0.6625170000"><ele>587</ele><time>2025-12-07T11:15:31Z</time></trkpt>
<trkpt lat="43.0508720000" lon="0.6625050000"><ele>587</ele><time>2025-12-07T11:15:33Z</time></trkpt>
<trkpt lat="43.0508520000" lon="0.6624720000"><ele>587</ele><time>2025-12-07T11:15:35Z</time></trkpt>
<trkpt lat="43.0508370000" lon="0.6624420000"><ele>587</ele><time>2025-12-07T11:15:37Z</time></trkpt>
<trkpt lat="43.0508220000" lon="0.6624150000"><ele>587</ele><time>2025-12-07T11:15:39Z</time></trkpt>
<trkpt lat="43.0508120000" lon="0.6623920000"><ele>587</ele><time>2025-12-07T11:15:41Z</time></trkpt>
<trkpt lat="43.0508000000" lon="0.6623620000"><ele>588</ele><time>2025-12-07T11:15:44Z</time></trkpt>
<trkpt lat="43.0507870000" lon="0.6623370000"><ele>588</ele><time>2025-12-07T11:15:46Z</time></trkpt>
<trkpt lat="43.0507820000" lon="0.6623070000"><ele>588</ele><time>2025-12-07T11:15:48Z</time></trkpt>
<trkpt lat="43.0507670000" lon="0.6622820000"><ele>588</ele><time>2025-12-07T11:15:51Z</time></trkpt>
<trkpt lat="43.0507620000" lon="0.6622550000"><ele>587</ele><time>2025-12-07T11:16:37Z</time></trkpt>
<trkpt lat="43.0507550000" lon="0.6622220000"><ele>588</ele><time>2025-12-07T11:16:40Z</time></trkpt>
<trkpt lat="43.0507650000" lon="0.6621970000"><ele>588</ele><time>2025-12-07T11:16:42Z</time></trkpt>
<trkpt lat="43.0507720000" lon="0.6621720000"><ele>588</ele><time>2025-12-07T11:16:44Z</time></trkpt>
<trkpt lat="43.0507700000" lon="0.6621450000"><ele>589</ele><time>2025-12-07T11:16:49Z</time></trkpt>
<trkpt lat="43.0507620000" lon="0.6621200000"><ele>589</ele><time>2025-12-07T11:16:51Z</time></trkpt>
<trkpt lat="43.0507600000" lon="0.6620730000"><ele>590</ele><time>2025-12-07T11:16:53Z</time></trkpt>
<trkpt lat="43.0507570000" lon="0.6620370000"><ele>590</ele><time>2025-12-07T11:16:55Z</time></trkpt>
<trkpt lat="43.0507570000" lon="0.6620050000"><ele>590</ele><time>2025-12-07T11:16:57Z</time></trkpt>
<trkpt lat="43.0507670000" lon="0.6619800000"><ele>592</ele><time>2025-12-07T11:17:13Z</time></trkpt>
<trkpt lat="43.0507750000" lon="0.6619450000"><ele>592</ele><time>2025-12-07T11:17:15Z</time></trkpt>
<trkpt lat="43.0507770000" lon="0.6619170000"><ele>592</ele><time>2025-12-07T11:17:16Z</time></trkpt>
<trkpt lat="43.0507820000" lon="0.6618900000"><ele>592</ele><time>2025-12-07T11:17:17Z</time></trkpt>
<trkpt lat="43.0507920000" lon="0.6618520000"><ele>592</ele><time>2025-12-07T11:17:19Z</time></trkpt>
<trkpt lat="43.0508070000" lon="0.6618270000"><ele>593</ele><time>2025-12-07T11:17:22Z</time></trkpt>
<trkpt lat="43.0508170000" lon="0.6617920000"><ele>593</ele><time>2025-12-07T11:17:25Z</time></trkpt>
<trkpt lat="43.0508170000" lon="0.6617620000"><ele>593</ele><time>2025-12-07T11:17:27Z</time></trkpt>
<trkpt lat="43.0508070000" lon="0.6617420000"><ele>594</ele><time>2025-12-07T11:17:31Z</time></trkpt>
<trkpt lat="43.0508020000" lon="0.6617120000"><ele>594</ele><time>2025-12-07T11:17:33Z</time></trkpt>
<trkpt lat="43.0507900000" lon="0.6616920000"><ele>594</ele><time>2025-12-07T11:17:35Z</time></trkpt>
<trkpt lat="43.0507800000" lon="0.6616680000"><ele>595</ele><time>2025-12-07T11:17:37Z</time></trkpt>
<trkpt lat="43.0507770000" lon="0.6616450000"><ele>595</ele><time>2025-12-07T11:17:39Z</time></trkpt>
<trkpt lat="43.0507820000" lon="0.6616070000"><ele>595</ele><time>2025-12-07T11:17:42Z</time></trkpt>
<trkpt lat="43.0507820000" lon="0.6615780000"><ele>595</ele><time>2025-12-07T11:17:45Z</time></trkpt>
<trkpt lat="43.0507870000" lon="0.6615480000"><ele>596</ele><time>2025-12-07T11:17:47Z</time></trkpt>
<trkpt lat="43.0508080000" lon="0.6615320000"><ele>596</ele><time>2025-12-07T11:17:50Z</time></trkpt>
<trkpt lat="43.0508080000" lon="0.6614970000"><ele>596</ele><time>2025-12-07T11:17:54Z</time></trkpt>
<trkpt lat="43.0508070000" lon="0.6614720000"><ele>597</ele><time>2025-12-07T11:17:56Z</time></trkpt>
<trkpt lat="43.0508170000" lon="0.6614470000"><ele>597</ele><time>2025-12-07T11:17:58Z</time></trkpt>
<trkpt lat="43.0508250000" lon="0.6614120000"><ele>597</ele><time>2025-12-07T11:18:00Z</time></trkpt>
<trkpt lat="43.0508220000" lon="0.6613750000"><ele>597</ele><time>2025-12-07T11:18:02Z</time></trkpt>
<trkpt lat="43.0508270000" lon="0.6613420000"><ele>597</ele><time>2025-12-07T11:18:05Z</time></trkpt>
<trkpt lat="43.0508420000" lon="0.6613020000"><ele>598</ele><time>2025-12-07T11:18:08Z</time></trkpt>
<trkpt lat="43.0508520000" lon="0.6612770000"><ele>598</ele><time>2025-12-07T11:18:10Z</time></trkpt>
<trkpt lat="43.0508620000" lon="0.6612570000"><ele>598</ele><time>2025-12-07T11:18:12Z</time></trkpt>
<trkpt lat="43.0508820000" lon="0.6612320000"><ele>598</ele><time>2025-12-07T11:18:15Z</time></trkpt>
<trkpt lat="43.0508770000" lon="0.6612070000"><ele>598</ele><time>2025-12-07T11:18:17Z</time></trkpt>
<trkpt lat="43.0508920000" lon="0.6611870000"><ele>598</ele><time>2025-12-07T11:18:19Z</time></trkpt>
<trkpt lat="43.0509070000" lon="0.6611670000"><ele>598</ele><time>2025-12-07T11:18:22Z</time></trkpt>
<trkpt lat="43.0509120000" lon="0.6611420000"><ele>598</ele><time>2025-12-07T11:18:24Z</time></trkpt>
<trkpt lat="43.0509120000" lon="0.6611170000"><ele>598</ele><time>2025-12-07T11:18:26Z</time></trkpt>
<trkpt lat="43.0509120000" lon="0.6610850000"><ele>598</ele><time>2025-12-07T11:18:28Z</time></trkpt>
<trkpt lat="43.0508970000" lon="0.6610600000"><ele>598</ele><time>2025-12-07T11:18:30Z</time></trkpt>
<trkpt lat="43.0508720000" lon="0.6610470000"><ele>598</ele><time>2025-12-07T11:18:32Z</time></trkpt>
<trkpt lat="43.0508550000" lon="0.6610280000"><ele>598</ele><time>2025-12-07T11:18:35Z</time></trkpt>
<trkpt lat="43.0508420000" lon="0.6610080000"><ele>598</ele><time>2025-12-07T11:18:39Z</time></trkpt>
<trkpt lat="43.0508320000" lon="0.6609770000"><ele>599</ele><time>2025-12-07T11:18:43Z</time></trkpt>
<trkpt lat="43.0508250000" lon="0.6609500000"><ele>599</ele><time>2025-12-07T11:18:46Z</time></trkpt>
<trkpt lat="43.0508050000" lon="0.6609420000"><ele>600</ele><time>2025-12-07T11:18:50Z</time></trkpt>
<trkpt lat="43.0507950000" lon="0.6609120000"><ele>600</ele><time>2025-12-07T11:18:54Z</time></trkpt>
<trkpt lat="43.0507750000" lon="0.6608870000"><ele>600</ele><time>2025-12-07T11:18:56Z</time></trkpt>
<trkpt lat="43.0507670000" lon="0.6608620000"><ele>601</ele><time>2025-12-07T11:18:59Z</time></trkpt>
<trkpt lat="43.0507620000" lon="0.6608320000"><ele>601</ele><time>2025-12-07T11:19:03Z</time></trkpt>
<trkpt lat="43.0507470000" lon="0.6608120000"><ele>602</ele><time>2025-12-07T11:19:07Z</time></trkpt>
<trkpt lat="43.0507270000" lon="0.6607950000"><ele>602</ele><time>2025-12-07T11:19:10Z</time></trkpt>
<trkpt lat="43.0507020000" lon="0.6607820000"><ele>603</ele><time>2025-12-07T11:19:13Z</time></trkpt>
<trkpt lat="43.0506820000" lon="0.6607620000"><ele>603</ele><time>2025-12-07T11:19:15Z</time></trkpt>
<trkpt lat="43.0506670000" lon="0.6607380000"><ele>603</ele><time>2025-12-07T11:19:20Z</time></trkpt>
<trkpt lat="43.0506520000" lon="0.6607220000"><ele>604</ele><time>2025-12-07T11:19:25Z</time></trkpt>
<trkpt lat="43.0506500000" lon="0.6606920000"><ele>606</ele><time>2025-12-07T11:20:02Z</time></trkpt>
<trkpt lat="43.0506400000" lon="0.6606520000"><ele>606</ele><time>2025-12-07T11:20:04Z</time></trkpt>
<trkpt lat="43.0506320000" lon="0.6606300000"><ele>607</ele><time>2025-12-07T11:20:05Z</time></trkpt>
<trkpt lat="43.0506120000" lon="0.6605920000"><ele>607</ele><time>2025-12-07T11:20:07Z</time></trkpt>
<trkpt lat="43.0506000000" lon="0.6605770000"><ele>607</ele><time>2025-12-07T11:20:09Z</time></trkpt>
<trkpt lat="43.0505900000" lon="0.6605480000"><ele>608</ele><time>2025-12-07T11:20:13Z</time></trkpt>
<trkpt lat="43.0505720000" lon="0.6605350000"><ele>609</ele><time>2025-12-07T11:20:20Z</time></trkpt>
<trkpt lat="43.0505570000" lon="0.6605020000"><ele>611</ele><time>2025-12-07T11:20:32Z</time></trkpt>
<trkpt lat="43.0505420000" lon="0.6604620000"><ele>611</ele><time>2025-12-07T11:20:34Z</time></trkpt>
<trkpt lat="43.0505320000" lon="0.6604400000"><ele>611</ele><time>2025-12-07T11:20:35Z</time></trkpt>
<trkpt lat="43.0505120000" lon="0.6604130000"><ele>612</ele><time>2025-12-07T11:20:37Z</time></trkpt>
<trkpt lat="43.0504950000" lon="0.6603970000"><ele>612</ele><time>2025-12-07T11:20:39Z</time></trkpt>
<trkpt lat="43.0504800000" lon="0.6603670000"><ele>612</ele><time>2025-12-07T11:20:42Z</time></trkpt>
<trkpt lat="43.0504670000" lon="0.6603420000"><ele>613</ele><time>2025-12-07T11:20:45Z</time></trkpt>
<trkpt lat="43.0504520000" lon="0.6603220000"><ele>613</ele><time>2025-12-07T11:20:50Z</time></trkpt>
<trkpt lat="43.0504350000" lon="0.6602930000"><ele>613</ele><time>2025-12-07T11:20:53Z</time></trkpt>
<trkpt lat="43.0504120000" lon="0.6602730000"><ele>614</ele><time>2025-12-07T11:20:56Z</time></trkpt>
<trkpt lat="43.0504000000" lon="0.6602550000"><ele>614</ele><time>2025-12-07T11:20:59Z</time></trkpt>
<trkpt lat="43.0503800000" lon="0.6602320000"><ele>614</ele><time>2025-12-07T11:21:02Z</time></trkpt>
<trkpt lat="43.0503750000" lon="0.6602020000"><ele>614</ele><time>2025-12-07T11:21:05Z</time></trkpt>
<trkpt lat="43.0503770000" lon="0.6601720000"><ele>614</ele><time>2025-12-07T11:21:08Z</time></trkpt>
<trkpt lat="43.0503770000" lon="0.6601420000"><ele>615</ele><time>2025-12-07T11:21:10Z</time></trkpt>
<trkpt lat="43.0503570000" lon="0.6601170000"><ele>615</ele><time>2025-12-07T11:21:13Z</time></trkpt>
<trkpt lat="43.0503470000" lon="0.6600920000"><ele>615</ele><time>2025-12-07T11:21:15Z</time></trkpt>
<trkpt lat="43.0503250000" lon="0.6600770000"><ele>615</ele><time>2025-12-07T11:21:17Z</time></trkpt>
<trkpt lat="43.0503120000" lon="0.6600600000"><ele>615</ele><time>2025-12-07T11:21:19Z</time></trkpt>
<trkpt lat="43.0502970000" lon="0.6600370000"><ele>615</ele><time>2025-12-07T11:21:24Z</time></trkpt>
<trkpt lat="43.0502800000" lon="0.6600200000"><ele>616</ele><time>2025-12-07T11:21:27Z</time></trkpt>
<trkpt lat="43.0502670000" lon="0.6600000000"><ele>616</ele><time>2025-12-07T11:21:29Z</time></trkpt>
<trkpt lat="43.0502570000" lon="0.6599770000"><ele>616</ele><time>2025-12-07T11:21:31Z</time></trkpt>
<trkpt lat="43.0502500000" lon="0.6599520000"><ele>616</ele><time>2025-12-07T11:21:34Z</time></trkpt>
<trkpt lat="43.0502420000" lon="0.6599170000"><ele>617</ele><time>2025-12-07T11:21:37Z</time></trkpt>
<trkpt lat="43.0502270000" lon="0.6598870000"><ele>617</ele><time>2025-12-07T11:21:40Z</time></trkpt>
<trkpt lat="43.0502170000" lon="0.6598600000"><ele>617</ele><time>2025-12-07T11:21:42Z</time></trkpt>
<trkpt lat="43.0501950000" lon="0.6598470000"><ele>617</ele><time>2025-12-07T11:21:45Z</time></trkpt>
<trkpt lat="43.0501820000" lon="0.6598270000"><ele>617</ele><time>2025-12-07T11:21:47Z</time></trkpt>
<trkpt lat="43.0501720000" lon="0.6598000000"><ele>617</ele><time>2025-12-07T11:21:49Z</time></trkpt>
<trkpt lat="43.0501620000" lon="0.6597770000"><ele>618</ele><time>2025-12-07T11:21:51Z</time></trkpt>
<trkpt lat="43.0501470000" lon="0.6597530000"><ele>618</ele><time>2025-12-07T11:21:53Z</time></trkpt>
<trkpt lat="43.0501270000" lon="0.6597270000"><ele>618</ele><time>2025-12-07T11:21:55Z</time></trkpt>
<trkpt lat="43.0501170000" lon="0.6597020000"><ele>618</ele><time>2025-12-07T11:21:58Z</time></trkpt>
<trkpt lat="43.0501100000" lon="0.6596750000"><ele>618</ele><time>2025-12-07T11:22:01Z</time></trkpt>
<trkpt lat="43.0500970000" lon="0.6596420000"><ele>619</ele><time>2025-12-07T11:22:03Z</time></trkpt>
<trkpt lat="43.0500820000" lon="0.6596120000"><ele>619</ele><time>2025-12-07T11:22:06Z</time></trkpt>
<trkpt lat="43.0500720000" lon="0.6595920000"><ele>619</ele><time>2025-12-07T11:22:09Z</time></trkpt>
<trkpt lat="43.0500570000" lon="0.6595720000"><ele>619</ele><time>2025-12-07T11:22:11Z</time></trkpt>
<trkpt lat="43.0500620000" lon="0.6595470000"><ele>619</ele><time>2025-12-07T11:22:20Z</time></trkpt>
<trkpt lat="43.0500520000" lon="0.6595100000"><ele>619</ele><time>2025-12-07T11:22:24Z</time></trkpt>
<trkpt lat="43.0500370000" lon="0.6594920000"><ele>618</ele><time>2025-12-07T11:22:26Z</time></trkpt>
<trkpt lat="43.0500200000" lon="0.6594670000"><ele>619</ele><time>2025-12-07T11:22:38Z</time></trkpt>
<trkpt lat="43.0500070000" lon="0.6594420000"><ele>619</ele><time>2025-12-07T11:22:40Z</time></trkpt>
<trkpt lat="43.0499920000" lon="0.6594120000"><ele>619</ele><time>2025-12-07T11:22:42Z</time></trkpt>
<trkpt lat="43.0499820000" lon="0.6593820000"><ele>619</ele><time>2025-12-07T11:22:44Z</time></trkpt>
<trkpt lat="43.0499770000" lon="0.6593570000"><ele>620</ele><time>2025-12-07T11:22:46Z</time></trkpt>
<trkpt lat="43.0499750000" lon="0.6593270000"><ele>620</ele><time>2025-12-07T11:22:49Z</time></trkpt>
<trkpt lat="43.0499670000" lon="0.6593050000"><ele>620</ele><time>2025-12-07T11:22:51Z</time></trkpt>
<trkpt lat="43.0499670000" lon="0.6592800000"><ele>620</ele><time>2025-12-07T11:22:53Z</time></trkpt>
<trkpt lat="43.0499600000" lon="0.6592570000"><ele>620</ele><time>2025-12-07T11:22:55Z</time></trkpt>
<trkpt lat="43.0499500000" lon="0.6592320000"><ele>620</ele><time>2025-12-07T11:22:57Z</time></trkpt>
<trkpt lat="43.0499250000" lon="0.6592120000"><ele>619</ele><time>2025-12-07T11:22:59Z</time></trkpt>
<trkpt lat="43.0499080000" lon="0.6591820000"><ele>620</ele><time>2025-12-07T11:23:01Z</time></trkpt>
<trkpt lat="43.0498920000" lon="0.6591520000"><ele>620</ele><time>2025-12-07T11:23:03Z</time></trkpt>
<trkpt lat="43.0498720000" lon="0.6591320000"><ele>620</ele><time>2025-12-07T11:23:06Z</time></trkpt>
<trkpt lat="43.0498600000" lon="0.6591070000"><ele>620</ele><time>2025-12-07T11:23:08Z</time></trkpt>
<trkpt lat="43.0498450000" lon="0.6590820000"><ele>621</ele><time>2025-12-07T11:23:10Z</time></trkpt>
<trkpt lat="43.0498320000" lon="0.6590570000"><ele>620</ele><time>2025-12-07T11:23:12Z</time></trkpt>
<trkpt lat="43.0498170000" lon="0.6590270000"><ele>621</ele><time>2025-12-07T11:23:15Z</time></trkpt>
<trkpt lat="43.0498120000" lon="0.6589970000"><ele>621</ele><time>2025-12-07T11:23:17Z</time></trkpt>
<trkpt lat="43.0498150000" lon="0.6589650000"><ele>621</ele><time>2025-12-07T11:23:19Z</time></trkpt>
<trkpt lat="43.0498120000" lon="0.6589350000"><ele>621</ele><time>2025-12-07T11:23:21Z</time></trkpt>
<trkpt lat="43.0498120000" lon="0.6589070000"><ele>621</ele><time>2025-12-07T11:23:24Z</time></trkpt>
<trkpt lat="43.0497970000" lon="0.6588800000"><ele>621</ele><time>2025-12-07T11:23:26Z</time></trkpt>
<trkpt lat="43.0497850000" lon="0.6588600000"><ele>621</ele><time>2025-12-07T11:23:29Z</time></trkpt>
<trkpt lat="43.0497770000" lon="0.6588320000"><ele>621</ele><time>2025-12-07T11:23:34Z</time></trkpt>
<trkpt lat="43.0497620000" lon="0.6588150000"><ele>621</ele><time>2025-12-07T11:23:39Z</time></trkpt>
<trkpt lat="43.0497620000" lon="0.6587880000"><ele>620</ele><time>2025-12-07T11:23:57Z</time></trkpt>
<trkpt lat="43.0497530000" lon="0.6587520000"><ele>620</ele><time>2025-12-07T11:24:00Z</time></trkpt>
<trkpt lat="43.0497470000" lon="0.6587150000"><ele>620</ele><time>2025-12-07T11:24:02Z</time></trkpt>
<trkpt lat="43.0497420000" lon="0.6586820000"><ele>620</ele><time>2025-12-07T11:24:04Z</time></trkpt>
<trkpt lat="43.0497300000" lon="0.6586620000"><ele>620</ele><time>2025-12-07T11:24:06Z</time></trkpt>
<trkpt lat="43.0497150000" lon="0.6586470000"><ele>620</ele><time>2025-12-07T11:24:09Z</time></trkpt>
<trkpt lat="43.0497050000" lon="0.6586220000"><ele>620</ele><time>2025-12-07T11:24:11Z</time></trkpt>
<trkpt lat="43.0496900000" lon="0.6586020000"><ele>620</ele><time>2025-12-07T11:24:13Z</time></trkpt>
<trkpt lat="43.0496770000" lon="0.6585800000"><ele>620</ele><time>2025-12-07T11:24:17Z</time></trkpt>
<trkpt lat="43.0496920000" lon="0.6585670000"><ele>620</ele><time>2025-12-07T11:24:20Z</time></trkpt>
<trkpt lat="43.0496770000" lon="0.6585370000"><ele>620</ele><time>2025-12-07T11:24:40Z</time></trkpt>
<trkpt lat="43.0496620000" lon="0.6585020000"><ele>620</ele><time>2025-12-07T11:24:42Z</time></trkpt>
<trkpt lat="43.0496520000" lon="0.6584720000"><ele>620</ele><time>2025-12-07T11:24:44Z</time></trkpt>
<trkpt lat="43.0496450000" lon="0.6584430000"><ele>619</ele><time>2025-12-07T11:24:46Z</time></trkpt>
<trkpt lat="43.0496350000" lon="0.6584220000"><ele>620</ele><time>2025-12-07T11:24:48Z</time></trkpt>
<trkpt lat="43.0496220000" lon="0.6584050000"><ele>619</ele><time>2025-12-07T11:24:50Z</time></trkpt>
<trkpt lat="43.0496050000" lon="0.6583870000"><ele>619</ele><time>2025-12-07T11:24:52Z</time></trkpt>
<trkpt lat="43.0495900000" lon="0.6583630000"><ele>619</ele><time>2025-12-07T11:24:54Z</time></trkpt>
<trkpt lat="43.0495820000" lon="0.6583350000"><ele>619</ele><time>2025-12-07T11:24:57Z</time></trkpt>
<trkpt lat="43.0495770000" lon="0.6583020000"><ele>619</ele><time>2025-12-07T11:24:59Z</time></trkpt>
<trkpt lat="43.0495720000" lon="0.6582720000"><ele>619</ele><time>2025-12-07T11:25:01Z</time></trkpt>
<trkpt lat="43.0495650000" lon="0.6582470000"><ele>619</ele><time>2025-12-07T11:25:03Z</time></trkpt>
<trkpt lat="43.0495550000" lon="0.6582170000"><ele>619</ele><time>2025-12-07T11:25:05Z</time></trkpt>
<trkpt lat="43.0495470000" lon="0.6581920000"><ele>618</ele><time>2025-12-07T11:25:07Z</time></trkpt>
<trkpt lat="43.0495280000" lon="0.6581620000"><ele>619</ele><time>2025-12-07T11:25:10Z</time></trkpt>
<trkpt lat="43.0495170000" lon="0.6581420000"><ele>618</ele><time>2025-12-07T11:25:12Z</time></trkpt>
<trkpt lat="43.0495100000" lon="0.6581170000"><ele>618</ele><time>2025-12-07T11:25:14Z</time></trkpt>
<trkpt lat="43.0495070000" lon="0.6580920000"><ele>618</ele><time>2025-12-07T11:25:16Z</time></trkpt>
<trkpt lat="43.0495020000" lon="0.6580570000"><ele>618</ele><time>2025-12-07T11:25:19Z</time></trkpt>
<trkpt lat="43.0495000000" lon="0.6580200000"><ele>618</ele><time>2025-12-07T11:25:22Z</time></trkpt>
<trkpt lat="43.0494820000" lon="0.6580000000"><ele>618</ele><time>2025-12-07T11:25:24Z</time></trkpt>
<trkpt lat="43.0494720000" lon="0.6579770000"><ele>617</ele><time>2025-12-07T11:25:26Z</time></trkpt>
<trkpt lat="43.0494570000" lon="0.6579450000"><ele>617</ele><time>2025-12-07T11:25:29Z</time></trkpt>
<trkpt lat="43.0494470000" lon="0.6579150000"><ele>617</ele><time>2025-12-07T11:25:32Z</time></trkpt>
<trkpt lat="43.0494370000" lon="0.6578870000"><ele>617</ele><time>2025-12-07T11:25:34Z</time></trkpt>
<trkpt lat="43.0494220000" lon="0.6578650000"><ele>616</ele><time>2025-12-07T11:25:36Z</time></trkpt>
<trkpt lat="43.0494050000" lon="0.6578320000"><ele>616</ele><time>2025-12-07T11:25:38Z</time></trkpt>
<trkpt lat="43.0493920000" lon="0.6578020000"><ele>616</ele><time>2025-12-07T11:25:40Z</time></trkpt>
<trkpt lat="43.0493850000" lon="0.6577720000"><ele>616</ele><time>2025-12-07T11:25:42Z</time></trkpt>
<trkpt lat="43.0493730000" lon="0.6577470000"><ele>615</ele><time>2025-12-07T11:25:45Z</time></trkpt>
<trkpt lat="43.0493620000" lon="0.6577170000"><ele>615</ele><time>2025-12-07T11:25:48Z</time></trkpt>
<trkpt lat="43.0493550000" lon="0.6576870000"><ele>615</ele><time>2025-12-07T11:25:51Z</time></trkpt>
<trkpt lat="43.0493420000" lon="0.6576650000"><ele>615</ele><time>2025-12-07T11:25:53Z</time></trkpt>
<trkpt lat="43.0493320000" lon="0.6576450000"><ele>615</ele><time>2025-12-07T11:25:55Z</time></trkpt>
<trkpt lat="43.0493170000" lon="0.6576120000"><ele>614</ele><time>2025-12-07T11:25:58Z</time></trkpt>
<trkpt lat="43.0493100000" lon="0.6575870000"><ele>614</ele><time>2025-12-07T11:26:00Z</time></trkpt>
<trkpt lat="43.0493020000" lon="0.6575600000"><ele>614</ele><time>2025-12-07T11:26:02Z</time></trkpt>
<trkpt lat="43.0492920000" lon="0.6575330000"><ele>613</ele><time>2025-12-07T11:26:04Z</time></trkpt>
<trkpt lat="43.0492820000" lon="0.6575070000"><ele>613</ele><time>2025-12-07T11:26:07Z</time></trkpt>
<trkpt lat="43.0492670000" lon="0.6574850000"><ele>612</ele><time>2025-12-07T11:26:52Z</time></trkpt>
<trkpt lat="43.0492520000" lon="0.6574630000"><ele>612</ele><time>2025-12-07T11:26:55Z</time></trkpt>
<trkpt lat="43.0492320000" lon="0.6574630000"><ele>612</ele><time>2025-12-07T11:26:58Z</time></trkpt>
<trkpt lat="43.0492320000" lon="0.6574370000"><ele>612</ele><time>2025-12-07T11:27:05Z</time></trkpt>
<trkpt lat="43.0492220000" lon="0.6574070000"><ele>611</ele><time>2025-12-07T11:27:15Z</time></trkpt>
<trkpt lat="43.0492100000" lon="0.6573750000"><ele>611</ele><time>2025-12-07T11:27:17Z</time></trkpt>
<trkpt lat="43.0491950000" lon="0.6573430000"><ele>611</ele><time>2025-12-07T11:27:19Z</time></trkpt>
<trkpt lat="43.0491820000" lon="0.6573170000"><ele>611</ele><time>2025-12-07T11:27:21Z</time></trkpt>
<trkpt lat="43.0491770000" lon="0.6572870000"><ele>611</ele><time>2025-12-07T11:27:23Z</time></trkpt>
<trkpt lat="43.0491670000" lon="0.6572570000"><ele>610</ele><time>2025-12-07T11:27:26Z</time></trkpt>
<trkpt lat="43.0491570000" lon="0.6572370000"><ele>610</ele><time>2025-12-07T11:27:28Z</time></trkpt>
<trkpt lat="43.0491470000" lon="0.6572070000"><ele>609</ele><time>2025-12-07T11:27:31Z</time></trkpt>
<trkpt lat="43.0491320000" lon="0.6571770000"><ele>609</ele><time>2025-12-07T11:27:34Z</time></trkpt>
<trkpt lat="43.0491170000" lon="0.6571620000"><ele>609</ele><time>2025-12-07T11:27:36Z</time></trkpt>
<trkpt lat="43.0491100000" lon="0.6571350000"><ele>608</ele><time>2025-12-07T11:27:40Z</time></trkpt>
<trkpt lat="43.0490970000" lon="0.6571120000"><ele>608</ele><time>2025-12-07T11:27:42Z</time></trkpt>
<trkpt lat="43.0490820000" lon="0.6570850000"><ele>608</ele><time>2025-12-07T11:27:45Z</time></trkpt>
<trkpt lat="43.0490750000" lon="0.6570620000"><ele>608</ele><time>2025-12-07T11:27:47Z</time></trkpt>
<trkpt lat="43.0490670000" lon="0.6570370000"><ele>607</ele><time>2025-12-07T11:27:49Z</time></trkpt>
<trkpt lat="43.0490570000" lon="0.6570120000"><ele>607</ele><time>2025-12-07T11:27:51Z</time></trkpt>
<trkpt lat="43.0490420000" lon="0.6569870000"><ele>607</ele><time>2025-12-07T11:27:54Z</time></trkpt>
<trkpt lat="43.0490320000" lon="0.6569520000"><ele>607</ele><time>2025-12-07T11:27:57Z</time></trkpt>
<trkpt lat="43.0490170000" lon="0.6569250000"><ele>606</ele><time>2025-12-07T11:28:00Z</time></trkpt>
<trkpt lat="43.0490020000" lon="0.6569020000"><ele>606</ele><time>2025-12-07T11:28:02Z</time></trkpt>
<trkpt lat="43.0489920000" lon="0.6568800000"><ele>606</ele><time>2025-12-07T11:28:04Z</time></trkpt>
<trkpt lat="43.0489900000" lon="0.6568520000"><ele>605</ele><time>2025-12-07T11:28:07Z</time></trkpt>
<trkpt lat="43.0489820000" lon="0.6568270000"><ele>605</ele><time>2025-12-07T11:28:10Z</time></trkpt>
<trkpt lat="43.0489720000" lon="0.6568020000"><ele>605</ele><time>2025-12-07T11:28:13Z</time></trkpt>
<trkpt lat="43.0489620000" lon="0.6567770000"><ele>605</ele><time>2025-12-07T11:28:15Z</time></trkpt>
<trkpt lat="43.0489500000" lon="0.6567520000"><ele>605</ele><time>2025-12-07T11:28:18Z</time></trkpt>
<trkpt lat="43.0489350000" lon="0.6567370000"><ele>604</ele><time>2025-12-07T11:28:20Z</time></trkpt>
<trkpt lat="43.0489220000" lon="0.6567150000"><ele>604</ele><time>2025-12-07T11:28:22Z</time></trkpt>
<trkpt lat="43.0489170000" lon="0.6566820000"><ele>604</ele><time>2025-12-07T11:28:26Z</time></trkpt>
<trkpt lat="43.0489070000" lon="0.6566570000"><ele>604</ele><time>2025-12-07T11:28:29Z</time></trkpt>
<trkpt lat="43.0488900000" lon="0.6566300000"><ele>604</ele><time>2025-12-07T11:28:31Z</time></trkpt>
<trkpt lat="43.0488750000" lon="0.6566130000"><ele>603</ele><time>2025-12-07T11:28:33Z</time></trkpt>
<trkpt lat="43.0488550000" lon="0.6565880000"><ele>603</ele><time>2025-12-07T11:28:36Z</time></trkpt>
<trkpt lat="43.0488450000" lon="0.6565620000"><ele>602</ele><time>2025-12-07T11:28:38Z</time></trkpt>
<trkpt lat="43.0488320000" lon="0.6565370000"><ele>602</ele><time>2025-12-07T11:28:40Z</time></trkpt>
<trkpt lat="43.0488120000" lon="0.6565120000"><ele>602</ele><time>2025-12-07T11:28:43Z</time></trkpt>
<trkpt lat="43.0487970000" lon="0.6565020000"><ele>602</ele><time>2025-12-07T11:28:45Z</time></trkpt>
<trkpt lat="43.0487750000" lon="0.6564820000"><ele>601</ele><time>2025-12-07T11:28:48Z</time></trkpt>
<trkpt lat="43.0487550000" lon="0.6564750000"><ele>600</ele><time>2025-12-07T11:28:50Z</time></trkpt>
<trkpt lat="43.0487350000" lon="0.6564650000"><ele>600</ele><time>2025-12-07T11:28:52Z</time></trkpt>
<trkpt lat="43.0487220000" lon="0.6564370000"><ele>599</ele><time>2025-12-07T11:28:55Z</time></trkpt>
<trkpt lat="43.0487170000" lon="0.6564120000"><ele>599</ele><time>2025-12-07T11:28:57Z</time></trkpt>
<trkpt lat="43.0487150000" lon="0.6563870000"><ele>599</ele><time>2025-12-07T11:28:59Z</time></trkpt>
<trkpt lat="43.0487020000" lon="0.6563620000"><ele>599</ele><time>2025-12-07T11:29:01Z</time></trkpt>
<trkpt lat="43.0486850000" lon="0.6563430000"><ele>599</ele><time>2025-12-07T11:29:03Z</time></trkpt>
<trkpt lat="43.0486670000" lon="0.6563250000"><ele>598</ele><time>2025-12-07T11:29:05Z</time></trkpt>
<trkpt lat="43.0486520000" lon="0.6562980000"><ele>598</ele><time>2025-12-07T11:29:07Z</time></trkpt>
<trkpt lat="43.0486370000" lon="0.6562720000"><ele>598</ele><time>2025-12-07T11:29:09Z</time></trkpt>
<trkpt lat="43.0486220000" lon="0.6562500000"><ele>598</ele><time>2025-12-07T11:29:12Z</time></trkpt>
<trkpt lat="43.0486070000" lon="0.6562270000"><ele>597</ele><time>2025-12-07T11:29:15Z</time></trkpt>
<trkpt lat="43.0485900000" lon="0.6562270000"><ele>597</ele><time>2025-12-07T11:29:19Z</time></trkpt>
<trkpt lat="43.0485670000" lon="0.6562230000"><ele>596</ele><time>2025-12-07T11:29:23Z</time></trkpt>
<trkpt lat="43.0485430000" lon="0.6562120000"><ele>596</ele><time>2025-12-07T11:29:27Z</time></trkpt>
<trkpt lat="43.0485320000" lon="0.6561920000"><ele>595</ele><time>2025-12-07T11:29:29Z</time></trkpt>
<trkpt lat="43.0485220000" lon="0.6561670000"><ele>595</ele><time>2025-12-07T11:29:32Z</time></trkpt>
<trkpt lat="43.0485150000" lon="0.6561420000"><ele>595</ele><time>2025-12-07T11:29:34Z</time></trkpt>
<trkpt lat="43.0485020000" lon="0.6561220000"><ele>595</ele><time>2025-12-07T11:29:36Z</time></trkpt>
<trkpt lat="43.0484900000" lon="0.6561070000"><ele>594</ele><time>2025-12-07T11:29:38Z</time></trkpt>
<trkpt lat="43.0484700000" lon="0.6560920000"><ele>594</ele><time>2025-12-07T11:29:42Z</time></trkpt>
<trkpt lat="43.0484550000" lon="0.6560730000"><ele>594</ele><time>2025-12-07T11:29:44Z</time></trkpt>
<trkpt lat="43.0484370000" lon="0.6560520000"><ele>594</ele><time>2025-12-07T11:29:46Z</time></trkpt>
<trkpt lat="43.0484220000" lon="0.6560320000"><ele>594</ele><time>2025-12-07T11:29:48Z</time></trkpt>
<trkpt lat="43.0484070000" lon="0.6560020000"><ele>593</ele><time>2025-12-07T11:29:50Z</time></trkpt>
<trkpt lat="43.0483850000" lon="0.6559720000"><ele>593</ele><time>2025-12-07T11:29:53Z</time></trkpt>
<trkpt lat="43.0483570000" lon="0.6559520000"><ele>593</ele><time>2025-12-07T11:29:55Z</time></trkpt>
<trkpt lat="43.0483320000" lon="0.6559470000"><ele>593</ele><time>2025-12-07T11:29:57Z</time></trkpt>
<trkpt lat="43.0483100000" lon="0.6559370000"><ele>593</ele><time>2025-12-07T11:29:59Z</time></trkpt>
<trkpt lat="43.0482920000" lon="0.6559120000"><ele>593</ele><time>2025-12-07T11:30:02Z</time></trkpt>
<trkpt lat="43.0482800000" lon="0.6558770000"><ele>593</ele><time>2025-12-07T11:30:05Z</time></trkpt>
<trkpt lat="43.0482700000" lon="0.6558420000"><ele>593</ele><time>2025-12-07T11:30:07Z</time></trkpt>
<trkpt lat="43.0482570000" lon="0.6558170000"><ele>593</ele><time>2025-12-07T11:30:10Z</time></trkpt>
<trkpt lat="43.0482330000" lon="0.6557920000"><ele>593</ele><time>2025-12-07T11:30:13Z</time></trkpt>
<trkpt lat="43.0482170000" lon="0.6557820000"><ele>592</ele><time>2025-12-07T11:30:16Z</time></trkpt>
<trkpt lat="43.0482050000" lon="0.6557620000"><ele>592</ele><time>2025-12-07T11:30:19Z</time></trkpt>
<trkpt lat="43.0481920000" lon="0.6557320000"><ele>592</ele><time>2025-12-07T11:30:22Z</time></trkpt>
<trkpt lat="43.0481770000" lon="0.6557070000"><ele>593</ele><time>2025-12-07T11:30:24Z</time></trkpt>
<trkpt lat="43.0481570000" lon="0.6556800000"><ele>593</ele><time>2025-12-07T11:30:26Z</time></trkpt>
<trkpt lat="43.0481470000" lon="0.6556470000"><ele>592</ele><time>2025-12-07T11:30:28Z</time></trkpt>
<trkpt lat="43.0481450000" lon="0.6556020000"><ele>592</ele><time>2025-12-07T11:30:30Z</time></trkpt>
<trkpt lat="43.0481170000" lon="0.6555970000"><ele>592</ele><time>2025-12-07T11:30:33Z</time></trkpt>
<trkpt lat="43.0481000000" lon="0.6555920000"><ele>593</ele><time>2025-12-07T11:30:35Z</time></trkpt>
<trkpt lat="43.0481020000" lon="0.6556220000"><ele>593</ele><time>2025-12-07T11:30:40Z</time></trkpt>
<trkpt lat="43.0480820000" lon="0.6556030000"><ele>592</ele><time>2025-12-07T11:30:43Z</time></trkpt>
<trkpt lat="43.0480670000" lon="0.6555900000"><ele>592</ele><time>2025-12-07T11:30:44Z</time></trkpt>
<trkpt lat="43.0480550000" lon="0.6556220000"><ele>593</ele><time>2025-12-07T11:31:09Z</time></trkpt>
<trkpt lat="43.0480220000" lon="0.6556320000"><ele>593</ele><time>2025-12-07T11:31:11Z</time></trkpt>
<trkpt lat="43.0479950000" lon="0.6556300000"><ele>593</ele><time>2025-12-07T11:31:13Z</time></trkpt>
<trkpt lat="43.0479720000" lon="0.6556220000"><ele>594</ele><time>2025-12-07T11:31:15Z</time></trkpt>
<trkpt lat="43.0479650000" lon="0.6555970000"><ele>594</ele><time>2025-12-07T11:31:18Z</time></trkpt>
<trkpt lat="43.0479770000" lon="0.6555680000"><ele>594</ele><time>2025-12-07T11:31:20Z</time></trkpt>
<trkpt lat="43.0479800000" lon="0.6555450000"><ele>594</ele><time>2025-12-07T11:31:24Z</time></trkpt>
<trkpt lat="43.0479670000" lon="0.6555170000"><ele>594</ele><time>2025-12-07T11:31:27Z</time></trkpt>
<trkpt lat="43.0479800000" lon="0.6554920000"><ele>594</ele><time>2025-12-07T11:31:29Z</time></trkpt>
<trkpt lat="43.0479820000" lon="0.6554650000"><ele>594</ele><time>2025-12-07T11:31:34Z</time></trkpt>
<trkpt lat="43.0479820000" lon="0.6554400000"><ele>594</ele><time>2025-12-07T11:31:37Z</time></trkpt>
<trkpt lat="43.0479900000" lon="0.6554050000"><ele>595</ele><time>2025-12-07T11:31:51Z</time></trkpt>
<trkpt lat="43.0479700000" lon="0.6553870000"><ele>596</ele><time>2025-12-07T11:31:53Z</time></trkpt>
<trkpt lat="43.0479520000" lon="0.6553750000"><ele>596</ele><time>2025-12-07T11:31:54Z</time></trkpt>
<trkpt lat="43.0479270000" lon="0.6553500000"><ele>596</ele><time>2025-12-07T11:31:56Z</time></trkpt>
<trkpt lat="43.0479100000" lon="0.6553320000"><ele>596</ele><time>2025-12-07T11:31:58Z</time></trkpt>
<trkpt lat="43.0478920000" lon="0.6553220000"><ele>596</ele><time>2025-12-07T11:32:00Z</time></trkpt>
<trkpt lat="43.0478720000" lon="0.6552920000"><ele>596</ele><time>2025-12-07T11:32:03Z</time></trkpt>
<trkpt lat="43.0478570000" lon="0.6552770000"><ele>596</ele><time>2025-12-07T11:32:05Z</time></trkpt>
<trkpt lat="43.0478420000" lon="0.6552580000"><ele>596</ele><time>2025-12-07T11:32:09Z</time></trkpt>
<trkpt lat="43.0478270000" lon="0.6552370000"><ele>596</ele><time>2025-12-07T11:32:12Z</time></trkpt>
<trkpt lat="43.0478100000" lon="0.6552220000"><ele>596</ele><time>2025-12-07T11:32:15Z</time></trkpt>
<trkpt lat="43.0477920000" lon="0.6552070000"><ele>596</ele><time>2025-12-07T11:32:17Z</time></trkpt>
<trkpt lat="43.0477720000" lon="0.6551970000"><ele>596</ele><time>2025-12-07T11:32:20Z</time></trkpt>
<trkpt lat="43.0477550000" lon="0.6551850000"><ele>596</ele><time>2025-12-07T11:32:23Z</time></trkpt>
<trkpt lat="43.0477320000" lon="0.6551580000"><ele>596</ele><time>2025-12-07T11:32:26Z</time></trkpt>
<trkpt lat="43.0477200000" lon="0.6551370000"><ele>596</ele><time>2025-12-07T11:32:28Z</time></trkpt>
<trkpt lat="43.0477120000" lon="0.6551000000"><ele>596</ele><time>2025-12-07T11:32:31Z</time></trkpt>
<trkpt lat="43.0476970000" lon="0.6550750000"><ele>596</ele><time>2025-12-07T11:32:33Z</time></trkpt>
<trkpt lat="43.0476850000" lon="0.6550550000"><ele>597</ele><time>2025-12-07T11:32:36Z</time></trkpt>
<trkpt lat="43.0476700000" lon="0.6550370000"><ele>597</ele><time>2025-12-07T11:32:40Z</time></trkpt>
<trkpt lat="43.0476470000" lon="0.6550200000"><ele>597</ele><time>2025-12-07T11:32:43Z</time></trkpt>
<trkpt lat="43.0476370000" lon="0.6549880000"><ele>597</ele><time>2025-12-07T11:32:47Z</time></trkpt>
<trkpt lat="43.0476200000" lon="0.6549700000"><ele>597</ele><time>2025-12-07T11:32:50Z</time></trkpt>
<trkpt lat="43.0476070000" lon="0.6549520000"><ele>597</ele><time>2025-12-07T11:32:52Z</time></trkpt>
<trkpt lat="43.0475900000" lon="0.6549320000"><ele>597</ele><time>2025-12-07T11:32:54Z</time></trkpt>
<trkpt lat="43.0475720000" lon="0.6549150000"><ele>597</ele><time>2025-12-07T11:32:56Z</time></trkpt>
<trkpt lat="43.0475620000" lon="0.6548920000"><ele>597</ele><time>2025-12-07T11:32:58Z</time></trkpt>
<trkpt lat="43.0475670000" lon="0.6548670000"><ele>597</ele><time>2025-12-07T11:33:00Z</time></trkpt>
<trkpt lat="43.0475450000" lon="0.6548470000"><ele>597</ele><time>2025-12-07T11:33:04Z</time></trkpt>
<trkpt lat="43.0475320000" lon="0.6548270000"><ele>597</ele><time>2025-12-07T11:33:06Z</time></trkpt>
<trkpt lat="43.0475150000" lon="0.6548020000"><ele>597</ele><time>2025-12-07T11:33:08Z</time></trkpt>
<trkpt lat="43.0474950000" lon="0.6547870000"><ele>597</ele><time>2025-12-07T11:33:10Z</time></trkpt>
<trkpt lat="43.0474770000" lon="0.6547770000"><ele>597</ele><time>2025-12-07T11:33:13Z</time></trkpt>
<trkpt lat="43.0474570000" lon="0.6547670000"><ele>597</ele><time>2025-12-07T11:33:15Z</time></trkpt>
<trkpt lat="43.0474400000" lon="0.6547420000"><ele>597</ele><time>2025-12-07T11:33:17Z</time></trkpt>
<trkpt lat="43.0474320000" lon="0.6547120000"><ele>597</ele><time>2025-12-07T11:33:19Z</time></trkpt>
<trkpt lat="43.0474270000" lon="0.6546830000"><ele>597</ele><time>2025-12-07T11:33:21Z</time></trkpt>
<trkpt lat="43.0474150000" lon="0.6546620000"><ele>598</ele><time>2025-12-07T11:33:26Z</time></trkpt>
<trkpt lat="43.0474000000" lon="0.6546320000"><ele>597</ele><time>2025-12-07T11:33:29Z</time></trkpt>
<trkpt lat="43.0473850000" lon="0.6546050000"><ele>598</ele><time>2025-12-07T11:33:31Z</time></trkpt>
<trkpt lat="43.0473750000" lon="0.6545720000"><ele>598</ele><time>2025-12-07T11:33:34Z</time></trkpt>
<trkpt lat="43.0473620000" lon="0.6545370000"><ele>598</ele><time>2025-12-07T11:33:37Z</time></trkpt>
<trkpt lat="43.0473720000" lon="0.6545000000"><ele>598</ele><time>2025-12-07T11:33:40Z</time></trkpt>
<trkpt lat="43.0473700000" lon="0.6544670000"><ele>598</ele><time>2025-12-07T11:33:43Z</time></trkpt>
<trkpt lat="43.0473650000" lon="0.6544400000"><ele>598</ele><time>2025-12-07T11:33:45Z</time></trkpt>
<trkpt lat="43.0473620000" lon="0.6544120000"><ele>598</ele><time>2025-12-07T11:33:48Z</time></trkpt>
<trkpt lat="43.0473520000" lon="0.6543800000"><ele>598</ele><time>2025-12-07T11:33:50Z</time></trkpt>
<trkpt lat="43.0473520000" lon="0.6543480000"><ele>598</ele><time>2025-12-07T11:33:52Z</time></trkpt>
<trkpt lat="43.0473420000" lon="0.6543130000"><ele>598</ele><time>2025-12-07T11:33:54Z</time></trkpt>
<trkpt lat="43.0473250000" lon="0.6542870000"><ele>598</ele><time>2025-12-07T11:33:56Z</time></trkpt>
<trkpt lat="43.0473120000" lon="0.6542670000"><ele>598</ele><time>2025-12-07T11:33:58Z</time></trkpt>
<trkpt lat="43.0473170000" lon="0.6542320000"><ele>599</ele><time>2025-12-07T11:34:02Z</time></trkpt>
<trkpt lat="43.0473120000" lon="0.6542000000"><ele>599</ele><time>2025-12-07T11:34:06Z</time></trkpt>
<trkpt lat="43.0472970000" lon="0.6541770000"><ele>599</ele><time>2025-12-07T11:34:09Z</time></trkpt>
<trkpt lat="43.0472950000" lon="0.6541420000"><ele>598</ele><time>2025-12-07T11:34:12Z</time></trkpt>
<trkpt lat="43.0472850000" lon="0.6541120000"><ele>598</ele><time>2025-12-07T11:34:14Z</time></trkpt>
<trkpt lat="43.0472820000" lon="0.6540750000"><ele>598</ele><time>2025-12-07T11:34:16Z</time></trkpt>
<trkpt lat="43.0472770000" lon="0.6540500000"><ele>598</ele><time>2025-12-07T11:34:17Z</time></trkpt>
<trkpt lat="43.0472750000" lon="0.6540150000"><ele>598</ele><time>2025-12-07T11:34:19Z</time></trkpt>
<trkpt lat="43.0472770000" lon="0.6539870000"><ele>598</ele><time>2025-12-07T11:34:21Z</time></trkpt>
<trkpt lat="43.0472770000" lon="0.6539570000"><ele>598</ele><time>2025-12-07T11:34:23Z</time></trkpt>
<trkpt lat="43.0472650000" lon="0.6539270000"><ele>598</ele><time>2025-12-07T11:34:26Z</time></trkpt>
<trkpt lat="43.0472570000" lon="0.6539030000"><ele>597</ele><time>2025-12-07T11:34:29Z</time></trkpt>
<trkpt lat="43.0472470000" lon="0.6538800000"><ele>597</ele><time>2025-12-07T11:34:31Z</time></trkpt>
<trkpt lat="43.0472420000" lon="0.6538530000"><ele>597</ele><time>2025-12-07T11:34:33Z</time></trkpt>
<trkpt lat="43.0472450000" lon="0.6538270000"><ele>597</ele><time>2025-12-07T11:34:36Z</time></trkpt>
<trkpt lat="43.0472370000" lon="0.6538020000"><ele>597</ele><time>2025-12-07T11:34:39Z</time></trkpt>
<trkpt lat="43.0472320000" lon="0.6537670000"><ele>596</ele><time>2025-12-07T11:34:42Z</time></trkpt>
<trkpt lat="43.0472170000" lon="0.6537420000"><ele>596</ele><time>2025-12-07T11:34:44Z</time></trkpt>
<trkpt lat="43.0472070000" lon="0.6537070000"><ele>596</ele><time>2025-12-07T11:34:46Z</time></trkpt>
<trkpt lat="43.0471970000" lon="0.6536850000"><ele>596</ele><time>2025-12-07T11:34:48Z</time></trkpt>
<trkpt lat="43.0471920000" lon="0.6536530000"><ele>596</ele><time>2025-12-07T11:34:52Z</time></trkpt>
<trkpt lat="43.0471870000" lon="0.6536270000"><ele>596</ele><time>2025-12-07T11:34:54Z</time></trkpt>
<trkpt lat="43.0471770000" lon="0.6536050000"><ele>596</ele><time>2025-12-07T11:34:57Z</time></trkpt>
<trkpt lat="43.0471650000" lon="0.6535770000"><ele>595</ele><time>2025-12-07T11:34:59Z</time></trkpt>
<trkpt lat="43.0471700000" lon="0.6535420000"><ele>595</ele><time>2025-12-07T11:35:01Z</time></trkpt>
<trkpt lat="43.0471720000" lon="0.6535020000"><ele>595</ele><time>2025-12-07T11:35:03Z</time></trkpt>
<trkpt lat="43.0471620000" lon="0.6534750000"><ele>595</ele><time>2025-12-07T11:35:05Z</time></trkpt>
<trkpt lat="43.0471620000" lon="0.6534370000"><ele>595</ele><time>2025-12-07T11:35:07Z</time></trkpt>
<trkpt lat="43.0471620000" lon="0.6534070000"><ele>595</ele><time>2025-12-07T11:35:09Z</time></trkpt>
<trkpt lat="43.0471570000" lon="0.6533700000"><ele>595</ele><time>2025-12-07T11:35:12Z</time></trkpt>
<trkpt lat="43.0471370000" lon="0.6533520000"><ele>595</ele><time>2025-12-07T11:35:16Z</time></trkpt>
<trkpt lat="43.0471570000" lon="0.6533370000"><ele>595</ele><time>2025-12-07T11:35:18Z</time></trkpt>
<trkpt lat="43.0471700000" lon="0.6532970000"><ele>596</ele><time>2025-12-07T11:35:24Z</time></trkpt>
<trkpt lat="43.0471770000" lon="0.6532700000"><ele>597</ele><time>2025-12-07T11:35:27Z</time></trkpt>
<trkpt lat="43.0471720000" lon="0.6532420000"><ele>597</ele><time>2025-12-07T11:35:29Z</time></trkpt>
<trkpt lat="43.0471520000" lon="0.6532120000"><ele>597</ele><time>2025-12-07T11:35:32Z</time></trkpt>
<trkpt lat="43.0471470000" lon="0.6531820000"><ele>597</ele><time>2025-12-07T11:35:34Z</time></trkpt>
<trkpt lat="43.0471320000" lon="0.6531470000"><ele>598</ele><time>2025-12-07T11:35:37Z</time></trkpt>
<trkpt lat="43.0471200000" lon="0.6531270000"><ele>598</ele><time>2025-12-07T11:35:38Z</time></trkpt>
<trkpt lat="43.0471120000" lon="0.6531020000"><ele>598</ele><time>2025-12-07T11:35:40Z</time></trkpt>
<trkpt lat="43.0470950000" lon="0.6530720000"><ele>598</ele><time>2025-12-07T11:35:44Z</time></trkpt>
<trkpt lat="43.0470870000" lon="0.6530420000"><ele>599</ele><time>2025-12-07T11:35:46Z</time></trkpt>
<trkpt lat="43.0470950000" lon="0.6530150000"><ele>599</ele><time>2025-12-07T11:35:48Z</time></trkpt>
<trkpt lat="43.0470950000" lon="0.6529870000"><ele>599</ele><time>2025-12-07T11:35:50Z</time></trkpt>
<trkpt lat="43.0470870000" lon="0.6529570000"><ele>600</ele><time>2025-12-07T11:35:53Z</time></trkpt>
<trkpt lat="43.0470770000" lon="0.6529300000"><ele>600</ele><time>2025-12-07T11:35:56Z</time></trkpt>
<trkpt lat="43.0470720000" lon="0.6528970000"><ele>600</ele><time>2025-12-07T11:35:59Z</time></trkpt>
<trkpt lat="43.0470620000" lon="0.6528620000"><ele>600</ele><time>2025-12-07T11:36:01Z</time></trkpt>
<trkpt lat="43.0470600000" lon="0.6528320000"><ele>601</ele><time>2025-12-07T11:36:04Z</time></trkpt>
<trkpt lat="43.0470570000" lon="0.6528070000"><ele>601</ele><time>2025-12-07T11:36:07Z</time></trkpt>
<trkpt lat="43.0470570000" lon="0.6527770000"><ele>601</ele><time>2025-12-07T11:36:12Z</time></trkpt>
<trkpt lat="43.0470550000" lon="0.6527420000"><ele>602</ele><time>2025-12-07T11:36:16Z</time></trkpt>
<trkpt lat="43.0470520000" lon="0.6527170000"><ele>602</ele><time>2025-12-07T11:36:20Z</time></trkpt>
<trkpt lat="43.0470420000" lon="0.6526920000"><ele>602</ele><time>2025-12-07T11:36:25Z</time></trkpt>
<trkpt lat="43.0470270000" lon="0.6526720000"><ele>602</ele><time>2025-12-07T11:36:27Z</time></trkpt>
<trkpt lat="43.0470170000" lon="0.6526420000"><ele>602</ele><time>2025-12-07T11:36:30Z</time></trkpt>
<trkpt lat="43.0470150000" lon="0.6526120000"><ele>603</ele><time>2025-12-07T11:36:33Z</time></trkpt>
<trkpt lat="43.0470170000" lon="0.6525770000"><ele>603</ele><time>2025-12-07T11:36:36Z</time></trkpt>
<trkpt lat="43.0470170000" lon="0.6525500000"><ele>603</ele><time>2025-12-07T11:36:38Z</time></trkpt>
<trkpt lat="43.0470170000" lon="0.6525220000"><ele>603</ele><time>2025-12-07T11:36:41Z</time></trkpt>
<trkpt lat="43.0470170000" lon="0.6524970000"><ele>604</ele><time>2025-12-07T11:36:50Z</time></trkpt>
<trkpt lat="43.0470070000" lon="0.6524720000"><ele>604</ele><time>2025-12-07T11:36:52Z</time></trkpt>
<trkpt lat="43.0470020000" lon="0.6524420000"><ele>604</ele><time>2025-12-07T11:36:54Z</time></trkpt>
<trkpt lat="43.0469950000" lon="0.6524150000"><ele>604</ele><time>2025-12-07T11:36:56Z</time></trkpt>
<trkpt lat="43.0469850000" lon="0.6523920000"><ele>604</ele><time>2025-12-07T11:36:58Z</time></trkpt>
<trkpt lat="43.0469800000" lon="0.6523670000"><ele>604</ele><time>2025-12-07T11:37:00Z</time></trkpt>
<trkpt lat="43.0469720000" lon="0.6523370000"><ele>605</ele><time>2025-12-07T11:37:04Z</time></trkpt>
<trkpt lat="43.0469670000" lon="0.6523080000"><ele>605</ele><time>2025-12-07T11:37:14Z</time></trkpt>
<trkpt lat="43.0469600000" lon="0.6522830000"><ele>605</ele><time>2025-12-07T11:37:16Z</time></trkpt>
<trkpt lat="43.0469520000" lon="0.6522430000"><ele>606</ele><time>2025-12-07T11:37:18Z</time></trkpt>
<trkpt lat="43.0469530000" lon="0.6522120000"><ele>606</ele><time>2025-12-07T11:37:20Z</time></trkpt>
<trkpt lat="43.0469620000" lon="0.6521800000"><ele>606</ele><time>2025-12-07T11:37:23Z</time></trkpt>
<trkpt lat="43.0469670000" lon="0.6521570000"><ele>606</ele><time>2025-12-07T11:37:25Z</time></trkpt>
<trkpt lat="43.0469670000" lon="0.6521280000"><ele>606</ele><time>2025-12-07T11:37:27Z</time></trkpt>
<trkpt lat="43.0469670000" lon="0.6520970000"><ele>606</ele><time>2025-12-07T11:37:29Z</time></trkpt>
<trkpt lat="43.0469600000" lon="0.6520670000"><ele>606</ele><time>2025-12-07T11:37:31Z</time></trkpt>
<trkpt lat="43.0469520000" lon="0.6520450000"><ele>606</ele><time>2025-12-07T11:37:34Z</time></trkpt>
<trkpt lat="43.0469350000" lon="0.6520250000"><ele>606</ele><time>2025-12-07T11:37:38Z</time></trkpt>
<trkpt lat="43.0469220000" lon="0.6520030000"><ele>607</ele><time>2025-12-07T11:38:14Z</time></trkpt>
<trkpt lat="43.0469170000" lon="0.6519820000"><ele>607</ele><time>2025-12-07T11:38:16Z</time></trkpt>
<trkpt lat="43.0469220000" lon="0.6519520000"><ele>607</ele><time>2025-12-07T11:38:18Z</time></trkpt>
<trkpt lat="43.0469220000" lon="0.6519200000"><ele>606</ele><time>2025-12-07T11:38:22Z</time></trkpt>
<trkpt lat="43.0469170000" lon="0.6518900000"><ele>606</ele><time>2025-12-07T11:38:27Z</time></trkpt>
<trkpt lat="43.0469120000" lon="0.6518570000"><ele>606</ele><time>2025-12-07T11:38:29Z</time></trkpt>
<trkpt lat="43.0469070000" lon="0.6518180000"><ele>606</ele><time>2025-12-07T11:38:31Z</time></trkpt>
<trkpt lat="43.0469020000" lon="0.6517820000"><ele>606</ele><time>2025-12-07T11:38:33Z</time></trkpt>
<trkpt lat="43.0468970000" lon="0.6517520000"><ele>606</ele><time>2025-12-07T11:38:35Z</time></trkpt>
<trkpt lat="43.0468970000" lon="0.6517270000"><ele>606</ele><time>2025-12-07T11:38:38Z</time></trkpt>
<trkpt lat="43.0469150000" lon="0.6517420000"><ele>607</ele><time>2025-12-07T11:39:11Z</time></trkpt>
<trkpt lat="43.0469270000" lon="0.6517650000"><ele>607</ele><time>2025-12-07T11:39:12Z</time></trkpt>
<trkpt lat="43.0469420000" lon="0.6517920000"><ele>607</ele><time>2025-12-07T11:39:13Z</time></trkpt>
<trkpt lat="43.0469570000" lon="0.6518220000"><ele>606</ele><time>2025-12-07T11:39:14Z</time></trkpt>
<trkpt lat="43.0469700000" lon="0.6518500000"><ele>606</ele><time>2025-12-07T11:39:15Z</time></trkpt>
<trkpt lat="43.0469850000" lon="0.6518870000"><ele>607</ele><time>2025-12-07T11:39:17Z</time></trkpt>
<trkpt lat="43.0469970000" lon="0.6519120000"><ele>607</ele><time>2025-12-07T11:39:19Z</time></trkpt>
<trkpt lat="43.0470050000" lon="0.6519370000"><ele>606</ele><time>2025-12-07T11:39:21Z</time></trkpt>
<trkpt lat="43.0469970000" lon="0.6519730000"><ele>607</ele><time>2025-12-07T11:39:25Z</time></trkpt>
<trkpt lat="43.0469900000" lon="0.6520020000"><ele>607</ele><time>2025-12-07T11:39:29Z</time></trkpt>
<trkpt lat="43.0469670000" lon="0.6520170000"><ele>606</ele><time>2025-12-07T11:39:31Z</time></trkpt>
<trkpt lat="43.0469420000" lon="0.6520120000"><ele>607</ele><time>2025-12-07T11:39:34Z</time></trkpt>
<trkpt lat="43.0469170000" lon="0.6520150000"><ele>606</ele><time>2025-12-07T11:39:37Z</time></trkpt>
<trkpt lat="43.0469050000" lon="0.6520320000"><ele>607</ele><time>2025-12-07T11:39:40Z</time></trkpt>
<trkpt lat="43.0469000000" lon="0.6520600000"><ele>607</ele><time>2025-12-07T11:39:43Z</time></trkpt>
<trkpt lat="43.0469020000" lon="0.6520870000"><ele>606</ele><time>2025-12-07T11:40:29Z</time></trkpt>
<trkpt lat="43.0469070000" lon="0.6521120000"><ele>606</ele><time>2025-12-07T11:40:31Z</time></trkpt>
<trkpt lat="43.0468820000" lon="0.6521080000"><ele>607</ele><time>2025-12-07T11:40:36Z</time></trkpt>
<trkpt lat="43.0468620000" lon="0.6521070000"><ele>606</ele><time>2025-12-07T11:40:47Z</time></trkpt>
<trkpt lat="43.0468370000" lon="0.6521250000"><ele>607</ele><time>2025-12-07T11:40:50Z</time></trkpt>
<trkpt lat="43.0468300000" lon="0.6520930000"><ele>607</ele><time>2025-12-07T11:41:56Z</time></trkpt>
<trkpt lat="43.0468320000" lon="0.6520670000"><ele>607</ele><time>2025-12-07T11:41:58Z</time></trkpt>
<trkpt lat="43.0468200000" lon="0.6520350000"><ele>605</ele><time>2025-12-07T11:45:45Z</time></trkpt>
<trkpt lat="43.0468100000" lon="0.6520120000"><ele>606</ele><time>2025-12-07T11:45:47Z</time></trkpt>
<trkpt lat="43.0468270000" lon="0.6520170000"><ele>605</ele><time>2025-12-07T11:45:52Z</time></trkpt>
<trkpt lat="43.0468520000" lon="0.6520020000"><ele>606</ele><time>2025-12-07T11:46:50Z</time></trkpt>
<trkpt lat="43.0468820000" lon="0.6519920000"><ele>606</ele><time>2025-12-07T11:46:51Z</time></trkpt>
<trkpt lat="43.0469120000" lon="0.6519770000"><ele>606</ele><time>2025-12-07T11:46:52Z</time></trkpt>
<trkpt lat="43.0469400000" lon="0.6519670000"><ele>606</ele><time>2025-12-07T11:46:53Z</time></trkpt>
<trkpt lat="43.0469620000" lon="0.6519580000"><ele>606</ele><time>2025-12-07T11:46:54Z</time></trkpt>
<trkpt lat="43.0469800000" lon="0.6519620000"><ele>606</ele><time>2025-12-07T11:46:56Z</time></trkpt>
<trkpt lat="43.0469570000" lon="0.6519530000"><ele>606</ele><time>2025-12-07T11:49:18Z</time></trkpt>
<trkpt lat="43.0469350000" lon="0.6519520000"><ele>606</ele><time>2025-12-07T11:49:21Z</time></trkpt>
<trkpt lat="43.0469070000" lon="0.6519580000"><ele>607</ele><time>2025-12-07T11:49:25Z</time></trkpt>
<trkpt lat="43.0469100000" lon="0.6519270000"><ele>606</ele><time>2025-12-07T11:49:50Z</time></trkpt>
<trkpt lat="43.0469050000" lon="0.6518870000"><ele>607</ele><time>2025-12-07T11:49:52Z</time></trkpt>
<trkpt lat="43.0469000000" lon="0.6518470000"><ele>607</ele><time>2025-12-07T11:49:54Z</time></trkpt>
<trkpt lat="43.0468920000" lon="0.6518100000"><ele>607</ele><time>2025-12-07T11:49:56Z</time></trkpt>
<trkpt lat="43.0468920000" lon="0.6517750000"><ele>607</ele><time>2025-12-07T11:49:58Z</time></trkpt>
<trkpt lat="43.0468920000" lon="0.6517450000"><ele>606</ele><time>2025-12-07T11:50:00Z</time></trkpt>
<trkpt lat="43.0468850000" lon="0.6517170000"><ele>606</ele><time>2025-12-07T11:50:02Z</time></trkpt>
<trkpt lat="43.0468670000" lon="0.6516830000"><ele>606</ele><time>2025-12-07T11:50:05Z</time></trkpt>
<trkpt lat="43.0468500000" lon="0.6516650000"><ele>606</ele><time>2025-12-07T11:50:08Z</time></trkpt>
<trkpt lat="43.0468470000" lon="0.6516320000"><ele>606</ele><time>2025-12-07T11:50:11Z</time></trkpt>
<trkpt lat="43.0468370000" lon="0.6516050000"><ele>606</ele><time>2025-12-07T11:50:13Z</time></trkpt>
<trkpt lat="43.0468350000" lon="0.6515600000"><ele>606</ele><time>2025-12-07T11:50:16Z</time></trkpt>
<trkpt lat="43.0468400000" lon="0.6515220000"><ele>606</ele><time>2025-12-07T11:50:18Z</time></trkpt>
<trkpt lat="43.0468370000" lon="0.6514970000"><ele>606</ele><time>2025-12-07T11:50:20Z</time></trkpt>
<trkpt lat="43.0468270000" lon="0.6514720000"><ele>606</ele><time>2025-12-07T11:50:22Z</time></trkpt>
<trkpt lat="43.0468200000" lon="0.6514470000"><ele>606</ele><time>2025-12-07T11:50:24Z</time></trkpt>
<trkpt lat="43.0468070000" lon="0.6514270000"><ele>606</ele><time>2025-12-07T11:50:26Z</time></trkpt>
<trkpt lat="43.0467970000" lon="0.6514020000"><ele>605</ele><time>2025-12-07T11:50:29Z</time></trkpt>
<trkpt lat="43.0468150000" lon="0.6513770000"><ele>605</ele><time>2025-12-07T11:50:33Z</time></trkpt>
<trkpt lat="43.0468120000" lon="0.6513520000"><ele>605</ele><time>2025-12-07T11:50:35Z</time></trkpt>
<trkpt lat="43.0468020000" lon="0.6513220000"><ele>605</ele><time>2025-12-07T11:50:38Z</time></trkpt>
<trkpt lat="43.0467900000" lon="0.6512920000"><ele>605</ele><time>2025-12-07T11:50:41Z</time></trkpt>
<trkpt lat="43.0467870000" lon="0.6512620000"><ele>605</ele><time>2025-12-07T11:50:43Z</time></trkpt>
<trkpt lat="43.0467900000" lon="0.6512220000"><ele>604</ele><time>2025-12-07T11:50:46Z</time></trkpt>
<trkpt lat="43.0467770000" lon="0.6512000000"><ele>604</ele><time>2025-12-07T11:50:51Z</time></trkpt>
<trkpt lat="43.0467520000" lon="0.6511700000"><ele>604</ele><time>2025-12-07T11:50:53Z</time></trkpt>
<trkpt lat="43.0467370000" lon="0.6511520000"><ele>604</ele><time>2025-12-07T11:50:55Z</time></trkpt>
<trkpt lat="43.0467270000" lon="0.6511170000"><ele>604</ele><time>2025-12-07T11:50:57Z</time></trkpt>
<trkpt lat="43.0467280000" lon="0.6510820000"><ele>604</ele><time>2025-12-07T11:50:59Z</time></trkpt>
<trkpt lat="43.0467280000" lon="0.6510450000"><ele>603</ele><time>2025-12-07T11:51:02Z</time></trkpt>
<trkpt lat="43.0467320000" lon="0.6510170000"><ele>603</ele><time>2025-12-07T11:51:04Z</time></trkpt>
<trkpt lat="43.0467250000" lon="0.6509850000"><ele>603</ele><time>2025-12-07T11:51:07Z</time></trkpt>
<trkpt lat="43.0467270000" lon="0.6509530000"><ele>603</ele><time>2025-12-07T11:51:10Z</time></trkpt>
<trkpt lat="43.0467320000" lon="0.6509300000"><ele>603</ele><time>2025-12-07T11:51:13Z</time></trkpt>
<trkpt lat="43.0467270000" lon="0.6508970000"><ele>602</ele><time>2025-12-07T11:51:15Z</time></trkpt>
<trkpt lat="43.0467270000" lon="0.6508670000"><ele>602</ele><time>2025-12-07T11:51:17Z</time></trkpt>
<trkpt lat="43.0467200000" lon="0.6508270000"><ele>602</ele><time>2025-12-07T11:51:20Z</time></trkpt>
<trkpt lat="43.0467220000" lon="0.6507950000"><ele>602</ele><time>2025-12-07T11:51:23Z</time></trkpt>
<trkpt lat="43.0467200000" lon="0.6507670000"><ele>601</ele><time>2025-12-07T11:51:27Z</time></trkpt>
<trkpt lat="43.0467070000" lon="0.6507470000"><ele>602</ele><time>2025-12-07T11:51:30Z</time></trkpt>
<trkpt lat="43.0466900000" lon="0.6507270000"><ele>601</ele><time>2025-12-07T11:51:33Z</time></trkpt>
<trkpt lat="43.0466920000" lon="0.6506970000"><ele>601</ele><time>2025-12-07T11:51:37Z</time></trkpt>
<trkpt lat="43.0466770000" lon="0.6506720000"><ele>601</ele><time>2025-12-07T11:51:40Z</time></trkpt>
<trkpt lat="43.0466670000" lon="0.6506470000"><ele>601</ele><time>2025-12-07T11:51:42Z</time></trkpt>
<trkpt lat="43.0466620000" lon="0.6506170000"><ele>600</ele><time>2025-12-07T11:51:44Z</time></trkpt>
<trkpt lat="43.0466750000" lon="0.6505770000"><ele>600</ele><time>2025-12-07T11:51:46Z</time></trkpt>
<trkpt lat="43.0466720000" lon="0.6505520000"><ele>600</ele><time>2025-12-07T11:51:48Z</time></trkpt>
<trkpt lat="43.0466770000" lon="0.6505270000"><ele>600</ele><time>2025-12-07T11:51:50Z</time></trkpt>
<trkpt lat="43.0466770000" lon="0.6504970000"><ele>600</ele><time>2025-12-07T11:51:53Z</time></trkpt>
<trkpt lat="43.0466720000" lon="0.6504720000"><ele>599</ele><time>2025-12-07T11:51:55Z</time></trkpt>
<trkpt lat="43.0466600000" lon="0.6504480000"><ele>599</ele><time>2025-12-07T11:51:58Z</time></trkpt>
<trkpt lat="43.0466470000" lon="0.6504280000"><ele>599</ele><time>2025-12-07T11:52:01Z</time></trkpt>
<trkpt lat="43.0466370000" lon="0.6503970000"><ele>599</ele><time>2025-12-07T11:52:03Z</time></trkpt>
<trkpt lat="43.0466320000" lon="0.6503600000"><ele>599</ele><time>2025-12-07T11:52:05Z</time></trkpt>
<trkpt lat="43.0466300000" lon="0.6503220000"><ele>599</ele><time>2025-12-07T11:52:07Z</time></trkpt>
<trkpt lat="43.0466220000" lon="0.6502920000"><ele>598</ele><time>2025-12-07T11:52:09Z</time></trkpt>
<trkpt lat="43.0466370000" lon="0.6502700000"><ele>598</ele><time>2025-12-07T11:52:11Z</time></trkpt>
<trkpt lat="43.0466320000" lon="0.6502420000"><ele>598</ele><time>2025-12-07T11:52:13Z</time></trkpt>
<trkpt lat="43.0466300000" lon="0.6502100000"><ele>598</ele><time>2025-12-07T11:52:15Z</time></trkpt>
<trkpt lat="43.0466200000" lon="0.6501870000"><ele>598</ele><time>2025-12-07T11:52:17Z</time></trkpt>
<trkpt lat="43.0466070000" lon="0.6501650000"><ele>597</ele><time>2025-12-07T11:52:19Z</time></trkpt>
<trkpt lat="43.0465900000" lon="0.6501430000"><ele>597</ele><time>2025-12-07T11:52:21Z</time></trkpt>
<trkpt lat="43.0465720000" lon="0.6501230000"><ele>597</ele><time>2025-12-07T11:52:23Z</time></trkpt>
<trkpt lat="43.0465620000" lon="0.6500950000"><ele>597</ele><time>2025-12-07T11:52:26Z</time></trkpt>
<trkpt lat="43.0465670000" lon="0.6500630000"><ele>597</ele><time>2025-12-07T11:52:28Z</time></trkpt>
<trkpt lat="43.0465720000" lon="0.6500270000"><ele>597</ele><time>2025-12-07T11:52:30Z</time></trkpt>
<trkpt lat="43.0465650000" lon="0.6499880000"><ele>597</ele><time>2025-12-07T11:52:32Z</time></trkpt>
<trkpt lat="43.0465570000" lon="0.6499600000"><ele>597</ele><time>2025-12-07T11:52:34Z</time></trkpt>
<trkpt lat="43.0465450000" lon="0.6499320000"><ele>597</ele><time>2025-12-07T11:52:36Z</time></trkpt>
<trkpt lat="43.0465350000" lon="0.6499080000"><ele>597</ele><time>2025-12-07T11:52:38Z</time></trkpt>
<trkpt lat="43.0465370000" lon="0.6498820000"><ele>597</ele><time>2025-12-07T11:52:40Z</time></trkpt>
<trkpt lat="43.0465320000" lon="0.6498530000"><ele>597</ele><time>2025-12-07T11:52:42Z</time></trkpt>
<trkpt lat="43.0465570000" lon="0.6498370000"><ele>597</ele><time>2025-12-07T11:52:44Z</time></trkpt>
<trkpt lat="43.0465470000" lon="0.6498100000"><ele>597</ele><time>2025-12-07T11:52:47Z</time></trkpt>
<trkpt lat="43.0465570000" lon="0.6497870000"><ele>597</ele><time>2025-12-07T11:52:50Z</time></trkpt>
<trkpt lat="43.0465500000" lon="0.6497650000"><ele>597</ele><time>2025-12-07T11:52:52Z</time></trkpt>
<trkpt lat="43.0465220000" lon="0.6497620000"><ele>597</ele><time>2025-12-07T11:53:19Z</time></trkpt>
<trkpt lat="43.0464900000" lon="0.6497380000"><ele>597</ele><time>2025-12-07T11:53:21Z</time></trkpt>
<trkpt lat="43.0464800000" lon="0.6497150000"><ele>596</ele><time>2025-12-07T11:53:22Z</time></trkpt>
<trkpt lat="43.0464750000" lon="0.6496670000"><ele>596</ele><time>2025-12-07T11:53:24Z</time></trkpt>
<trkpt lat="43.0464720000" lon="0.6496380000"><ele>596</ele><time>2025-12-07T11:53:26Z</time></trkpt>
<trkpt lat="43.0464670000" lon="0.6496070000"><ele>596</ele><time>2025-12-07T11:53:28Z</time></trkpt>
<trkpt lat="43.0464700000" lon="0.6495820000"><ele>596</ele><time>2025-12-07T11:53:30Z</time></trkpt>
<trkpt lat="43.0464670000" lon="0.6495480000"><ele>596</ele><time>2025-12-07T11:53:32Z</time></trkpt>
<trkpt lat="43.0464620000" lon="0.6495170000"><ele>596</ele><time>2025-12-07T11:53:35Z</time></trkpt>
<trkpt lat="43.0464600000" lon="0.6494870000"><ele>596</ele><time>2025-12-07T11:53:37Z</time></trkpt>
<trkpt lat="43.0464470000" lon="0.6494620000"><ele>596</ele><time>2025-12-07T11:53:41Z</time></trkpt>
<trkpt lat="43.0464270000" lon="0.6494480000"><ele>596</ele><time>2025-12-07T11:53:43Z</time></trkpt>
<trkpt lat="43.0464150000" lon="0.6494270000"><ele>596</ele><time>2025-12-07T11:53:45Z</time></trkpt>
<trkpt lat="43.0463970000" lon="0.6494120000"><ele>596</ele><time>2025-12-07T11:53:47Z</time></trkpt>
<trkpt lat="43.0463770000" lon="0.6493900000"><ele>596</ele><time>2025-12-07T11:53:49Z</time></trkpt>
<trkpt lat="43.0463620000" lon="0.6493670000"><ele>596</ele><time>2025-12-07T11:53:51Z</time></trkpt>
<trkpt lat="43.0463570000" lon="0.6493420000"><ele>596</ele><time>2025-12-07T11:53:53Z</time></trkpt>
<trkpt lat="43.0463800000" lon="0.6493250000"><ele>596</ele><time>2025-12-07T11:53:55Z</time></trkpt>
<trkpt lat="43.0464000000" lon="0.6493170000"><ele>600</ele><time>2025-12-07T11:54:26Z</time></trkpt>
<trkpt lat="43.0464070000" lon="0.6492700000"><ele>600</ele><time>2025-12-07T11:54:28Z</time></trkpt>
<trkpt lat="43.0464070000" lon="0.6492420000"><ele>600</ele><time>2025-12-07T11:54:29Z</time></trkpt>
<trkpt lat="43.0464070000" lon="0.6492170000"><ele>600</ele><time>2025-12-07T11:54:30Z</time></trkpt>
<trkpt lat="43.0464070000" lon="0.6491770000"><ele>601</ele><time>2025-12-07T11:54:32Z</time></trkpt>
<trkpt lat="43.0464170000" lon="0.6491470000"><ele>601</ele><time>2025-12-07T11:54:34Z</time></trkpt>
<trkpt lat="43.0464100000" lon="0.6491230000"><ele>602</ele><time>2025-12-07T11:54:38Z</time></trkpt>
<trkpt lat="43.0464070000" lon="0.6491000000"><ele>603</ele><time>2025-12-07T11:54:45Z</time></trkpt>
<trkpt lat="43.0463870000" lon="0.6490870000"><ele>605</ele><time>2025-12-07T11:55:18Z</time></trkpt>
<trkpt lat="43.0463800000" lon="0.6490520000"><ele>605</ele><time>2025-12-07T11:55:20Z</time></trkpt>
<trkpt lat="43.0463750000" lon="0.6490230000"><ele>605</ele><time>2025-12-07T11:55:22Z</time></trkpt>
<trkpt lat="43.0463670000" lon="0.6489920000"><ele>606</ele><time>2025-12-07T11:55:24Z</time></trkpt>
<trkpt lat="43.0463570000" lon="0.6489670000"><ele>606</ele><time>2025-12-07T11:55:32Z</time></trkpt>
<trkpt lat="43.0463350000" lon="0.6489620000"><ele>607</ele><time>2025-12-07T11:55:34Z</time></trkpt>
<trkpt lat="43.0463220000" lon="0.6489430000"><ele>608</ele><time>2025-12-07T11:55:38Z</time></trkpt>
<trkpt lat="43.0463070000" lon="0.6489270000"><ele>608</ele><time>2025-12-07T11:55:40Z</time></trkpt>
<trkpt lat="43.0462920000" lon="0.6489070000"><ele>608</ele><time>2025-12-07T11:55:43Z</time></trkpt>
<trkpt lat="43.0462970000" lon="0.6488720000"><ele>609</ele><time>2025-12-07T11:55:46Z</time></trkpt>
<trkpt lat="43.0463000000" lon="0.6488470000"><ele>609</ele><time>2025-12-07T11:55:48Z</time></trkpt>
<trkpt lat="43.0462970000" lon="0.6488120000"><ele>610</ele><time>2025-12-07T11:55:53Z</time></trkpt>
<trkpt lat="43.0462920000" lon="0.6487770000"><ele>610</ele><time>2025-12-07T11:55:57Z</time></trkpt>
<trkpt lat="43.0462870000" lon="0.6487450000"><ele>611</ele><time>2025-12-07T11:55:59Z</time></trkpt>
<trkpt lat="43.0462850000" lon="0.6487170000"><ele>611</ele><time>2025-12-07T11:56:01Z</time></trkpt>
<trkpt lat="43.0463000000" lon="0.6487000000"><ele>612</ele><time>2025-12-07T11:56:06Z</time></trkpt>
<trkpt lat="43.0463100000" lon="0.6486770000"><ele>614</ele><time>2025-12-07T11:56:26Z</time></trkpt>
<trkpt lat="43.0463170000" lon="0.6486520000"><ele>614</ele><time>2025-12-07T11:56:28Z</time></trkpt>
<trkpt lat="43.0463250000" lon="0.6486250000"><ele>615</ele><time>2025-12-07T11:56:30Z</time></trkpt>
<trkpt lat="43.0463250000" lon="0.6485970000"><ele>615</ele><time>2025-12-07T11:56:32Z</time></trkpt>
<trkpt lat="43.0463250000" lon="0.6485720000"><ele>615</ele><time>2025-12-07T11:56:34Z</time></trkpt>
<trkpt lat="43.0463170000" lon="0.6485470000"><ele>616</ele><time>2025-12-07T11:56:38Z</time></trkpt>
<trkpt lat="43.0463100000" lon="0.6485220000"><ele>616</ele><time>2025-12-07T11:56:41Z</time></trkpt>
<trkpt lat="43.0463020000" lon="0.6484970000"><ele>616</ele><time>2025-12-07T11:56:43Z</time></trkpt>
<trkpt lat="43.0462900000" lon="0.6484670000"><ele>617</ele><time>2025-12-07T11:56:46Z</time></trkpt>
<trkpt lat="43.0462770000" lon="0.6484500000"><ele>617</ele><time>2025-12-07T11:56:50Z</time></trkpt>
<trkpt lat="43.0462620000" lon="0.6484200000"><ele>617</ele><time>2025-12-07T11:56:54Z</time></trkpt>
<trkpt lat="43.0462600000" lon="0.6483920000"><ele>617</ele><time>2025-12-07T11:56:57Z</time></trkpt>
<trkpt lat="43.0462500000" lon="0.6483600000"><ele>617</ele><time>2025-12-07T11:57:00Z</time></trkpt>
<trkpt lat="43.0462670000" lon="0.6483570000"><ele>617</ele><time>2025-12-07T11:57:05Z</time></trkpt>
<trkpt lat="43.0462850000" lon="0.6483720000"><ele>616</ele><time>2025-12-07T11:58:41Z</time></trkpt>
<trkpt lat="43.0462630000" lon="0.6483770000"><ele>616</ele><time>2025-12-07T11:58:47Z</time></trkpt>
<trkpt lat="43.0462450000" lon="0.6483770000"><ele>615</ele><time>2025-12-07T12:02:05Z</time></trkpt>
<trkpt lat="43.0462170000" lon="0.6483820000"><ele>615</ele><time>2025-12-07T12:02:06Z</time></trkpt>
<trkpt lat="43.0461920000" lon="0.6483870000"><ele>615</ele><time>2025-12-07T12:02:07Z</time></trkpt>
<trkpt lat="43.0461720000" lon="0.6483970000"><ele>615</ele><time>2025-12-07T12:02:08Z</time></trkpt>
<trkpt lat="43.0461520000" lon="0.6484170000"><ele>615</ele><time>2025-12-07T12:02:10Z</time></trkpt>
<trkpt lat="43.0461700000" lon="0.6484150000"><ele>615</ele><time>2025-12-07T12:03:25Z</time></trkpt>
<trkpt lat="43.0462000000" lon="0.6483970000"><ele>614</ele><time>2025-12-07T12:03:27Z</time></trkpt>
<trkpt lat="43.0462250000" lon="0.6483820000"><ele>614</ele><time>2025-12-07T12:03:29Z</time></trkpt>
<trkpt lat="43.0462450000" lon="0.6484050000"><ele>614</ele><time>2025-12-07T12:04:40Z</time></trkpt>
<trkpt lat="43.0462520000" lon="0.6484270000"><ele>614</ele><time>2025-12-07T12:04:41Z</time></trkpt>
<trkpt lat="43.0462570000" lon="0.6484520000"><ele>614</ele><time>2025-12-07T12:04:42Z</time></trkpt>
<trkpt lat="43.0462700000" lon="0.6484870000"><ele>614</ele><time>2025-12-07T12:04:44Z</time></trkpt>
<trkpt lat="43.0462870000" lon="0.6484950000"><ele>614</ele><time>2025-12-07T12:04:48Z</time></trkpt>
<trkpt lat="43.0462950000" lon="0.6484720000"><ele>613</ele><time>2025-12-07T12:06:02Z</time></trkpt>
<trkpt lat="43.0462870000" lon="0.6484250000"><ele>613</ele><time>2025-12-07T12:06:04Z</time></trkpt>
<trkpt lat="43.0462720000" lon="0.6483870000"><ele>613</ele><time>2025-12-07T12:06:06Z</time></trkpt>
<trkpt lat="43.0462520000" lon="0.6483770000"><ele>613</ele><time>2025-12-07T12:06:13Z</time></trkpt>
<trkpt lat="43.0462720000" lon="0.6483600000"><ele>613</ele><time>2025-12-07T12:07:07Z</time></trkpt>
<trkpt lat="43.0462850000" lon="0.6483770000"><ele>613</ele><time>2025-12-07T12:07:11Z</time></trkpt>
<trkpt lat="43.0462870000" lon="0.6483480000"><ele>613</ele><time>2025-12-07T12:07:16Z</time></trkpt>
<trkpt lat="43.0462870000" lon="0.6483200000"><ele>613</ele><time>2025-12-07T12:07:19Z</time></trkpt>
<trkpt lat="43.0462850000" lon="0.6482900000"><ele>613</ele><time>2025-12-07T12:07:35Z</time></trkpt>
<trkpt lat="43.0462820000" lon="0.6482420000"><ele>613</ele><time>2025-12-07T12:07:37Z</time></trkpt>
<trkpt lat="43.0462820000" lon="0.6482120000"><ele>613</ele><time>2025-12-07T12:07:38Z</time></trkpt>
<trkpt lat="43.0462820000" lon="0.6481870000"><ele>614</ele><time>2025-12-07T12:07:39Z</time></trkpt>
<trkpt lat="43.0462870000" lon="0.6481470000"><ele>614</ele><time>2025-12-07T12:07:41Z</time></trkpt>
<trkpt lat="43.0462900000" lon="0.6481120000"><ele>614</ele><time>2025-12-07T12:07:43Z</time></trkpt>
<trkpt lat="43.0462970000" lon="0.6480820000"><ele>614</ele><time>2025-12-07T12:07:45Z</time></trkpt>
<trkpt lat="43.0462870000" lon="0.6480620000"><ele>614</ele><time>2025-12-07T12:07:48Z</time></trkpt>
<trkpt lat="43.0462800000" lon="0.6480370000"><ele>614</ele><time>2025-12-07T12:07:50Z</time></trkpt>
<trkpt lat="43.0462870000" lon="0.6480070000"><ele>614</ele><time>2025-12-07T12:07:53Z</time></trkpt>
<trkpt lat="43.0463000000" lon="0.6479780000"><ele>614</ele><time>2025-12-07T12:07:56Z</time></trkpt>
<trkpt lat="43.0463070000" lon="0.6479520000"><ele>614</ele><time>2025-12-07T12:07:59Z</time></trkpt>
<trkpt lat="43.0463150000" lon="0.6479230000"><ele>614</ele><time>2025-12-07T12:08:02Z</time></trkpt>
<trkpt lat="43.0463070000" lon="0.6479020000"><ele>614</ele><time>2025-12-07T12:08:05Z</time></trkpt>
<trkpt lat="43.0462900000" lon="0.6478850000"><ele>614</ele><time>2025-12-07T12:08:08Z</time></trkpt>
<trkpt lat="43.0462720000" lon="0.6478820000"><ele>614</ele><time>2025-12-07T12:08:10Z</time></trkpt>
<trkpt lat="43.0462520000" lon="0.6478720000"><ele>615</ele><time>2025-12-07T12:08:14Z</time></trkpt>
<trkpt lat="43.0462320000" lon="0.6478800000"><ele>615</ele><time>2025-12-07T12:08:17Z</time></trkpt>
<trkpt lat="43.0462220000" lon="0.6478570000"><ele>615</ele><time>2025-12-07T12:08:33Z</time></trkpt>
<trkpt lat="43.0462370000" lon="0.6478200000"><ele>615</ele><time>2025-12-07T12:08:35Z</time></trkpt>
<trkpt lat="43.0462170000" lon="0.6477920000"><ele>615</ele><time>2025-12-07T12:08:39Z</time></trkpt>
<trkpt lat="43.0461970000" lon="0.6478020000"><ele>615</ele><time>2025-12-07T12:08:44Z</time></trkpt>
<trkpt lat="43.0461850000" lon="0.6478270000"><ele>616</ele><time>2025-12-07T12:09:30Z</time></trkpt>
<trkpt lat="43.0461920000" lon="0.6478520000"><ele>616</ele><time>2025-12-07T12:09:35Z</time></trkpt>
<trkpt lat="43.0461870000" lon="0.6478770000"><ele>616</ele><time>2025-12-07T12:09:37Z</time></trkpt>
<trkpt lat="43.0462020000" lon="0.6478600000"><ele>616</ele><time>2025-12-07T12:09:49Z</time></trkpt>
<trkpt lat="43.0462070000" lon="0.6478350000"><ele>616</ele><time>2025-12-07T12:09:50Z</time></trkpt>
<trkpt lat="43.0462200000" lon="0.6478030000"><ele>616</ele><time>2025-12-07T12:09:51Z</time></trkpt>
<trkpt lat="43.0462320000" lon="0.6477770000"><ele>616</ele><time>2025-12-07T12:09:52Z</time></trkpt>
<trkpt lat="43.0462450000" lon="0.6477420000"><ele>616</ele><time>2025-12-07T12:09:54Z</time></trkpt>
<trkpt lat="43.0462620000" lon="0.6477220000"><ele>615</ele><time>2025-12-07T12:09:57Z</time></trkpt>
<trkpt lat="43.0462820000" lon="0.6477050000"><ele>614</ele><time>2025-12-07T12:10:01Z</time></trkpt>
<trkpt lat="43.0463020000" lon="0.6476820000"><ele>614</ele><time>2025-12-07T12:10:06Z</time></trkpt>
<trkpt lat="43.0463020000" lon="0.6476570000"><ele>613</ele><time>2025-12-07T12:10:10Z</time></trkpt>
<trkpt lat="43.0462920000" lon="0.6476300000"><ele>613</ele><time>2025-12-07T12:10:13Z</time></trkpt>
<trkpt lat="43.0462870000" lon="0.6476020000"><ele>613</ele><time>2025-12-07T12:10:18Z</time></trkpt>
<trkpt lat="43.0463070000" lon="0.6475870000"><ele>612</ele><time>2025-12-07T12:10:20Z</time></trkpt>
<trkpt lat="43.0463070000" lon="0.6475570000"><ele>612</ele><time>2025-12-07T12:10:23Z</time></trkpt>
<trkpt lat="43.0463020000" lon="0.6475250000"><ele>612</ele><time>2025-12-07T12:10:26Z</time></trkpt>
<trkpt lat="43.0462920000" lon="0.6475020000"><ele>611</ele><time>2025-12-07T12:10:28Z</time></trkpt>
<trkpt lat="43.0462870000" lon="0.6474770000"><ele>611</ele><time>2025-12-07T12:10:30Z</time></trkpt>
<trkpt lat="43.0462950000" lon="0.6474500000"><ele>611</ele><time>2025-12-07T12:10:33Z</time></trkpt>
<trkpt lat="43.0463020000" lon="0.6474250000"><ele>610</ele><time>2025-12-07T12:10:37Z</time></trkpt>
<trkpt lat="43.0463020000" lon="0.6473970000"><ele>610</ele><time>2025-12-07T12:10:40Z</time></trkpt>
<trkpt lat="43.0463070000" lon="0.6473630000"><ele>610</ele><time>2025-12-07T12:10:43Z</time></trkpt>
<trkpt lat="43.0462920000" lon="0.6473270000"><ele>608</ele><time>2025-12-07T12:10:49Z</time></trkpt>
<trkpt lat="43.0462920000" lon="0.6472970000"><ele>608</ele><time>2025-12-07T12:10:52Z</time></trkpt>
<trkpt lat="43.0463120000" lon="0.6472630000"><ele>607</ele><time>2025-12-07T12:10:54Z</time></trkpt>
<trkpt lat="43.0463120000" lon="0.6472270000"><ele>607</ele><time>2025-12-07T12:10:56Z</time></trkpt>
<trkpt lat="43.0463070000" lon="0.6471930000"><ele>607</ele><time>2025-12-07T12:10:58Z</time></trkpt>
<trkpt lat="43.0462900000" lon="0.6471850000"><ele>606</ele><time>2025-12-07T12:11:01Z</time></trkpt>
<trkpt lat="43.0462920000" lon="0.6471550000"><ele>606</ele><time>2025-12-07T12:11:03Z</time></trkpt>
<trkpt lat="43.0463020000" lon="0.6471120000"><ele>605</ele><time>2025-12-07T12:11:05Z</time></trkpt>
<trkpt lat="43.0463020000" lon="0.6470850000"><ele>605</ele><time>2025-12-07T12:11:08Z</time></trkpt>
<trkpt lat="43.0463170000" lon="0.6470570000"><ele>604</ele><time>2025-12-07T12:11:15Z</time></trkpt>
<trkpt lat="43.0463250000" lon="0.6470300000"><ele>603</ele><time>2025-12-07T12:11:17Z</time></trkpt>
<trkpt lat="43.0463250000" lon="0.6470050000"><ele>603</ele><time>2025-12-07T12:11:20Z</time></trkpt>
<trkpt lat="43.0463050000" lon="0.6469820000"><ele>602</ele><time>2025-12-07T12:11:23Z</time></trkpt>
<trkpt lat="43.0462920000" lon="0.6469620000"><ele>602</ele><time>2025-12-07T12:11:25Z</time></trkpt>
<trkpt lat="43.0462870000" lon="0.6469350000"><ele>602</ele><time>2025-12-07T12:11:29Z</time></trkpt>
<trkpt lat="43.0462870000" lon="0.6469070000"><ele>600</ele><time>2025-12-07T12:11:33Z</time></trkpt>
<trkpt lat="43.0463000000" lon="0.6468850000"><ele>600</ele><time>2025-12-07T12:11:35Z</time></trkpt>
<trkpt lat="43.0463100000" lon="0.6468620000"><ele>600</ele><time>2025-12-07T12:11:37Z</time></trkpt>
<trkpt lat="43.0463220000" lon="0.6468320000"><ele>600</ele><time>2025-12-07T12:11:39Z</time></trkpt>
<trkpt lat="43.0463320000" lon="0.6468070000"><ele>599</ele><time>2025-12-07T12:11:41Z</time></trkpt>
<trkpt lat="43.0463370000" lon="0.6467800000"><ele>598</ele><time>2025-12-07T12:11:44Z</time></trkpt>
<trkpt lat="43.0463320000" lon="0.6467500000"><ele>598</ele><time>2025-12-07T12:11:46Z</time></trkpt>
<trkpt lat="43.0463300000" lon="0.6467220000"><ele>597</ele><time>2025-12-07T12:11:49Z</time></trkpt>
<trkpt lat="43.0463350000" lon="0.6466970000"><ele>597</ele><time>2025-12-07T12:11:53Z</time></trkpt>
<trkpt lat="43.0463370000" lon="0.6466620000"><ele>596</ele><time>2025-12-07T12:11:56Z</time></trkpt>
<trkpt lat="43.0463170000" lon="0.6466600000"><ele>596</ele><time>2025-12-07T12:12:11Z</time></trkpt>
<trkpt lat="43.0463200000" lon="0.6466320000"><ele>595</ele><time>2025-12-07T12:12:16Z</time></trkpt>
<trkpt lat="43.0463220000" lon="0.6466020000"><ele>594</ele><time>2025-12-07T12:12:18Z</time></trkpt>
<trkpt lat="43.0463370000" lon="0.6465720000"><ele>594</ele><time>2025-12-07T12:12:20Z</time></trkpt>
<trkpt lat="43.0463420000" lon="0.6465420000"><ele>593</ele><time>2025-12-07T12:12:22Z</time></trkpt>
<trkpt lat="43.0463420000" lon="0.6465070000"><ele>593</ele><time>2025-12-07T12:12:25Z</time></trkpt>
<trkpt lat="43.0463400000" lon="0.6464800000"><ele>592</ele><time>2025-12-07T12:12:27Z</time></trkpt>
<trkpt lat="43.0463320000" lon="0.6464520000"><ele>592</ele><time>2025-12-07T12:12:30Z</time></trkpt>
<trkpt lat="43.0463450000" lon="0.6464220000"><ele>591</ele><time>2025-12-07T12:12:34Z</time></trkpt>
<trkpt lat="43.0463470000" lon="0.6463920000"><ele>590</ele><time>2025-12-07T12:12:37Z</time></trkpt>
<trkpt lat="43.0463450000" lon="0.6463670000"><ele>589</ele><time>2025-12-07T12:12:40Z</time></trkpt>
<trkpt lat="43.0463480000" lon="0.6463420000"><ele>588</ele><time>2025-12-07T12:12:44Z</time></trkpt>
<trkpt lat="43.0463480000" lon="0.6463120000"><ele>588</ele><time>2025-12-07T12:12:48Z</time></trkpt>
<trkpt lat="43.0463480000" lon="0.6462820000"><ele>587</ele><time>2025-12-07T12:12:52Z</time></trkpt>
<trkpt lat="43.0463480000" lon="0.6462570000"><ele>586</ele><time>2025-12-07T12:12:55Z</time></trkpt>
<trkpt lat="43.0463420000" lon="0.6462220000"><ele>585</ele><time>2025-12-07T12:12:59Z</time></trkpt>
<trkpt lat="43.0463420000" lon="0.6461970000"><ele>585</ele><time>2025-12-07T12:13:02Z</time></trkpt>
<trkpt lat="43.0463480000" lon="0.6461670000"><ele>584</ele><time>2025-12-07T12:13:04Z</time></trkpt>
<trkpt lat="43.0463520000" lon="0.6461230000"><ele>584</ele><time>2025-12-07T12:13:07Z</time></trkpt>
<trkpt lat="43.0463470000" lon="0.6460920000"><ele>583</ele><time>2025-12-07T12:13:09Z</time></trkpt>
<trkpt lat="43.0463520000" lon="0.6460570000"><ele>582</ele><time>2025-12-07T12:13:12Z</time></trkpt>
<trkpt lat="43.0463650000" lon="0.6460280000"><ele>581</ele><time>2025-12-07T12:13:16Z</time></trkpt>
<trkpt lat="43.0463820000" lon="0.6460150000"><ele>580</ele><time>2025-12-07T12:13:21Z</time></trkpt>
<trkpt lat="43.0463650000" lon="0.6459930000"><ele>579</ele><time>2025-12-07T12:13:25Z</time></trkpt>
<trkpt lat="43.0463600000" lon="0.6459620000"><ele>578</ele><time>2025-12-07T12:13:31Z</time></trkpt>
<trkpt lat="43.0463620000" lon="0.6459270000"><ele>577</ele><time>2025-12-07T12:13:33Z</time></trkpt>
<trkpt lat="43.0463620000" lon="0.6459020000"><ele>577</ele><time>2025-12-07T12:13:34Z</time></trkpt>
<trkpt lat="43.0463650000" lon="0.6458770000"><ele>577</ele><time>2025-12-07T12:13:35Z</time></trkpt>
<trkpt lat="43.0463620000" lon="0.6458520000"><ele>577</ele><time>2025-12-07T12:13:36Z</time></trkpt>
<trkpt lat="43.0463600000" lon="0.6458170000"><ele>577</ele><time>2025-12-07T12:13:38Z</time></trkpt>
<trkpt lat="43.0463620000" lon="0.6457920000"><ele>576</ele><time>2025-12-07T12:13:41Z</time></trkpt>
<trkpt lat="43.0463550000" lon="0.6457670000"><ele>575</ele><time>2025-12-07T12:13:44Z</time></trkpt>
<trkpt lat="43.0463570000" lon="0.6457370000"><ele>574</ele><time>2025-12-07T12:13:47Z</time></trkpt>
<trkpt lat="43.0463620000" lon="0.6457120000"><ele>573</ele><time>2025-12-07T12:13:52Z</time></trkpt>
<trkpt lat="43.0463620000" lon="0.6456830000"><ele>572</ele><time>2025-12-07T12:13:55Z</time></trkpt>
<trkpt lat="43.0463570000" lon="0.6456480000"><ele>571</ele><time>2025-12-07T12:13:58Z</time></trkpt>
<trkpt lat="43.0463570000" lon="0.6456230000"><ele>571</ele><time>2025-12-07T12:14:00Z</time></trkpt>
<trkpt lat="43.0463570000" lon="0.6455900000"><ele>570</ele><time>2025-12-07T12:14:04Z</time></trkpt>
<trkpt lat="43.0463570000" lon="0.6455570000"><ele>570</ele><time>2025-12-07T12:14:07Z</time></trkpt>
<trkpt lat="43.0463550000" lon="0.6455320000"><ele>569</ele><time>2025-12-07T12:14:11Z</time></trkpt>
<trkpt lat="43.0463650000" lon="0.6454950000"><ele>568</ele><time>2025-12-07T12:14:15Z</time></trkpt>
<trkpt lat="43.0463570000" lon="0.6454650000"><ele>567</ele><time>2025-12-07T12:14:17Z</time></trkpt>
<trkpt lat="43.0463470000" lon="0.6454400000"><ele>566</ele><time>2025-12-07T12:14:20Z</time></trkpt>
<trkpt lat="43.0463570000" lon="0.6454130000"><ele>566</ele><time>2025-12-07T12:14:24Z</time></trkpt>
<trkpt lat="43.0463650000" lon="0.6453870000"><ele>565</ele><time>2025-12-07T12:14:30Z</time></trkpt>
<trkpt lat="43.0463770000" lon="0.6453670000"><ele>564</ele><time>2025-12-07T12:14:33Z</time></trkpt>
<trkpt lat="43.0463970000" lon="0.6453650000"><ele>564</ele><time>2025-12-07T12:14:36Z</time></trkpt>
<trkpt lat="43.0463870000" lon="0.6453370000"><ele>562</ele><time>2025-12-07T12:14:42Z</time></trkpt>
<trkpt lat="43.0463770000" lon="0.6453070000"><ele>562</ele><time>2025-12-07T12:14:44Z</time></trkpt>
<trkpt lat="43.0463820000" lon="0.6452820000"><ele>562</ele><time>2025-12-07T12:14:46Z</time></trkpt>
<trkpt lat="43.0463870000" lon="0.6452580000"><ele>561</ele><time>2025-12-07T12:14:48Z</time></trkpt>
<trkpt lat="43.0463870000" lon="0.6452320000"><ele>561</ele><time>2025-12-07T12:14:50Z</time></trkpt>
<trkpt lat="43.0463950000" lon="0.6452070000"><ele>560</ele><time>2025-12-07T12:14:52Z</time></trkpt>
<trkpt lat="43.0464020000" lon="0.6451780000"><ele>559</ele><time>2025-12-07T12:15:02Z</time></trkpt>
<trkpt lat="43.0463850000" lon="0.6451520000"><ele>557</ele><time>2025-12-07T12:15:13Z</time></trkpt>
<trkpt lat="43.0463700000" lon="0.6451270000"><ele>557</ele><time>2025-12-07T12:15:15Z</time></trkpt>
<trkpt lat="43.0463800000" lon="0.6451000000"><ele>557</ele><time>2025-12-07T12:15:19Z</time></trkpt>
<trkpt lat="43.0463820000" lon="0.6450720000"><ele>556</ele><time>2025-12-07T12:15:21Z</time></trkpt>
<trkpt lat="43.0463850000" lon="0.6450420000"><ele>556</ele><time>2025-12-07T12:15:24Z</time></trkpt>
<trkpt lat="43.0463850000" lon="0.6450120000"><ele>555</ele><time>2025-12-07T12:15:26Z</time></trkpt>
<trkpt lat="43.0463850000" lon="0.6449820000"><ele>554</ele><time>2025-12-07T12:15:29Z</time></trkpt>
<trkpt lat="43.0463820000" lon="0.6449570000"><ele>554</ele><time>2025-12-07T12:15:32Z</time></trkpt>
<trkpt lat="43.0463800000" lon="0.6449220000"><ele>552</ele><time>2025-12-07T12:15:35Z</time></trkpt>
<trkpt lat="43.0463720000" lon="0.6448970000"><ele>552</ele><time>2025-12-07T12:15:38Z</time></trkpt>
<trkpt lat="43.0463820000" lon="0.6448720000"><ele>552</ele><time>2025-12-07T12:15:40Z</time></trkpt>
<trkpt lat="43.0463920000" lon="0.6448470000"><ele>551</ele><time>2025-12-07T12:15:43Z</time></trkpt>
<trkpt lat="43.0464050000" lon="0.6448170000"><ele>547</ele><time>2025-12-07T12:16:09Z</time></trkpt>
<trkpt lat="43.0464150000" lon="0.6447730000"><ele>547</ele><time>2025-12-07T12:16:11Z</time></trkpt>
<trkpt lat="43.0464180000" lon="0.6447330000"><ele>547</ele><time>2025-12-07T12:16:13Z</time></trkpt>
<trkpt lat="43.0464150000" lon="0.6447020000"><ele>546</ele><time>2025-12-07T12:16:15Z</time></trkpt>
<trkpt lat="43.0464120000" lon="0.6446750000"><ele>545</ele><time>2025-12-07T12:16:18Z</time></trkpt>
<trkpt lat="43.0464180000" lon="0.6446450000"><ele>545</ele><time>2025-12-07T12:16:22Z</time></trkpt>
<trkpt lat="43.0464070000" lon="0.6446270000"><ele>544</ele><time>2025-12-07T12:16:26Z</time></trkpt>
<trkpt lat="43.0463920000" lon="0.6446120000"><ele>544</ele><time>2025-12-07T12:16:31Z</time></trkpt>
<trkpt lat="43.0463970000" lon="0.6445770000"><ele>541</ele><time>2025-12-07T12:16:59Z</time></trkpt>
<trkpt lat="43.0464050000" lon="0.6445420000"><ele>540</ele><time>2025-12-07T12:17:00Z</time></trkpt>
<trkpt lat="43.0464070000" lon="0.6445100000"><ele>540</ele><time>2025-12-07T12:17:01Z</time></trkpt>
<trkpt lat="43.0464070000" lon="0.6444830000"><ele>540</ele><time>2025-12-07T12:17:02Z</time></trkpt>
<trkpt lat="43.0464070000" lon="0.6444550000"><ele>540</ele><time>2025-12-07T12:17:04Z</time></trkpt>
<trkpt lat="43.0464050000" lon="0.6444220000"><ele>539</ele><time>2025-12-07T12:17:07Z</time></trkpt>
<trkpt lat="43.0464070000" lon="0.6443970000"><ele>539</ele><time>2025-12-07T12:17:10Z</time></trkpt>
<trkpt lat="43.0464170000" lon="0.6443650000"><ele>536</ele><time>2025-12-07T12:17:26Z</time></trkpt>
<trkpt lat="43.0464220000" lon="0.6443170000"><ele>536</ele><time>2025-12-07T12:17:28Z</time></trkpt>
<trkpt lat="43.0464170000" lon="0.6442820000"><ele>535</ele><time>2025-12-07T12:17:30Z</time></trkpt>
<trkpt lat="43.0464180000" lon="0.6442570000"><ele>535</ele><time>2025-12-07T12:17:32Z</time></trkpt>
<trkpt lat="43.0464220000" lon="0.6442270000"><ele>535</ele><time>2025-12-07T12:17:35Z</time></trkpt>
<trkpt lat="43.0464150000" lon="0.6442020000"><ele>534</ele><time>2025-12-07T12:17:39Z</time></trkpt>
<trkpt lat="43.0463920000" lon="0.6442000000"><ele>533</ele><time>2025-12-07T12:17:43Z</time></trkpt>
<trkpt lat="43.0464000000" lon="0.6441580000"><ele>529</ele><time>2025-12-07T12:18:05Z</time></trkpt>
<trkpt lat="43.0464100000" lon="0.6441320000"><ele>529</ele><time>2025-12-07T12:18:06Z</time></trkpt>
<trkpt lat="43.0464220000" lon="0.6441070000"><ele>529</ele><time>2025-12-07T12:18:07Z</time></trkpt>
<trkpt lat="43.0464370000" lon="0.6440700000"><ele>528</ele><time>2025-12-07T12:18:09Z</time></trkpt>
<trkpt lat="43.0464570000" lon="0.6440570000"><ele>528</ele><time>2025-12-07T12:18:12Z</time></trkpt>
<trkpt lat="43.0464770000" lon="0.6440420000"><ele>528</ele><time>2025-12-07T12:18:16Z</time></trkpt>
<trkpt lat="43.0464970000" lon="0.6440380000"><ele>527</ele><time>2025-12-07T12:18:19Z</time></trkpt>
<trkpt lat="43.0464770000" lon="0.6440370000"><ele>526</ele><time>2025-12-07T12:18:36Z</time></trkpt>
<trkpt lat="43.0464650000" lon="0.6440050000"><ele>526</ele><time>2025-12-07T12:18:39Z</time></trkpt>
<trkpt lat="43.0464520000" lon="0.6439800000"><ele>525</ele><time>2025-12-07T12:18:41Z</time></trkpt>
<trkpt lat="43.0464320000" lon="0.6439750000"><ele>525</ele><time>2025-12-07T12:18:46Z</time></trkpt>
<trkpt lat="43.0464100000" lon="0.6439770000"><ele>526</ele><time>2025-12-07T12:18:55Z</time></trkpt>
<trkpt lat="43.0463820000" lon="0.6439770000"><ele>526</ele><time>2025-12-07T12:19:04Z</time></trkpt>
<trkpt lat="43.0463520000" lon="0.6439750000"><ele>526</ele><time>2025-12-07T12:19:06Z</time></trkpt>
<trkpt lat="43.0463250000" lon="0.6439620000"><ele>526</ele><time>2025-12-07T12:19:08Z</time></trkpt>
<trkpt lat="43.0463000000" lon="0.6439570000"><ele>526</ele><time>2025-12-07T12:19:10Z</time></trkpt>
<trkpt lat="43.0462750000" lon="0.6439420000"><ele>527</ele><time>2025-12-07T12:19:13Z</time></trkpt>
<trkpt lat="43.0462550000" lon="0.6439320000"><ele>527</ele><time>2025-12-07T12:19:15Z</time></trkpt>
<trkpt lat="43.0462370000" lon="0.6439150000"><ele>527</ele><time>2025-12-07T12:19:18Z</time></trkpt>
<trkpt lat="43.0462120000" lon="0.6438970000"><ele>527</ele><time>2025-12-07T12:19:21Z</time></trkpt>
<trkpt lat="43.0461900000" lon="0.6438870000"><ele>527</ele><time>2025-12-07T12:19:23Z</time></trkpt>
<trkpt lat="43.0461720000" lon="0.6438700000"><ele>527</ele><time>2025-12-07T12:19:26Z</time></trkpt>
<trkpt lat="43.0461520000" lon="0.6438620000"><ele>527</ele><time>2025-12-07T12:19:28Z</time></trkpt>
<trkpt lat="43.0461350000" lon="0.6438400000"><ele>527</ele><time>2025-12-07T12:19:31Z</time></trkpt>
<trkpt lat="43.0461150000" lon="0.6438220000"><ele>527</ele><time>2025-12-07T12:19:34Z</time></trkpt>
<trkpt lat="43.0460970000" lon="0.6438080000"><ele>527</ele><time>2025-12-07T12:19:36Z</time></trkpt>
<trkpt lat="43.0460770000" lon="0.6437970000"><ele>527</ele><time>2025-12-07T12:19:39Z</time></trkpt>
<trkpt lat="43.0460500000" lon="0.6437880000"><ele>526</ele><time>2025-12-07T12:19:41Z</time></trkpt>
<trkpt lat="43.0460150000" lon="0.6437850000"><ele>526</ele><time>2025-12-07T12:19:43Z</time></trkpt>
<trkpt lat="43.0460020000" lon="0.6437650000"><ele>526</ele><time>2025-12-07T12:19:46Z</time></trkpt>
<trkpt lat="43.0459820000" lon="0.6437520000"><ele>526</ele><time>2025-12-07T12:19:48Z</time></trkpt>
<trkpt lat="43.0459520000" lon="0.6437420000"><ele>526</ele><time>2025-12-07T12:19:50Z</time></trkpt>
<trkpt lat="43.0459270000" lon="0.6437270000"><ele>526</ele><time>2025-12-07T12:19:52Z</time></trkpt>
<trkpt lat="43.0459020000" lon="0.6437220000"><ele>526</ele><time>2025-12-07T12:19:54Z</time></trkpt>
<trkpt lat="43.0458820000" lon="0.6437150000"><ele>526</ele><time>2025-12-07T12:19:55Z</time></trkpt>
<trkpt lat="43.0458520000" lon="0.6436920000"><ele>526</ele><time>2025-12-07T12:19:57Z</time></trkpt>
<trkpt lat="43.0458320000" lon="0.6436870000"><ele>526</ele><time>2025-12-07T12:20:01Z</time></trkpt>
<trkpt lat="43.0458200000" lon="0.6437050000"><ele>526</ele><time>2025-12-07T12:20:04Z</time></trkpt>
<trkpt lat="43.0458020000" lon="0.6437170000"><ele>526</ele><time>2025-12-07T12:20:06Z</time></trkpt>
<trkpt lat="43.0457770000" lon="0.6437250000"><ele>526</ele><time>2025-12-07T12:20:08Z</time></trkpt>
<trkpt lat="43.0457520000" lon="0.6437250000"><ele>526</ele><time>2025-12-07T12:20:11Z</time></trkpt>
<trkpt lat="43.0457320000" lon="0.6437120000"><ele>526</ele><time>2025-12-07T12:20:14Z</time></trkpt>
<trkpt lat="43.0457050000" lon="0.6437000000"><ele>526</ele><time>2025-12-07T12:20:16Z</time></trkpt>
<trkpt lat="43.0456770000" lon="0.6436950000"><ele>526</ele><time>2025-12-07T12:20:18Z</time></trkpt>
<trkpt lat="43.0456520000" lon="0.6436950000"><ele>526</ele><time>2025-12-07T12:20:20Z</time></trkpt>
<trkpt lat="43.0456270000" lon="0.6436850000"><ele>526</ele><time>2025-12-07T12:20:22Z</time></trkpt>
<trkpt lat="43.0456020000" lon="0.6436700000"><ele>526</ele><time>2025-12-07T12:20:24Z</time></trkpt>
<trkpt lat="43.0455750000" lon="0.6436920000"><ele>526</ele><time>2025-12-07T12:20:26Z</time></trkpt>
<trkpt lat="43.0455570000" lon="0.6436950000"><ele>526</ele><time>2025-12-07T12:20:27Z</time></trkpt>
<trkpt lat="43.0455320000" lon="0.6437100000"><ele>526</ele><time>2025-12-07T12:20:29Z</time></trkpt>
<trkpt lat="43.0455120000" lon="0.6437220000"><ele>526</ele><time>2025-12-07T12:20:32Z</time></trkpt>
<trkpt lat="43.0454870000" lon="0.6437150000"><ele>525</ele><time>2025-12-07T12:20:37Z</time></trkpt>
<trkpt lat="43.0454620000" lon="0.6437120000"><ele>525</ele><time>2025-12-07T12:20:39Z</time></trkpt>
<trkpt lat="43.0454370000" lon="0.6437020000"><ele>525</ele><time>2025-12-07T12:20:41Z</time></trkpt>
<trkpt lat="43.0454170000" lon="0.6436970000"><ele>525</ele><time>2025-12-07T12:20:43Z</time></trkpt>
<trkpt lat="43.0453950000" lon="0.6436730000"><ele>525</ele><time>2025-12-07T12:20:45Z</time></trkpt>
<trkpt lat="43.0453750000" lon="0.6436670000"><ele>525</ele><time>2025-12-07T12:20:47Z</time></trkpt>
<trkpt lat="43.0453520000" lon="0.6436570000"><ele>525</ele><time>2025-12-07T12:20:49Z</time></trkpt>
<trkpt lat="43.0453220000" lon="0.6436400000"><ele>524</ele><time>2025-12-07T12:20:53Z</time></trkpt>
<trkpt lat="43.0452970000" lon="0.6436330000"><ele>523</ele><time>2025-12-07T12:20:55Z</time></trkpt>
<trkpt lat="43.0452820000" lon="0.6436220000"><ele>523</ele><time>2025-12-07T12:20:57Z</time></trkpt>
<trkpt lat="43.0452520000" lon="0.6436300000"><ele>523</ele><time>2025-12-07T12:21:00Z</time></trkpt>
<trkpt lat="43.0452300000" lon="0.6436370000"><ele>523</ele><time>2025-12-07T12:21:02Z</time></trkpt>
<trkpt lat="43.0452080000" lon="0.6436400000"><ele>523</ele><time>2025-12-07T12:21:05Z</time></trkpt>
<trkpt lat="43.0451770000" lon="0.6436270000"><ele>522</ele><time>2025-12-07T12:21:08Z</time></trkpt>
<trkpt lat="43.0451550000" lon="0.6436070000"><ele>522</ele><time>2025-12-07T12:21:10Z</time></trkpt>
<trkpt lat="43.0451350000" lon="0.6435920000"><ele>521</ele><time>2025-12-07T12:21:12Z</time></trkpt>
<trkpt lat="43.0451100000" lon="0.6435770000"><ele>521</ele><time>2025-12-07T12:21:14Z</time></trkpt>
<trkpt lat="43.0450850000" lon="0.6435820000"><ele>521</ele><time>2025-12-07T12:21:16Z</time></trkpt>
<trkpt lat="43.0450570000" lon="0.6436020000"><ele>521</ele><time>2025-12-07T12:21:18Z</time></trkpt>
<trkpt lat="43.0450370000" lon="0.6436120000"><ele>521</ele><time>2025-12-07T12:21:20Z</time></trkpt>
<trkpt lat="43.0450200000" lon="0.6435980000"><ele>520</ele><time>2025-12-07T12:21:22Z</time></trkpt>
<trkpt lat="43.0449950000" lon="0.6435870000"><ele>520</ele><time>2025-12-07T12:21:25Z</time></trkpt>
<trkpt lat="43.0449670000" lon="0.6435920000"><ele>520</ele><time>2025-12-07T12:21:28Z</time></trkpt>
<trkpt lat="43.0449370000" lon="0.6435920000"><ele>520</ele><time>2025-12-07T12:21:30Z</time></trkpt>
<trkpt lat="43.0449170000" lon="0.6435820000"><ele>519</ele><time>2025-12-07T12:21:32Z</time></trkpt>
<trkpt lat="43.0448970000" lon="0.6435700000"><ele>519</ele><time>2025-12-07T12:21:34Z</time></trkpt>
<trkpt lat="43.0448750000" lon="0.6435600000"><ele>519</ele><time>2025-12-07T12:21:37Z</time></trkpt>
<trkpt lat="43.0448520000" lon="0.6435620000"><ele>518</ele><time>2025-12-07T12:21:39Z</time></trkpt>
<trkpt lat="43.0448370000" lon="0.6435750000"><ele>518</ele><time>2025-12-07T12:21:40Z</time></trkpt>
<trkpt lat="43.0448120000" lon="0.6435820000"><ele>518</ele><time>2025-12-07T12:21:42Z</time></trkpt>
<trkpt lat="43.0447920000" lon="0.6435870000"><ele>518</ele><time>2025-12-07T12:21:43Z</time></trkpt>
<trkpt lat="43.0447700000" lon="0.6435870000"><ele>517</ele><time>2025-12-07T12:21:45Z</time></trkpt>
<trkpt lat="43.0447470000" lon="0.6435970000"><ele>517</ele><time>2025-12-07T12:21:48Z</time></trkpt>
<trkpt lat="43.0447270000" lon="0.6436020000"><ele>516</ele><time>2025-12-07T12:21:52Z</time></trkpt>
<trkpt lat="43.0447070000" lon="0.6435950000"><ele>516</ele><time>2025-12-07T12:21:54Z</time></trkpt>
<trkpt lat="43.0446820000" lon="0.6435970000"><ele>516</ele><time>2025-12-07T12:21:56Z</time></trkpt>
<trkpt lat="43.0446650000" lon="0.6435970000"><ele>516</ele><time>2025-12-07T12:21:58Z</time></trkpt>
<trkpt lat="43.0446420000" lon="0.6435920000"><ele>515</ele><time>2025-12-07T12:21:59Z</time></trkpt>
<trkpt lat="43.0446250000" lon="0.6435920000"><ele>515</ele><time>2025-12-07T12:22:01Z</time></trkpt>
<trkpt lat="43.0446020000" lon="0.6435870000"><ele>514</ele><time>2025-12-07T12:22:05Z</time></trkpt>
<trkpt lat="43.0445770000" lon="0.6435770000"><ele>513</ele><time>2025-12-07T12:22:08Z</time></trkpt>
<trkpt lat="43.0445520000" lon="0.6435570000"><ele>513</ele><time>2025-12-07T12:22:10Z</time></trkpt>
<trkpt lat="43.0445320000" lon="0.6435420000"><ele>513</ele><time>2025-12-07T12:22:12Z</time></trkpt>
<trkpt lat="43.0445050000" lon="0.6435380000"><ele>512</ele><time>2025-12-07T12:22:15Z</time></trkpt>
<trkpt lat="43.0444820000" lon="0.6435220000"><ele>511</ele><time>2025-12-07T12:22:18Z</time></trkpt>
<trkpt lat="43.0444670000" lon="0.6435050000"><ele>511</ele><time>2025-12-07T12:22:21Z</time></trkpt>
<trkpt lat="43.0444550000" lon="0.6434720000"><ele>510</ele><time>2025-12-07T12:22:24Z</time></trkpt>
<trkpt lat="43.0444220000" lon="0.6434470000"><ele>510</ele><time>2025-12-07T12:22:27Z</time></trkpt>
<trkpt lat="43.0444070000" lon="0.6434320000"><ele>509</ele><time>2025-12-07T12:22:29Z</time></trkpt>
<trkpt lat="43.0443780000" lon="0.6434270000"><ele>509</ele><time>2025-12-07T12:22:31Z</time></trkpt>
<trkpt lat="43.0443620000" lon="0.6434170000"><ele>509</ele><time>2025-12-07T12:22:32Z</time></trkpt>
<trkpt lat="43.0443320000" lon="0.6434030000"><ele>508</ele><time>2025-12-07T12:22:34Z</time></trkpt>
<trkpt lat="43.0443120000" lon="0.6434070000"><ele>507</ele><time>2025-12-07T12:22:36Z</time></trkpt>
<trkpt lat="43.0442900000" lon="0.6434120000"><ele>507</ele><time>2025-12-07T12:22:40Z</time></trkpt>
<trkpt lat="43.0442670000" lon="0.6433950000"><ele>506</ele><time>2025-12-07T12:22:43Z</time></trkpt>
<trkpt lat="43.0442450000" lon="0.6433800000"><ele>505</ele><time>2025-12-07T12:22:47Z</time></trkpt>
<trkpt lat="43.0442170000" lon="0.6433670000"><ele>505</ele><time>2025-12-07T12:22:49Z</time></trkpt>
<trkpt lat="43.0441970000" lon="0.6433570000"><ele>504</ele><time>2025-12-07T12:22:52Z</time></trkpt>
<trkpt lat="43.0441800000" lon="0.6433420000"><ele>504</ele><time>2025-12-07T12:22:55Z</time></trkpt>
<trkpt lat="43.0441670000" lon="0.6433270000"><ele>503</ele><time>2025-12-07T12:22:58Z</time></trkpt>
<trkpt lat="43.0441570000" lon="0.6433550000"><ele>502</ele><time>2025-12-07T12:23:09Z</time></trkpt>
<trkpt lat="43.0441520000" lon="0.6433800000"><ele>502</ele><time>2025-12-07T12:23:10Z</time></trkpt>
<trkpt lat="43.0441370000" lon="0.6434070000"><ele>502</ele><time>2025-12-07T12:23:14Z</time></trkpt>
<trkpt lat="43.0441300000" lon="0.6434320000"><ele>502</ele><time>2025-12-07T12:23:16Z</time></trkpt>
<trkpt lat="43.0441150000" lon="0.6434600000"><ele>502</ele><time>2025-12-07T12:23:18Z</time></trkpt>
<trkpt lat="43.0441020000" lon="0.6434920000"><ele>502</ele><time>2025-12-07T12:23:20Z</time></trkpt>
<trkpt lat="43.0440920000" lon="0.6435270000"><ele>502</ele><time>2025-12-07T12:23:23Z</time></trkpt>
<trkpt lat="43.0440820000" lon="0.6435570000"><ele>502</ele><time>2025-12-07T12:23:25Z</time></trkpt>
<trkpt lat="43.0440720000" lon="0.6435770000"><ele>502</ele><time>2025-12-07T12:23:27Z</time></trkpt>
<trkpt lat="43.0440520000" lon="0.6436020000"><ele>502</ele><time>2025-12-07T12:23:29Z</time></trkpt>
<trkpt lat="43.0440320000" lon="0.6436300000"><ele>502</ele><time>2025-12-07T12:23:31Z</time></trkpt>
<trkpt lat="43.0440050000" lon="0.6436500000"><ele>502</ele><time>2025-12-07T12:23:33Z</time></trkpt>
<trkpt lat="43.0439850000" lon="0.6436720000"><ele>502</ele><time>2025-12-07T12:23:35Z</time></trkpt>
<trkpt lat="43.0439620000" lon="0.6437020000"><ele>502</ele><time>2025-12-07T12:23:37Z</time></trkpt>
<trkpt lat="43.0439520000" lon="0.6437370000"><ele>502</ele><time>2025-12-07T12:23:39Z</time></trkpt>
<trkpt lat="43.0439320000" lon="0.6437650000"><ele>502</ele><time>2025-12-07T12:23:41Z</time></trkpt>
<trkpt lat="43.0439130000" lon="0.6437850000"><ele>502</ele><time>2025-12-07T12:23:44Z</time></trkpt>
<trkpt lat="43.0439020000" lon="0.6438050000"><ele>502</ele><time>2025-12-07T12:23:45Z</time></trkpt>
<trkpt lat="43.0438800000" lon="0.6438270000"><ele>502</ele><time>2025-12-07T12:23:47Z</time></trkpt>
<trkpt lat="43.0438750000" lon="0.6438570000"><ele>502</ele><time>2025-12-07T12:23:49Z</time></trkpt>
<trkpt lat="43.0438570000" lon="0.6438870000"><ele>502</ele><time>2025-12-07T12:23:52Z</time></trkpt>
<trkpt lat="43.0438420000" lon="0.6439150000"><ele>502</ele><time>2025-12-07T12:23:54Z</time></trkpt>
<trkpt lat="43.0438320000" lon="0.6439470000"><ele>502</ele><time>2025-12-07T12:23:56Z</time></trkpt>
<trkpt lat="43.0438070000" lon="0.6439720000"><ele>502</ele><time>2025-12-07T12:23:58Z</time></trkpt>
<trkpt lat="43.0437900000" lon="0.6439970000"><ele>502</ele><time>2025-12-07T12:24:00Z</time></trkpt>
<trkpt lat="43.0437770000" lon="0.6440230000"><ele>502</ele><time>2025-12-07T12:24:02Z</time></trkpt>
<trkpt lat="43.0437550000" lon="0.6440500000"><ele>502</ele><time>2025-12-07T12:24:06Z</time></trkpt>
<trkpt lat="43.0437400000" lon="0.6440870000"><ele>501</ele><time>2025-12-07T12:24:08Z</time></trkpt>
<trkpt lat="43.0437220000" lon="0.6441070000"><ele>501</ele><time>2025-12-07T12:24:10Z</time></trkpt>
<trkpt lat="43.0437020000" lon="0.6441400000"><ele>501</ele><time>2025-12-07T12:24:12Z</time></trkpt>
<trkpt lat="43.0436770000" lon="0.6441620000"><ele>501</ele><time>2025-12-07T12:24:13Z</time></trkpt>
<trkpt lat="43.0436550000" lon="0.6441920000"><ele>501</ele><time>2025-12-07T12:24:15Z</time></trkpt>
<trkpt lat="43.0436370000" lon="0.6442050000"><ele>501</ele><time>2025-12-07T12:24:16Z</time></trkpt>
<trkpt lat="43.0436250000" lon="0.6442320000"><ele>501</ele><time>2025-12-07T12:24:18Z</time></trkpt>
<trkpt lat="43.0436070000" lon="0.6442670000"><ele>501</ele><time>2025-12-07T12:24:20Z</time></trkpt>
<trkpt lat="43.0435920000" lon="0.6442820000"><ele>501</ele><time>2025-12-07T12:24:22Z</time></trkpt>
<trkpt lat="43.0435870000" lon="0.6443170000"><ele>501</ele><time>2025-12-07T12:24:24Z</time></trkpt>
<trkpt lat="43.0435850000" lon="0.6443480000"><ele>501</ele><time>2025-12-07T12:24:26Z</time></trkpt>
<trkpt lat="43.0435820000" lon="0.6443800000"><ele>501</ele><time>2025-12-07T12:24:28Z</time></trkpt>
<trkpt lat="43.0435620000" lon="0.6444000000"><ele>501</ele><time>2025-12-07T12:24:30Z</time></trkpt>
<trkpt lat="43.0435420000" lon="0.6444270000"><ele>501</ele><time>2025-12-07T12:24:32Z</time></trkpt>
<trkpt lat="43.0435270000" lon="0.6444570000"><ele>501</ele><time>2025-12-07T12:24:34Z</time></trkpt>
<trkpt lat="43.0435170000" lon="0.6444830000"><ele>501</ele><time>2025-12-07T12:24:36Z</time></trkpt>
<trkpt lat="43.0435150000" lon="0.6445130000"><ele>501</ele><time>2025-12-07T12:24:38Z</time></trkpt>
<trkpt lat="43.0435020000" lon="0.6445550000"><ele>502</ele><time>2025-12-07T12:24:41Z</time></trkpt>
<trkpt lat="43.0434970000" lon="0.6445920000"><ele>502</ele><time>2025-12-07T12:24:43Z</time></trkpt>
<trkpt lat="43.0435070000" lon="0.6446250000"><ele>501</ele><time>2025-12-07T12:24:45Z</time></trkpt>
<trkpt lat="43.0435150000" lon="0.6446720000"><ele>501</ele><time>2025-12-07T12:24:47Z</time></trkpt>
<trkpt lat="43.0434920000" lon="0.6447050000"><ele>501</ele><time>2025-12-07T12:24:50Z</time></trkpt>
<trkpt lat="43.0434770000" lon="0.6447420000"><ele>501</ele><time>2025-12-07T12:24:52Z</time></trkpt>
<trkpt lat="43.0434630000" lon="0.6447670000"><ele>501</ele><time>2025-12-07T12:24:53Z</time></trkpt>
<trkpt lat="43.0434500000" lon="0.6447970000"><ele>501</ele><time>2025-12-07T12:24:54Z</time></trkpt>
<trkpt lat="43.0434500000" lon="0.6448420000"><ele>501</ele><time>2025-12-07T12:24:56Z</time></trkpt>
<trkpt lat="43.0434450000" lon="0.6448670000"><ele>501</ele><time>2025-12-07T12:24:59Z</time></trkpt>
<trkpt lat="43.0434350000" lon="0.6449070000"><ele>501</ele><time>2025-12-07T12:25:02Z</time></trkpt>
<trkpt lat="43.0434220000" lon="0.6449320000"><ele>501</ele><time>2025-12-07T12:25:04Z</time></trkpt>
<trkpt lat="43.0434020000" lon="0.6449570000"><ele>501</ele><time>2025-12-07T12:25:06Z</time></trkpt>
<trkpt lat="43.0433970000" lon="0.6449820000"><ele>501</ele><time>2025-12-07T12:25:08Z</time></trkpt>
<trkpt lat="43.0433920000" lon="0.6450070000"><ele>500</ele><time>2025-12-07T12:25:10Z</time></trkpt>
<trkpt lat="43.0433820000" lon="0.6450350000"><ele>500</ele><time>2025-12-07T12:25:12Z</time></trkpt>
<trkpt lat="43.0433670000" lon="0.6450570000"><ele>501</ele><time>2025-12-07T12:25:14Z</time></trkpt>
<trkpt lat="43.0433470000" lon="0.6450670000"><ele>501</ele><time>2025-12-07T12:25:15Z</time></trkpt>
<trkpt lat="43.0433250000" lon="0.6450820000"><ele>500</ele><time>2025-12-07T12:25:17Z</time></trkpt>
<trkpt lat="43.0433000000" lon="0.6451080000"><ele>500</ele><time>2025-12-07T12:25:19Z</time></trkpt>
<trkpt lat="43.0432900000" lon="0.6451470000"><ele>500</ele><time>2025-12-07T12:25:21Z</time></trkpt>
<trkpt lat="43.0432800000" lon="0.6451770000"><ele>500</ele><time>2025-12-07T12:25:23Z</time></trkpt>
<trkpt lat="43.0432670000" lon="0.6451980000"><ele>500</ele><time>2025-12-07T12:25:25Z</time></trkpt>
<trkpt lat="43.0432500000" lon="0.6452080000"><ele>500</ele><time>2025-12-07T12:25:27Z</time></trkpt>
<trkpt lat="43.0432320000" lon="0.6452370000"><ele>499</ele><time>2025-12-07T12:25:29Z</time></trkpt>
<trkpt lat="43.0432220000" lon="0.6452620000"><ele>499</ele><time>2025-12-07T12:25:31Z</time></trkpt>
<trkpt lat="43.0432070000" lon="0.6452770000"><ele>499</ele><time>2025-12-07T12:25:33Z</time></trkpt>
<trkpt lat="43.0432020000" lon="0.6453070000"><ele>499</ele><time>2025-12-07T12:25:35Z</time></trkpt>
<trkpt lat="43.0431870000" lon="0.6453370000"><ele>499</ele><time>2025-12-07T12:25:37Z</time></trkpt>
<trkpt lat="43.0431750000" lon="0.6453650000"><ele>499</ele><time>2025-12-07T12:25:39Z</time></trkpt>
<trkpt lat="43.0431570000" lon="0.6453820000"><ele>499</ele><time>2025-12-07T12:25:41Z</time></trkpt>
<trkpt lat="43.0431300000" lon="0.6454020000"><ele>498</ele><time>2025-12-07T12:25:43Z</time></trkpt>
<trkpt lat="43.0431120000" lon="0.6454070000"><ele>498</ele><time>2025-12-07T12:25:45Z</time></trkpt>
<trkpt lat="43.0431020000" lon="0.6454370000"><ele>498</ele><time>2025-12-07T12:25:49Z</time></trkpt>
<trkpt lat="43.0430870000" lon="0.6454550000"><ele>498</ele><time>2025-12-07T12:25:52Z</time></trkpt>
<trkpt lat="43.0430670000" lon="0.6454770000"><ele>498</ele><time>2025-12-07T12:25:56Z</time></trkpt>
<trkpt lat="43.0430520000" lon="0.6454970000"><ele>497</ele><time>2025-12-07T12:25:58Z</time></trkpt>
<trkpt lat="43.0430350000" lon="0.6455200000"><ele>497</ele><time>2025-12-07T12:26:00Z</time></trkpt>
<trkpt lat="43.0430200000" lon="0.6455470000"><ele>497</ele><time>2025-12-07T12:26:02Z</time></trkpt>
<trkpt lat="43.0429970000" lon="0.6455750000"><ele>497</ele><time>2025-12-07T12:26:04Z</time></trkpt>
<trkpt lat="43.0429750000" lon="0.6456020000"><ele>497</ele><time>2025-12-07T12:26:06Z</time></trkpt>
<trkpt lat="43.0429570000" lon="0.6456200000"><ele>497</ele><time>2025-12-07T12:26:08Z</time></trkpt>
<trkpt lat="43.0429420000" lon="0.6456420000"><ele>497</ele><time>2025-12-07T12:26:10Z</time></trkpt>
<trkpt lat="43.0429250000" lon="0.6456670000"><ele>497</ele><time>2025-12-07T12:26:12Z</time></trkpt>
<trkpt lat="43.0429100000" lon="0.6456870000"><ele>497</ele><time>2025-12-07T12:26:14Z</time></trkpt>
<trkpt lat="43.0428970000" lon="0.6457070000"><ele>497</ele><time>2025-12-07T12:26:16Z</time></trkpt>
<trkpt lat="43.0429020000" lon="0.6457320000"><ele>497</ele><time>2025-12-07T12:26:18Z</time></trkpt>
<trkpt lat="43.0428850000" lon="0.6457570000"><ele>497</ele><time>2025-12-07T12:26:20Z</time></trkpt>
<trkpt lat="43.0428570000" lon="0.6457850000"><ele>497</ele><time>2025-12-07T12:26:22Z</time></trkpt>
<trkpt lat="43.0428420000" lon="0.6458000000"><ele>497</ele><time>2025-12-07T12:26:23Z</time></trkpt>
<trkpt lat="43.0428270000" lon="0.6458170000"><ele>497</ele><time>2025-12-07T12:26:24Z</time></trkpt>
<trkpt lat="43.0428020000" lon="0.6458320000"><ele>497</ele><time>2025-12-07T12:26:26Z</time></trkpt>
<trkpt lat="43.0427850000" lon="0.6458470000"><ele>496</ele><time>2025-12-07T12:26:28Z</time></trkpt>
<trkpt lat="43.0427720000" lon="0.6458800000"><ele>497</ele><time>2025-12-07T12:26:31Z</time></trkpt>
<trkpt lat="43.0427570000" lon="0.6459100000"><ele>497</ele><time>2025-12-07T12:26:33Z</time></trkpt>
<trkpt lat="43.0427400000" lon="0.6459320000"><ele>496</ele><time>2025-12-07T12:26:35Z</time></trkpt>
<trkpt lat="43.0427150000" lon="0.6459650000"><ele>496</ele><time>2025-12-07T12:26:37Z</time></trkpt>
<trkpt lat="43.0426900000" lon="0.6459930000"><ele>496</ele><time>2025-12-07T12:26:39Z</time></trkpt>
<trkpt lat="43.0426720000" lon="0.6460170000"><ele>495</ele><time>2025-12-07T12:26:41Z</time></trkpt>
<trkpt lat="43.0426550000" lon="0.6460270000"><ele>495</ele><time>2025-12-07T12:26:43Z</time></trkpt>
<trkpt lat="43.0426370000" lon="0.6460120000"><ele>495</ele><time>2025-12-07T12:27:23Z</time></trkpt>
<trkpt lat="43.0426120000" lon="0.6460370000"><ele>495</ele><time>2025-12-07T12:27:30Z</time></trkpt>
<trkpt lat="43.0425920000" lon="0.6460670000"><ele>495</ele><time>2025-12-07T12:27:32Z</time></trkpt>
<trkpt lat="43.0425750000" lon="0.6460870000"><ele>495</ele><time>2025-12-07T12:27:34Z</time></trkpt>
<trkpt lat="43.0425670000" lon="0.6461120000"><ele>495</ele><time>2025-12-07T12:27:36Z</time></trkpt>
<trkpt lat="43.0425500000" lon="0.6461280000"><ele>495</ele><time>2025-12-07T12:27:38Z</time></trkpt>
<trkpt lat="43.0425370000" lon="0.6461470000"><ele>495</ele><time>2025-12-07T12:27:40Z</time></trkpt>
<trkpt lat="43.0425220000" lon="0.6461700000"><ele>495</ele><time>2025-12-07T12:27:42Z</time></trkpt>
<trkpt lat="43.0425170000" lon="0.6461950000"><ele>494</ele><time>2025-12-07T12:27:51Z</time></trkpt>
<trkpt lat="43.0424970000" lon="0.6462200000"><ele>494</ele><time>2025-12-07T12:28:11Z</time></trkpt>
<trkpt lat="43.0424700000" lon="0.6462420000"><ele>494</ele><time>2025-12-07T12:28:13Z</time></trkpt>
<trkpt lat="43.0424450000" lon="0.6462750000"><ele>493</ele><time>2025-12-07T12:28:15Z</time></trkpt>
<trkpt lat="43.0424250000" lon="0.6463020000"><ele>494</ele><time>2025-12-07T12:28:17Z</time></trkpt>
<trkpt lat="43.0424070000" lon="0.6463270000"><ele>493</ele><time>2025-12-07T12:28:19Z</time></trkpt>
<trkpt lat="43.0423870000" lon="0.6463420000"><ele>493</ele><time>2025-12-07T12:28:21Z</time></trkpt>
<trkpt lat="43.0423720000" lon="0.6463570000"><ele>494</ele><time>2025-12-07T12:28:23Z</time></trkpt>
<trkpt lat="43.0423550000" lon="0.6463720000"><ele>493</ele><time>2025-12-07T12:28:25Z</time></trkpt>
<trkpt lat="43.0423350000" lon="0.6463900000"><ele>493</ele><time>2025-12-07T12:28:27Z</time></trkpt>
<trkpt lat="43.0423120000" lon="0.6464070000"><ele>493</ele><time>2025-12-07T12:28:29Z</time></trkpt>
<trkpt lat="43.0422900000" lon="0.6464170000"><ele>493</ele><time>2025-12-07T12:28:31Z</time></trkpt>
<trkpt lat="43.0422650000" lon="0.6464220000"><ele>494</ele><time>2025-12-07T12:28:33Z</time></trkpt>
<trkpt lat="43.0422420000" lon="0.6464250000"><ele>493</ele><time>2025-12-07T12:28:35Z</time></trkpt>
<trkpt lat="43.0422250000" lon="0.6464420000"><ele>493</ele><time>2025-12-07T12:28:37Z</time></trkpt>
<trkpt lat="43.0422070000" lon="0.6464530000"><ele>493</ele><time>2025-12-07T12:28:39Z</time></trkpt>
<trkpt lat="43.0421770000" lon="0.6464700000"><ele>493</ele><time>2025-12-07T12:28:41Z</time></trkpt>
<trkpt lat="43.0421520000" lon="0.6464870000"><ele>493</ele><time>2025-12-07T12:28:43Z</time></trkpt>
<trkpt lat="43.0421250000" lon="0.6464980000"><ele>493</ele><time>2025-12-07T12:28:45Z</time></trkpt>
<trkpt lat="43.0420970000" lon="0.6465050000"><ele>493</ele><time>2025-12-07T12:28:47Z</time></trkpt>
<trkpt lat="43.0420720000" lon="0.6465100000"><ele>492</ele><time>2025-12-07T12:28:49Z</time></trkpt>
<trkpt lat="43.0420520000" lon="0.6465130000"><ele>492</ele><time>2025-12-07T12:28:51Z</time></trkpt>
<trkpt lat="43.0420270000" lon="0.6465250000"><ele>492</ele><time>2025-12-07T12:28:53Z</time></trkpt>
<trkpt lat="43.0420020000" lon="0.6465320000"><ele>492</ele><time>2025-12-07T12:28:55Z</time></trkpt>
<trkpt lat="43.0419770000" lon="0.6465370000"><ele>492</ele><time>2025-12-07T12:28:57Z</time></trkpt>
<trkpt lat="43.0419570000" lon="0.6465450000"><ele>492</ele><time>2025-12-07T12:28:59Z</time></trkpt>
<trkpt lat="43.0419370000" lon="0.6465570000"><ele>491</ele><time>2025-12-07T12:29:01Z</time></trkpt>
<trkpt lat="43.0419120000" lon="0.6465750000"><ele>491</ele><time>2025-12-07T12:29:03Z</time></trkpt>
<trkpt lat="43.0418920000" lon="0.6465880000"><ele>491</ele><time>2025-12-07T12:29:05Z</time></trkpt>
<trkpt lat="43.0418720000" lon="0.6466020000"><ele>491</ele><time>2025-12-07T12:29:07Z</time></trkpt>
<trkpt lat="43.0418520000" lon="0.6466200000"><ele>491</ele><time>2025-12-07T12:29:09Z</time></trkpt>
<trkpt lat="43.0418350000" lon="0.6466400000"><ele>491</ele><time>2025-12-07T12:29:11Z</time></trkpt>
<trkpt lat="43.0418170000" lon="0.6466650000"><ele>491</ele><time>2025-12-07T12:29:13Z</time></trkpt>
<trkpt lat="43.0418020000" lon="0.6466920000"><ele>491</ele><time>2025-12-07T12:29:15Z</time></trkpt>
<trkpt lat="43.0417820000" lon="0.6467170000"><ele>491</ele><time>2025-12-07T12:29:17Z</time></trkpt>
<trkpt lat="43.0417700000" lon="0.6467420000"><ele>491</ele><time>2025-12-07T12:29:19Z</time></trkpt>
<trkpt lat="43.0417520000" lon="0.6467680000"><ele>491</ele><time>2025-12-07T12:29:21Z</time></trkpt>
<trkpt lat="43.0417400000" lon="0.6467970000"><ele>491</ele><time>2025-12-07T12:29:23Z</time></trkpt>
<trkpt lat="43.0417270000" lon="0.6468220000"><ele>490</ele><time>2025-12-07T12:29:25Z</time></trkpt>
<trkpt lat="43.0417100000" lon="0.6468470000"><ele>490</ele><time>2025-12-07T12:29:27Z</time></trkpt>
<trkpt lat="43.0417000000" lon="0.6468770000"><ele>490</ele><time>2025-12-07T12:29:29Z</time></trkpt>
<trkpt lat="43.0416870000" lon="0.6469070000"><ele>490</ele><time>2025-12-07T12:29:31Z</time></trkpt>
<trkpt lat="43.0416770000" lon="0.6469350000"><ele>490</ele><time>2025-12-07T12:29:33Z</time></trkpt>
<trkpt lat="43.0416620000" lon="0.6469620000"><ele>490</ele><time>2025-12-07T12:29:35Z</time></trkpt>
<trkpt lat="43.0416470000" lon="0.6469920000"><ele>490</ele><time>2025-12-07T12:29:37Z</time></trkpt>
<trkpt lat="43.0416320000" lon="0.6470200000"><ele>490</ele><time>2025-12-07T12:29:39Z</time></trkpt>
<trkpt lat="43.0416150000" lon="0.6470420000"><ele>490</ele><time>2025-12-07T12:29:41Z</time></trkpt>
<trkpt lat="43.0416020000" lon="0.6470720000"><ele>490</ele><time>2025-12-07T12:29:43Z</time></trkpt>
<trkpt lat="43.0415920000" lon="0.6470970000"><ele>490</ele><time>2025-12-07T12:29:45Z</time></trkpt>
<trkpt lat="43.0415770000" lon="0.6471200000"><ele>490</ele><time>2025-12-07T12:29:47Z</time></trkpt>
<trkpt lat="43.0415620000" lon="0.6471450000"><ele>490</ele><time>2025-12-07T12:29:49Z</time></trkpt>
<trkpt lat="43.0415450000" lon="0.6471700000"><ele>489</ele><time>2025-12-07T12:29:51Z</time></trkpt>
<trkpt lat="43.0415320000" lon="0.6471930000"><ele>490</ele><time>2025-12-07T12:29:53Z</time></trkpt>
<trkpt lat="43.0415220000" lon="0.6472270000"><ele>489</ele><time>2025-12-07T12:29:55Z</time></trkpt>
<trkpt lat="43.0415150000" lon="0.6472600000"><ele>490</ele><time>2025-12-07T12:29:57Z</time></trkpt>
<trkpt lat="43.0415000000" lon="0.6472870000"><ele>490</ele><time>2025-12-07T12:29:59Z</time></trkpt>
<trkpt lat="43.0414850000" lon="0.6473120000"><ele>490</ele><time>2025-12-07T12:30:01Z</time></trkpt>
<trkpt lat="43.0414670000" lon="0.6473370000"><ele>489</ele><time>2025-12-07T12:30:03Z</time></trkpt>
<trkpt lat="43.0414470000" lon="0.6473620000"><ele>490</ele><time>2025-12-07T12:30:05Z</time></trkpt>
<trkpt lat="43.0414320000" lon="0.6473820000"><ele>489</ele><time>2025-12-07T12:30:07Z</time></trkpt>
<trkpt lat="43.0414170000" lon="0.6474070000"><ele>490</ele><time>2025-12-07T12:30:09Z</time></trkpt>
<trkpt lat="43.0414020000" lon="0.6474370000"><ele>489</ele><time>2025-12-07T12:30:11Z</time></trkpt>
<trkpt lat="43.0413900000" lon="0.6474620000"><ele>489</ele><time>2025-12-07T12:30:13Z</time></trkpt>
<trkpt lat="43.0413770000" lon="0.6474920000"><ele>489</ele><time>2025-12-07T12:30:15Z</time></trkpt>
<trkpt lat="43.0413620000" lon="0.6475170000"><ele>489</ele><time>2025-12-07T12:30:17Z</time></trkpt>
<trkpt lat="43.0413470000" lon="0.6475400000"><ele>489</ele><time>2025-12-07T12:30:19Z</time></trkpt>
<trkpt lat="43.0413320000" lon="0.6475700000"><ele>489</ele><time>2025-12-07T12:30:21Z</time></trkpt>
<trkpt lat="43.0413200000" lon="0.6475970000"><ele>489</ele><time>2025-12-07T12:30:23Z</time></trkpt>
<trkpt lat="43.0413070000" lon="0.6476270000"><ele>489</ele><time>2025-12-07T12:30:25Z</time></trkpt>
<trkpt lat="43.0412950000" lon="0.6476570000"><ele>489</ele><time>2025-12-07T12:30:27Z</time></trkpt>
<trkpt lat="43.0412820000" lon="0.6476850000"><ele>489</ele><time>2025-12-07T12:30:29Z</time></trkpt>
<trkpt lat="43.0412720000" lon="0.6477120000"><ele>489</ele><time>2025-12-07T12:30:31Z</time></trkpt>
<trkpt lat="43.0412570000" lon="0.6477370000"><ele>489</ele><time>2025-12-07T12:30:33Z</time></trkpt>
<trkpt lat="43.0412420000" lon="0.6477650000"><ele>489</ele><time>2025-12-07T12:30:35Z</time></trkpt>
<trkpt lat="43.0412300000" lon="0.6477970000"><ele>489</ele><time>2025-12-07T12:30:37Z</time></trkpt>
<trkpt lat="43.0412170000" lon="0.6478270000"><ele>489</ele><time>2025-12-07T12:30:39Z</time></trkpt>
<trkpt lat="43.0412020000" lon="0.6478500000"><ele>489</ele><time>2025-12-07T12:30:41Z</time></trkpt>
<trkpt lat="43.0411870000" lon="0.6478680000"><ele>489</ele><time>2025-12-07T12:30:43Z</time></trkpt>
<trkpt lat="43.0411700000" lon="0.6478950000"><ele>489</ele><time>2025-12-07T12:30:45Z</time></trkpt>
<trkpt lat="43.0411570000" lon="0.6479220000"><ele>488</ele><time>2025-12-07T12:30:47Z</time></trkpt>
<trkpt lat="43.0411420000" lon="0.6479500000"><ele>488</ele><time>2025-12-07T12:30:49Z</time></trkpt>
<trkpt lat="43.0411270000" lon="0.6479770000"><ele>488</ele><time>2025-12-07T12:30:51Z</time></trkpt>
<trkpt lat="43.0411120000" lon="0.6480020000"><ele>488</ele><time>2025-12-07T12:30:53Z</time></trkpt>
<trkpt lat="43.0410970000" lon="0.6480220000"><ele>488</ele><time>2025-12-07T12:30:55Z</time></trkpt>
<trkpt lat="43.0410820000" lon="0.6480420000"><ele>488</ele><time>2025-12-07T12:30:57Z</time></trkpt>
<trkpt lat="43.0410620000" lon="0.6480520000"><ele>488</ele><time>2025-12-07T12:30:59Z</time></trkpt>
<trkpt lat="43.0410400000" lon="0.6480650000"><ele>489</ele><time>2025-12-07T12:31:01Z</time></trkpt>
<trkpt lat="43.0410200000" lon="0.6480770000"><ele>489</ele><time>2025-12-07T12:31:03Z</time></trkpt>
<trkpt lat="43.0409970000" lon="0.6480920000"><ele>489</ele><time>2025-12-07T12:31:05Z</time></trkpt>
<trkpt lat="43.0409770000" lon="0.6481230000"><ele>489</ele><time>2025-12-07T12:31:07Z</time></trkpt>
<trkpt lat="43.0409580000" lon="0.6481580000"><ele>489</ele><time>2025-12-07T12:31:09Z</time></trkpt>
<trkpt lat="43.0409450000" lon="0.6481900000"><ele>488</ele><time>2025-12-07T12:31:11Z</time></trkpt>
<trkpt lat="43.0409300000" lon="0.6482170000"><ele>489</ele><time>2025-12-07T12:31:13Z</time></trkpt>
<trkpt lat="43.0409120000" lon="0.6482420000"><ele>488</ele><time>2025-12-07T12:31:15Z</time></trkpt>
<trkpt lat="43.0408950000" lon="0.6482650000"><ele>488</ele><time>2025-12-07T12:31:17Z</time></trkpt>
<trkpt lat="43.0408770000" lon="0.6482850000"><ele>488</ele><time>2025-12-07T12:31:19Z</time></trkpt>
<trkpt lat="43.0408600000" lon="0.6483100000"><ele>488</ele><time>2025-12-07T12:31:21Z</time></trkpt>
<trkpt lat="43.0408470000" lon="0.6483280000"><ele>489</ele><time>2025-12-07T12:31:23Z</time></trkpt>
<trkpt lat="43.0408320000" lon="0.6483570000"><ele>488</ele><time>2025-12-07T12:31:25Z</time></trkpt>
<trkpt lat="43.0408150000" lon="0.6483820000"><ele>488</ele><time>2025-12-07T12:31:27Z</time></trkpt>
<trkpt lat="43.0407970000" lon="0.6483970000"><ele>489</ele><time>2025-12-07T12:31:29Z</time></trkpt>
<trkpt lat="43.0407820000" lon="0.6484250000"><ele>489</ele><time>2025-12-07T12:31:31Z</time></trkpt>
<trkpt lat="43.0407670000" lon="0.6484570000"><ele>488</ele><time>2025-12-07T12:31:33Z</time></trkpt>
<trkpt lat="43.0407570000" lon="0.6484870000"><ele>489</ele><time>2025-12-07T12:31:35Z</time></trkpt>
<trkpt lat="43.0407520000" lon="0.6485170000"><ele>489</ele><time>2025-12-07T12:31:37Z</time></trkpt>
<trkpt lat="43.0407470000" lon="0.6485470000"><ele>489</ele><time>2025-12-07T12:31:39Z</time></trkpt>
<trkpt lat="43.0407330000" lon="0.6485750000"><ele>489</ele><time>2025-12-07T12:31:41Z</time></trkpt>
<trkpt lat="43.0407220000" lon="0.6486050000"><ele>489</ele><time>2025-12-07T12:31:43Z</time></trkpt>
<trkpt lat="43.0407070000" lon="0.6486270000"><ele>489</ele><time>2025-12-07T12:31:45Z</time></trkpt>
<trkpt lat="43.0406870000" lon="0.6486570000"><ele>489</ele><time>2025-12-07T12:31:47Z</time></trkpt>
<trkpt lat="43.0406820000" lon="0.6486870000"><ele>489</ele><time>2025-12-07T12:31:49Z</time></trkpt>
<trkpt lat="43.0406720000" lon="0.6487120000"><ele>488</ele><time>2025-12-07T12:31:51Z</time></trkpt>
<trkpt lat="43.0406570000" lon="0.6487470000"><ele>489</ele><time>2025-12-07T12:31:53Z</time></trkpt>
<trkpt lat="43.0406420000" lon="0.6487720000"><ele>489</ele><time>2025-12-07T12:31:55Z</time></trkpt>
<trkpt lat="43.0406270000" lon="0.6488000000"><ele>489</ele><time>2025-12-07T12:31:57Z</time></trkpt>
<trkpt lat="43.0406070000" lon="0.6488300000"><ele>489</ele><time>2025-12-07T12:31:59Z</time></trkpt>
<trkpt lat="43.0405970000" lon="0.6488620000"><ele>489</ele><time>2025-12-07T12:32:01Z</time></trkpt>
<trkpt lat="43.0405820000" lon="0.6488870000"><ele>489</ele><time>2025-12-07T12:32:03Z</time></trkpt>
<trkpt lat="43.0405770000" lon="0.6489120000"><ele>489</ele><time>2025-12-07T12:32:05Z</time></trkpt>
<trkpt lat="43.0405650000" lon="0.6489430000"><ele>489</ele><time>2025-12-07T12:32:08Z</time></trkpt>
<trkpt lat="43.0405550000" lon="0.6489750000"><ele>489</ele><time>2025-12-07T12:32:10Z</time></trkpt>
<trkpt lat="43.0405370000" lon="0.6490070000"><ele>489</ele><time>2025-12-07T12:32:12Z</time></trkpt>
<trkpt lat="43.0405220000" lon="0.6490350000"><ele>489</ele><time>2025-12-07T12:32:14Z</time></trkpt>
<trkpt lat="43.0405150000" lon="0.6490620000"><ele>489</ele><time>2025-12-07T12:32:16Z</time></trkpt>
<trkpt lat="43.0405000000" lon="0.6490880000"><ele>489</ele><time>2025-12-07T12:32:18Z</time></trkpt>
<trkpt lat="43.0404870000" lon="0.6491170000"><ele>489</ele><time>2025-12-07T12:32:20Z</time></trkpt>
<trkpt lat="43.0404720000" lon="0.6491370000"><ele>489</ele><time>2025-12-07T12:32:22Z</time></trkpt>
<trkpt lat="43.0404550000" lon="0.6491580000"><ele>489</ele><time>2025-12-07T12:32:24Z</time></trkpt>
<trkpt lat="43.0404420000" lon="0.6491820000"><ele>489</ele><time>2025-12-07T12:32:26Z</time></trkpt>
<trkpt lat="43.0404270000" lon="0.6492050000"><ele>489</ele><time>2025-12-07T12:32:28Z</time></trkpt>
<trkpt lat="43.0404150000" lon="0.6492320000"><ele>489</ele><time>2025-12-07T12:32:30Z</time></trkpt>
<trkpt lat="43.0404070000" lon="0.6492750000"><ele>489</ele><time>2025-12-07T12:32:32Z</time></trkpt>
<trkpt lat="43.0404020000" lon="0.6493200000"><ele>489</ele><time>2025-12-07T12:32:34Z</time></trkpt>
<trkpt lat="43.0403920000" lon="0.6493570000"><ele>489</ele><time>2025-12-07T12:32:36Z</time></trkpt>
<trkpt lat="43.0403820000" lon="0.6493920000"><ele>489</ele><time>2025-12-07T12:32:38Z</time></trkpt>
<trkpt lat="43.0403700000" lon="0.6494250000"><ele>489</ele><time>2025-12-07T12:32:40Z</time></trkpt>
<trkpt lat="43.0403620000" lon="0.6494600000"><ele>489</ele><time>2025-12-07T12:32:42Z</time></trkpt>
<trkpt lat="43.0403520000" lon="0.6494900000"><ele>489</ele><time>2025-12-07T12:32:44Z</time></trkpt>
<trkpt lat="43.0403370000" lon="0.6495200000"><ele>489</ele><time>2025-12-07T12:32:46Z</time></trkpt>
<trkpt lat="43.0403220000" lon="0.6495420000"><ele>489</ele><time>2025-12-07T12:32:48Z</time></trkpt>
<trkpt lat="43.0403070000" lon="0.6495670000"><ele>489</ele><time>2025-12-07T12:32:50Z</time></trkpt>
<trkpt lat="43.0402950000" lon="0.6495920000"><ele>489</ele><time>2025-12-07T12:32:52Z</time></trkpt>
<trkpt lat="43.0402820000" lon="0.6496180000"><ele>489</ele><time>2025-12-07T12:32:54Z</time></trkpt>
<trkpt lat="43.0402720000" lon="0.6496470000"><ele>489</ele><time>2025-12-07T12:32:56Z</time></trkpt>
<trkpt lat="43.0402550000" lon="0.6496700000"><ele>489</ele><time>2025-12-07T12:32:58Z</time></trkpt>
<trkpt lat="43.0402400000" lon="0.6496950000"><ele>489</ele><time>2025-12-07T12:33:00Z</time></trkpt>
<trkpt lat="43.0402250000" lon="0.6497120000"><ele>489</ele><time>2025-12-07T12:33:02Z</time></trkpt>
<trkpt lat="43.0402120000" lon="0.6497370000"><ele>489</ele><time>2025-12-07T12:33:04Z</time></trkpt>
<trkpt lat="43.0402020000" lon="0.6497620000"><ele>489</ele><time>2025-12-07T12:33:06Z</time></trkpt>
<trkpt lat="43.0401850000" lon="0.6497870000"><ele>489</ele><time>2025-12-07T12:33:08Z</time></trkpt>
<trkpt lat="43.0401650000" lon="0.6498070000"><ele>490</ele><time>2025-12-07T12:33:10Z</time></trkpt>
<trkpt lat="43.0401470000" lon="0.6498320000"><ele>490</ele><time>2025-12-07T12:33:12Z</time></trkpt>
<trkpt lat="43.0401270000" lon="0.6498570000"><ele>490</ele><time>2025-12-07T12:33:14Z</time></trkpt>
<trkpt lat="43.0401120000" lon="0.6498770000"><ele>490</ele><time>2025-12-07T12:33:16Z</time></trkpt>
<trkpt lat="43.0400950000" lon="0.6498970000"><ele>490</ele><time>2025-12-07T12:33:18Z</time></trkpt>
<trkpt lat="43.0400720000" lon="0.6499220000"><ele>490</ele><time>2025-12-07T12:33:20Z</time></trkpt>
<trkpt lat="43.0400580000" lon="0.6499470000"><ele>490</ele><time>2025-12-07T12:33:22Z</time></trkpt>
<trkpt lat="43.0400400000" lon="0.6499670000"><ele>490</ele><time>2025-12-07T12:33:24Z</time></trkpt>
<trkpt lat="43.0400200000" lon="0.6499850000"><ele>490</ele><time>2025-12-07T12:33:26Z</time></trkpt>
<trkpt lat="43.0399970000" lon="0.6499970000"><ele>490</ele><time>2025-12-07T12:33:28Z</time></trkpt>
<trkpt lat="43.0399730000" lon="0.6500050000"><ele>490</ele><time>2025-12-07T12:33:30Z</time></trkpt>
<trkpt lat="43.0399520000" lon="0.6500150000"><ele>490</ele><time>2025-12-07T12:33:32Z</time></trkpt>
<trkpt lat="43.0399350000" lon="0.6500300000"><ele>490</ele><time>2025-12-07T12:33:35Z</time></trkpt>
<trkpt lat="43.0399120000" lon="0.6500350000"><ele>490</ele><time>2025-12-07T12:33:38Z</time></trkpt>
<trkpt lat="43.0398950000" lon="0.6500320000"><ele>490</ele><time>2025-12-07T12:33:40Z</time></trkpt>
<trkpt lat="43.0398670000" lon="0.6500270000"><ele>490</ele><time>2025-12-07T12:33:42Z</time></trkpt>
<trkpt lat="43.0398420000" lon="0.6500400000"><ele>491</ele><time>2025-12-07T12:33:44Z</time></trkpt>
<trkpt lat="43.0398150000" lon="0.6500520000"><ele>491</ele><time>2025-12-07T12:33:46Z</time></trkpt>
<trkpt lat="43.0397850000" lon="0.6500620000"><ele>491</ele><time>2025-12-07T12:33:48Z</time></trkpt>
<trkpt lat="43.0397570000" lon="0.6500600000"><ele>492</ele><time>2025-12-07T12:33:50Z</time></trkpt>
<trkpt lat="43.0397270000" lon="0.6500620000"><ele>492</ele><time>2025-12-07T12:33:52Z</time></trkpt>
<trkpt lat="43.0397020000" lon="0.6500520000"><ele>492</ele><time>2025-12-07T12:33:54Z</time></trkpt>
<trkpt lat="43.0396770000" lon="0.6500520000"><ele>492</ele><time>2025-12-07T12:33:56Z</time></trkpt>
<trkpt lat="43.0396570000" lon="0.6500470000"><ele>493</ele><time>2025-12-07T12:33:58Z</time></trkpt>
<trkpt lat="43.0396370000" lon="0.6500420000"><ele>493</ele><time>2025-12-07T12:34:00Z</time></trkpt>
<trkpt lat="43.0396120000" lon="0.6500320000"><ele>493</ele><time>2025-12-07T12:34:02Z</time></trkpt>
<trkpt lat="43.0395970000" lon="0.6500120000"><ele>493</ele><time>2025-12-07T12:34:04Z</time></trkpt>
<trkpt lat="43.0395720000" lon="0.6500020000"><ele>493</ele><time>2025-12-07T12:34:07Z</time></trkpt>
<trkpt lat="43.0395500000" lon="0.6499920000"><ele>494</ele><time>2025-12-07T12:34:09Z</time></trkpt>
<trkpt lat="43.0395220000" lon="0.6499800000"><ele>494</ele><time>2025-12-07T12:34:11Z</time></trkpt>
<trkpt lat="43.0394970000" lon="0.6499670000"><ele>494</ele><time>2025-12-07T12:34:14Z</time></trkpt>
<trkpt lat="43.0394800000" lon="0.6499530000"><ele>494</ele><time>2025-12-07T12:34:16Z</time></trkpt>
<trkpt lat="43.0394620000" lon="0.6499320000"><ele>494</ele><time>2025-12-07T12:34:19Z</time></trkpt>
<trkpt lat="43.0394530000" lon="0.6499070000"><ele>495</ele><time>2025-12-07T12:34:21Z</time></trkpt>
<trkpt lat="43.0394520000" lon="0.6498770000"><ele>495</ele><time>2025-12-07T12:34:23Z</time></trkpt>
<trkpt lat="43.0394500000" lon="0.6498470000"><ele>495</ele><time>2025-12-07T12:34:25Z</time></trkpt>
<trkpt lat="43.0394470000" lon="0.6498170000"><ele>495</ele><time>2025-12-07T12:34:27Z</time></trkpt>
<trkpt lat="43.0394520000" lon="0.6497920000"><ele>495</ele><time>2025-12-07T12:34:29Z</time></trkpt>
<trkpt lat="43.0394570000" lon="0.6497670000"><ele>494</ele><time>2025-12-07T12:34:31Z</time></trkpt>
<trkpt lat="43.0394600000" lon="0.6497330000"><ele>494</ele><time>2025-12-07T12:34:33Z</time></trkpt>
<trkpt lat="43.0394600000" lon="0.6497020000"><ele>494</ele><time>2025-12-07T12:34:35Z</time></trkpt>
<trkpt lat="43.0394670000" lon="0.6496720000"><ele>494</ele><time>2025-12-07T12:34:37Z</time></trkpt>
<trkpt lat="43.0394720000" lon="0.6496420000"><ele>494</ele><time>2025-12-07T12:34:39Z</time></trkpt>
<trkpt lat="43.0394770000" lon="0.6496070000"><ele>494</ele><time>2025-12-07T12:34:41Z</time></trkpt>
<trkpt lat="43.0394820000" lon="0.6495820000"><ele>494</ele><time>2025-12-07T12:34:43Z</time></trkpt>
<trkpt lat="43.0394850000" lon="0.6495550000"><ele>494</ele><time>2025-12-07T12:34:45Z</time></trkpt>
<trkpt lat="43.0394900000" lon="0.6495300000"><ele>494</ele><time>2025-12-07T12:34:47Z</time></trkpt>
<trkpt lat="43.0395000000" lon="0.6494950000"><ele>494</ele><time>2025-12-07T12:34:50Z</time></trkpt>
<trkpt lat="43.0395100000" lon="0.6494600000"><ele>494</ele><time>2025-12-07T12:34:53Z</time></trkpt>
<trkpt lat="43.0395170000" lon="0.6494280000"><ele>494</ele><time>2025-12-07T12:34:55Z</time></trkpt>
<trkpt lat="43.0395270000" lon="0.6493920000"><ele>493</ele><time>2025-12-07T12:34:57Z</time></trkpt>
<trkpt lat="43.0395320000" lon="0.6493550000"><ele>493</ele><time>2025-12-07T12:34:59Z</time></trkpt>
<trkpt lat="43.0395370000" lon="0.6493170000"><ele>493</ele><time>2025-12-07T12:35:01Z</time></trkpt>
<trkpt lat="43.0395400000" lon="0.6492820000"><ele>493</ele><time>2025-12-07T12:35:03Z</time></trkpt>
<trkpt lat="43.0395470000" lon="0.6492470000"><ele>493</ele><time>2025-12-07T12:35:05Z</time></trkpt>
<trkpt lat="43.0395500000" lon="0.6492120000"><ele>493</ele><time>2025-12-07T12:35:07Z</time></trkpt>
<trkpt lat="43.0395550000" lon="0.6491770000"><ele>493</ele><time>2025-12-07T12:35:09Z</time></trkpt>
<trkpt lat="43.0395570000" lon="0.6491450000"><ele>493</ele><time>2025-12-07T12:35:11Z</time></trkpt>
<trkpt lat="43.0395620000" lon="0.6491120000"><ele>493</ele><time>2025-12-07T12:35:13Z</time></trkpt>
<trkpt lat="43.0395670000" lon="0.6490780000"><ele>493</ele><time>2025-12-07T12:35:15Z</time></trkpt>
<trkpt lat="43.0395720000" lon="0.6490470000"><ele>493</ele><time>2025-12-07T12:35:17Z</time></trkpt>
<trkpt lat="43.0395770000" lon="0.6490220000"><ele>493</ele><time>2025-12-07T12:35:19Z</time></trkpt>
<trkpt lat="43.0395820000" lon="0.6489920000"><ele>493</ele><time>2025-12-07T12:35:21Z</time></trkpt>
<trkpt lat="43.0395850000" lon="0.6489620000"><ele>493</ele><time>2025-12-07T12:35:23Z</time></trkpt>
<trkpt lat="43.0395870000" lon="0.6489320000"><ele>493</ele><time>2025-12-07T12:35:25Z</time></trkpt>
<trkpt lat="43.0395920000" lon="0.6488970000"><ele>493</ele><time>2025-12-07T12:35:27Z</time></trkpt>
<trkpt lat="43.0395920000" lon="0.6488620000"><ele>493</ele><time>2025-12-07T12:35:29Z</time></trkpt>
<trkpt lat="43.0395970000" lon="0.6488250000"><ele>493</ele><time>2025-12-07T12:35:31Z</time></trkpt>
<trkpt lat="43.0396000000" lon="0.6487920000"><ele>492</ele><time>2025-12-07T12:35:33Z</time></trkpt>
<trkpt lat="43.0395970000" lon="0.6487570000"><ele>492</ele><time>2025-12-07T12:35:35Z</time></trkpt>
<trkpt lat="43.0395870000" lon="0.6487220000"><ele>492</ele><time>2025-12-07T12:35:37Z</time></trkpt>
<trkpt lat="43.0395870000" lon="0.6486850000"><ele>492</ele><time>2025-12-07T12:35:39Z</time></trkpt>
<trkpt lat="43.0395930000" lon="0.6486530000"><ele>492</ele><time>2025-12-07T12:35:41Z</time></trkpt>
<trkpt lat="43.0396020000" lon="0.6486220000"><ele>492</ele><time>2025-12-07T12:35:43Z</time></trkpt>
<trkpt lat="43.0396070000" lon="0.6485870000"><ele>492</ele><time>2025-12-07T12:35:45Z</time></trkpt>
<trkpt lat="43.0396120000" lon="0.6485520000"><ele>492</ele><time>2025-12-07T12:35:47Z</time></trkpt>
<trkpt lat="43.0396150000" lon="0.6485180000"><ele>492</ele><time>2025-12-07T12:35:49Z</time></trkpt>
<trkpt lat="43.0396170000" lon="0.6484830000"><ele>492</ele><time>2025-12-07T12:35:51Z</time></trkpt>
<trkpt lat="43.0396170000" lon="0.6484520000"><ele>492</ele><time>2025-12-07T12:35:53Z</time></trkpt>
<trkpt lat="43.0396170000" lon="0.6484170000"><ele>492</ele><time>2025-12-07T12:35:55Z</time></trkpt>
<trkpt lat="43.0396220000" lon="0.6483870000"><ele>492</ele><time>2025-12-07T12:35:57Z</time></trkpt>
<trkpt lat="43.0396220000" lon="0.6483520000"><ele>492</ele><time>2025-12-07T12:35:59Z</time></trkpt>
<trkpt lat="43.0396220000" lon="0.6483220000"><ele>492</ele><time>2025-12-07T12:36:01Z</time></trkpt>
<trkpt lat="43.0396250000" lon="0.6482870000"><ele>492</ele><time>2025-12-07T12:36:03Z</time></trkpt>
<trkpt lat="43.0396250000" lon="0.6482550000"><ele>492</ele><time>2025-12-07T12:36:05Z</time></trkpt>
<trkpt lat="43.0396250000" lon="0.6482200000"><ele>492</ele><time>2025-12-07T12:36:07Z</time></trkpt>
<trkpt lat="43.0396250000" lon="0.6481870000"><ele>492</ele><time>2025-12-07T12:36:09Z</time></trkpt>
<trkpt lat="43.0396270000" lon="0.6481520000"><ele>492</ele><time>2025-12-07T12:36:11Z</time></trkpt>
<trkpt lat="43.0396270000" lon="0.6481200000"><ele>492</ele><time>2025-12-07T12:36:13Z</time></trkpt>
<trkpt lat="43.0396250000" lon="0.6480850000"><ele>492</ele><time>2025-12-07T12:36:15Z</time></trkpt>
<trkpt lat="43.0396220000" lon="0.6480520000"><ele>492</ele><time>2025-12-07T12:36:17Z</time></trkpt>
<trkpt lat="43.0396220000" lon="0.6480150000"><ele>491</ele><time>2025-12-07T12:36:19Z</time></trkpt>
<trkpt lat="43.0396220000" lon="0.6479750000"><ele>491</ele><time>2025-12-07T12:36:21Z</time></trkpt>
<trkpt lat="43.0396200000" lon="0.6479370000"><ele>491</ele><time>2025-12-07T12:36:23Z</time></trkpt>
<trkpt lat="43.0396200000" lon="0.6479020000"><ele>491</ele><time>2025-12-07T12:36:25Z</time></trkpt>
<trkpt lat="43.0396170000" lon="0.6478670000"><ele>492</ele><time>2025-12-07T12:36:27Z</time></trkpt>
<trkpt lat="43.0396170000" lon="0.6478320000"><ele>492</ele><time>2025-12-07T12:36:29Z</time></trkpt>
<trkpt lat="43.0396170000" lon="0.6478000000"><ele>492</ele><time>2025-12-07T12:36:31Z</time></trkpt>
<trkpt lat="43.0396220000" lon="0.6477670000"><ele>492</ele><time>2025-12-07T12:36:33Z</time></trkpt>
<trkpt lat="43.0396270000" lon="0.6477400000"><ele>492</ele><time>2025-12-07T12:36:35Z</time></trkpt>
<trkpt lat="43.0396320000" lon="0.6477070000"><ele>492</ele><time>2025-12-07T12:36:37Z</time></trkpt>
<trkpt lat="43.0396320000" lon="0.6476720000"><ele>492</ele><time>2025-12-07T12:36:39Z</time></trkpt>
<trkpt lat="43.0396300000" lon="0.6476370000"><ele>492</ele><time>2025-12-07T12:36:41Z</time></trkpt>
<trkpt lat="43.0396250000" lon="0.6476100000"><ele>492</ele><time>2025-12-07T12:36:43Z</time></trkpt>
<trkpt lat="43.0396270000" lon="0.6475820000"><ele>491</ele><time>2025-12-07T12:36:50Z</time></trkpt>
<trkpt lat="43.0396220000" lon="0.6475500000"><ele>491</ele><time>2025-12-07T12:36:56Z</time></trkpt>
<trkpt lat="43.0396250000" lon="0.6475130000"><ele>491</ele><time>2025-12-07T12:36:58Z</time></trkpt>
<trkpt lat="43.0396220000" lon="0.6474770000"><ele>491</ele><time>2025-12-07T12:37:00Z</time></trkpt>
<trkpt lat="43.0396220000" lon="0.6474450000"><ele>491</ele><time>2025-12-07T12:37:02Z</time></trkpt>
<trkpt lat="43.0396220000" lon="0.6474150000"><ele>491</ele><time>2025-12-07T12:37:04Z</time></trkpt>
<trkpt lat="43.0396170000" lon="0.6473820000"><ele>491</ele><time>2025-12-07T12:37:06Z</time></trkpt>
<trkpt lat="43.0396170000" lon="0.6473520000"><ele>491</ele><time>2025-12-07T12:37:08Z</time></trkpt>
<trkpt lat="43.0396170000" lon="0.6473200000"><ele>491</ele><time>2025-12-07T12:37:10Z</time></trkpt>
<trkpt lat="43.0396220000" lon="0.6472870000"><ele>491</ele><time>2025-12-07T12:37:12Z</time></trkpt>
<trkpt lat="43.0396220000" lon="0.6472570000"><ele>491</ele><time>2025-12-07T12:37:14Z</time></trkpt>
<trkpt lat="43.0396220000" lon="0.6472270000"><ele>491</ele><time>2025-12-07T12:37:16Z</time></trkpt>
<trkpt lat="43.0396200000" lon="0.6471970000"><ele>491</ele><time>2025-12-07T12:37:18Z</time></trkpt>
<trkpt lat="43.0396220000" lon="0.6471620000"><ele>491</ele><time>2025-12-07T12:37:20Z</time></trkpt>
<trkpt lat="43.0396270000" lon="0.6471270000"><ele>491</ele><time>2025-12-07T12:37:22Z</time></trkpt>
<trkpt lat="43.0396270000" lon="0.6470920000"><ele>491</ele><time>2025-12-07T12:37:24Z</time></trkpt>
<trkpt lat="43.0396220000" lon="0.6470570000"><ele>491</ele><time>2025-12-07T12:37:26Z</time></trkpt>
<trkpt lat="43.0396220000" lon="0.6470270000"><ele>491</ele><time>2025-12-07T12:37:28Z</time></trkpt>
<trkpt lat="43.0396200000" lon="0.6469920000"><ele>491</ele><time>2025-12-07T12:37:30Z</time></trkpt>
<trkpt lat="43.0396170000" lon="0.6469570000"><ele>491</ele><time>2025-12-07T12:37:32Z</time></trkpt>
<trkpt lat="43.0396170000" lon="0.6469200000"><ele>491</ele><time>2025-12-07T12:37:34Z</time></trkpt>
<trkpt lat="43.0396170000" lon="0.6468850000"><ele>491</ele><time>2025-12-07T12:37:36Z</time></trkpt>
<trkpt lat="43.0396170000" lon="0.6468470000"><ele>491</ele><time>2025-12-07T12:37:38Z</time></trkpt>
<trkpt lat="43.0396200000" lon="0.6468150000"><ele>490</ele><time>2025-12-07T12:37:40Z</time></trkpt>
<trkpt lat="43.0396200000" lon="0.6467820000"><ele>490</ele><time>2025-12-07T12:37:42Z</time></trkpt>
<trkpt lat="43.0396220000" lon="0.6467520000"><ele>490</ele><time>2025-12-07T12:37:44Z</time></trkpt>
<trkpt lat="43.0396270000" lon="0.6467170000"><ele>490</ele><time>2025-12-07T12:37:46Z</time></trkpt>
<trkpt lat="43.0396320000" lon="0.6466870000"><ele>490</ele><time>2025-12-07T12:37:48Z</time></trkpt>
<trkpt lat="43.0396350000" lon="0.6466520000"><ele>490</ele><time>2025-12-07T12:37:50Z</time></trkpt>
<trkpt lat="43.0396350000" lon="0.6466220000"><ele>490</ele><time>2025-12-07T12:37:52Z</time></trkpt>
<trkpt lat="43.0396350000" lon="0.6465870000"><ele>490</ele><time>2025-12-07T12:37:54Z</time></trkpt>
<trkpt lat="43.0396320000" lon="0.6465520000"><ele>490</ele><time>2025-12-07T12:37:56Z</time></trkpt>
<trkpt lat="43.0396300000" lon="0.6465170000"><ele>490</ele><time>2025-12-07T12:37:58Z</time></trkpt>
<trkpt lat="43.0396300000" lon="0.6464820000"><ele>490</ele><time>2025-12-07T12:38:00Z</time></trkpt>
<trkpt lat="43.0396270000" lon="0.6464520000"><ele>490</ele><time>2025-12-07T12:38:02Z</time></trkpt>
<trkpt lat="43.0396270000" lon="0.6464130000"><ele>490</ele><time>2025-12-07T12:38:04Z</time></trkpt>
<trkpt lat="43.0396220000" lon="0.6463820000"><ele>490</ele><time>2025-12-07T12:38:06Z</time></trkpt>
<trkpt lat="43.0396220000" lon="0.6463520000"><ele>490</ele><time>2025-12-07T12:38:08Z</time></trkpt>
<trkpt lat="43.0396220000" lon="0.6463180000"><ele>490</ele><time>2025-12-07T12:38:10Z</time></trkpt>
<trkpt lat="43.0396170000" lon="0.6462820000"><ele>490</ele><time>2025-12-07T12:38:12Z</time></trkpt>
<trkpt lat="43.0396120000" lon="0.6462470000"><ele>490</ele><time>2025-12-07T12:38:14Z</time></trkpt>
<trkpt lat="43.0396050000" lon="0.6462170000"><ele>490</ele><time>2025-12-07T12:38:16Z</time></trkpt>
<trkpt lat="43.0395970000" lon="0.6461870000"><ele>490</ele><time>2025-12-07T12:38:18Z</time></trkpt>
<trkpt lat="43.0395920000" lon="0.6461570000"><ele>490</ele><time>2025-12-07T12:38:20Z</time></trkpt>
<trkpt lat="43.0395870000" lon="0.6461270000"><ele>490</ele><time>2025-12-07T12:38:22Z</time></trkpt>
<trkpt lat="43.0395820000" lon="0.6460920000"><ele>490</ele><time>2025-12-07T12:38:24Z</time></trkpt>
<trkpt lat="43.0395770000" lon="0.6460570000"><ele>490</ele><time>2025-12-07T12:38:26Z</time></trkpt>
<trkpt lat="43.0395670000" lon="0.6460220000"><ele>490</ele><time>2025-12-07T12:38:28Z</time></trkpt>
<trkpt lat="43.0395620000" lon="0.6459920000"><ele>490</ele><time>2025-12-07T12:38:30Z</time></trkpt>
<trkpt lat="43.0395570000" lon="0.6459600000"><ele>490</ele><time>2025-12-07T12:38:32Z</time></trkpt>
<trkpt lat="43.0395550000" lon="0.6459300000"><ele>490</ele><time>2025-12-07T12:38:34Z</time></trkpt>
<trkpt lat="43.0395420000" lon="0.6459030000"><ele>490</ele><time>2025-12-07T12:38:36Z</time></trkpt>
<trkpt lat="43.0395320000" lon="0.6458800000"><ele>490</ele><time>2025-12-07T12:38:38Z</time></trkpt>
<trkpt lat="43.0395270000" lon="0.6458570000"><ele>490</ele><time>2025-12-07T12:38:40Z</time></trkpt>
<trkpt lat="43.0395150000" lon="0.6458270000"><ele>490</ele><time>2025-12-07T12:38:42Z</time></trkpt>
<trkpt lat="43.0395070000" lon="0.6458020000"><ele>490</ele><time>2025-12-07T12:38:44Z</time></trkpt>
<trkpt lat="43.0395020000" lon="0.6457720000"><ele>490</ele><time>2025-12-07T12:38:46Z</time></trkpt>
<trkpt lat="43.0394970000" lon="0.6457470000"><ele>490</ele><time>2025-12-07T12:38:48Z</time></trkpt>
<trkpt lat="43.0395020000" lon="0.6457180000"><ele>490</ele><time>2025-12-07T12:38:50Z</time></trkpt>
<trkpt lat="43.0395020000" lon="0.6456920000"><ele>490</ele><time>2025-12-07T12:38:58Z</time></trkpt>
</trkseg>
</trk>
</gpx>